<?xml version='1.0' encoding='UTF-8'?><gpx version="1.1" creator="JPX - https://github.com/jenetics/jpx" xmlns="http://www.topografix.com/GPX/1/1"><trk><trkseg><trkpt lat="45.59958058257035" lon="8.626413077029394"><ele>233.0</ele><time>2026-05-03T13:56:56Z</time></trkpt><trkpt lat="45.59968359374775" lon="8.626341592956363"><ele>233.0</ele><time>2026-05-03T13:56:58Z</time></trkpt><trkpt lat="45.599802260015686" lon="8.626325313306571"><ele>233.0</ele><time>2026-05-03T13:56:59Z</time></trkpt><trkpt lat="45.59993230858097" lon="8.626283706345301"><ele>233.0</ele><time>2026-05-03T13:57:00Z</time></trkpt><trkpt lat="45.600087303683516" lon="8.626254600571043"><ele>233.0</ele><time>2026-05-03T13:57:01Z</time></trkpt><trkpt lat="45.60025442484726" lon="8.626201594733695"><ele>233.0</ele><time>2026-05-03T13:57:02Z</time></trkpt><trkpt lat="45.600412426657506" lon="8.62613473768769"><ele>233.0</ele><time>2026-05-03T13:57:03Z</time></trkpt><trkpt lat="45.60056816076919" lon="8.626058708767987"><ele>233.0</ele><time>2026-05-03T13:57:04Z</time></trkpt><trkpt lat="45.600715367960035" lon="8.625986137603016"><ele>233.0</ele><time>2026-05-03T13:57:05Z</time></trkpt><trkpt lat="45.60085443121734" lon="8.62592564656759"><ele>233.0</ele><time>2026-05-03T13:57:06Z</time></trkpt><trkpt lat="45.60099286639018" lon="8.625859558057977"><ele>233.0</ele><time>2026-05-03T13:57:07Z</time></trkpt><trkpt lat="45.601131787058215" lon="8.62580295186391"><ele>232.75</ele><time>2026-05-03T13:57:08Z</time></trkpt><trkpt lat="45.6012722203087" lon="8.625745130997293"><ele>232.5</ele><time>2026-05-03T13:57:09Z</time></trkpt><trkpt lat="45.60140135744586" lon="8.625698341275639"><ele>232.25</ele><time>2026-05-03T13:57:10Z</time></trkpt><trkpt lat="45.601532365093114" lon="8.62564429395584"><ele>232.0</ele><time>2026-05-03T13:57:11Z</time></trkpt><trkpt lat="45.60166865269207" lon="8.62558184157154"><ele>232.0</ele><time>2026-05-03T13:57:12Z</time></trkpt><trkpt lat="45.601788745703864" lon="8.625535809356876"><ele>232.0</ele><time>2026-05-03T13:57:13Z</time></trkpt><trkpt lat="45.601870470480286" lon="8.62550303217333"><ele>232.0</ele><time>2026-05-03T13:57:13.999Z</time></trkpt><trkpt lat="45.60190484835697" lon="8.625424251008667"><ele>232.0</ele><time>2026-05-03T13:57:15.999Z</time></trkpt><trkpt lat="45.60188424759285" lon="8.625315230510177"><ele>232.0</ele><time>2026-05-03T13:57:16.999Z</time></trkpt><trkpt lat="45.60182980041996" lon="8.625146366871864"><ele>232.0</ele><time>2026-05-03T13:57:17.999Z</time></trkpt><trkpt lat="45.60178551182165" lon="8.624930598869796"><ele>232.0</ele><time>2026-05-03T13:57:18.999Z</time></trkpt><trkpt lat="45.601752760905846" lon="8.624709401134533"><ele>232.0</ele><time>2026-05-03T13:57:19.999Z</time></trkpt><trkpt lat="45.60171872527312" lon="8.624484083912577"><ele>232.0</ele><time>2026-05-03T13:57:20.999Z</time></trkpt><trkpt lat="45.6016635679444" lon="8.62427648312956"><ele>232.0</ele><time>2026-05-03T13:57:21.999Z</time></trkpt><trkpt lat="45.6016442776544" lon="8.624134553682367"><ele>232.0</ele><time>2026-05-03T13:57:22.999Z</time></trkpt><trkpt lat="45.601618932558445" lon="8.62403641012333"><ele>232.0</ele><time>2026-05-03T13:57:23.999Z</time></trkpt><trkpt lat="45.60158051276649" lon="8.623912174427867"><ele>232.0</ele><time>2026-05-03T13:57:29.999Z</time></trkpt><trkpt lat="45.60155561841822" lon="8.623808899038135"><ele>232.0</ele><time>2026-05-03T13:57:30.999Z</time></trkpt><trkpt lat="45.60153155111616" lon="8.623664639844595"><ele>232.0</ele><time>2026-05-03T13:57:31.999Z</time></trkpt><trkpt lat="45.60148879087917" lon="8.62349562775031"><ele>232.0</ele><time>2026-05-03T13:57:32.999Z</time></trkpt><trkpt lat="45.601440343796625" lon="8.623312962504496"><ele>232.0</ele><time>2026-05-03T13:57:33.999Z</time></trkpt><trkpt lat="45.601396831298125" lon="8.623115576543505"><ele>232.0</ele><time>2026-05-03T13:57:34.999Z</time></trkpt><trkpt lat="45.601352508707706" lon="8.622912168171192"><ele>232.0</ele><time>2026-05-03T13:57:35.999Z</time></trkpt><trkpt lat="45.60131238288849" lon="8.622711858711734"><ele>232.0</ele><time>2026-05-03T13:57:36.999Z</time></trkpt><trkpt lat="45.60127017216571" lon="8.622525944413455"><ele>232.0</ele><time>2026-05-03T13:57:37.999Z</time></trkpt><trkpt lat="45.60122652683709" lon="8.622331506423846"><ele>232.0</ele><time>2026-05-03T13:57:38.999Z</time></trkpt><trkpt lat="45.60118818090494" lon="8.622134373747452"><ele>232.0</ele><time>2026-05-03T13:57:39.999Z</time></trkpt><trkpt lat="45.60114524096814" lon="8.621948355740098"><ele>232.0</ele><time>2026-05-03T13:57:40.999Z</time></trkpt><trkpt lat="45.60110916882734" lon="8.621775304391843"><ele>232.0</ele><time>2026-05-03T13:57:41.999Z</time></trkpt><trkpt lat="45.60106610865952" lon="8.621599759249706"><ele>231.25</ele><time>2026-05-03T13:57:42.999Z</time></trkpt><trkpt lat="45.6010233705565" lon="8.621413558383242"><ele>230.5</ele><time>2026-05-03T13:57:43.999Z</time></trkpt><trkpt lat="45.60098497993154" lon="8.621216794708564"><ele>229.75</ele><time>2026-05-03T13:57:44.999Z</time></trkpt><trkpt lat="45.60094546521961" lon="8.621016535949945"><ele>229.0</ele><time>2026-05-03T13:57:45.999Z</time></trkpt><trkpt lat="45.60090729468539" lon="8.620806259246368"><ele>229.0</ele><time>2026-05-03T13:57:46.999Z</time></trkpt><trkpt lat="45.600863670249886" lon="8.620589136439897"><ele>229.0</ele><time>2026-05-03T13:57:47.999Z</time></trkpt><trkpt lat="45.60082034587868" lon="8.620374152106843"><ele>229.0</ele><time>2026-05-03T13:57:48.999Z</time></trkpt><trkpt lat="45.6007756671759" lon="8.620176245944016"><ele>229.0</ele><time>2026-05-03T13:57:49.999Z</time></trkpt><trkpt lat="45.60073095722728" lon="8.619980780918086"><ele>229.0</ele><time>2026-05-03T13:57:50.999Z</time></trkpt><trkpt lat="45.6006857746406" lon="8.619797055668446"><ele>229.0</ele><time>2026-05-03T13:57:51.999Z</time></trkpt><trkpt lat="45.600647309680696" lon="8.619649959912731"><ele>229.0</ele><time>2026-05-03T13:57:52.999Z</time></trkpt><trkpt lat="45.600609327201816" lon="8.619478765099135"><ele>229.0</ele><time>2026-05-03T13:57:53.999Z</time></trkpt><trkpt lat="45.60056709005545" lon="8.61929352729769"><ele>229.0</ele><time>2026-05-03T13:57:54.999Z</time></trkpt><trkpt lat="45.60052251631852" lon="8.619096301552098"><ele>229.0</ele><time>2026-05-03T13:57:55.998Z</time></trkpt><trkpt lat="45.600479254224425" lon="8.618906985069454"><ele>229.0</ele><time>2026-05-03T13:57:56.998Z</time></trkpt><trkpt lat="45.60043743482166" lon="8.618720310810145"><ele>228.75</ele><time>2026-05-03T13:57:57.998Z</time></trkpt><trkpt lat="45.60039685539734" lon="8.618535861659955"><ele>228.5</ele><time>2026-05-03T13:57:58.998Z</time></trkpt><trkpt lat="45.600358607579466" lon="8.618375128681947"><ele>228.25</ele><time>2026-05-03T13:57:59.998Z</time></trkpt><trkpt lat="45.600323032790904" lon="8.61822601937135"><ele>228.0</ele><time>2026-05-03T13:58:00.998Z</time></trkpt><trkpt lat="45.60029084389499" lon="8.61806778360522"><ele>227.75</ele><time>2026-05-03T13:58:01.998Z</time></trkpt><trkpt lat="45.600274589074715" lon="8.617891117662664"><ele>227.5</ele><time>2026-05-03T13:58:02.998Z</time></trkpt><trkpt lat="45.600265172718125" lon="8.617707198844808"><ele>227.25</ele><time>2026-05-03T13:58:03.998Z</time></trkpt><trkpt lat="45.600252903594104" lon="8.617530995880223"><ele>227.0</ele><time>2026-05-03T13:58:04.998Z</time></trkpt><trkpt lat="45.6002432933341" lon="8.61735157239893"><ele>227.33333333333334</ele><time>2026-05-03T13:58:05.998Z</time></trkpt><trkpt lat="45.600234034749086" lon="8.617197699242803"><ele>227.66666666666669</ele><time>2026-05-03T13:58:06.998Z</time></trkpt><trkpt lat="45.600238188373325" lon="8.617058958176203"><ele>228.0</ele><time>2026-05-03T13:58:07.998Z</time></trkpt><trkpt lat="45.6002424948661" lon="8.616932506531523"><ele>228.33333333333331</ele><time>2026-05-03T13:58:08.998Z</time></trkpt><trkpt lat="45.600250437030745" lon="8.61683429551616"><ele>228.66666666666666</ele><time>2026-05-03T13:58:09.998Z</time></trkpt><trkpt lat="45.60023278907785" lon="8.616739441463322"><ele>229.0</ele><time>2026-05-03T13:58:10.998Z</time></trkpt><trkpt lat="45.60022955120149" lon="8.616624215338655"><ele>229.2</ele><time>2026-05-03T13:58:11.998Z</time></trkpt><trkpt lat="45.60023597088814" lon="8.616493650963235"><ele>229.39999999999998</ele><time>2026-05-03T13:58:12.998Z</time></trkpt><trkpt lat="45.600247570754746" lon="8.61635539446424"><ele>229.6</ele><time>2026-05-03T13:58:13.998Z</time></trkpt><trkpt lat="45.60027424755539" lon="8.616215894053314"><ele>229.8</ele><time>2026-05-03T13:58:14.998Z</time></trkpt><trkpt lat="45.60027700931908" lon="8.616059351150916"><ele>230.0</ele><time>2026-05-03T13:58:15.998Z</time></trkpt><trkpt lat="45.60029508027102" lon="8.615910640615882"><ele>229.66666666666669</ele><time>2026-05-03T13:58:16.998Z</time></trkpt><trkpt lat="45.60031236545754" lon="8.615797247810448"><ele>229.33333333333334</ele><time>2026-05-03T13:58:17.998Z</time></trkpt><trkpt lat="45.60032338595614" lon="8.615697472201004"><ele>229.0</ele><time>2026-05-03T13:58:18.998Z</time></trkpt><trkpt lat="45.60026756664886" lon="8.615591061795508"><ele>228.66666666666669</ele><time>2026-05-03T13:58:20.998Z</time></trkpt><trkpt lat="45.600194155905704" lon="8.615539951348113"><ele>228.33333333333334</ele><time>2026-05-03T13:58:21.998Z</time></trkpt><trkpt lat="45.600098464673124" lon="8.615478790106454"><ele>228.0</ele><time>2026-05-03T13:58:23.001Z</time></trkpt><trkpt lat="45.599978264585395" lon="8.615382395297264"><ele>228.0</ele><time>2026-05-03T13:58:24.001Z</time></trkpt><trkpt lat="45.599856073797966" lon="8.615283009828186"><ele>228.0</ele><time>2026-05-03T13:58:25.001Z</time></trkpt><trkpt lat="45.59973557429146" lon="8.615196279140747"><ele>228.0</ele><time>2026-05-03T13:58:26.001Z</time></trkpt><trkpt lat="45.59960761329519" lon="8.61511861998981"><ele>228.0</ele><time>2026-05-03T13:58:27.001Z</time></trkpt><trkpt lat="45.59949360843094" lon="8.615039008497039"><ele>228.0</ele><time>2026-05-03T13:58:28.001Z</time></trkpt><trkpt lat="45.599405766355744" lon="8.614954602689016"><ele>228.0</ele><time>2026-05-03T13:58:29.001Z</time></trkpt><trkpt lat="45.59934966383807" lon="8.614878422040132"><ele>228.0</ele><time>2026-05-03T13:58:30.001Z</time></trkpt><trkpt lat="45.59930827299246" lon="8.614763635730329"><ele>228.0</ele><time>2026-05-03T13:58:31Z</time></trkpt><trkpt lat="45.59929114647175" lon="8.614613470625754"><ele>228.0</ele><time>2026-05-03T13:58:32.001Z</time></trkpt><trkpt lat="45.59927647991721" lon="8.614418569200124"><ele>228.2</ele><time>2026-05-03T13:58:33.001Z</time></trkpt><trkpt lat="45.59926220009952" lon="8.614252451999596"><ele>228.4</ele><time>2026-05-03T13:58:34Z</time></trkpt><trkpt lat="45.59924766364386" lon="8.614114750371717"><ele>228.59999999999997</ele><time>2026-05-03T13:58:35Z</time></trkpt><trkpt lat="45.59922557956634" lon="8.61399331005294"><ele>228.79999999999998</ele><time>2026-05-03T13:58:36Z</time></trkpt><trkpt lat="45.59918305547422" lon="8.613907024013352"><ele>229.0</ele><time>2026-05-03T13:58:37Z</time></trkpt><trkpt lat="45.59912661758897" lon="8.61383928475725"><ele>229.0</ele><time>2026-05-03T13:58:38Z</time></trkpt><trkpt lat="45.59906508424054" lon="8.613758946945225"><ele>228.99999999999997</ele><time>2026-05-03T13:58:39Z</time></trkpt><trkpt lat="45.59901977884851" lon="8.61365776867047"><ele>228.99999999999997</ele><time>2026-05-03T13:58:40Z</time></trkpt><trkpt lat="45.598977883637104" lon="8.613584826074696"><ele>229.0</ele><time>2026-05-03T13:58:41Z</time></trkpt><trkpt lat="45.59892991058078" lon="8.613491538225379"><ele>229.0</ele><time>2026-05-03T13:58:43Z</time></trkpt><trkpt lat="45.599018948302955" lon="8.613290126496073"><ele>229.16666666666666</ele><time>2026-05-03T13:58:47Z</time></trkpt><trkpt lat="45.59903150433726" lon="8.613171410191658"><ele>229.33333333333331</ele><time>2026-05-03T13:58:48Z</time></trkpt><trkpt lat="45.59906608555244" lon="8.61307141540565"><ele>229.5</ele><time>2026-05-03T13:58:49Z</time></trkpt><trkpt lat="45.59908342753387" lon="8.61298286901131"><ele>229.66666666666669</ele><time>2026-05-03T13:58:50Z</time></trkpt><trkpt lat="45.5991074010797" lon="8.612855100839496"><ele>229.83333333333334</ele><time>2026-05-03T13:58:52Z</time></trkpt><trkpt lat="45.599184289695806" lon="8.61283090871287"><ele>230.0</ele><time>2026-05-03T13:58:56Z</time></trkpt><trkpt lat="45.59930521856375" lon="8.612853043276663"><ele>230.00000000000003</ele><time>2026-05-03T13:58:58Z</time></trkpt><trkpt lat="45.599377085856396" lon="8.612877847485226"><ele>230.0</ele><time>2026-05-03T13:58:59Z</time></trkpt><trkpt lat="45.59946344362728" lon="8.612890510110828"><ele>230.0</ele><time>2026-05-03T13:59:00Z</time></trkpt><trkpt lat="45.5995517127599" lon="8.612880407973437"><ele>230.0</ele><time>2026-05-03T13:59:01Z</time></trkpt><trkpt lat="45.59962636098852" lon="8.6128399869215"><ele>230.00000000000003</ele><time>2026-05-03T13:59:02Z</time></trkpt><trkpt lat="45.599695689745964" lon="8.612766949928655"><ele>230.0</ele><time>2026-05-03T13:59:03Z</time></trkpt><trkpt lat="45.599757498569325" lon="8.612710922219275"><ele>230.16666666666669</ele><time>2026-05-03T13:59:04Z</time></trkpt><trkpt lat="45.599866886984984" lon="8.61262253129391"><ele>230.33333333333334</ele><time>2026-05-03T13:59:06Z</time></trkpt><trkpt lat="45.599933158971034" lon="8.612568517097758"><ele>230.5</ele><time>2026-05-03T13:59:07Z</time></trkpt><trkpt lat="45.59999620707422" lon="8.612520615603685"><ele>230.66666666666669</ele><time>2026-05-03T13:59:08Z</time></trkpt><trkpt lat="45.600056918802814" lon="8.612473542287734"><ele>230.83333333333334</ele><time>2026-05-03T13:59:09Z</time></trkpt><trkpt lat="45.600121088486915" lon="8.612418156131463"><ele>231.0</ele><time>2026-05-03T13:59:10Z</time></trkpt><trkpt lat="45.60017236547511" lon="8.612351061520183"><ele>231.0</ele><time>2026-05-03T13:59:11Z</time></trkpt><trkpt lat="45.600209523558526" lon="8.612233751073935"><ele>231.00000000000003</ele><time>2026-05-03T13:59:12Z</time></trkpt><trkpt lat="45.600237735233364" lon="8.612099253453454"><ele>231.00000000000003</ele><time>2026-05-03T13:59:13Z</time></trkpt><trkpt lat="45.600263151920316" lon="8.61195371123298"><ele>231.0</ele><time>2026-05-03T13:59:14Z</time></trkpt><trkpt lat="45.60027909038202" lon="8.611794699241292"><ele>231.0</ele><time>2026-05-03T13:59:15Z</time></trkpt><trkpt lat="45.60032034525189" lon="8.611638303982804"><ele>231.25</ele><time>2026-05-03T13:59:15.999Z</time></trkpt><trkpt lat="45.60035047400522" lon="8.6114753023803"><ele>231.5</ele><time>2026-05-03T13:59:16.999Z</time></trkpt><trkpt lat="45.60037961760495" lon="8.611308969696031"><ele>231.75</ele><time>2026-05-03T13:59:17.999Z</time></trkpt><trkpt lat="45.60039894206081" lon="8.611135652084597"><ele>232.0</ele><time>2026-05-03T13:59:18.999Z</time></trkpt><trkpt lat="45.60043404172089" lon="8.610966164091835"><ele>232.0</ele><time>2026-05-03T13:59:19.999Z</time></trkpt><trkpt lat="45.600461154643504" lon="8.610797616408565"><ele>232.0</ele><time>2026-05-03T13:59:20.999Z</time></trkpt><trkpt lat="45.6004937485777" lon="8.610645479137437"><ele>232.0</ele><time>2026-05-03T13:59:21.999Z</time></trkpt><trkpt lat="45.600580997610344" lon="8.610527596716704"><ele>232.0</ele><time>2026-05-03T13:59:22.999Z</time></trkpt><trkpt lat="45.60064770255516" lon="8.61038310791243"><ele>232.5</ele><time>2026-05-03T13:59:23.999Z</time></trkpt><trkpt lat="45.60071030697288" lon="8.610231329628391"><ele>233.0</ele><time>2026-05-03T13:59:24.999Z</time></trkpt><trkpt lat="45.60075466496978" lon="8.610060720609034"><ele>233.5</ele><time>2026-05-03T13:59:25.999Z</time></trkpt><trkpt lat="45.600777724289536" lon="8.609868358360018"><ele>234.0</ele><time>2026-05-03T13:59:26.999Z</time></trkpt><trkpt lat="45.60079919182338" lon="8.609662623647344"><ele>234.25</ele><time>2026-05-03T13:59:27.999Z</time></trkpt><trkpt lat="45.600819051109184" lon="8.609455504379286"><ele>234.5</ele><time>2026-05-03T13:59:28.999Z</time></trkpt><trkpt lat="45.60083686931758" lon="8.609251554956861"><ele>234.75</ele><time>2026-05-03T13:59:29.999Z</time></trkpt><trkpt lat="45.600851868037886" lon="8.6090407577646"><ele>235.0</ele><time>2026-05-03T13:59:30.999Z</time></trkpt><trkpt lat="45.60086433832225" lon="8.608858651116257"><ele>235.0</ele><time>2026-05-03T13:59:31.999Z</time></trkpt><trkpt lat="45.600874543129514" lon="8.608709632358552"><ele>235.0</ele><time>2026-05-03T13:59:32.999Z</time></trkpt><trkpt lat="45.60087005660577" lon="8.60856446999424"><ele>235.0</ele><time>2026-05-03T13:59:33.999Z</time></trkpt><trkpt lat="45.60090610558104" lon="8.608458650528586"><ele>235.0</ele><time>2026-05-03T13:59:34.999Z</time></trkpt><trkpt lat="45.600968629221526" lon="8.608382020333895"><ele>235.0</ele><time>2026-05-03T13:59:35.999Z</time></trkpt><trkpt lat="45.60107107817212" lon="8.60831703440805"><ele>235.0</ele><time>2026-05-03T13:59:36.999Z</time></trkpt><trkpt lat="45.601142179470344" lon="8.608240693003559"><ele>235.0</ele><time>2026-05-03T13:59:37.999Z</time></trkpt><trkpt lat="45.60118800645842" lon="8.608102526393193"><ele>235.0</ele><time>2026-05-03T13:59:38.999Z</time></trkpt><trkpt lat="45.601208866655575" lon="8.607906927694982"><ele>235.0</ele><time>2026-05-03T13:59:39.999Z</time></trkpt><trkpt lat="45.60123051520125" lon="8.607661822217874"><ele>235.0</ele><time>2026-05-03T13:59:40.999Z</time></trkpt><trkpt lat="45.601265152992696" lon="8.607409828944284"><ele>235.0</ele><time>2026-05-03T13:59:41.999Z</time></trkpt><trkpt lat="45.601304244288215" lon="8.607135277781634"><ele>235.0</ele><time>2026-05-03T13:59:42.999Z</time></trkpt><trkpt lat="45.60134609890868" lon="8.60685107602687"><ele>235.0</ele><time>2026-05-03T13:59:43.999Z</time></trkpt><trkpt lat="45.601387326609846" lon="8.606576090183834"><ele>235.0</ele><time>2026-05-03T13:59:44.999Z</time></trkpt><trkpt lat="45.60142240985412" lon="8.606348128242375"><ele>235.0</ele><time>2026-05-03T13:59:45.999Z</time></trkpt><trkpt lat="45.60145213062127" lon="8.606142308821553"><ele>234.6</ele><time>2026-05-03T13:59:46.999Z</time></trkpt><trkpt lat="45.60147688287042" lon="8.605960494097623"><ele>234.2</ele><time>2026-05-03T13:59:47.999Z</time></trkpt><trkpt lat="45.60149734473958" lon="8.60579724728977"><ele>233.8</ele><time>2026-05-03T13:59:48.999Z</time></trkpt><trkpt lat="45.601518977907205" lon="8.605652384818013"><ele>233.4</ele><time>2026-05-03T13:59:49.999Z</time></trkpt><trkpt lat="45.60154293522386" lon="8.605536708354755"><ele>233.0</ele><time>2026-05-03T13:59:50.999Z</time></trkpt><trkpt lat="45.60156430688494" lon="8.605438775293974"><ele>233.00000000000003</ele><time>2026-05-03T13:59:51.999Z</time></trkpt><trkpt lat="45.60154725462199" lon="8.605343216037676"><ele>233.0</ele><time>2026-05-03T13:59:52.999Z</time></trkpt><trkpt lat="45.601463263142186" lon="8.605277398912586"><ele>233.0</ele><time>2026-05-03T13:59:53.999Z</time></trkpt><trkpt lat="45.60135693072924" lon="8.60522234727632"><ele>233.0</ele><time>2026-05-03T13:59:54.999Z</time></trkpt><trkpt lat="45.601263441188344" lon="8.605182921375537"><ele>233.00000000000003</ele><time>2026-05-03T13:59:55.999Z</time></trkpt><trkpt lat="45.60120691314279" lon="8.605139591464395"><ele>233.0</ele><time>2026-05-03T13:59:56.999Z</time></trkpt><trkpt lat="45.601186915612175" lon="8.604957014163078"><ele>232.25</ele><time>2026-05-03T13:59:58.998Z</time></trkpt><trkpt lat="45.601211981441146" lon="8.604823386828642"><ele>231.5</ele><time>2026-05-03T13:59:59.998Z</time></trkpt><trkpt lat="45.60127161781759" lon="8.60464241904182"><ele>230.75</ele><time>2026-05-03T14:00:00.998Z</time></trkpt><trkpt lat="45.601324445419934" lon="8.604429012357619"><ele>230.0</ele><time>2026-05-03T14:00:01.998Z</time></trkpt><trkpt lat="45.6013751009526" lon="8.604277473737518"><ele>229.75</ele><time>2026-05-03T14:00:02.998Z</time></trkpt><trkpt lat="45.60144080531261" lon="8.604168422116953"><ele>229.5</ele><time>2026-05-03T14:00:03.998Z</time></trkpt><trkpt lat="45.601523783763746" lon="8.604068514594589"><ele>229.25</ele><time>2026-05-03T14:00:04.998Z</time></trkpt><trkpt lat="45.60162459899925" lon="8.603967024910943"><ele>229.0</ele><time>2026-05-03T14:00:05.998Z</time></trkpt><trkpt lat="45.60172288512151" lon="8.603857314417752"><ele>228.99999999999997</ele><time>2026-05-03T14:00:06.998Z</time></trkpt><trkpt lat="45.60180721519919" lon="8.603759924779922"><ele>229.0</ele><time>2026-05-03T14:00:07.998Z</time></trkpt><trkpt lat="45.60188024915972" lon="8.603674304503595"><ele>229.0</ele><time>2026-05-03T14:00:08.998Z</time></trkpt><trkpt lat="45.6019508527491" lon="8.60360744563094"><ele>229.0</ele><time>2026-05-03T14:00:09.998Z</time></trkpt><trkpt lat="45.60201813727468" lon="8.603557192099743"><ele>228.99999999999997</ele><time>2026-05-03T14:00:10.998Z</time></trkpt><trkpt lat="45.602093237522105" lon="8.603526575645745"><ele>229.0</ele><time>2026-05-03T14:00:11.998Z</time></trkpt><trkpt lat="45.60217245533055" lon="8.603510194686004"><ele>228.99999999999997</ele><time>2026-05-03T14:00:12.998Z</time></trkpt><trkpt lat="45.602245206270275" lon="8.60348763565217"><ele>229.0</ele><time>2026-05-03T14:00:13.998Z</time></trkpt><trkpt lat="45.602303231265395" lon="8.603422677912212"><ele>229.0</ele><time>2026-05-03T14:00:14.998Z</time></trkpt><trkpt lat="45.60235665413791" lon="8.603302360602942"><ele>229.0</ele><time>2026-05-03T14:00:15.998Z</time></trkpt><trkpt lat="45.60240585091669" lon="8.603163432903632"><ele>228.99999999999997</ele><time>2026-05-03T14:00:16.998Z</time></trkpt><trkpt lat="45.60242836304838" lon="8.60306259505417"><ele>229.0</ele><time>2026-05-03T14:00:17.998Z</time></trkpt><trkpt lat="45.60246353625995" lon="8.602949983547719"><ele>228.99999999999997</ele><time>2026-05-03T14:00:19.998Z</time></trkpt><trkpt lat="45.60248160120882" lon="8.602860677968637"><ele>229.0</ele><time>2026-05-03T14:00:21.998Z</time></trkpt><trkpt lat="45.60251657862654" lon="8.602765741726824"><ele>229.0</ele><time>2026-05-03T14:00:24.998Z</time></trkpt><trkpt lat="45.602531680196336" lon="8.602646951737892"><ele>229.0</ele><time>2026-05-03T14:00:27.998Z</time></trkpt><trkpt lat="45.60249751026926" lon="8.60254677652615"><ele>228.99999999999997</ele><time>2026-05-03T14:00:33Z</time></trkpt><trkpt lat="45.602469862291564" lon="8.60243717611748"><ele>229.0</ele><time>2026-05-03T14:00:36Z</time></trkpt><trkpt lat="45.60251337132465" lon="8.602348310997481"><ele>228.99999999999997</ele><time>2026-05-03T14:00:37Z</time></trkpt><trkpt lat="45.602551979878776" lon="8.602174227757082"><ele>229.0</ele><time>2026-05-03T14:00:39Z</time></trkpt><trkpt lat="45.60252234276641" lon="8.602068954840316"><ele>229.0</ele><time>2026-05-03T14:00:40Z</time></trkpt><trkpt lat="45.6025085956679" lon="8.601969028771112"><ele>229.0</ele><time>2026-05-03T14:00:41Z</time></trkpt><trkpt lat="45.60250382542618" lon="8.601877482720962"><ele>228.99999999999997</ele><time>2026-05-03T14:00:42Z</time></trkpt><trkpt lat="45.60252369314637" lon="8.601732762012798"><ele>229.0</ele><time>2026-05-03T14:00:43Z</time></trkpt><trkpt lat="45.60253027483784" lon="8.601584756425131"><ele>229.2</ele><time>2026-05-03T14:00:44Z</time></trkpt><trkpt lat="45.60256663378369" lon="8.60140385453193"><ele>229.39999999999998</ele><time>2026-05-03T14:00:45Z</time></trkpt><trkpt lat="45.60260050409864" lon="8.60127773309199"><ele>229.6</ele><time>2026-05-03T14:00:46Z</time></trkpt><trkpt lat="45.60260970218041" lon="8.60118318989422"><ele>229.8</ele><time>2026-05-03T14:00:47Z</time></trkpt><trkpt lat="45.60265344210796" lon="8.601081623814748"><ele>230.0</ele><time>2026-05-03T14:00:49Z</time></trkpt><trkpt lat="45.602727567316805" lon="8.601014020990723"><ele>230.00000000000003</ele><time>2026-05-03T14:00:52Z</time></trkpt><trkpt lat="45.60274576447178" lon="8.601103687013767"><ele>230.0</ele><time>2026-05-03T14:00:56Z</time></trkpt><trkpt lat="45.602668461735384" lon="8.601133708711934"><ele>230.0</ele><time>2026-05-03T14:00:58Z</time></trkpt><trkpt lat="45.602589583682835" lon="8.601159115394987"><ele>230.0</ele><time>2026-05-03T14:01:00Z</time></trkpt><trkpt lat="45.602553110930906" lon="8.601326118419562"><ele>230.00000000000003</ele><time>2026-05-03T14:01:02Z</time></trkpt><trkpt lat="45.60255068285053" lon="8.601439783445297"><ele>230.0</ele><time>2026-05-03T14:01:03Z</time></trkpt><trkpt lat="45.60253758250924" lon="8.601549826602108"><ele>230.0</ele><time>2026-05-03T14:01:04Z</time></trkpt><trkpt lat="45.60252287858486" lon="8.601640110390765"><ele>230.0</ele><time>2026-05-03T14:01:05Z</time></trkpt><trkpt lat="45.60249234637323" lon="8.601785330087536"><ele>230.0</ele><time>2026-05-03T14:01:07Z</time></trkpt><trkpt lat="45.602492732004414" lon="8.60195913085143"><ele>230.0</ele><time>2026-05-03T14:01:09Z</time></trkpt><trkpt lat="45.6025167050572" lon="8.602043781021223"><ele>230.0</ele><time>2026-05-03T14:01:10Z</time></trkpt><trkpt lat="45.602544437710314" lon="8.602182832355282"><ele>229.85714285714283</ele><time>2026-05-03T14:01:12Z</time></trkpt><trkpt lat="45.602515075821195" lon="8.60226656560681"><ele>229.71428571428572</ele><time>2026-05-03T14:01:13Z</time></trkpt><trkpt lat="45.602469974746754" lon="8.602337626849888"><ele>229.57142857142856</ele><time>2026-05-03T14:01:14Z</time></trkpt><trkpt lat="45.602473104512015" lon="8.602446673034637"><ele>229.42857142857142</ele><time>2026-05-03T14:01:18Z</time></trkpt><trkpt lat="45.602536655185226" lon="8.602475509112505"><ele>229.28571428571428</ele><time>2026-05-03T14:01:20.999Z</time></trkpt><trkpt lat="45.60259944725387" lon="8.602466000447471"><ele>229.14285714285714</ele><time>2026-05-03T14:01:23.999Z</time></trkpt><trkpt lat="45.60268602348078" lon="8.602449748119705"><ele>229.0</ele><time>2026-05-03T14:01:26.999Z</time></trkpt><trkpt lat="45.60275144827019" lon="8.602457907849319"><ele>229.0</ele><time>2026-05-03T14:01:28.999Z</time></trkpt><trkpt lat="45.602811628896106" lon="8.602567803577935"><ele>229.0</ele><time>2026-05-03T14:01:31.999Z</time></trkpt><trkpt lat="45.60284199052379" lon="8.602649441741018"><ele>229.0</ele><time>2026-05-03T14:01:34.999Z</time></trkpt><trkpt lat="45.603060305163176" lon="8.602976290546657"><ele>229.28571428571428</ele><time>2026-05-03T14:01:36.999Z</time></trkpt><trkpt lat="45.603126208703216" lon="8.603062514938705"><ele>229.57142857142858</ele><time>2026-05-03T14:01:38.999Z</time></trkpt><trkpt lat="45.60313835976448" lon="8.603151711033403"><ele>229.85714285714286</ele><time>2026-05-03T14:02:00.998Z</time></trkpt><trkpt lat="45.60319813782367" lon="8.603201339870143"><ele>230.14285714285714</ele><time>2026-05-03T14:02:12.998Z</time></trkpt><trkpt lat="45.60325823064739" lon="8.603239344480738"><ele>230.42857142857144</ele><time>2026-05-03T14:02:17.998Z</time></trkpt><trkpt lat="45.60332828641716" lon="8.60325411838924"><ele>230.71428571428572</ele><time>2026-05-03T14:02:23.998Z</time></trkpt><trkpt lat="45.60341193235434" lon="8.603287167307242"><ele>231.0</ele><time>2026-05-03T14:02:28.998Z</time></trkpt><trkpt lat="45.60349285138698" lon="8.603379507338548"><ele>231.0</ele><time>2026-05-03T14:02:30.998Z</time></trkpt><trkpt lat="45.603557465926954" lon="8.60334776836395"><ele>231.0</ele><time>2026-05-03T14:02:33.998Z</time></trkpt><trkpt lat="45.603622389265446" lon="8.603281565560595"><ele>231.0</ele><time>2026-05-03T14:02:36Z</time></trkpt><trkpt lat="45.60365090152259" lon="8.603186622135434"><ele>231.0</ele><time>2026-05-03T14:02:37Z</time></trkpt><trkpt lat="45.60371420810805" lon="8.603081419845005"><ele>231.0</ele><time>2026-05-03T14:02:39Z</time></trkpt><trkpt lat="45.60372798038579" lon="8.602967972291394"><ele>231.0</ele><time>2026-05-03T14:02:41Z</time></trkpt><trkpt lat="45.60372418779762" lon="8.602814366508584"><ele>231.16666666666666</ele><time>2026-05-03T14:02:43Z</time></trkpt><trkpt lat="45.60375401613646" lon="8.60271270140884"><ele>231.33333333333331</ele><time>2026-05-03T14:02:46Z</time></trkpt><trkpt lat="45.60380578575225" lon="8.602657362037684"><ele>231.5</ele><time>2026-05-03T14:02:53Z</time></trkpt><trkpt lat="45.60388730621302" lon="8.60273244357709"><ele>231.66666666666666</ele><time>2026-05-03T14:02:56Z</time></trkpt><trkpt lat="45.60394793543665" lon="8.60283960457761"><ele>231.83333333333331</ele><time>2026-05-03T14:02:58Z</time></trkpt><trkpt lat="45.60402533704872" lon="8.602951663039661"><ele>232.0</ele><time>2026-05-03T14:03:00Z</time></trkpt><trkpt lat="45.60409491738111" lon="8.603064221586177"><ele>232.0</ele><time>2026-05-03T14:03:02Z</time></trkpt><trkpt lat="45.60419215763349" lon="8.60318408119211"><ele>232.0</ele><time>2026-05-03T14:03:04Z</time></trkpt><trkpt lat="45.60425013759076" lon="8.603240494635823"><ele>232.0</ele><time>2026-05-03T14:03:06Z</time></trkpt><trkpt lat="45.6043075851488" lon="8.603363303696263"><ele>232.0</ele><time>2026-05-03T14:03:09Z</time></trkpt><trkpt lat="45.60432831701549" lon="8.603487949924357"><ele>232.0</ele><time>2026-05-03T14:03:11Z</time></trkpt><trkpt lat="45.60437103927914" lon="8.603618030362602"><ele>231.66666666666666</ele><time>2026-05-03T14:03:13Z</time></trkpt><trkpt lat="45.6043987516406" lon="8.603743739383576"><ele>231.33333333333331</ele><time>2026-05-03T14:03:15Z</time></trkpt><trkpt lat="45.60443753907301" lon="8.603858003207938"><ele>231.0</ele><time>2026-05-03T14:03:17Z</time></trkpt><trkpt lat="45.604505905698325" lon="8.603963051709473"><ele>230.66666666666669</ele><time>2026-05-03T14:03:19Z</time></trkpt><trkpt lat="45.6045502000666" lon="8.60404430326258"><ele>230.33333333333334</ele><time>2026-05-03T14:03:21Z</time></trkpt><trkpt lat="45.60463237911394" lon="8.604071955280547"><ele>230.0</ele><time>2026-05-03T14:03:24.999Z</time></trkpt><trkpt lat="45.60469338821511" lon="8.604034007727503"><ele>230.00000000000003</ele><time>2026-05-03T14:03:28.999Z</time></trkpt><trkpt lat="45.60473044141639" lon="8.603946353463376"><ele>230.0</ele><time>2026-05-03T14:03:31.999Z</time></trkpt><trkpt lat="45.60481410150779" lon="8.60386482981051"><ele>230.0</ele><time>2026-05-03T14:03:34.999Z</time></trkpt><trkpt lat="45.60488570704488" lon="8.603823935678811"><ele>230.0</ele><time>2026-05-03T14:03:36.999Z</time></trkpt><trkpt lat="45.60496822086925" lon="8.603804616633667"><ele>230.00000000000003</ele><time>2026-05-03T14:03:39.999Z</time></trkpt><trkpt lat="45.605064184637506" lon="8.603800290374885"><ele>230.0</ele><time>2026-05-03T14:03:41.999Z</time></trkpt><trkpt lat="45.60512762764551" lon="8.60379369790908"><ele>230.00000000000003</ele><time>2026-05-03T14:03:42.999Z</time></trkpt><trkpt lat="45.60520237980575" lon="8.603775609877061"><ele>230.0</ele><time>2026-05-03T14:03:44.999Z</time></trkpt><trkpt lat="45.60526645623786" lon="8.603777935433929"><ele>230.0</ele><time>2026-05-03T14:03:54.999Z</time></trkpt><trkpt lat="45.60527835529335" lon="8.603873900485533"><ele>230.0</ele><time>2026-05-03T14:04:01.999Z</time></trkpt><trkpt lat="45.60529746887462" lon="8.603987268473755"><ele>230.00000000000003</ele><time>2026-05-03T14:04:03.998Z</time></trkpt><trkpt lat="45.605353488048515" lon="8.604052666007888"><ele>230.0</ele><time>2026-05-03T14:04:13.998Z</time></trkpt><trkpt lat="45.60543841664272" lon="8.603994900781338"><ele>230.0</ele><time>2026-05-03T14:04:17.998Z</time></trkpt><trkpt lat="45.60549205766348" lon="8.603894940062222"><ele>230.0</ele><time>2026-05-03T14:04:19.998Z</time></trkpt><trkpt lat="45.60555181698918" lon="8.603791964444449"><ele>230.0</ele><time>2026-05-03T14:04:21.998Z</time></trkpt><trkpt lat="45.60558063271175" lon="8.603655017095107"><ele>230.0</ele><time>2026-05-03T14:04:23.998Z</time></trkpt><trkpt lat="45.605593226136286" lon="8.60356311144063"><ele>230.0</ele><time>2026-05-03T14:04:24.998Z</time></trkpt><trkpt lat="45.605630133079806" lon="8.603406674573389"><ele>231.0</ele><time>2026-05-03T14:04:26.998Z</time></trkpt><trkpt lat="45.60583023261203" lon="8.603359690940435"><ele>232.0</ele><time>2026-05-03T14:04:28.998Z</time></trkpt><trkpt lat="45.60585325370393" lon="8.603264288486686"><ele>233.0</ele><time>2026-05-03T14:04:30.998Z</time></trkpt><trkpt lat="45.60605961037353" lon="8.603281892622125"><ele>233.00000000000003</ele><time>2026-05-03T14:04:37.998Z</time></trkpt><trkpt lat="45.606149395278365" lon="8.603297405159774"><ele>233.0</ele><time>2026-05-03T14:04:40Z</time></trkpt><trkpt lat="45.60622174587389" lon="8.603320875856442"><ele>233.0</ele><time>2026-05-03T14:04:43Z</time></trkpt><trkpt lat="45.60629041485493" lon="8.603311717874005"><ele>233.0</ele><time>2026-05-03T14:04:58Z</time></trkpt><trkpt lat="45.60638425047847" lon="8.603358352317212"><ele>233.00000000000003</ele><time>2026-05-03T14:05:01Z</time></trkpt><trkpt lat="45.60647696120994" lon="8.603414604005197"><ele>233.0</ele><time>2026-05-03T14:05:03Z</time></trkpt><trkpt lat="45.60654164276379" lon="8.603439669714875"><ele>233.28571428571428</ele><time>2026-05-03T14:05:05Z</time></trkpt><trkpt lat="45.606602896739" lon="8.603401983354232"><ele>233.57142857142856</ele><time>2026-05-03T14:05:08Z</time></trkpt><trkpt lat="45.6066689229896" lon="8.603374098029525"><ele>233.85714285714283</ele><time>2026-05-03T14:05:10Z</time></trkpt><trkpt lat="45.606734346592006" lon="8.603395881453965"><ele>234.14285714285714</ele><time>2026-05-03T14:05:12Z</time></trkpt><trkpt lat="45.60679710064476" lon="8.60341997278748"><ele>234.4285714285714</ele><time>2026-05-03T14:05:14Z</time></trkpt><trkpt lat="45.60686524469791" lon="8.603456266925642"><ele>234.7142857142857</ele><time>2026-05-03T14:05:17Z</time></trkpt><trkpt lat="45.60680603082576" lon="8.603373422554895"><ele>235.0</ele><time>2026-05-03T14:06:53Z</time></trkpt><trkpt lat="45.60672851030662" lon="8.603365112032145"><ele>234.99999999999997</ele><time>2026-05-03T14:06:56Z</time></trkpt><trkpt lat="45.60662581888522" lon="8.603398845614665"><ele>235.0</ele><time>2026-05-03T14:07:02Z</time></trkpt><trkpt lat="45.606561651220595" lon="8.60340263273613"><ele>235.0</ele><time>2026-05-03T14:07:04Z</time></trkpt><trkpt lat="45.60645438404149" lon="8.603349322862183"><ele>235.0</ele><time>2026-05-03T14:07:06Z</time></trkpt><trkpt lat="45.6063868440218" lon="8.603337343434037"><ele>234.99999999999997</ele><time>2026-05-03T14:07:09Z</time></trkpt><trkpt lat="45.606385923712104" lon="8.603241323361711"><ele>235.0</ele><time>2026-05-03T14:07:36.999Z</time></trkpt><trkpt lat="45.606467738544296" lon="8.60321546538394"><ele>235.0</ele><time>2026-05-03T14:07:42.999Z</time></trkpt><trkpt lat="45.60653162481909" lon="8.603233303953665"><ele>234.99999999999997</ele><time>2026-05-03T14:07:44.999Z</time></trkpt><trkpt lat="45.60660260379101" lon="8.603249128132"><ele>235.0</ele><time>2026-05-03T14:07:47.999Z</time></trkpt><trkpt lat="45.60667786894959" lon="8.603221870517608"><ele>235.0</ele><time>2026-05-03T14:07:49.999Z</time></trkpt><trkpt lat="45.60674712825577" lon="8.603195650873863"><ele>234.99999999999997</ele><time>2026-05-03T14:07:52.999Z</time></trkpt><trkpt lat="45.60681114634808" lon="8.603157839703892"><ele>235.0</ele><time>2026-05-03T14:07:56.999Z</time></trkpt><trkpt lat="45.60684106348353" lon="8.603047668449259"><ele>235.0</ele><time>2026-05-03T14:07:59.999Z</time></trkpt><trkpt lat="45.60680364236941" lon="8.602948651794371"><ele>234.99999999999997</ele><time>2026-05-03T14:08:04.999Z</time></trkpt><trkpt lat="45.606765306787324" lon="8.602839074131069"><ele>235.0</ele><time>2026-05-03T14:08:07.999Z</time></trkpt><trkpt lat="45.60671308997272" lon="8.602762240838791"><ele>235.0</ele><time>2026-05-03T14:08:10.998Z</time></trkpt><trkpt lat="45.60666277838547" lon="8.602677220769412"><ele>235.0</ele><time>2026-05-03T14:08:12.998Z</time></trkpt><trkpt lat="45.60663249178108" lon="8.602582587018183"><ele>234.99999999999997</ele><time>2026-05-03T14:08:16.998Z</time></trkpt><trkpt lat="45.60664604641816" lon="8.60247505702202"><ele>235.0</ele><time>2026-05-03T14:08:19.998Z</time></trkpt><trkpt lat="45.606672622698035" lon="8.60239005143012"><ele>235.0</ele><time>2026-05-03T14:08:23.998Z</time></trkpt><trkpt lat="45.60670668411863" lon="8.602283181109698"><ele>234.99999999999997</ele><time>2026-05-03T14:08:27.998Z</time></trkpt><trkpt lat="45.606747716044325" lon="8.602162670049426"><ele>235.0</ele><time>2026-05-03T14:08:30.998Z</time></trkpt><trkpt lat="45.60680497398059" lon="8.602116673294496"><ele>235.0</ele><time>2026-05-03T14:08:33.998Z</time></trkpt><trkpt lat="45.60685738444301" lon="8.602055816245263"><ele>234.99999999999997</ele><time>2026-05-03T14:08:35.998Z</time></trkpt><trkpt lat="45.606904902739274" lon="8.601988039672744"><ele>235.0</ele><time>2026-05-03T14:08:38.998Z</time></trkpt><trkpt lat="45.60693608140558" lon="8.60190239103008"><ele>235.0</ele><time>2026-05-03T14:08:42.998Z</time></trkpt><trkpt lat="45.60697992876715" lon="8.60183575233331"><ele>234.99999999999997</ele><time>2026-05-03T14:08:44.998Z</time></trkpt><trkpt lat="45.60702319136682" lon="8.601760113087904"><ele>235.0</ele><time>2026-05-03T14:08:46.998Z</time></trkpt><trkpt lat="45.607068754892126" lon="8.60168434860215"><ele>235.0</ele><time>2026-05-03T14:08:48.997Z</time></trkpt><trkpt lat="45.607131129968685" lon="8.601609624110083"><ele>235.0</ele><time>2026-05-03T14:08:52Z</time></trkpt><trkpt lat="45.607192476335186" lon="8.601513812238444"><ele>234.99999999999997</ele><time>2026-05-03T14:08:55Z</time></trkpt><trkpt lat="45.60723659474152" lon="8.601400817165286"><ele>235.0</ele><time>2026-05-03T14:08:58Z</time></trkpt><trkpt lat="45.6072783101242" lon="8.601327445771656"><ele>234.99999999999997</ele><time>2026-05-03T14:09:01Z</time></trkpt><trkpt lat="45.60729638452329" lon="8.601184853177395"><ele>235.0</ele><time>2026-05-03T14:09:04Z</time></trkpt><trkpt lat="45.6073107434194" lon="8.601084915542671"><ele>235.0</ele><time>2026-05-03T14:09:07Z</time></trkpt><trkpt lat="45.60732295308922" lon="8.60096981394731"><ele>235.0</ele><time>2026-05-03T14:09:09Z</time></trkpt><trkpt lat="45.6073489749277" lon="8.600853647492052"><ele>234.99999999999997</ele><time>2026-05-03T14:09:12Z</time></trkpt><trkpt lat="45.60735940416359" lon="8.6007332994516"><ele>235.0</ele><time>2026-05-03T14:09:15Z</time></trkpt><trkpt lat="45.60736814187341" lon="8.600620974178664"><ele>235.28571428571428</ele><time>2026-05-03T14:09:18Z</time></trkpt><trkpt lat="45.60738086228108" lon="8.600512801864875"><ele>235.57142857142856</ele><time>2026-05-03T14:09:21Z</time></trkpt><trkpt lat="45.60737183375942" lon="8.600421690666035"><ele>235.85714285714283</ele><time>2026-05-03T14:09:23Z</time></trkpt><trkpt lat="45.60731900786956" lon="8.600339253756081"><ele>236.1428571428571</ele><time>2026-05-03T14:09:26Z</time></trkpt><trkpt lat="45.607261384434736" lon="8.600299032482807"><ele>236.42857142857142</ele><time>2026-05-03T14:09:28Z</time></trkpt><trkpt lat="45.607177681213784" lon="8.600277617229985"><ele>236.71428571428567</ele><time>2026-05-03T14:09:31Z</time></trkpt><trkpt lat="45.6071121268864" lon="8.600252933789916"><ele>236.99999999999997</ele><time>2026-05-03T14:09:33Z</time></trkpt><trkpt lat="45.60704797905214" lon="8.60024210799934"><ele>236.66666666666666</ele><time>2026-05-03T14:09:34.999Z</time></trkpt><trkpt lat="45.60696143056409" lon="8.600240798901403"><ele>236.33333333333331</ele><time>2026-05-03T14:09:37.999Z</time></trkpt><trkpt lat="45.60688188873598" lon="8.600227213228901"><ele>236.0</ele><time>2026-05-03T14:09:40.999Z</time></trkpt><trkpt lat="45.606804660414774" lon="8.600194576479382"><ele>235.66666666666666</ele><time>2026-05-03T14:09:42.999Z</time></trkpt><trkpt lat="45.60672633268188" lon="8.60017714719264"><ele>235.33333333333331</ele><time>2026-05-03T14:09:45.999Z</time></trkpt><trkpt lat="45.60665891227634" lon="8.600155895418721"><ele>235.0</ele><time>2026-05-03T14:09:48.999Z</time></trkpt><trkpt lat="45.606595247902526" lon="8.600142939734795"><ele>235.0</ele><time>2026-05-03T14:09:52.999Z</time></trkpt><trkpt lat="45.60654103252029" lon="8.600057813788641"><ele>235.0</ele><time>2026-05-03T14:09:56.999Z</time></trkpt><trkpt lat="45.60656022079803" lon="8.599965492811664"><ele>235.0</ele><time>2026-05-03T14:09:57.999Z</time></trkpt><trkpt lat="45.60662595778581" lon="8.599808660490202"><ele>235.0</ele><time>2026-05-03T14:09:58.999Z</time></trkpt><trkpt lat="45.606685274374" lon="8.59963518820659"><ele>235.0</ele><time>2026-05-03T14:09:59.999Z</time></trkpt><trkpt lat="45.60670680935611" lon="8.599522403945631"><ele>235.2</ele><time>2026-05-03T14:10:00.999Z</time></trkpt><trkpt lat="45.60675523811441" lon="8.599432195424676"><ele>235.4</ele><time>2026-05-03T14:10:01.999Z</time></trkpt><trkpt lat="45.60678091123433" lon="8.599323999253375"><ele>235.60000000000002</ele><time>2026-05-03T14:10:02.999Z</time></trkpt><trkpt lat="45.6068105004399" lon="8.599198184391028"><ele>235.8</ele><time>2026-05-03T14:10:03.999Z</time></trkpt><trkpt lat="45.60684360112018" lon="8.59905533603987"><ele>236.0</ele><time>2026-05-03T14:10:04.999Z</time></trkpt><trkpt lat="45.6068753893156" lon="8.598918151665009"><ele>236.0</ele><time>2026-05-03T14:10:05.999Z</time></trkpt><trkpt lat="45.60690707635678" lon="8.59878381537858"><ele>236.00000000000003</ele><time>2026-05-03T14:10:06.999Z</time></trkpt><trkpt lat="45.606941236320836" lon="8.598644644789436"><ele>236.00000000000003</ele><time>2026-05-03T14:10:07.999Z</time></trkpt><trkpt lat="45.606978327317194" lon="8.598502931706594"><ele>236.0</ele><time>2026-05-03T14:10:08.999Z</time></trkpt><trkpt lat="45.6070218442775" lon="8.598360113075431"><ele>236.0</ele><time>2026-05-03T14:10:09.999Z</time></trkpt><trkpt lat="45.607072750257295" lon="8.598219336948926"><ele>236.4</ele><time>2026-05-03T14:10:10.999Z</time></trkpt><trkpt lat="45.60711999928121" lon="8.598071198670425"><ele>236.8</ele><time>2026-05-03T14:10:11.999Z</time></trkpt><trkpt lat="45.60714776647143" lon="8.597922669038946"><ele>237.20000000000002</ele><time>2026-05-03T14:10:12.999Z</time></trkpt><trkpt lat="45.607194169748865" lon="8.597783510264989"><ele>237.60000000000002</ele><time>2026-05-03T14:10:13.999Z</time></trkpt><trkpt lat="45.60721399737907" lon="8.597625392185073"><ele>238.0</ele><time>2026-05-03T14:10:14.998Z</time></trkpt><trkpt lat="45.607225099823495" lon="8.597463681149186"><ele>238.0</ele><time>2026-05-03T14:10:15.998Z</time></trkpt><trkpt lat="45.60722407190413" lon="8.59729809756905"><ele>238.0</ele><time>2026-05-03T14:10:16.998Z</time></trkpt><trkpt lat="45.6072150755716" lon="8.597144654033997"><ele>238.0</ele><time>2026-05-03T14:10:17.998Z</time></trkpt><trkpt lat="45.60720757258785" lon="8.596994146682793"><ele>238.0</ele><time>2026-05-03T14:10:18.998Z</time></trkpt><trkpt lat="45.60720876122052" lon="8.596875257329355"><ele>238.0</ele><time>2026-05-03T14:10:19.998Z</time></trkpt><trkpt lat="45.60722399799035" lon="8.59676969698232"><ele>238.0</ele><time>2026-05-03T14:10:20.998Z</time></trkpt><trkpt lat="45.60728369462282" lon="8.596634203901473"><ele>238.0</ele><time>2026-05-03T14:10:22.998Z</time></trkpt><trkpt lat="45.6073439426177" lon="8.59666034344791"><ele>238.0</ele><time>2026-05-03T14:10:24.998Z</time></trkpt><trkpt lat="45.607397199404645" lon="8.596794269221757"><ele>238.0</ele><time>2026-05-03T14:10:26.998Z</time></trkpt><trkpt lat="45.60746610901021" lon="8.59694264156415"><ele>238.0</ele><time>2026-05-03T14:10:28.998Z</time></trkpt><trkpt lat="45.60752539786206" lon="8.597072966610918"><ele>237.99999999999997</ele><time>2026-05-03T14:10:30.998Z</time></trkpt><trkpt lat="45.60757126297494" lon="8.597174037098261"><ele>238.0</ele><time>2026-05-03T14:10:32.998Z</time></trkpt><trkpt lat="45.607616938663654" lon="8.597279771108607"><ele>238.0</ele><time>2026-05-03T14:10:35.998Z</time></trkpt><trkpt lat="45.60763427270602" lon="8.597372304741823"><ele>238.0</ele><time>2026-05-03T14:10:37.998Z</time></trkpt><trkpt lat="45.6076682892672" lon="8.597478305561449"><ele>237.99999999999997</ele><time>2026-05-03T14:10:40.998Z</time></trkpt><trkpt lat="45.60770196747125" lon="8.597591921109318"><ele>238.0</ele><time>2026-05-03T14:10:43.998Z</time></trkpt><trkpt lat="45.607699876666295" lon="8.597690216858906"><ele>238.0</ele><time>2026-05-03T14:10:46.998Z</time></trkpt><trkpt lat="45.60770941549195" lon="8.59780383010407"><ele>238.0</ele><time>2026-05-03T14:10:49.998Z</time></trkpt><trkpt lat="45.607735002772124" lon="8.597890469708222"><ele>238.0</ele><time>2026-05-03T14:10:52.998Z</time></trkpt><trkpt lat="45.607932843744635" lon="8.597877455717343"><ele>238.0</ele><time>2026-05-03T14:10:53.998Z</time></trkpt><trkpt lat="45.60801464785668" lon="8.597915828925974"><ele>238.0</ele><time>2026-05-03T14:10:55.997Z</time></trkpt><trkpt lat="45.60811289741759" lon="8.597948907398159"><ele>238.8</ele><time>2026-05-03T14:10:58Z</time></trkpt><trkpt lat="45.60821319350314" lon="8.597979344952954"><ele>239.60000000000002</ele><time>2026-05-03T14:11:00Z</time></trkpt><trkpt lat="45.60830103212499" lon="8.598000929698646"><ele>240.39999999999998</ele><time>2026-05-03T14:11:02Z</time></trkpt><trkpt lat="45.60839309224785" lon="8.598034335083097"><ele>241.2</ele><time>2026-05-03T14:11:04Z</time></trkpt><trkpt lat="45.608501555038416" lon="8.598066086363037"><ele>242.0</ele><time>2026-05-03T14:11:06Z</time></trkpt><trkpt lat="45.60861846216815" lon="8.598104513562774"><ele>242.25</ele><time>2026-05-03T14:11:08Z</time></trkpt><trkpt lat="45.60873266092647" lon="8.598121111057184"><ele>242.5</ele><time>2026-05-03T14:11:10Z</time></trkpt><trkpt lat="45.60883420524946" lon="8.598104214552574"><ele>242.75</ele><time>2026-05-03T14:11:12Z</time></trkpt><trkpt lat="45.608969801846946" lon="8.59803939520747"><ele>243.0</ele><time>2026-05-03T14:11:14Z</time></trkpt><trkpt lat="45.60907086191249" lon="8.597976701661441"><ele>243.0</ele><time>2026-05-03T14:11:15Z</time></trkpt><trkpt lat="45.60918582653421" lon="8.59791057169363"><ele>243.0</ele><time>2026-05-03T14:11:16Z</time></trkpt><trkpt lat="45.60929833896161" lon="8.597852782054726"><ele>243.0</ele><time>2026-05-03T14:11:17Z</time></trkpt><trkpt lat="45.60941017970935" lon="8.597797051977532"><ele>243.0</ele><time>2026-05-03T14:11:18Z</time></trkpt><trkpt lat="45.60951847942135" lon="8.597740426797083"><ele>244.33333333333334</ele><time>2026-05-03T14:11:19Z</time></trkpt><trkpt lat="45.609618678751005" lon="8.597689691587254"><ele>245.66666666666669</ele><time>2026-05-03T14:11:20Z</time></trkpt><trkpt lat="45.60970729415044" lon="8.597645673641622"><ele>247.0</ele><time>2026-05-03T14:11:21Z</time></trkpt><trkpt lat="45.609783210010804" lon="8.597604745170786"><ele>248.33333333333334</ele><time>2026-05-03T14:11:22Z</time></trkpt><trkpt lat="45.60984956198643" lon="8.597571770322284"><ele>249.66666666666669</ele><time>2026-05-03T14:11:23Z</time></trkpt><trkpt lat="45.609915262595344" lon="8.597539212100962"><ele>251.0</ele><time>2026-05-03T14:11:24Z</time></trkpt><trkpt lat="45.610006389369275" lon="8.597525315107342"><ele>251.0</ele><time>2026-05-03T14:11:26Z</time></trkpt><trkpt lat="45.61005096601661" lon="8.59764307314496"><ele>251.00000000000003</ele><time>2026-05-03T14:11:28Z</time></trkpt><trkpt lat="45.610098664103205" lon="8.59779171435057"><ele>251.00000000000003</ele><time>2026-05-03T14:11:30Z</time></trkpt><trkpt lat="45.61016982733146" lon="8.597820631333757"><ele>251.0</ele><time>2026-05-03T14:11:32Z</time></trkpt><trkpt lat="45.6102414276559" lon="8.597785984940481"><ele>251.0</ele><time>2026-05-03T14:11:33Z</time></trkpt><trkpt lat="45.610353371389905" lon="8.597718572805265"><ele>251.0</ele><time>2026-05-03T14:11:34Z</time></trkpt><trkpt lat="45.61045727337884" lon="8.597662526444772"><ele>251.00000000000003</ele><time>2026-05-03T14:11:35Z</time></trkpt><trkpt lat="45.61053208802258" lon="8.597643109994017"><ele>251.00000000000003</ele><time>2026-05-03T14:11:36Z</time></trkpt><trkpt lat="45.61063165822821" lon="8.597691016019844"><ele>251.0</ele><time>2026-05-03T14:11:37.999Z</time></trkpt><trkpt lat="45.6106668632994" lon="8.5977829072517"><ele>251.0</ele><time>2026-05-03T14:11:38.999Z</time></trkpt><trkpt lat="45.610701964558096" lon="8.597926310116653"><ele>251.0</ele><time>2026-05-03T14:11:39.999Z</time></trkpt><trkpt lat="45.61073357576643" lon="8.598089499356481"><ele>251.00000000000003</ele><time>2026-05-03T14:11:40.999Z</time></trkpt><trkpt lat="45.61075616833979" lon="8.59824601825831"><ele>251.00000000000003</ele><time>2026-05-03T14:11:41.999Z</time></trkpt><trkpt lat="45.61077486205301" lon="8.59837605381265"><ele>251.0</ele><time>2026-05-03T14:11:42.999Z</time></trkpt><trkpt lat="45.610787724869205" lon="8.598465563769077"><ele>251.0</ele><time>2026-05-03T14:11:43.999Z</time></trkpt><trkpt lat="45.61079341798656" lon="8.598582981009107"><ele>250.66666666666669</ele><time>2026-05-03T14:11:45.999Z</time></trkpt><trkpt lat="45.61082817324003" lon="8.598688221384101"><ele>250.33333333333334</ele><time>2026-05-03T14:11:47.999Z</time></trkpt><trkpt lat="45.61086122809141" lon="8.598783606577722"><ele>250.0</ele><time>2026-05-03T14:11:50.999Z</time></trkpt><trkpt lat="45.610807671409795" lon="8.598915559184299"><ele>249.66666666666669</ele><time>2026-05-03T14:11:52.999Z</time></trkpt><trkpt lat="45.61081319632281" lon="8.599015324521512"><ele>249.33333333333334</ele><time>2026-05-03T14:11:54.999Z</time></trkpt><trkpt lat="45.6108919448223" lon="8.599082400423223"><ele>249.0</ele><time>2026-05-03T14:11:56.999Z</time></trkpt><trkpt lat="45.61096149780361" lon="8.599082192627797"><ele>249.0</ele><time>2026-05-03T14:11:58.999Z</time></trkpt><trkpt lat="45.61101784840951" lon="8.599033105687687"><ele>249.0</ele><time>2026-05-03T14:12:01.999Z</time></trkpt><trkpt lat="45.61109563055119" lon="8.598991470521167"><ele>249.0</ele><time>2026-05-03T14:12:03.999Z</time></trkpt><trkpt lat="45.61116371492393" lon="8.598985230843383"><ele>249.0</ele><time>2026-05-03T14:12:05.999Z</time></trkpt><trkpt lat="45.611229451890836" lon="8.598966072878804"><ele>249.0</ele><time>2026-05-03T14:12:07.999Z</time></trkpt><trkpt lat="45.611308087492525" lon="8.598961099729374"><ele>249.0</ele><time>2026-05-03T14:12:09.999Z</time></trkpt><trkpt lat="45.61154523708032" lon="8.598846852826386"><ele>249.16666666666666</ele><time>2026-05-03T14:12:11.999Z</time></trkpt><trkpt lat="45.61162125653562" lon="8.598815318889264"><ele>249.33333333333331</ele><time>2026-05-03T14:12:12.999Z</time></trkpt><trkpt lat="45.611703989557085" lon="8.598742354153798"><ele>249.5</ele><time>2026-05-03T14:12:13.999Z</time></trkpt><trkpt lat="45.611765516047676" lon="8.598701878131408"><ele>249.66666666666666</ele><time>2026-05-03T14:12:14.999Z</time></trkpt><trkpt lat="45.611835783610566" lon="8.598662618770442"><ele>249.83333333333331</ele><time>2026-05-03T14:12:15.999Z</time></trkpt><trkpt lat="45.61191936881428" lon="8.59864761990462"><ele>250.0</ele><time>2026-05-03T14:12:16.998Z</time></trkpt><trkpt lat="45.6120020853366" lon="8.598613626707486"><ele>250.0</ele><time>2026-05-03T14:12:17.998Z</time></trkpt><trkpt lat="45.6120761224395" lon="8.598582943568795"><ele>250.0</ele><time>2026-05-03T14:12:18.998Z</time></trkpt><trkpt lat="45.61214477348659" lon="8.59855008621972"><ele>250.0</ele><time>2026-05-03T14:12:19.998Z</time></trkpt><trkpt lat="45.612234380371845" lon="8.598518637122277"><ele>250.0</ele><time>2026-05-03T14:12:21.998Z</time></trkpt><trkpt lat="45.61233450019992" lon="8.598567516937083"><ele>250.0</ele><time>2026-05-03T14:12:24.998Z</time></trkpt><trkpt lat="45.612402332402304" lon="8.59869335258076"><ele>250.2</ele><time>2026-05-03T14:12:26.998Z</time></trkpt><trkpt lat="45.612460842231265" lon="8.598727433977983"><ele>250.4</ele><time>2026-05-03T14:12:27.998Z</time></trkpt><trkpt lat="45.61254235389821" lon="8.598776636518123"><ele>250.60000000000002</ele><time>2026-05-03T14:12:28.998Z</time></trkpt><trkpt lat="45.61263056021995" lon="8.598788465980517"><ele>250.8</ele><time>2026-05-03T14:12:29.998Z</time></trkpt><trkpt lat="45.61272291188072" lon="8.598822536103011"><ele>251.0</ele><time>2026-05-03T14:12:30.998Z</time></trkpt><trkpt lat="45.612854635611654" lon="8.598872214125219"><ele>251.4</ele><time>2026-05-03T14:12:31.998Z</time></trkpt><trkpt lat="45.61295851951592" lon="8.598895809162363"><ele>251.8</ele><time>2026-05-03T14:12:32.998Z</time></trkpt><trkpt lat="45.61303141131127" lon="8.59888330392489"><ele>252.20000000000002</ele><time>2026-05-03T14:12:33.998Z</time></trkpt><trkpt lat="45.613102790621255" lon="8.598892091724037"><ele>252.60000000000002</ele><time>2026-05-03T14:12:34.998Z</time></trkpt><trkpt lat="45.6131994667102" lon="8.598888890161781"><ele>253.0</ele><time>2026-05-03T14:12:35.998Z</time></trkpt><trkpt lat="45.613318002269914" lon="8.598879301192833"><ele>253.0</ele><time>2026-05-03T14:12:36.998Z</time></trkpt><trkpt lat="45.61342838656316" lon="8.598856034587952"><ele>253.0</ele><time>2026-05-03T14:12:37.998Z</time></trkpt><trkpt lat="45.61353259072532" lon="8.598840705553247"><ele>253.0</ele><time>2026-05-03T14:12:38.998Z</time></trkpt><trkpt lat="45.613648183312186" lon="8.598812519700807"><ele>253.0</ele><time>2026-05-03T14:12:39.998Z</time></trkpt><trkpt lat="45.61375529715853" lon="8.598795439491093"><ele>253.0</ele><time>2026-05-03T14:12:40.998Z</time></trkpt><trkpt lat="45.613850976284596" lon="8.598762451179221"><ele>252.8</ele><time>2026-05-03T14:12:41.998Z</time></trkpt><trkpt lat="45.6139487821341" lon="8.5987310538322"><ele>252.60000000000002</ele><time>2026-05-03T14:12:42.998Z</time></trkpt><trkpt lat="45.614073574631284" lon="8.598699397948831"><ele>252.39999999999998</ele><time>2026-05-03T14:12:43.998Z</time></trkpt><trkpt lat="45.61416956432097" lon="8.598679248361776"><ele>252.2</ele><time>2026-05-03T14:12:44.998Z</time></trkpt><trkpt lat="45.614263374114415" lon="8.59867601735416"><ele>252.0</ele><time>2026-05-03T14:12:45.998Z</time></trkpt><trkpt lat="45.61435795133872" lon="8.598681166631064"><ele>252.0</ele><time>2026-05-03T14:12:46.998Z</time></trkpt><trkpt lat="45.61446433848044" lon="8.598674358864054"><ele>252.0</ele><time>2026-05-03T14:12:47.998Z</time></trkpt><trkpt lat="45.614561733119515" lon="8.598666127995301"><ele>252.0</ele><time>2026-05-03T14:12:48.998Z</time></trkpt><trkpt lat="45.61465553880945" lon="8.598620493727541"><ele>252.0</ele><time>2026-05-03T14:12:49.998Z</time></trkpt><trkpt lat="45.61473587333901" lon="8.598584799792244"><ele>252.0</ele><time>2026-05-03T14:12:50.998Z</time></trkpt><trkpt lat="45.614819275078716" lon="8.598554213779103"><ele>251.83333333333334</ele><time>2026-05-03T14:12:51.998Z</time></trkpt><trkpt lat="45.614887938964735" lon="8.59852126060081"><ele>251.66666666666669</ele><time>2026-05-03T14:12:52.998Z</time></trkpt><trkpt lat="45.61495042220825" lon="8.59848038053636"><ele>251.5</ele><time>2026-05-03T14:12:53.998Z</time></trkpt><trkpt lat="45.61503928700712" lon="8.598393911816732"><ele>251.33333333333334</ele><time>2026-05-03T14:12:55.998Z</time></trkpt><trkpt lat="45.61510318311487" lon="8.598427606902305"><ele>251.16666666666669</ele><time>2026-05-03T14:12:59.997Z</time></trkpt><trkpt lat="45.61513614049582" lon="8.59850632796537"><ele>251.0</ele><time>2026-05-03T14:13:03Z</time></trkpt><trkpt lat="45.61519825194547" lon="8.598385945841446"><ele>251.00000000000003</ele><time>2026-05-03T14:13:05Z</time></trkpt><trkpt lat="45.61521363694133" lon="8.598262816809198"><ele>251.0</ele><time>2026-05-03T14:13:08Z</time></trkpt><trkpt lat="45.61522549829506" lon="8.598159917279629"><ele>251.0</ele><time>2026-05-03T14:13:10Z</time></trkpt><trkpt lat="45.615191988554784" lon="8.598055777618276"><ele>251.0</ele><time>2026-05-03T14:13:14Z</time></trkpt><trkpt lat="45.61527241909684" lon="8.597985374501524"><ele>251.00000000000003</ele><time>2026-05-03T14:13:16Z</time></trkpt><trkpt lat="45.61533532862592" lon="8.597907780535516"><ele>251.0</ele><time>2026-05-03T14:13:18Z</time></trkpt><trkpt lat="45.6153521151434" lon="8.597774692525018"><ele>251.83333333333334</ele><time>2026-05-03T14:13:20Z</time></trkpt><trkpt lat="45.61540395263261" lon="8.59771584356104"><ele>252.66666666666669</ele><time>2026-05-03T14:13:22Z</time></trkpt><trkpt lat="45.61546091291735" lon="8.597624614950034"><ele>253.5</ele><time>2026-05-03T14:13:24Z</time></trkpt><trkpt lat="45.61550822312511" lon="8.597548505561067"><ele>254.33333333333331</ele><time>2026-05-03T14:13:26Z</time></trkpt><trkpt lat="45.61557280288517" lon="8.597459931260811"><ele>255.16666666666666</ele><time>2026-05-03T14:13:28Z</time></trkpt><trkpt lat="45.61563858545951" lon="8.597438508010661"><ele>256.0</ele><time>2026-05-03T14:13:29Z</time></trkpt><trkpt lat="45.6157096922086" lon="8.597400303619205"><ele>256.0</ele><time>2026-05-03T14:13:30Z</time></trkpt><trkpt lat="45.615784193924746" lon="8.597309525466912"><ele>256.0</ele><time>2026-05-03T14:13:32Z</time></trkpt><trkpt lat="45.615844978581556" lon="8.597237980543351"><ele>256.0</ele><time>2026-05-03T14:13:34Z</time></trkpt><trkpt lat="45.61592556653802" lon="8.597161855209551"><ele>256.0</ele><time>2026-05-03T14:13:36Z</time></trkpt><trkpt lat="45.61597320978616" lon="8.59709202544744"><ele>256.0</ele><time>2026-05-03T14:13:37Z</time></trkpt><trkpt lat="45.616053550270664" lon="8.596949991620926"><ele>256.16666666666663</ele><time>2026-05-03T14:13:39Z</time></trkpt><trkpt lat="45.616125550747604" lon="8.59688383254475"><ele>256.3333333333333</ele><time>2026-05-03T14:13:41.999Z</time></trkpt><trkpt lat="45.6161535995176" lon="8.596803212441472"><ele>256.5</ele><time>2026-05-03T14:13:43.999Z</time></trkpt><trkpt lat="45.616149096029716" lon="8.596703851517102"><ele>256.6666666666667</ele><time>2026-05-03T14:13:45.999Z</time></trkpt><trkpt lat="45.61619196484314" lon="8.596556884362396"><ele>256.83333333333337</ele><time>2026-05-03T14:13:47.999Z</time></trkpt><trkpt lat="45.616261514205846" lon="8.596477160766488"><ele>257.0</ele><time>2026-05-03T14:13:51.999Z</time></trkpt><trkpt lat="45.616329521498415" lon="8.596425242756188"><ele>258.5</ele><time>2026-05-03T14:13:54.999Z</time></trkpt><trkpt lat="45.61637308981464" lon="8.596332431831993"><ele>260.0</ele><time>2026-05-03T14:13:57.999Z</time></trkpt><trkpt lat="45.616481296061444" lon="8.596280406216524"><ele>261.5</ele><time>2026-05-03T14:13:59.999Z</time></trkpt><trkpt lat="45.616562812340035" lon="8.596056723531708"><ele>263.0</ele><time>2026-05-03T14:14:00.999Z</time></trkpt><trkpt lat="45.61670444859169" lon="8.596027800604563"><ele>263.0</ele><time>2026-05-03T14:14:03.999Z</time></trkpt><trkpt lat="45.61678166858146" lon="8.595947233777455"><ele>263.0</ele><time>2026-05-03T14:14:05.999Z</time></trkpt><trkpt lat="45.61689577902529" lon="8.595881948905335"><ele>263.0</ele><time>2026-05-03T14:14:06.999Z</time></trkpt><trkpt lat="45.61701146502523" lon="8.595832094148232"><ele>263.0</ele><time>2026-05-03T14:14:07.999Z</time></trkpt><trkpt lat="45.617099871359315" lon="8.595762260244081"><ele>263.0</ele><time>2026-05-03T14:14:08.999Z</time></trkpt><trkpt lat="45.61715637747504" lon="8.59570209995332"><ele>263.2</ele><time>2026-05-03T14:14:09.999Z</time></trkpt><trkpt lat="45.617235557285596" lon="8.595634642212252"><ele>263.4</ele><time>2026-05-03T14:14:10.999Z</time></trkpt><trkpt lat="45.61732082172106" lon="8.595496102972108"><ele>263.59999999999997</ele><time>2026-05-03T14:14:12.999Z</time></trkpt><trkpt lat="45.61744524931019" lon="8.59540969943159"><ele>263.8</ele><time>2026-05-03T14:14:14.999Z</time></trkpt><trkpt lat="45.61750587630775" lon="8.595360529126504"><ele>264.0</ele><time>2026-05-03T14:14:15.999Z</time></trkpt><trkpt lat="45.61757826283507" lon="8.595307062022274"><ele>264.0</ele><time>2026-05-03T14:14:16.999Z</time></trkpt><trkpt lat="45.61768309038497" lon="8.595267234285085"><ele>264.0</ele><time>2026-05-03T14:14:17.999Z</time></trkpt><trkpt lat="45.617792196673356" lon="8.595175919520102"><ele>264.0</ele><time>2026-05-03T14:14:19.998Z</time></trkpt><trkpt lat="45.61789372123554" lon="8.595130952264995"><ele>264.0</ele><time>2026-05-03T14:14:20.998Z</time></trkpt><trkpt lat="45.617913392719124" lon="8.594988616839471"><ele>264.0</ele><time>2026-05-03T14:14:23.998Z</time></trkpt><trkpt lat="45.61797880010141" lon="8.594932468966281"><ele>265.2</ele><time>2026-05-03T14:14:24.998Z</time></trkpt><trkpt lat="45.61807936289392" lon="8.59488857388758"><ele>266.4</ele><time>2026-05-03T14:14:25.998Z</time></trkpt><trkpt lat="45.61822676402249" lon="8.594841012166173"><ele>267.6</ele><time>2026-05-03T14:14:26.998Z</time></trkpt><trkpt lat="45.61833009018629" lon="8.594797658529075"><ele>268.8</ele><time>2026-05-03T14:14:27.998Z</time></trkpt><trkpt lat="45.61840065285065" lon="8.594743562261845"><ele>270.0</ele><time>2026-05-03T14:14:28.998Z</time></trkpt><trkpt lat="45.61850622863036" lon="8.594707882639037"><ele>270.0</ele><time>2026-05-03T14:14:29.998Z</time></trkpt><trkpt lat="45.61858347524027" lon="8.594675148684196"><ele>270.0</ele><time>2026-05-03T14:14:30.998Z</time></trkpt><trkpt lat="45.61855988418606" lon="8.594410984431299"><ele>270.0</ele><time>2026-05-03T14:14:31.998Z</time></trkpt><trkpt lat="45.61867318423588" lon="8.594343869571306"><ele>270.0</ele><time>2026-05-03T14:14:33.998Z</time></trkpt><trkpt lat="45.61874650340338" lon="8.594304830650236"><ele>269.5</ele><time>2026-05-03T14:14:34.998Z</time></trkpt><trkpt lat="45.618838067441075" lon="8.594249233844861"><ele>269.0</ele><time>2026-05-03T14:14:35.998Z</time></trkpt><trkpt lat="45.61891073602126" lon="8.594213938927206"><ele>268.5</ele><time>2026-05-03T14:14:36.998Z</time></trkpt><trkpt lat="45.61898977701336" lon="8.594201219405674"><ele>268.0</ele><time>2026-05-03T14:14:37.998Z</time></trkpt><trkpt lat="45.61906080934808" lon="8.594182418489645"><ele>267.5</ele><time>2026-05-03T14:14:38.998Z</time></trkpt><trkpt lat="45.619135308580375" lon="8.594150229477158"><ele>267.0</ele><time>2026-05-03T14:14:39.998Z</time></trkpt><trkpt lat="45.61923211314176" lon="8.594145561814797"><ele>267.0</ele><time>2026-05-03T14:14:40.998Z</time></trkpt><trkpt lat="45.61927937385383" lon="8.594221009016557"><ele>267.0</ele><time>2026-05-03T14:14:41.998Z</time></trkpt><trkpt lat="45.61934902140459" lon="8.594314902088305"><ele>267.0</ele><time>2026-05-03T14:14:42.998Z</time></trkpt><trkpt lat="45.619429416310695" lon="8.594377290024813"><ele>267.0</ele><time>2026-05-03T14:14:43.998Z</time></trkpt><trkpt lat="45.61951255389894" lon="8.594466702106663"><ele>267.0</ele><time>2026-05-03T14:14:44.998Z</time></trkpt><trkpt lat="45.61954853413597" lon="8.594571519036693"><ele>267.0</ele><time>2026-05-03T14:14:45.998Z</time></trkpt><trkpt lat="45.61957380049257" lon="8.594656137381698"><ele>268.6</ele><time>2026-05-03T14:14:46.998Z</time></trkpt><trkpt lat="45.619591603268745" lon="8.594762066119428"><ele>270.2</ele><time>2026-05-03T14:14:47.998Z</time></trkpt><trkpt lat="45.61962631378802" lon="8.594864513895764"><ele>271.8</ele><time>2026-05-03T14:14:48.998Z</time></trkpt><trkpt lat="45.61966072726098" lon="8.59494679540366"><ele>273.4</ele><time>2026-05-03T14:14:49.998Z</time></trkpt><trkpt lat="45.61967467710433" lon="8.595062655714887"><ele>275.0</ele><time>2026-05-03T14:14:51.998Z</time></trkpt><trkpt lat="45.6195395911444" lon="8.595436727145927"><ele>275.2</ele><time>2026-05-03T14:14:53.998Z</time></trkpt><trkpt lat="45.61956242813168" lon="8.595568305860958"><ele>275.4</ele><time>2026-05-03T14:14:55.998Z</time></trkpt><trkpt lat="45.6195942595692" lon="8.595693464777684"><ele>275.6</ele><time>2026-05-03T14:14:57.998Z</time></trkpt><trkpt lat="45.61969628959158" lon="8.595689745152447"><ele>275.8</ele><time>2026-05-03T14:14:59.997Z</time></trkpt><trkpt lat="45.61978945685814" lon="8.595658645463077"><ele>276.0</ele><time>2026-05-03T14:15:00.997Z</time></trkpt><trkpt lat="45.61988608550418" lon="8.595626662760628"><ele>276.0</ele><time>2026-05-03T14:15:01.997Z</time></trkpt><trkpt lat="45.61997614118628" lon="8.595597464496944"><ele>276.0</ele><time>2026-05-03T14:15:02.997Z</time></trkpt><trkpt lat="45.620065011779744" lon="8.595575064026876"><ele>276.0</ele><time>2026-05-03T14:15:03.997Z</time></trkpt><trkpt lat="45.6201614800057" lon="8.595533357390446"><ele>276.0</ele><time>2026-05-03T14:15:04.997Z</time></trkpt><trkpt lat="45.62025546305974" lon="8.59549974887051"><ele>276.0</ele><time>2026-05-03T14:15:05.997Z</time></trkpt><trkpt lat="45.62034238998721" lon="8.595470291110669"><ele>276.0</ele><time>2026-05-03T14:15:06.997Z</time></trkpt><trkpt lat="45.62042705875668" lon="8.595442460911892"><ele>276.0</ele><time>2026-05-03T14:15:07.997Z</time></trkpt><trkpt lat="45.62050788929059" lon="8.595410303065409"><ele>276.0</ele><time>2026-05-03T14:15:09Z</time></trkpt><trkpt lat="45.62058769760488" lon="8.595361841938667"><ele>276.0</ele><time>2026-05-03T14:15:10Z</time></trkpt><trkpt lat="45.62068159812807" lon="8.595364618791805"><ele>276.0</ele><time>2026-05-03T14:15:11Z</time></trkpt><trkpt lat="45.62076690720671" lon="8.59532153199711"><ele>276.0</ele><time>2026-05-03T14:15:12Z</time></trkpt><trkpt lat="45.62085740618516" lon="8.595275239340861"><ele>276.0</ele><time>2026-05-03T14:15:13Z</time></trkpt><trkpt lat="45.620945380172856" lon="8.595228400361055"><ele>276.0</ele><time>2026-05-03T14:15:14Z</time></trkpt><trkpt lat="45.62103081021981" lon="8.595178622590133"><ele>276.0</ele><time>2026-05-03T14:15:15Z</time></trkpt><trkpt lat="45.62110834466158" lon="8.595105823304475"><ele>276.0</ele><time>2026-05-03T14:15:16Z</time></trkpt><trkpt lat="45.6211930111148" lon="8.595045536685491"><ele>276.0</ele><time>2026-05-03T14:15:17Z</time></trkpt><trkpt lat="45.62128066324822" lon="8.595004446040724"><ele>275.8333333333333</ele><time>2026-05-03T14:15:18Z</time></trkpt><trkpt lat="45.62135867486566" lon="8.594968720222537"><ele>275.6666666666667</ele><time>2026-05-03T14:15:19Z</time></trkpt><trkpt lat="45.621427797984346" lon="8.59494400624489"><ele>275.5</ele><time>2026-05-03T14:15:20Z</time></trkpt><trkpt lat="45.6214985914589" lon="8.59492068404479"><ele>275.33333333333337</ele><time>2026-05-03T14:15:21Z</time></trkpt><trkpt lat="45.621580246438256" lon="8.594898880418874"><ele>275.1666666666667</ele><time>2026-05-03T14:15:22Z</time></trkpt><trkpt lat="45.62166351070647" lon="8.594863981840332"><ele>275.0</ele><time>2026-05-03T14:15:23Z</time></trkpt><trkpt lat="45.621768001575994" lon="8.594855611659417"><ele>275.0</ele><time>2026-05-03T14:15:24Z</time></trkpt><trkpt lat="45.621893238956844" lon="8.594829729183617"><ele>275.0</ele><time>2026-05-03T14:15:25Z</time></trkpt><trkpt lat="45.62202616086121" lon="8.594803888494365"><ele>275.0</ele><time>2026-05-03T14:15:26Z</time></trkpt><trkpt lat="45.62215339498224" lon="8.594783564648724"><ele>275.0</ele><time>2026-05-03T14:15:27Z</time></trkpt><trkpt lat="45.62228546841533" lon="8.594754344698181"><ele>276.33333333333337</ele><time>2026-05-03T14:15:28Z</time></trkpt><trkpt lat="45.62243254981638" lon="8.594740282747813"><ele>277.6666666666667</ele><time>2026-05-03T14:15:29Z</time></trkpt><trkpt lat="45.62260732699337" lon="8.594732303533574"><ele>279.0</ele><time>2026-05-03T14:15:30Z</time></trkpt><trkpt lat="45.62279329629372" lon="8.594732294742723"><ele>279.5</ele><time>2026-05-03T14:15:31Z</time></trkpt><trkpt lat="45.62295290037616" lon="8.59472752175446"><ele>280.0</ele><time>2026-05-03T14:15:32Z</time></trkpt><trkpt lat="45.623081856687236" lon="8.594726642390366"><ele>280.5</ele><time>2026-05-03T14:15:33Z</time></trkpt><trkpt lat="45.62319275281761" lon="8.594724697222151"><ele>281.0</ele><time>2026-05-03T14:15:34Z</time></trkpt><trkpt lat="45.62330935547147" lon="8.594712650586716"><ele>281.0</ele><time>2026-05-03T14:15:35Z</time></trkpt><trkpt lat="45.62344494282175" lon="8.59466271453859"><ele>281.0</ele><time>2026-05-03T14:15:36Z</time></trkpt><trkpt lat="45.62357439572742" lon="8.594614841329948"><ele>281.0</ele><time>2026-05-03T14:15:37Z</time></trkpt><trkpt lat="45.623686578755986" lon="8.594603099366916"><ele>281.0</ele><time>2026-05-03T14:15:38Z</time></trkpt><trkpt lat="45.62377795291892" lon="8.594553983513025"><ele>281.0</ele><time>2026-05-03T14:15:39Z</time></trkpt><trkpt lat="45.6238636105879" lon="8.594535974902394"><ele>281.0</ele><time>2026-05-03T14:15:40Z</time></trkpt><trkpt lat="45.623941646967104" lon="8.594508824092562"><ele>281.0</ele><time>2026-05-03T14:15:41Z</time></trkpt><trkpt lat="45.62400331849424" lon="8.59448978076654"><ele>281.0</ele><time>2026-05-03T14:15:42Z</time></trkpt><trkpt lat="45.62410596264562" lon="8.59446310144836"><ele>281.0</ele><time>2026-05-03T14:15:44Z</time></trkpt><trkpt lat="45.624195141981566" lon="8.594454899662528"><ele>281.0</ele><time>2026-05-03T14:15:45.999Z</time></trkpt><trkpt lat="45.624289570134685" lon="8.594429521830268"><ele>281.0</ele><time>2026-05-03T14:15:47.999Z</time></trkpt><trkpt lat="45.624392058524315" lon="8.59439593102031"><ele>281.0</ele><time>2026-05-03T14:15:49.999Z</time></trkpt><trkpt lat="45.62450817029454" lon="8.594355508246789"><ele>281.0</ele><time>2026-05-03T14:15:51.999Z</time></trkpt><trkpt lat="45.624613967176984" lon="8.594334650341255"><ele>281.0</ele><time>2026-05-03T14:15:53.999Z</time></trkpt><trkpt lat="45.624729190666365" lon="8.594297434743932"><ele>281.33333333333337</ele><time>2026-05-03T14:15:55.999Z</time></trkpt><trkpt lat="45.62480137337921" lon="8.59428506579984"><ele>281.6666666666667</ele><time>2026-05-03T14:15:56.999Z</time></trkpt><trkpt lat="45.62487585485437" lon="8.594264114655907"><ele>282.0</ele><time>2026-05-03T14:15:57.999Z</time></trkpt><trkpt lat="45.624951719005075" lon="8.594224916518757"><ele>282.3333333333333</ele><time>2026-05-03T14:15:58.999Z</time></trkpt><trkpt lat="45.625052944661235" lon="8.594197988080087"><ele>282.66666666666663</ele><time>2026-05-03T14:15:59.999Z</time></trkpt><trkpt lat="45.625135390812105" lon="8.594171099575949"><ele>283.0</ele><time>2026-05-03T14:16:00.999Z</time></trkpt><trkpt lat="45.62520639412019" lon="8.594171768790156"><ele>283.0</ele><time>2026-05-03T14:16:01.999Z</time></trkpt><trkpt lat="45.62531422074637" lon="8.59415140264438"><ele>283.0</ele><time>2026-05-03T14:16:03.999Z</time></trkpt><trkpt lat="45.62537776737034" lon="8.59419697055391"><ele>283.0</ele><time>2026-05-03T14:16:05.999Z</time></trkpt><trkpt lat="45.625355411135374" lon="8.594375119509827"><ele>283.0</ele><time>2026-05-03T14:16:06.999Z</time></trkpt><trkpt lat="45.62537551273226" lon="8.594514048065932"><ele>283.0</ele><time>2026-05-03T14:16:07.999Z</time></trkpt><trkpt lat="45.625394466874496" lon="8.594614613237956"><ele>283.0</ele><time>2026-05-03T14:16:09.999Z</time></trkpt><trkpt lat="45.62542261855405" lon="8.594702855364382"><ele>283.0</ele><time>2026-05-03T14:16:11.999Z</time></trkpt><trkpt lat="45.625488813143015" lon="8.594743101260857"><ele>283.0</ele><time>2026-05-03T14:16:13.999Z</time></trkpt><trkpt lat="45.62555255639805" lon="8.594763369982658"><ele>283.0</ele><time>2026-05-03T14:16:15.999Z</time></trkpt><trkpt lat="45.62564435003767" lon="8.59467080943385"><ele>283.0</ele><time>2026-05-03T14:16:17.999Z</time></trkpt><trkpt lat="45.62568974228646" lon="8.594604396709478"><ele>283.0</ele><time>2026-05-03T14:16:18.999Z</time></trkpt><trkpt lat="45.62576019904009" lon="8.59455003850764"><ele>283.0</ele><time>2026-05-03T14:16:19.999Z</time></trkpt><trkpt lat="45.62585065872087" lon="8.594508705734592"><ele>283.0</ele><time>2026-05-03T14:16:20.999Z</time></trkpt><trkpt lat="45.62596452466387" lon="8.594458929861208"><ele>283.0</ele><time>2026-05-03T14:16:21.999Z</time></trkpt><trkpt lat="45.62609203757055" lon="8.594391053196373"><ele>283.0</ele><time>2026-05-03T14:16:22.999Z</time></trkpt><trkpt lat="45.626249604897225" lon="8.594308173758408"><ele>285.0</ele><time>2026-05-03T14:16:23.998Z</time></trkpt><trkpt lat="45.626421948168385" lon="8.594227074926195"><ele>287.0</ele><time>2026-05-03T14:16:24.998Z</time></trkpt><trkpt lat="45.62660516973188" lon="8.594130125970807"><ele>289.0</ele><time>2026-05-03T14:16:25.998Z</time></trkpt><trkpt lat="45.626786933463755" lon="8.594038598606293"><ele>289.0</ele><time>2026-05-03T14:16:26.998Z</time></trkpt><trkpt lat="45.62696404377674" lon="8.593953921850582"><ele>289.0</ele><time>2026-05-03T14:16:27.998Z</time></trkpt><trkpt lat="45.627117402273996" lon="8.593878321324619"><ele>289.0</ele><time>2026-05-03T14:16:28.998Z</time></trkpt><trkpt lat="45.62722726608154" lon="8.593816603576075"><ele>289.0</ele><time>2026-05-03T14:16:29.998Z</time></trkpt><trkpt lat="45.627286893321966" lon="8.593785197387026"><ele>289.0</ele><time>2026-05-03T14:16:30.998Z</time></trkpt><trkpt lat="45.62735316497371" lon="8.593730048475258"><ele>289.0</ele><time>2026-05-03T14:16:32.998Z</time></trkpt><trkpt lat="45.6274147930056" lon="8.593668713763442"><ele>289.0</ele><time>2026-05-03T14:16:34.998Z</time></trkpt><trkpt lat="45.62748228471511" lon="8.59363206992319"><ele>289.0</ele><time>2026-05-03T14:16:36.998Z</time></trkpt><trkpt lat="45.62753835432716" lon="8.593579008731664"><ele>289.0</ele><time>2026-05-03T14:16:38.998Z</time></trkpt><trkpt lat="45.62759813304931" lon="8.593519172077592"><ele>289.0</ele><time>2026-05-03T14:16:40.998Z</time></trkpt><trkpt lat="45.62767684122985" lon="8.593444182402902"><ele>289.0</ele><time>2026-05-03T14:16:42.998Z</time></trkpt><trkpt lat="45.62776683256782" lon="8.59334760670247"><ele>289.0</ele><time>2026-05-03T14:16:44.998Z</time></trkpt><trkpt lat="45.627865033360976" lon="8.593260608738026"><ele>289.0</ele><time>2026-05-03T14:16:46.998Z</time></trkpt><trkpt lat="45.6279670377007" lon="8.593188574969178"><ele>289.0</ele><time>2026-05-03T14:16:48.998Z</time></trkpt><trkpt lat="45.628071038828914" lon="8.593146000761758"><ele>289.0</ele><time>2026-05-03T14:16:50.998Z</time></trkpt><trkpt lat="45.62816036407717" lon="8.593085255812065"><ele>289.0</ele><time>2026-05-03T14:16:52.998Z</time></trkpt><trkpt lat="45.628238254890974" lon="8.593043211069132"><ele>289.0</ele><time>2026-05-03T14:16:54.998Z</time></trkpt><trkpt lat="45.62831530328607" lon="8.593069013678072"><ele>289.0</ele><time>2026-05-03T14:16:56.998Z</time></trkpt><trkpt lat="45.62836851218915" lon="8.593185316852354"><ele>289.0</ele><time>2026-05-03T14:16:58.998Z</time></trkpt><trkpt lat="45.62838759269399" lon="8.593335524894197"><ele>289.0</ele><time>2026-05-03T14:17:00.998Z</time></trkpt><trkpt lat="45.628425423826236" lon="8.593481206142505"><ele>289.0</ele><time>2026-05-03T14:17:02.998Z</time></trkpt><trkpt lat="45.628455779063806" lon="8.593655592858193"><ele>289.0</ele><time>2026-05-03T14:17:04.997Z</time></trkpt><trkpt lat="45.62849443643467" lon="8.593826407026068"><ele>289.0</ele><time>2026-05-03T14:17:06.997Z</time></trkpt><trkpt lat="45.628556123162156" lon="8.593949151613232"><ele>289.25</ele><time>2026-05-03T14:17:08.997Z</time></trkpt><trkpt lat="45.62868765218757" lon="8.593956711559073"><ele>289.5</ele><time>2026-05-03T14:17:10.997Z</time></trkpt><trkpt lat="45.62878199502077" lon="8.593889295732689"><ele>289.75</ele><time>2026-05-03T14:17:11.997Z</time></trkpt><trkpt lat="45.628920946941385" lon="8.593809451555273"><ele>290.0</ele><time>2026-05-03T14:17:12.997Z</time></trkpt><trkpt lat="45.62908773092559" lon="8.59370588359197"><ele>290.0</ele><time>2026-05-03T14:17:14Z</time></trkpt><trkpt lat="45.62928582631341" lon="8.593589236842789"><ele>290.0</ele><time>2026-05-03T14:17:15Z</time></trkpt><trkpt lat="45.62949733988047" lon="8.593454507715167"><ele>290.0</ele><time>2026-05-03T14:17:16Z</time></trkpt><trkpt lat="45.62971790723828" lon="8.593301904002471"><ele>290.0</ele><time>2026-05-03T14:17:17Z</time></trkpt><trkpt lat="45.629908620454096" lon="8.593167736234973"><ele>290.0</ele><time>2026-05-03T14:17:18Z</time></trkpt><trkpt lat="45.63007762788022" lon="8.593050439717764"><ele>290.0</ele><time>2026-05-03T14:17:19Z</time></trkpt><trkpt lat="45.63022333573931" lon="8.592949612685803"><ele>290.0</ele><time>2026-05-03T14:17:20Z</time></trkpt><trkpt lat="45.63036369056977" lon="8.592856765372286"><ele>290.0</ele><time>2026-05-03T14:17:21Z</time></trkpt><trkpt lat="45.63049023431168" lon="8.592775440696236"><ele>290.0</ele><time>2026-05-03T14:17:22Z</time></trkpt><trkpt lat="45.630606130219434" lon="8.592701092388143"><ele>290.0</ele><time>2026-05-03T14:17:23Z</time></trkpt><trkpt lat="45.63070797857778" lon="8.59262996870845"><ele>290.0</ele><time>2026-05-03T14:17:24Z</time></trkpt><trkpt lat="45.630786293017565" lon="8.592575070770653"><ele>290.0</ele><time>2026-05-03T14:17:25Z</time></trkpt><trkpt lat="45.63084533373371" lon="8.592536351432779"><ele>290.0</ele><time>2026-05-03T14:17:26Z</time></trkpt><trkpt lat="45.63092199987199" lon="8.59252042966926"><ele>290.0</ele><time>2026-05-03T14:17:28Z</time></trkpt><trkpt lat="45.63096715096983" lon="8.592627128341425"><ele>290.0</ele><time>2026-05-03T14:17:29Z</time></trkpt><trkpt lat="45.63098543736143" lon="8.592775070455911"><ele>290.0</ele><time>2026-05-03T14:17:30Z</time></trkpt><trkpt lat="45.63100725407964" lon="8.59293537014516"><ele>290.0</ele><time>2026-05-03T14:17:31Z</time></trkpt><trkpt lat="45.631035118304496" lon="8.593018461688482"><ele>290.0</ele><time>2026-05-03T14:17:32Z</time></trkpt><trkpt lat="45.631094075778286" lon="8.593114780396045"><ele>290.0</ele><time>2026-05-03T14:17:34Z</time></trkpt><trkpt lat="45.631211597717744" lon="8.593042217851698"><ele>290.0</ele><time>2026-05-03T14:17:35Z</time></trkpt><trkpt lat="45.63131911866234" lon="8.592956397066917"><ele>290.0</ele><time>2026-05-03T14:17:36Z</time></trkpt><trkpt lat="45.631472512493914" lon="8.592887893344294"><ele>292.0</ele><time>2026-05-03T14:17:37Z</time></trkpt><trkpt lat="45.63162796804643" lon="8.592780826882619"><ele>294.0</ele><time>2026-05-03T14:17:38Z</time></trkpt><trkpt lat="45.6318053215332" lon="8.59269593482051"><ele>296.0</ele><time>2026-05-03T14:17:39Z</time></trkpt><trkpt lat="45.631998763051655" lon="8.592625844669442"><ele>296.6666666666667</ele><time>2026-05-03T14:17:40Z</time></trkpt><trkpt lat="45.63219138066737" lon="8.592502682561143"><ele>297.3333333333333</ele><time>2026-05-03T14:17:41Z</time></trkpt><trkpt lat="45.632373693469845" lon="8.59240984490412"><ele>298.0</ele><time>2026-05-03T14:17:42Z</time></trkpt><trkpt lat="45.63253289850117" lon="8.592356670373345"><ele>298.0</ele><time>2026-05-03T14:17:43Z</time></trkpt><trkpt lat="45.63265761129921" lon="8.592296212576263"><ele>298.0</ele><time>2026-05-03T14:17:44Z</time></trkpt><trkpt lat="45.63275532110063" lon="8.592248309122171"><ele>298.0</ele><time>2026-05-03T14:17:45Z</time></trkpt><trkpt lat="45.63282398602297" lon="8.592211062343498"><ele>298.0</ele><time>2026-05-03T14:17:46Z</time></trkpt><trkpt lat="45.63290534123985" lon="8.59218174928736"><ele>298.0</ele><time>2026-05-03T14:17:48Z</time></trkpt><trkpt lat="45.632968003288156" lon="8.592272491451505"><ele>298.6</ele><time>2026-05-03T14:17:50.999Z</time></trkpt><trkpt lat="45.63296333364504" lon="8.5924274171156"><ele>299.20000000000005</ele><time>2026-05-03T14:17:51.999Z</time></trkpt><trkpt lat="45.63297542775788" lon="8.592571330649129"><ele>299.8</ele><time>2026-05-03T14:17:52.999Z</time></trkpt><trkpt lat="45.632991083225406" lon="8.592713385880476"><ele>300.40000000000003</ele><time>2026-05-03T14:17:53.999Z</time></trkpt><trkpt lat="45.63300423818467" lon="8.592850503045034"><ele>301.0</ele><time>2026-05-03T14:17:54.999Z</time></trkpt><trkpt lat="45.63301594658689" lon="8.59297413609666"><ele>301.0</ele><time>2026-05-03T14:17:55.999Z</time></trkpt><trkpt lat="45.633031936830285" lon="8.59309945187102"><ele>301.0</ele><time>2026-05-03T14:17:56.999Z</time></trkpt><trkpt lat="45.63305983248785" lon="8.593224702326534"><ele>301.0</ele><time>2026-05-03T14:17:57.999Z</time></trkpt><trkpt lat="45.63308990775764" lon="8.59334681096605"><ele>301.0</ele><time>2026-05-03T14:17:58.999Z</time></trkpt><trkpt lat="45.63311103698064" lon="8.593452875221615"><ele>301.0</ele><time>2026-05-03T14:17:59.999Z</time></trkpt><trkpt lat="45.633125406462156" lon="8.59354406295736"><ele>301.0</ele><time>2026-05-03T14:18:00.999Z</time></trkpt><trkpt lat="45.63315171181016" lon="8.593649390972617"><ele>301.0</ele><time>2026-05-03T14:18:02.999Z</time></trkpt><trkpt lat="45.63325447122092" lon="8.593695102247466"><ele>301.0</ele><time>2026-05-03T14:18:05.999Z</time></trkpt><trkpt lat="45.63329833227318" lon="8.593595259867207"><ele>301.0</ele><time>2026-05-03T14:18:07.999Z</time></trkpt><trkpt lat="45.63330069535301" lon="8.593456283611385"><ele>301.0</ele><time>2026-05-03T14:18:09.999Z</time></trkpt><trkpt lat="45.63330801258343" lon="8.593316787425888"><ele>301.0</ele><time>2026-05-03T14:18:11.999Z</time></trkpt><trkpt lat="45.63332387760269" lon="8.593163355680195"><ele>301.0</ele><time>2026-05-03T14:18:13.999Z</time></trkpt><trkpt lat="45.633356904781145" lon="8.593051424864376"><ele>301.0</ele><time>2026-05-03T14:18:15.999Z</time></trkpt><trkpt lat="45.63340876663155" lon="8.59299973069239"><ele>301.0</ele><time>2026-05-03T14:18:17.999Z</time></trkpt><trkpt lat="45.633469115130865" lon="8.592948527118542"><ele>301.0</ele><time>2026-05-03T14:18:19.999Z</time></trkpt><trkpt lat="45.63358983906658" lon="8.592934748989624"><ele>301.0</ele><time>2026-05-03T14:18:21.999Z</time></trkpt><trkpt lat="45.63366632294326" lon="8.592917079682618"><ele>301.0</ele><time>2026-05-03T14:18:22.999Z</time></trkpt><trkpt lat="45.633744754368266" lon="8.592899173210862"><ele>301.6</ele><time>2026-05-03T14:18:23.999Z</time></trkpt><trkpt lat="45.63383051112973" lon="8.592880193068723"><ele>302.20000000000005</ele><time>2026-05-03T14:18:24.999Z</time></trkpt><trkpt lat="45.63391923043912" lon="8.592860557236701"><ele>302.79999999999995</ele><time>2026-05-03T14:18:25.999Z</time></trkpt><trkpt lat="45.634006939425966" lon="8.5928411450386"><ele>303.4</ele><time>2026-05-03T14:18:26.999Z</time></trkpt><trkpt lat="45.63409982733266" lon="8.592818496263687"><ele>304.0</ele><time>2026-05-03T14:18:27.999Z</time></trkpt><trkpt lat="45.63419268623668" lon="8.592792568403894"><ele>304.0</ele><time>2026-05-03T14:18:28.998Z</time></trkpt><trkpt lat="45.63428575802224" lon="8.592769042119693"><ele>304.0</ele><time>2026-05-03T14:18:29.998Z</time></trkpt><trkpt lat="45.6343789362668" lon="8.592752284744606"><ele>304.0</ele><time>2026-05-03T14:18:30.998Z</time></trkpt><trkpt lat="45.634478818784096" lon="8.59273345190595"><ele>304.0</ele><time>2026-05-03T14:18:31.998Z</time></trkpt><trkpt lat="45.634583491412" lon="8.592713014332496"><ele>304.0</ele><time>2026-05-03T14:18:32.998Z</time></trkpt><trkpt lat="45.634689708218275" lon="8.592686723548937"><ele>303.59999999999997</ele><time>2026-05-03T14:18:33.998Z</time></trkpt><trkpt lat="45.634797799271034" lon="8.59265244656777"><ele>303.2</ele><time>2026-05-03T14:18:34.998Z</time></trkpt><trkpt lat="45.6348971839973" lon="8.59260123682789"><ele>302.79999999999995</ele><time>2026-05-03T14:18:35.998Z</time></trkpt><trkpt lat="45.63500624837773" lon="8.592561822167893"><ele>302.4</ele><time>2026-05-03T14:18:36.998Z</time></trkpt><trkpt lat="45.63511234867728" lon="8.592523585587166"><ele>302.0</ele><time>2026-05-03T14:18:37.998Z</time></trkpt><trkpt lat="45.63522076122756" lon="8.592493197364517"><ele>302.2</ele><time>2026-05-03T14:18:38.998Z</time></trkpt><trkpt lat="45.63532342582004" lon="8.592463026246797"><ele>302.4</ele><time>2026-05-03T14:18:39.998Z</time></trkpt><trkpt lat="45.63541867259697" lon="8.59243585983933"><ele>302.6</ele><time>2026-05-03T14:18:40.998Z</time></trkpt><trkpt lat="45.63552005224831" lon="8.592402478608891"><ele>302.8</ele><time>2026-05-03T14:18:41.998Z</time></trkpt><trkpt lat="45.635613251376604" lon="8.592368221469872"><ele>303.0</ele><time>2026-05-03T14:18:42.998Z</time></trkpt><trkpt lat="45.63570448084294" lon="8.59235926765709"><ele>303.0</ele><time>2026-05-03T14:18:43.998Z</time></trkpt><trkpt lat="45.635791523971655" lon="8.592331131461357"><ele>303.0</ele><time>2026-05-03T14:18:44.998Z</time></trkpt><trkpt lat="45.635887920366685" lon="8.592279545474385"><ele>303.0</ele><time>2026-05-03T14:18:45.998Z</time></trkpt><trkpt lat="45.63598029101148" lon="8.592255090348223"><ele>303.0</ele><time>2026-05-03T14:18:46.998Z</time></trkpt><trkpt lat="45.63604842270404" lon="8.59223388282345"><ele>303.0</ele><time>2026-05-03T14:18:47.998Z</time></trkpt><trkpt lat="45.63612239542877" lon="8.592223304793743"><ele>303.0</ele><time>2026-05-03T14:18:49.998Z</time></trkpt><trkpt lat="45.63615747829366" lon="8.592413456515168"><ele>303.3333333333333</ele><time>2026-05-03T14:18:52.998Z</time></trkpt><trkpt lat="45.63617635306152" lon="8.592522909537982"><ele>303.6666666666667</ele><time>2026-05-03T14:18:54.998Z</time></trkpt><trkpt lat="45.63619886143536" lon="8.592639803916633"><ele>304.0</ele><time>2026-05-03T14:18:56.998Z</time></trkpt><trkpt lat="45.63621572301698" lon="8.592736710753169"><ele>304.33333333333337</ele><time>2026-05-03T14:18:58.998Z</time></trkpt><trkpt lat="45.63623047848576" lon="8.592853297831823"><ele>304.6666666666667</ele><time>2026-05-03T14:19:02.998Z</time></trkpt><trkpt lat="45.63622291085038" lon="8.592971871336903"><ele>305.0</ele><time>2026-05-03T14:19:05.998Z</time></trkpt><trkpt lat="45.63622864492169" lon="8.593074660408288"><ele>305.0</ele><time>2026-05-03T14:19:07.998Z</time></trkpt><trkpt lat="45.63624258459153" lon="8.593171066857943"><ele>305.0</ele><time>2026-05-03T14:19:09.997Z</time></trkpt><trkpt lat="45.63627649407162" lon="8.593264436970793"><ele>305.0</ele><time>2026-05-03T14:19:11.997Z</time></trkpt><trkpt lat="45.63636311397628" lon="8.59329309594641"><ele>305.0</ele><time>2026-05-03T14:19:13.997Z</time></trkpt><trkpt lat="45.636487096771305" lon="8.593221678313842"><ele>305.0</ele><time>2026-05-03T14:19:15.997Z</time></trkpt><trkpt lat="45.63655898421419" lon="8.593199501933778"><ele>305.0</ele><time>2026-05-03T14:19:16.997Z</time></trkpt><trkpt lat="45.63664472303523" lon="8.593292887051827"><ele>305.0</ele><time>2026-05-03T14:19:18.997Z</time></trkpt><trkpt lat="45.6366695684037" lon="8.593393447746838"><ele>305.0</ele><time>2026-05-03T14:19:20Z</time></trkpt><trkpt lat="45.63667800837974" lon="8.593519033284986"><ele>305.0</ele><time>2026-05-03T14:19:21Z</time></trkpt><trkpt lat="45.63669545620275" lon="8.593663266225999"><ele>305.0</ele><time>2026-05-03T14:19:22Z</time></trkpt><trkpt lat="45.63672667864962" lon="8.593816073326465"><ele>305.0</ele><time>2026-05-03T14:19:23Z</time></trkpt><trkpt lat="45.63676326846398" lon="8.593951140413862"><ele>305.0</ele><time>2026-05-03T14:19:24Z</time></trkpt><trkpt lat="45.63679485236346" lon="8.594101625065877"><ele>305.0</ele><time>2026-05-03T14:19:25Z</time></trkpt><trkpt lat="45.63682646391468" lon="8.594252344119617"><ele>305.0</ele><time>2026-05-03T14:19:26Z</time></trkpt><trkpt lat="45.6368566815635" lon="8.594362697774578"><ele>305.0</ele><time>2026-05-03T14:19:27Z</time></trkpt><trkpt lat="45.636879561823314" lon="8.594448240806948"><ele>305.0</ele><time>2026-05-03T14:19:29Z</time></trkpt><trkpt lat="45.636882614825566" lon="8.594558874194492"><ele>305.0</ele><time>2026-05-03T14:19:32Z</time></trkpt><trkpt lat="45.63687371653432" lon="8.594685771391102"><ele>304.8</ele><time>2026-05-03T14:19:34Z</time></trkpt><trkpt lat="45.6368546782531" lon="8.594810146600167"><ele>304.6</ele><time>2026-05-03T14:19:35Z</time></trkpt><trkpt lat="45.636845835546694" lon="8.594928471596845"><ele>304.4</ele><time>2026-05-03T14:19:36Z</time></trkpt><trkpt lat="45.63684888029174" lon="8.595118392569617"><ele>304.2</ele><time>2026-05-03T14:19:37Z</time></trkpt><trkpt lat="45.63686476531453" lon="8.595252434870314"><ele>304.0</ele><time>2026-05-03T14:19:38Z</time></trkpt><trkpt lat="45.636866961373485" lon="8.59535351500927"><ele>303.0</ele><time>2026-05-03T14:19:39Z</time></trkpt><trkpt lat="45.63687049921999" lon="8.595491043066694"><ele>302.0</ele><time>2026-05-03T14:19:40Z</time></trkpt><trkpt lat="45.63687421418276" lon="8.595638296013037"><ele>301.0</ele><time>2026-05-03T14:19:41Z</time></trkpt><trkpt lat="45.63687576061073" lon="8.595778396718961"><ele>300.0</ele><time>2026-05-03T14:19:42Z</time></trkpt><trkpt lat="45.6368740322186" lon="8.595908715016934"><ele>299.0</ele><time>2026-05-03T14:19:43Z</time></trkpt><trkpt lat="45.636876107030915" lon="8.596033535938924"><ele>299.0</ele><time>2026-05-03T14:19:44Z</time></trkpt><trkpt lat="45.636879528520616" lon="8.596136181383716"><ele>299.0</ele><time>2026-05-03T14:19:45Z</time></trkpt><trkpt lat="45.63691107168023" lon="8.596264435557057"><ele>299.0</ele><time>2026-05-03T14:19:47Z</time></trkpt><trkpt lat="45.63697344754929" lon="8.596305197341437"><ele>299.0</ele><time>2026-05-03T14:19:48Z</time></trkpt><trkpt lat="45.637061928877436" lon="8.59634535910658"><ele>299.0</ele><time>2026-05-03T14:19:49Z</time></trkpt><trkpt lat="45.63714536661067" lon="8.596378994050488"><ele>299.0</ele><time>2026-05-03T14:19:50Z</time></trkpt><trkpt lat="45.63722319444397" lon="8.596390274770416"><ele>297.6666666666667</ele><time>2026-05-03T14:19:51Z</time></trkpt><trkpt lat="45.63730186969983" lon="8.596407964872196"><ele>296.33333333333337</ele><time>2026-05-03T14:19:52Z</time></trkpt><trkpt lat="45.63736894105659" lon="8.596447386967471"><ele>295.0</ele><time>2026-05-03T14:19:53Z</time></trkpt><trkpt lat="45.63744027948988" lon="8.596518056756764"><ele>293.6666666666667</ele><time>2026-05-03T14:19:53.999Z</time></trkpt><trkpt lat="45.6375106340684" lon="8.596582821357448"><ele>292.3333333333333</ele><time>2026-05-03T14:19:54.999Z</time></trkpt><trkpt lat="45.63759172700667" lon="8.596647227235055"><ele>291.0</ele><time>2026-05-03T14:19:55.999Z</time></trkpt><trkpt lat="45.63767195932043" lon="8.59671108487757"><ele>291.0</ele><time>2026-05-03T14:19:56.999Z</time></trkpt><trkpt lat="45.63773123218745" lon="8.596763392717044"><ele>291.0</ele><time>2026-05-03T14:19:57.999Z</time></trkpt><trkpt lat="45.637813367962636" lon="8.596832059157444"><ele>291.0</ele><time>2026-05-03T14:19:59.999Z</time></trkpt><trkpt lat="45.637901852489506" lon="8.596842144805452"><ele>291.0</ele><time>2026-05-03T14:20:01.999Z</time></trkpt><trkpt lat="45.63804105149197" lon="8.596780951425101"><ele>291.0</ele><time>2026-05-03T14:20:04.999Z</time></trkpt><trkpt lat="45.63814703689347" lon="8.596704722378425"><ele>290.3333333333333</ele><time>2026-05-03T14:20:05.999Z</time></trkpt><trkpt lat="45.63822936945727" lon="8.596637026079312"><ele>289.6666666666667</ele><time>2026-05-03T14:20:06.999Z</time></trkpt><trkpt lat="45.638314980338286" lon="8.596581855842523"><ele>289.0</ele><time>2026-05-03T14:20:07.999Z</time></trkpt><trkpt lat="45.638402674342" lon="8.596529581038187"><ele>288.33333333333337</ele><time>2026-05-03T14:20:08.999Z</time></trkpt><trkpt lat="45.63848033600571" lon="8.596475285870495"><ele>287.6666666666667</ele><time>2026-05-03T14:20:09.999Z</time></trkpt><trkpt lat="45.63853298743633" lon="8.5964190716746"><ele>287.0</ele><time>2026-05-03T14:20:10.999Z</time></trkpt><trkpt lat="45.63857779368247" lon="8.596255203591056"><ele>287.1666666666667</ele><time>2026-05-03T14:20:12.999Z</time></trkpt><trkpt lat="45.63859799515944" lon="8.596141945584256"><ele>287.33333333333337</ele><time>2026-05-03T14:20:13.999Z</time></trkpt><trkpt lat="45.63862334321692" lon="8.596023109171282"><ele>287.5</ele><time>2026-05-03T14:20:14.999Z</time></trkpt><trkpt lat="45.638674289204104" lon="8.5958761225586"><ele>287.6666666666667</ele><time>2026-05-03T14:20:15.999Z</time></trkpt><trkpt lat="45.638708426677255" lon="8.595766790742257"><ele>287.8333333333333</ele><time>2026-05-03T14:20:16.999Z</time></trkpt><trkpt lat="45.63873804181117" lon="8.595681974842135"><ele>288.0</ele><time>2026-05-03T14:20:17.999Z</time></trkpt><trkpt lat="45.638638688044104" lon="8.59554381907847"><ele>289.0</ele><time>2026-05-03T14:20:35.998Z</time></trkpt><trkpt lat="45.638610424518795" lon="8.595435179434592"><ele>290.0</ele><time>2026-05-03T14:20:36.998Z</time></trkpt><trkpt lat="45.6386076158562" lon="8.595337746069058"><ele>291.0</ele><time>2026-05-03T14:20:37.998Z</time></trkpt><trkpt lat="45.63853626032675" lon="8.59523317419883"><ele>292.0</ele><time>2026-05-03T14:20:40.998Z</time></trkpt><trkpt lat="45.638485266285" lon="8.595163548719366"><ele>293.0</ele><time>2026-05-03T14:20:45.998Z</time></trkpt><trkpt lat="45.63854964535209" lon="8.595139784199551"><ele>294.0</ele><time>2026-05-03T14:21:03.998Z</time></trkpt><trkpt lat="45.63861058452169" lon="8.5950901927314"><ele>294.3333333333333</ele><time>2026-05-03T14:21:07.998Z</time></trkpt><trkpt lat="45.63869984564332" lon="8.595032742603964"><ele>294.6666666666667</ele><time>2026-05-03T14:21:11.998Z</time></trkpt><trkpt lat="45.63880723031985" lon="8.594969482188157"><ele>295.0</ele><time>2026-05-03T14:21:13.997Z</time></trkpt><trkpt lat="45.63888037535232" lon="8.594904951754081"><ele>295.33333333333337</ele><time>2026-05-03T14:21:15.997Z</time></trkpt><trkpt lat="45.63895312222938" lon="8.594869381317782"><ele>295.6666666666667</ele><time>2026-05-03T14:21:18.997Z</time></trkpt><trkpt lat="45.63901961199859" lon="8.594838302304643"><ele>296.0</ele><time>2026-05-03T14:21:29Z</time></trkpt><trkpt lat="45.639034025536" lon="8.59473829285304"><ele>296.0</ele><time>2026-05-03T14:21:34Z</time></trkpt><trkpt lat="45.638961375402054" lon="8.594723882185185"><ele>296.0</ele><time>2026-05-03T14:21:42Z</time></trkpt><trkpt lat="45.638900600620204" lon="8.594760970986727"><ele>296.0</ele><time>2026-05-03T14:21:45Z</time></trkpt><trkpt lat="45.63883714903694" lon="8.594795491208012"><ele>296.0</ele><time>2026-05-03T14:21:48Z</time></trkpt><trkpt lat="45.63877708805631" lon="8.594832129211316"><ele>296.0</ele><time>2026-05-03T14:21:51Z</time></trkpt><trkpt lat="45.63872407263298" lon="8.594896729779531"><ele>296.0</ele><time>2026-05-03T14:21:54Z</time></trkpt><trkpt lat="45.6386760454853" lon="8.594985045344512"><ele>296.0</ele><time>2026-05-03T14:21:57Z</time></trkpt><trkpt lat="45.638601096886276" lon="8.595062681912607"><ele>295.6666666666667</ele><time>2026-05-03T14:21:59.999Z</time></trkpt><trkpt lat="45.63854223382611" lon="8.59514882536218"><ele>295.33333333333337</ele><time>2026-05-03T14:22:02.999Z</time></trkpt><trkpt lat="45.638501275234795" lon="8.595260891691298"><ele>295.0</ele><time>2026-05-03T14:22:05.999Z</time></trkpt><trkpt lat="45.638456489563495" lon="8.595355353954194"><ele>294.6666666666667</ele><time>2026-05-03T14:22:08.999Z</time></trkpt><trkpt lat="45.6384271714652" lon="8.595460041151927"><ele>294.3333333333333</ele><time>2026-05-03T14:22:11.999Z</time></trkpt><trkpt lat="45.63839432900089" lon="8.595549463353668"><ele>294.0</ele><time>2026-05-03T14:22:14.999Z</time></trkpt><trkpt lat="45.63838308583838" lon="8.595669527129393"><ele>294.0</ele><time>2026-05-03T14:22:17.999Z</time></trkpt><trkpt lat="45.63836875975997" lon="8.595768486844754"><ele>294.0</ele><time>2026-05-03T14:22:20.999Z</time></trkpt><trkpt lat="45.638407810476245" lon="8.595848333466753"><ele>294.0</ele><time>2026-05-03T14:22:24.999Z</time></trkpt><trkpt lat="45.63847388049266" lon="8.595904784129981"><ele>294.0</ele><time>2026-05-03T14:22:28.999Z</time></trkpt><trkpt lat="45.63851770377363" lon="8.595981759242207"><ele>294.0</ele><time>2026-05-03T14:22:31.999Z</time></trkpt><trkpt lat="45.63859409677647" lon="8.59598142466687"><ele>294.0</ele><time>2026-05-03T14:22:35.999Z</time></trkpt><trkpt lat="45.63862994810928" lon="8.595905769013834"><ele>294.0</ele><time>2026-05-03T14:22:39.998Z</time></trkpt><trkpt lat="45.638669426267874" lon="8.595808774685617"><ele>294.0</ele><time>2026-05-03T14:22:43.998Z</time></trkpt><trkpt lat="45.6386745616502" lon="8.595639399606144"><ele>294.0</ele><time>2026-05-03T14:22:48.998Z</time></trkpt><trkpt lat="45.63864330155527" lon="8.595531082482562"><ele>294.0</ele><time>2026-05-03T14:22:49.998Z</time></trkpt><trkpt lat="45.6386060663193" lon="8.595450650405018"><ele>294.0</ele><time>2026-05-03T14:22:50.998Z</time></trkpt><trkpt lat="45.638585561276656" lon="8.595326544605953"><ele>294.0</ele><time>2026-05-03T14:22:52.998Z</time></trkpt><trkpt lat="45.63852754761415" lon="8.595271983725794"><ele>294.0</ele><time>2026-05-03T14:22:54.998Z</time></trkpt><trkpt lat="45.63846209247738" lon="8.595211085823221"><ele>294.0</ele><time>2026-05-03T14:22:56.998Z</time></trkpt><trkpt lat="45.63843065457946" lon="8.595127998136544"><ele>294.0</ele><time>2026-05-03T14:22:58.998Z</time></trkpt><trkpt lat="45.63851196989306" lon="8.59519568123227"><ele>294.0</ele><time>2026-05-03T14:23:08.998Z</time></trkpt><trkpt lat="45.638567165661584" lon="8.59524872014105"><ele>294.0</ele><time>2026-05-03T14:23:10.998Z</time></trkpt><trkpt lat="45.63859050542157" lon="8.59537704355644"><ele>294.0</ele><time>2026-05-03T14:23:13.998Z</time></trkpt><trkpt lat="45.638605549468195" lon="8.595494412254357"><ele>294.0</ele><time>2026-05-03T14:23:14.998Z</time></trkpt><trkpt lat="45.638649553820436" lon="8.595596215192474"><ele>293.0</ele><time>2026-05-03T14:23:15.998Z</time></trkpt><trkpt lat="45.638705952063134" lon="8.59563824294129"><ele>292.0</ele><time>2026-05-03T14:23:18.997Z</time></trkpt><trkpt lat="45.63876612827611" lon="8.595601728354971"><ele>291.0</ele><time>2026-05-03T14:23:20.997Z</time></trkpt><trkpt lat="45.63883464030384" lon="8.595559475509631"><ele>290.0</ele><time>2026-05-03T14:23:22.997Z</time></trkpt><trkpt lat="45.6389102691488" lon="8.595500067018273"><ele>289.0</ele><time>2026-05-03T14:23:25.997Z</time></trkpt><trkpt lat="45.638998878238894" lon="8.595476702265415"><ele>288.0</ele><time>2026-05-03T14:23:27.997Z</time></trkpt><trkpt lat="45.6391205183571" lon="8.595427762073884"><ele>288.00000000000006</ele><time>2026-05-03T14:23:28.997Z</time></trkpt><trkpt lat="45.63920779147987" lon="8.595406622212415"><ele>288.0</ele><time>2026-05-03T14:23:31Z</time></trkpt><trkpt lat="45.639272731012696" lon="8.595372316046422"><ele>288.0</ele><time>2026-05-03T14:23:33Z</time></trkpt><trkpt lat="45.639306670353314" lon="8.595294896514204"><ele>288.0</ele><time>2026-05-03T14:23:35Z</time></trkpt><trkpt lat="45.639336650880644" lon="8.595180322924923"><ele>288.0</ele><time>2026-05-03T14:23:37Z</time></trkpt><trkpt lat="45.6393287136016" lon="8.595088831838902"><ele>288.00000000000006</ele><time>2026-05-03T14:23:39Z</time></trkpt><trkpt lat="45.63934950486723" lon="8.595000374755871"><ele>288.0</ele><time>2026-05-03T14:24:07.999Z</time></trkpt><trkpt lat="45.63930257903168" lon="8.594921903982973"><ele>289.3333333333333</ele><time>2026-05-03T14:28:11.999Z</time></trkpt><trkpt lat="45.63927747736699" lon="8.594837079260124"><ele>290.6666666666667</ele><time>2026-05-03T14:28:57.998Z</time></trkpt><trkpt lat="45.63918718617981" lon="8.594772163278945"><ele>292.0</ele><time>2026-05-03T14:30:28.999Z</time></trkpt><trkpt lat="45.63912292008088" lon="8.594750882433393"><ele>293.33333333333337</ele><time>2026-05-03T14:33:19.998Z</time></trkpt><trkpt lat="45.63905875101597" lon="8.594727994085742"><ele>294.6666666666667</ele><time>2026-05-03T14:33:22.998Z</time></trkpt><trkpt lat="45.638964481413296" lon="8.59479034683351"><ele>296.0</ele><time>2026-05-03T14:33:25.998Z</time></trkpt><trkpt lat="45.63887713845736" lon="8.594805900029336"><ele>296.0</ele><time>2026-05-03T14:33:27.998Z</time></trkpt><trkpt lat="45.6388150894659" lon="8.594832801778415"><ele>296.0</ele><time>2026-05-03T14:33:29.998Z</time></trkpt><trkpt lat="45.63874310789117" lon="8.59488646084495"><ele>296.0</ele><time>2026-05-03T14:33:33.998Z</time></trkpt><trkpt lat="45.63869312153748" lon="8.594952226569644"><ele>296.0</ele><time>2026-05-03T14:33:36.998Z</time></trkpt><trkpt lat="45.63864741239763" lon="8.595016102430737"><ele>296.0</ele><time>2026-05-03T14:33:39.997Z</time></trkpt><trkpt lat="45.63859119143178" lon="8.595077026822763"><ele>296.0</ele><time>2026-05-03T14:33:43.997Z</time></trkpt><trkpt lat="45.63860423545031" lon="8.59517985377487"><ele>296.0</ele><time>2026-05-03T14:33:48.997Z</time></trkpt><trkpt lat="45.63863004434938" lon="8.59529094745917"><ele>294.6666666666667</ele><time>2026-05-03T14:33:51.997Z</time></trkpt><trkpt lat="45.638642432969405" lon="8.59539806462623"><ele>293.33333333333337</ele><time>2026-05-03T14:33:52.997Z</time></trkpt><trkpt lat="45.63867660089568" lon="8.595507287207102"><ele>292.0</ele><time>2026-05-03T14:33:53.997Z</time></trkpt><trkpt lat="45.63872304831341" lon="8.595582256423164"><ele>290.6666666666667</ele><time>2026-05-03T14:33:54.997Z</time></trkpt><trkpt lat="45.63880623583487" lon="8.595589054381438"><ele>289.3333333333333</ele><time>2026-05-03T14:33:57.997Z</time></trkpt><trkpt lat="45.63889413553023" lon="8.595519652475513"><ele>288.0</ele><time>2026-05-03T14:34:00Z</time></trkpt><trkpt lat="45.638959596277616" lon="8.595460780917623"><ele>288.0</ele><time>2026-05-03T14:34:02Z</time></trkpt><trkpt lat="45.63904665366023" lon="8.595428682662167"><ele>288.0</ele><time>2026-05-03T14:34:05Z</time></trkpt><trkpt lat="45.63913455396528" lon="8.59539323100198"><ele>288.0</ele><time>2026-05-03T14:34:07Z</time></trkpt><trkpt lat="45.63919866313367" lon="8.595370930235267"><ele>288.0</ele><time>2026-05-03T14:34:09Z</time></trkpt><trkpt lat="45.63923274471419" lon="8.595275094956072"><ele>288.0</ele><time>2026-05-03T14:34:11Z</time></trkpt><trkpt lat="45.639255874451486" lon="8.595166007200657"><ele>288.0</ele><time>2026-05-03T14:34:13Z</time></trkpt><trkpt lat="45.63932005267049" lon="8.595119640401897"><ele>289.3333333333333</ele><time>2026-05-03T14:34:17Z</time></trkpt><trkpt lat="45.63937574193461" lon="8.59504926022813"><ele>290.6666666666667</ele><time>2026-05-03T14:34:33.999Z</time></trkpt><trkpt lat="45.63932387270011" lon="8.594948847452736"><ele>292.0</ele><time>2026-05-03T14:34:35.999Z</time></trkpt><trkpt lat="45.63924505883727" lon="8.594864220223796"><ele>293.33333333333337</ele><time>2026-05-03T14:36:28.999Z</time></trkpt><trkpt lat="45.639300303523015" lon="8.594967908977656"><ele>294.6666666666667</ele><time>2026-05-03T14:37:15.998Z</time></trkpt><trkpt lat="45.639357663451264" lon="8.595015580876224"><ele>296.0</ele><time>2026-05-03T14:37:58.997Z</time></trkpt><trkpt lat="45.63942345581182" lon="8.5949637840581"><ele>295.1666666666667</ele><time>2026-05-03T14:38:02.997Z</time></trkpt><trkpt lat="45.63950746735977" lon="8.594938331558854"><ele>294.33333333333337</ele><time>2026-05-03T14:38:05.997Z</time></trkpt><trkpt lat="45.63957615101117" lon="8.59495062340953"><ele>293.5</ele><time>2026-05-03T14:38:07.997Z</time></trkpt><trkpt lat="45.63965103056845" lon="8.594927551150327"><ele>292.6666666666667</ele><time>2026-05-03T14:38:11Z</time></trkpt><trkpt lat="45.63972007295589" lon="8.59485288074142"><ele>291.8333333333333</ele><time>2026-05-03T14:38:23Z</time></trkpt><trkpt lat="45.639788482735185" lon="8.594813407080409"><ele>291.0</ele><time>2026-05-03T14:38:26Z</time></trkpt><trkpt lat="45.639871177185846" lon="8.59476211705116"><ele>291.0</ele><time>2026-05-03T14:38:29Z</time></trkpt><trkpt lat="45.63994046320474" lon="8.594732512465553"><ele>291.0</ele><time>2026-05-03T14:38:31Z</time></trkpt><trkpt lat="45.64001068249919" lon="8.594697809126453"><ele>291.0</ele><time>2026-05-03T14:38:32.999Z</time></trkpt><trkpt lat="45.64009280575949" lon="8.594627449694407"><ele>291.0</ele><time>2026-05-03T14:38:35.999Z</time></trkpt><trkpt lat="45.640161232067165" lon="8.594559370473998"><ele>291.0</ele><time>2026-05-03T14:38:38.999Z</time></trkpt><trkpt lat="45.64021265685422" lon="8.594488322229466"><ele>291.0</ele><time>2026-05-03T14:38:40.999Z</time></trkpt><trkpt lat="45.64027207936477" lon="8.594426872455985"><ele>291.42857142857144</ele><time>2026-05-03T14:38:43.999Z</time></trkpt><trkpt lat="45.64029018697065" lon="8.59433998385733"><ele>291.85714285714283</ele><time>2026-05-03T14:38:47.999Z</time></trkpt><trkpt lat="45.640339849180506" lon="8.594282335015556"><ele>292.2857142857143</ele><time>2026-05-03T14:38:52.999Z</time></trkpt><trkpt lat="45.6403992449467" lon="8.594237964648993"><ele>292.7142857142857</ele><time>2026-05-03T14:38:56.999Z</time></trkpt><trkpt lat="45.640490204194165" lon="8.594235023498378"><ele>293.1428571428571</ele><time>2026-05-03T14:39:00.999Z</time></trkpt><trkpt lat="45.64051661031388" lon="8.594136284660811"><ele>293.57142857142856</ele><time>2026-05-03T14:39:04.999Z</time></trkpt><trkpt lat="45.64048020370153" lon="8.594026215002787"><ele>294.0</ele><time>2026-05-03T14:39:07.999Z</time></trkpt><trkpt lat="45.64043246520968" lon="8.593940327083358"><ele>294.0</ele><time>2026-05-03T14:39:09.999Z</time></trkpt><trkpt lat="45.64039898996297" lon="8.593824880439394"><ele>294.0</ele><time>2026-05-03T14:39:12.998Z</time></trkpt><trkpt lat="45.64037931846869" lon="8.593723440930534"><ele>294.0</ele><time>2026-05-03T14:39:14.998Z</time></trkpt><trkpt lat="45.64033712377915" lon="8.593611809323017"><ele>294.0</ele><time>2026-05-03T14:39:16.998Z</time></trkpt><trkpt lat="45.64031137136573" lon="8.59349469434218"><ele>294.0</ele><time>2026-05-03T14:39:19.998Z</time></trkpt><trkpt lat="45.64025902316898" lon="8.593367133614134"><ele>294.0</ele><time>2026-05-03T14:39:22.998Z</time></trkpt><trkpt lat="45.640213568870465" lon="8.59327783699281"><ele>295.3333333333333</ele><time>2026-05-03T14:39:24.998Z</time></trkpt><trkpt lat="45.64017155730401" lon="8.593175582207142"><ele>296.6666666666667</ele><time>2026-05-03T14:39:26.998Z</time></trkpt><trkpt lat="45.64013835405611" lon="8.593065295478674"><ele>298.0</ele><time>2026-05-03T14:39:28.998Z</time></trkpt><trkpt lat="45.64010317629046" lon="8.592936269717153"><ele>299.33333333333337</ele><time>2026-05-03T14:39:30.998Z</time></trkpt><trkpt lat="45.6400711363017" lon="8.59283225341954"><ele>300.6666666666667</ele><time>2026-05-03T14:39:32.998Z</time></trkpt><trkpt lat="45.64004114862082" lon="8.592719480581058"><ele>302.0</ele><time>2026-05-03T14:39:34.998Z</time></trkpt><trkpt lat="45.64001431687711" lon="8.592621953402679"><ele>302.83333333333337</ele><time>2026-05-03T14:39:36.998Z</time></trkpt><trkpt lat="45.640021755973606" lon="8.592504145219943"><ele>303.6666666666667</ele><time>2026-05-03T14:39:40.998Z</time></trkpt><trkpt lat="45.640030031278634" lon="8.592401986093266"><ele>304.5</ele><time>2026-05-03T14:39:43.998Z</time></trkpt><trkpt lat="45.64004318738095" lon="8.592292896600885"><ele>305.3333333333333</ele><time>2026-05-03T14:39:46.998Z</time></trkpt><trkpt lat="45.64003627226602" lon="8.592191225395345"><ele>306.16666666666663</ele><time>2026-05-03T14:39:50.998Z</time></trkpt><trkpt lat="45.64007383080269" lon="8.592073361182456"><ele>307.0</ele><time>2026-05-03T14:39:52.997Z</time></trkpt><trkpt lat="45.640088682566926" lon="8.591961164320637"><ele>307.3333333333333</ele><time>2026-05-03T14:39:54.997Z</time></trkpt><trkpt lat="45.64010611070015" lon="8.591856647659496"><ele>307.66666666666663</ele><time>2026-05-03T14:39:56.997Z</time></trkpt><trkpt lat="45.6400975692473" lon="8.59171896304241"><ele>308.0</ele><time>2026-05-03T14:39:58.997Z</time></trkpt><trkpt lat="45.64010813279292" lon="8.591618469265931"><ele>308.3333333333333</ele><time>2026-05-03T14:40:00.997Z</time></trkpt><trkpt lat="45.640143920862805" lon="8.591518602929996"><ele>308.6666666666667</ele><time>2026-05-03T14:40:03.997Z</time></trkpt><trkpt lat="45.64021833665396" lon="8.591440461924007"><ele>309.0</ele><time>2026-05-03T14:40:06.997Z</time></trkpt><trkpt lat="45.64028988388031" lon="8.591421519529643"><ele>309.1666666666667</ele><time>2026-05-03T14:40:08.997Z</time></trkpt><trkpt lat="45.64039231186197" lon="8.591284255216717"><ele>309.3333333333333</ele><time>2026-05-03T14:40:11.997Z</time></trkpt><trkpt lat="45.64045899812051" lon="8.59121105142213"><ele>309.5</ele><time>2026-05-03T14:40:13.997Z</time></trkpt><trkpt lat="45.64054415320975" lon="8.591147763017478"><ele>309.66666666666663</ele><time>2026-05-03T14:40:16Z</time></trkpt><trkpt lat="45.64060818931014" lon="8.591131313126835"><ele>309.8333333333333</ele><time>2026-05-03T14:40:18Z</time></trkpt><trkpt lat="45.640643941171476" lon="8.59105613481702"><ele>310.0</ele><time>2026-05-03T14:40:20Z</time></trkpt><trkpt lat="45.64063889435875" lon="8.590904240480194"><ele>310.0</ele><time>2026-05-03T14:40:22Z</time></trkpt><trkpt lat="45.640746495811975" lon="8.590836083090876"><ele>310.0</ele><time>2026-05-03T14:40:23Z</time></trkpt><trkpt lat="45.640738867454175" lon="8.590746235558042"><ele>310.0</ele><time>2026-05-03T14:40:24Z</time></trkpt><trkpt lat="45.64072500956409" lon="8.59064115669747"><ele>310.0</ele><time>2026-05-03T14:40:25Z</time></trkpt><trkpt lat="45.640711476408235" lon="8.590515532230187"><ele>310.0</ele><time>2026-05-03T14:40:26Z</time></trkpt><trkpt lat="45.640698893259604" lon="8.590403908238818"><ele>310.0</ele><time>2026-05-03T14:40:27Z</time></trkpt><trkpt lat="45.640675184673384" lon="8.590283463720695"><ele>309.6</ele><time>2026-05-03T14:40:28Z</time></trkpt><trkpt lat="45.640663966982956" lon="8.590181316119793"><ele>309.2</ele><time>2026-05-03T14:40:29Z</time></trkpt><trkpt lat="45.640632624680315" lon="8.590021568214226"><ele>308.8</ele><time>2026-05-03T14:40:31Z</time></trkpt><trkpt lat="45.64055675934247" lon="8.590009798715393"><ele>308.4</ele><time>2026-05-03T14:40:34Z</time></trkpt><trkpt lat="45.64041032147344" lon="8.590011853361219"><ele>308.0</ele><time>2026-05-03T14:40:35.999Z</time></trkpt><trkpt lat="45.64029968723905" lon="8.590008254994444"><ele>308.0</ele><time>2026-05-03T14:40:36.999Z</time></trkpt><trkpt lat="45.64021585469368" lon="8.589997318717844"><ele>308.0</ele><time>2026-05-03T14:40:37.999Z</time></trkpt><trkpt lat="45.64015953774597" lon="8.589912024464175"><ele>308.0</ele><time>2026-05-03T14:40:39.999Z</time></trkpt><trkpt lat="45.640158823320526" lon="8.589746515018678"><ele>308.0</ele><time>2026-05-03T14:40:41.999Z</time></trkpt><trkpt lat="45.64018295193831" lon="8.589618169781668"><ele>308.0</ele><time>2026-05-03T14:40:42.999Z</time></trkpt><trkpt lat="45.640173404949074" lon="8.589518903105061"><ele>308.0</ele><time>2026-05-03T14:40:43.999Z</time></trkpt><trkpt lat="45.640158820657575" lon="8.589310116534156"><ele>308.0</ele><time>2026-05-03T14:40:45.999Z</time></trkpt><trkpt lat="45.64014771739917" lon="8.589216417912333"><ele>308.0</ele><time>2026-05-03T14:40:46.999Z</time></trkpt><trkpt lat="45.64013703815606" lon="8.589117080831764"><ele>308.0</ele><time>2026-05-03T14:40:47.999Z</time></trkpt><trkpt lat="45.640131613195855" lon="8.589008480968348"><ele>308.0</ele><time>2026-05-03T14:40:48.999Z</time></trkpt><trkpt lat="45.64011721549281" lon="8.588904245756643"><ele>308.0</ele><time>2026-05-03T14:40:49.999Z</time></trkpt><trkpt lat="45.64010338991089" lon="8.588795571551243"><ele>308.0</ele><time>2026-05-03T14:40:50.999Z</time></trkpt><trkpt lat="45.640081143644395" lon="8.588668789958966"><ele>308.2</ele><time>2026-05-03T14:40:51.999Z</time></trkpt><trkpt lat="45.640067443657955" lon="8.588534412404634"><ele>308.4</ele><time>2026-05-03T14:40:52.999Z</time></trkpt><trkpt lat="45.64004569521979" lon="8.588403003732095"><ele>308.59999999999997</ele><time>2026-05-03T14:40:53.999Z</time></trkpt><trkpt lat="45.6400210636481" lon="8.588258598273052"><ele>308.8</ele><time>2026-05-03T14:40:54.999Z</time></trkpt><trkpt lat="45.63999729616321" lon="8.588108719000575"><ele>309.0</ele><time>2026-05-03T14:40:55.999Z</time></trkpt><trkpt lat="45.63998192291816" lon="8.587983296017924"><ele>309.0</ele><time>2026-05-03T14:40:56.999Z</time></trkpt><trkpt lat="45.63996812022668" lon="8.58787379674355"><ele>309.0</ele><time>2026-05-03T14:40:57.999Z</time></trkpt><trkpt lat="45.63995459441185" lon="8.58774981370777"><ele>309.0</ele><time>2026-05-03T14:40:58.999Z</time></trkpt><trkpt lat="45.63993756022985" lon="8.587630582387119"><ele>309.0</ele><time>2026-05-03T14:40:59.999Z</time></trkpt><trkpt lat="45.639921072479986" lon="8.587524617527041"><ele>309.0</ele><time>2026-05-03T14:41:00.999Z</time></trkpt><trkpt lat="45.639906067237405" lon="8.58742039121899"><ele>309.0</ele><time>2026-05-03T14:41:01.999Z</time></trkpt><trkpt lat="45.63988740669239" lon="8.587326993134196"><ele>309.0</ele><time>2026-05-03T14:41:02.999Z</time></trkpt><trkpt lat="45.63985680287536" lon="8.587174197565487"><ele>309.0</ele><time>2026-05-03T14:41:04.999Z</time></trkpt><trkpt lat="45.639804557632836" lon="8.587069714488154"><ele>309.0</ele><time>2026-05-03T14:41:06.999Z</time></trkpt><trkpt lat="45.63970649718287" lon="8.586952006780587"><ele>309.0</ele><time>2026-05-03T14:41:08.999Z</time></trkpt><trkpt lat="45.63965621005061" lon="8.586869468658927"><ele>309.0</ele><time>2026-05-03T14:41:09.999Z</time></trkpt><trkpt lat="45.6396128328216" lon="8.586789985587162"><ele>309.0</ele><time>2026-05-03T14:41:10.999Z</time></trkpt><trkpt lat="45.6395773083533" lon="8.586703707691802"><ele>309.0</ele><time>2026-05-03T14:41:11.999Z</time></trkpt><trkpt lat="45.63954227188945" lon="8.586622338180813"><ele>309.0</ele><time>2026-05-03T14:41:12.999Z</time></trkpt><trkpt lat="45.639510559090176" lon="8.586529509326315"><ele>309.0</ele><time>2026-05-03T14:41:13.998Z</time></trkpt><trkpt lat="45.63946824399016" lon="8.586437780075931"><ele>309.0</ele><time>2026-05-03T14:41:14.998Z</time></trkpt><trkpt lat="45.63942838373657" lon="8.586324058963404"><ele>309.0</ele><time>2026-05-03T14:41:16.998Z</time></trkpt><trkpt lat="45.6393535632716" lon="8.586239231421658"><ele>309.6666666666667</ele><time>2026-05-03T14:41:18.998Z</time></trkpt><trkpt lat="45.63929272983781" lon="8.586197567458807"><ele>310.3333333333333</ele><time>2026-05-03T14:41:20.998Z</time></trkpt><trkpt lat="45.63923689360197" lon="8.586044714172175"><ele>311.0</ele><time>2026-05-03T14:41:22.998Z</time></trkpt><trkpt lat="45.639206119816436" lon="8.585945995127755"><ele>311.66666666666663</ele><time>2026-05-03T14:41:23.998Z</time></trkpt><trkpt lat="45.63917426113944" lon="8.585849451512926"><ele>312.3333333333333</ele><time>2026-05-03T14:41:24.998Z</time></trkpt><trkpt lat="45.639147144007126" lon="8.585765964264876"><ele>313.0</ele><time>2026-05-03T14:41:25.998Z</time></trkpt><trkpt lat="45.639130063669946" lon="8.585668113948339"><ele>313.0</ele><time>2026-05-03T14:41:26.998Z</time></trkpt><trkpt lat="45.63909914052244" lon="8.585546685526403"><ele>313.0</ele><time>2026-05-03T14:41:27.998Z</time></trkpt><trkpt lat="45.63906286037431" lon="8.585452730739464"><ele>313.0</ele><time>2026-05-03T14:41:28.998Z</time></trkpt><trkpt lat="45.63903045071167" lon="8.585368573771891"><ele>313.0</ele><time>2026-05-03T14:41:29.998Z</time></trkpt><trkpt lat="45.63901900790299" lon="8.585260486378248"><ele>313.0</ele><time>2026-05-03T14:41:30.998Z</time></trkpt><trkpt lat="45.639009474609296" lon="8.58515780504929"><ele>313.0</ele><time>2026-05-03T14:41:31.998Z</time></trkpt><trkpt lat="45.63899065218959" lon="8.585034013236935"><ele>312.3333333333333</ele><time>2026-05-03T14:41:32.998Z</time></trkpt><trkpt lat="45.63896959619935" lon="8.584923844408316"><ele>311.66666666666663</ele><time>2026-05-03T14:41:33.998Z</time></trkpt><trkpt lat="45.63894208199954" lon="8.58481835053028"><ele>311.0</ele><time>2026-05-03T14:41:34.998Z</time></trkpt><trkpt lat="45.63891230751951" lon="8.584711295299286"><ele>310.3333333333333</ele><time>2026-05-03T14:41:35.998Z</time></trkpt><trkpt lat="45.63889732838755" lon="8.58458089703131"><ele>309.6666666666667</ele><time>2026-05-03T14:41:36.998Z</time></trkpt><trkpt lat="45.6388586248035" lon="8.584474420234125"><ele>309.0</ele><time>2026-05-03T14:41:37.998Z</time></trkpt><trkpt lat="45.63882537418593" lon="8.584312750894759"><ele>308.0</ele><time>2026-05-03T14:41:39.998Z</time></trkpt><trkpt lat="45.638906716072405" lon="8.584326665273748"><ele>307.0</ele><time>2026-05-03T14:41:55.997Z</time></trkpt><trkpt lat="45.63902950573793" lon="8.584344894280578"><ele>306.0</ele><time>2026-05-03T14:41:57.997Z</time></trkpt><trkpt lat="45.63909757376939" lon="8.58434356081385"><ele>305.0</ele><time>2026-05-03T14:41:58.997Z</time></trkpt><trkpt lat="45.63916291053532" lon="8.584314083180569"><ele>304.0</ele><time>2026-05-03T14:41:59.997Z</time></trkpt><trkpt lat="45.63924387461085" lon="8.584283867313356"><ele>303.0</ele><time>2026-05-03T14:42:00.997Z</time></trkpt><trkpt lat="45.63933397911054" lon="8.584254033667992"><ele>303.0</ele><time>2026-05-03T14:42:01.997Z</time></trkpt><trkpt lat="45.63943168912264" lon="8.584221884082782"><ele>303.0</ele><time>2026-05-03T14:42:02.997Z</time></trkpt><trkpt lat="45.639528928129934" lon="8.584198847609397"><ele>303.0</ele><time>2026-05-03T14:42:03.997Z</time></trkpt><trkpt lat="45.63962208163753" lon="8.584175731728685"><ele>303.0</ele><time>2026-05-03T14:42:04.997Z</time></trkpt><trkpt lat="45.63970527224846" lon="8.584155327325456"><ele>303.0</ele><time>2026-05-03T14:42:05.997Z</time></trkpt><trkpt lat="45.63979914809523" lon="8.584133776856705"><ele>303.6</ele><time>2026-05-03T14:42:06.997Z</time></trkpt><trkpt lat="45.639895563307626" lon="8.584116444883737"><ele>304.20000000000005</ele><time>2026-05-03T14:42:07.997Z</time></trkpt><trkpt lat="45.63997926610628" lon="8.584092863398048"><ele>304.8</ele><time>2026-05-03T14:42:08.997Z</time></trkpt><trkpt lat="45.6400469968568" lon="8.584071280593948"><ele>305.40000000000003</ele><time>2026-05-03T14:42:09.997Z</time></trkpt><trkpt lat="45.640157377164925" lon="8.584024682151368"><ele>306.0</ele><time>2026-05-03T14:42:11.997Z</time></trkpt><trkpt lat="45.640242889467615" lon="8.583947688208838"><ele>306.5</ele><time>2026-05-03T14:42:13.997Z</time></trkpt><trkpt lat="45.64034268748051" lon="8.583846469032922"><ele>307.0</ele><time>2026-05-03T14:42:15.997Z</time></trkpt><trkpt lat="45.64040391708403" lon="8.583740926867952"><ele>307.5</ele><time>2026-05-03T14:42:16.997Z</time></trkpt><trkpt lat="45.640460610777446" lon="8.583653453932131"><ele>308.0</ele><time>2026-05-03T14:42:17.997Z</time></trkpt><trkpt lat="45.640514185657224" lon="8.58358637204392"><ele>308.5</ele><time>2026-05-03T14:42:18.997Z</time></trkpt><trkpt lat="45.64056715080297" lon="8.58351931783282"><ele>309.0</ele><time>2026-05-03T14:42:19.997Z</time></trkpt><trkpt lat="45.640626245027505" lon="8.583368654569888"><ele>307.59999999999997</ele><time>2026-05-03T14:42:22Z</time></trkpt><trkpt lat="45.640617719790804" lon="8.583229487548277"><ele>306.2</ele><time>2026-05-03T14:42:24Z</time></trkpt><trkpt lat="45.64063290155216" lon="8.583118433318917"><ele>304.79999999999995</ele><time>2026-05-03T14:42:29Z</time></trkpt><trkpt lat="45.64063887209563" lon="8.582887917109508"><ele>303.4</ele><time>2026-05-03T14:42:31Z</time></trkpt><trkpt lat="45.64062443268616" lon="8.582795121294405"><ele>302.0</ele><time>2026-05-03T14:42:32Z</time></trkpt><trkpt lat="45.64065659918555" lon="8.58269426785234"><ele>301.4</ele><time>2026-05-03T14:42:34Z</time></trkpt><trkpt lat="45.64071878834023" lon="8.582715908300292"><ele>300.79999999999995</ele><time>2026-05-03T14:42:36Z</time></trkpt><trkpt lat="45.64080400829924" lon="8.582714826065974"><ele>300.2</ele><time>2026-05-03T14:42:37Z</time></trkpt><trkpt lat="45.64087301663202" lon="8.582673045351207"><ele>299.59999999999997</ele><time>2026-05-03T14:42:38Z</time></trkpt><trkpt lat="45.64095011378552" lon="8.582563723436467"><ele>299.0</ele><time>2026-05-03T14:42:39Z</time></trkpt><trkpt lat="45.641065182575524" lon="8.582426968042116"><ele>299.5</ele><time>2026-05-03T14:42:39.999Z</time></trkpt><trkpt lat="45.64115099566674" lon="8.582312025686951"><ele>300.0</ele><time>2026-05-03T14:42:40.999Z</time></trkpt><trkpt lat="45.64123824871138" lon="8.582201645154429"><ele>300.5</ele><time>2026-05-03T14:42:41.999Z</time></trkpt><trkpt lat="45.641327023448035" lon="8.582099216826201"><ele>301.0</ele><time>2026-05-03T14:42:42.999Z</time></trkpt><trkpt lat="45.641418163021704" lon="8.581997957462951"><ele>301.2</ele><time>2026-05-03T14:42:43.999Z</time></trkpt><trkpt lat="45.64150624957953" lon="8.581909481057018"><ele>301.40000000000003</ele><time>2026-05-03T14:42:44.999Z</time></trkpt><trkpt lat="45.64158736029357" lon="8.581825910505689"><ele>301.6</ele><time>2026-05-03T14:42:45.999Z</time></trkpt><trkpt lat="45.64166805292542" lon="8.581743837642334"><ele>301.8</ele><time>2026-05-03T14:42:46.999Z</time></trkpt><trkpt lat="45.641754926081994" lon="8.581679404024747"><ele>302.0</ele><time>2026-05-03T14:42:47.999Z</time></trkpt><trkpt lat="45.64185082234136" lon="8.581611371986112"><ele>302.0</ele><time>2026-05-03T14:42:48.999Z</time></trkpt><trkpt lat="45.64194456807919" lon="8.581553790233462"><ele>302.0</ele><time>2026-05-03T14:42:49.999Z</time></trkpt><trkpt lat="45.64200451839112" lon="8.581488956769316"><ele>302.0</ele><time>2026-05-03T14:42:50.999Z</time></trkpt><trkpt lat="45.64207302851109" lon="8.581468262391843"><ele>302.0</ele><time>2026-05-03T14:42:52.999Z</time></trkpt><trkpt lat="45.64217057861204" lon="8.581503855585298"><ele>302.0</ele><time>2026-05-03T14:43:20.998Z</time></trkpt><trkpt lat="45.64227684290444" lon="8.58148588385159"><ele>302.2</ele><time>2026-05-03T14:43:22.998Z</time></trkpt><trkpt lat="45.64238350075371" lon="8.581454511978631"><ele>302.4</ele><time>2026-05-03T14:43:24.998Z</time></trkpt><trkpt lat="45.64248713231663" lon="8.581417282918517"><ele>302.6</ele><time>2026-05-03T14:43:26.998Z</time></trkpt><trkpt lat="45.64257716796562" lon="8.581388487481647"><ele>302.8</ele><time>2026-05-03T14:43:28.998Z</time></trkpt><trkpt lat="45.64269078733676" lon="8.581347463626653"><ele>303.0</ele><time>2026-05-03T14:43:30.998Z</time></trkpt><trkpt lat="45.6427563304318" lon="8.581328756718069"><ele>303.5</ele><time>2026-05-03T14:43:31.998Z</time></trkpt><trkpt lat="45.6428344754426" lon="8.58130580228081"><ele>304.0</ele><time>2026-05-03T14:43:32.998Z</time></trkpt><trkpt lat="45.64289763596998" lon="8.581295824504291"><ele>304.5</ele><time>2026-05-03T14:43:33.998Z</time></trkpt><trkpt lat="45.642977993503166" lon="8.581257346792572"><ele>305.0</ele><time>2026-05-03T14:43:34.998Z</time></trkpt><trkpt lat="45.64305906944614" lon="8.58122178151245"><ele>305.5</ele><time>2026-05-03T14:43:35.998Z</time></trkpt><trkpt lat="45.643140922841276" lon="8.58118098917292"><ele>306.0</ele><time>2026-05-03T14:43:36.998Z</time></trkpt><trkpt lat="45.64321869274746" lon="8.581136494353467"><ele>306.5</ele><time>2026-05-03T14:43:37.998Z</time></trkpt><trkpt lat="45.64329444749399" lon="8.581105473729297"><ele>307.0</ele><time>2026-05-03T14:43:38.998Z</time></trkpt><trkpt lat="45.64338421000384" lon="8.581084916523897"><ele>307.5</ele><time>2026-05-03T14:43:39.998Z</time></trkpt><trkpt lat="45.6434638715624" lon="8.581059010298477"><ele>308.0</ele><time>2026-05-03T14:43:40.998Z</time></trkpt><trkpt lat="45.64353963048378" lon="8.581045409645718"><ele>308.5</ele><time>2026-05-03T14:43:41.998Z</time></trkpt><trkpt lat="45.64360829827426" lon="8.58103341175386"><ele>309.0</ele><time>2026-05-03T14:43:42.998Z</time></trkpt><trkpt lat="45.6437018970465" lon="8.580985014446043"><ele>309.6666666666667</ele><time>2026-05-03T14:43:44.998Z</time></trkpt><trkpt lat="45.643806558676104" lon="8.580944109037407"><ele>310.3333333333333</ele><time>2026-05-03T14:43:46.998Z</time></trkpt><trkpt lat="45.64387992760003" lon="8.580941170280342"><ele>311.0</ele><time>2026-05-03T14:43:47.998Z</time></trkpt><trkpt lat="45.643970068054436" lon="8.580910803384642"><ele>311.66666666666663</ele><time>2026-05-03T14:43:49.998Z</time></trkpt><trkpt lat="45.64403870757398" lon="8.580921871557619"><ele>312.3333333333333</ele><time>2026-05-03T14:43:57.998Z</time></trkpt><trkpt lat="45.64412644953746" lon="8.58092967857639"><ele>313.0</ele><time>2026-05-03T14:44:00.997Z</time></trkpt><trkpt lat="45.64430992698984" lon="8.580913635528997"><ele>313.0</ele><time>2026-05-03T14:44:03.997Z</time></trkpt><trkpt lat="45.64438646762082" lon="8.580903526087658"><ele>313.0</ele><time>2026-05-03T14:44:04.997Z</time></trkpt><trkpt lat="45.64445934217118" lon="8.580896583256527"><ele>313.0</ele><time>2026-05-03T14:44:05.997Z</time></trkpt><trkpt lat="45.64453129575894" lon="8.580885403124407"><ele>313.0</ele><time>2026-05-03T14:44:06.997Z</time></trkpt><trkpt lat="45.644608089225656" lon="8.580878375047236"><ele>313.0</ele><time>2026-05-03T14:44:07.997Z</time></trkpt><trkpt lat="45.6446901166944" lon="8.580867013110613"><ele>313.0</ele><time>2026-05-03T14:44:08.997Z</time></trkpt><trkpt lat="45.64477921875287" lon="8.58085135043714"><ele>313.4</ele><time>2026-05-03T14:44:09.997Z</time></trkpt><trkpt lat="45.64487247214773" lon="8.5808348011563"><ele>313.8</ele><time>2026-05-03T14:44:10.997Z</time></trkpt><trkpt lat="45.64497143625508" lon="8.580832471003733"><ele>314.2</ele><time>2026-05-03T14:44:11.997Z</time></trkpt><trkpt lat="45.64506186943662" lon="8.580797502877319"><ele>314.6</ele><time>2026-05-03T14:44:12.997Z</time></trkpt><trkpt lat="45.645144758827534" lon="8.580754665115803"><ele>315.0</ele><time>2026-05-03T14:44:13.997Z</time></trkpt><trkpt lat="45.64521177527745" lon="8.580697348327474"><ele>315.0</ele><time>2026-05-03T14:44:14.997Z</time></trkpt><trkpt lat="45.64526347742295" lon="8.580644047534047"><ele>315.0</ele><time>2026-05-03T14:44:15.997Z</time></trkpt><trkpt lat="45.64531708407979" lon="8.58049355775999"><ele>315.0</ele><time>2026-05-03T14:44:17.997Z</time></trkpt><trkpt lat="45.64531442154244" lon="8.580390165460535"><ele>315.0</ele><time>2026-05-03T14:44:18.997Z</time></trkpt><trkpt lat="45.64529817392998" lon="8.58024207681067"><ele>315.0</ele><time>2026-05-03T14:44:19.997Z</time></trkpt><trkpt lat="45.64527988103344" lon="8.580086854621586"><ele>315.0</ele><time>2026-05-03T14:44:20.997Z</time></trkpt><trkpt lat="45.64524931687047" lon="8.579910701894354"><ele>315.0</ele><time>2026-05-03T14:44:21.997Z</time></trkpt><trkpt lat="45.645064862070576" lon="8.579524284968073"><ele>315.2</ele><time>2026-05-03T14:44:22.997Z</time></trkpt><trkpt lat="45.64506713014781" lon="8.579412017706947"><ele>315.4</ele><time>2026-05-03T14:44:23.997Z</time></trkpt><trkpt lat="45.64504573831419" lon="8.57927450757967"><ele>315.6</ele><time>2026-05-03T14:44:24.997Z</time></trkpt><trkpt lat="45.645035235827216" lon="8.579139496644814"><ele>315.8</ele><time>2026-05-03T14:44:26Z</time></trkpt><trkpt lat="45.64503114288411" lon="8.579009660967287"><ele>316.0</ele><time>2026-05-03T14:44:27Z</time></trkpt><trkpt lat="45.64501584762158" lon="8.578878260607217"><ele>316.0</ele><time>2026-05-03T14:44:28Z</time></trkpt><trkpt lat="45.6450018460998" lon="8.578763714599305"><ele>316.0</ele><time>2026-05-03T14:44:29Z</time></trkpt><trkpt lat="45.645018587031785" lon="8.578633272428018"><ele>316.0</ele><time>2026-05-03T14:44:31Z</time></trkpt><trkpt lat="45.645009579710276" lon="8.578475925390306"><ele>316.0</ele><time>2026-05-03T14:44:33Z</time></trkpt><trkpt lat="45.64498675311352" lon="8.578356118666745"><ele>316.0</ele><time>2026-05-03T14:44:34Z</time></trkpt><trkpt lat="45.64497021913159" lon="8.57821872170207"><ele>315.8</ele><time>2026-05-03T14:44:35Z</time></trkpt><trkpt lat="45.644963341302656" lon="8.578081195507446"><ele>315.6</ele><time>2026-05-03T14:44:36Z</time></trkpt><trkpt lat="45.64494482880578" lon="8.577949821510568"><ele>315.4</ele><time>2026-05-03T14:44:37Z</time></trkpt><trkpt lat="45.64493869877944" lon="8.577818409272824"><ele>315.2</ele><time>2026-05-03T14:44:38Z</time></trkpt><trkpt lat="45.64493334075547" lon="8.5777112885149"><ele>315.0</ele><time>2026-05-03T14:44:39Z</time></trkpt><trkpt lat="45.6449102330019" lon="8.577550664096954"><ele>313.6</ele><time>2026-05-03T14:44:41Z</time></trkpt><trkpt lat="45.644911905236405" lon="8.577441283540157"><ele>312.2</ele><time>2026-05-03T14:44:43.999Z</time></trkpt><trkpt lat="45.64490528818948" lon="8.577343298011845"><ele>310.8</ele><time>2026-05-03T14:44:47.999Z</time></trkpt><trkpt lat="45.64487748025468" lon="8.57711557564357"><ele>309.4</ele><time>2026-05-03T14:44:48.999Z</time></trkpt><trkpt lat="45.64484685443365" lon="8.577020834823903"><ele>308.0</ele><time>2026-05-03T14:44:49.999Z</time></trkpt><trkpt lat="45.64482879161548" lon="8.576906233090687"><ele>307.4</ele><time>2026-05-03T14:44:50.999Z</time></trkpt><trkpt lat="45.64481808461852" lon="8.576780181299933"><ele>306.8</ele><time>2026-05-03T14:44:51.999Z</time></trkpt><trkpt lat="45.64480807577737" lon="8.576644839342741"><ele>306.2</ele><time>2026-05-03T14:44:52.999Z</time></trkpt><trkpt lat="45.644802791215334" lon="8.576501418974939"><ele>305.6</ele><time>2026-05-03T14:44:53.999Z</time></trkpt><trkpt lat="45.64479534049238" lon="8.576349703987033"><ele>305.0</ele><time>2026-05-03T14:44:54.999Z</time></trkpt><trkpt lat="45.64479013064892" lon="8.576186223128229"><ele>305.0</ele><time>2026-05-03T14:44:55.999Z</time></trkpt><trkpt lat="45.64477206086047" lon="8.576033635045038"><ele>305.0</ele><time>2026-05-03T14:44:56.999Z</time></trkpt><trkpt lat="45.644750264385294" lon="8.575899170945265"><ele>305.0</ele><time>2026-05-03T14:44:57.999Z</time></trkpt><trkpt lat="45.64474221509326" lon="8.575730405119188"><ele>305.0</ele><time>2026-05-03T14:44:58.999Z</time></trkpt><trkpt lat="45.64472034617557" lon="8.575560583044705"><ele>305.0</ele><time>2026-05-03T14:44:59.999Z</time></trkpt><trkpt lat="45.6446996160093" lon="8.575388176512739"><ele>305.25</ele><time>2026-05-03T14:45:00.999Z</time></trkpt><trkpt lat="45.64468650498061" lon="8.57522006666358"><ele>305.5</ele><time>2026-05-03T14:45:01.999Z</time></trkpt><trkpt lat="45.64467725348996" lon="8.575056129278916"><ele>305.75</ele><time>2026-05-03T14:45:02.999Z</time></trkpt><trkpt lat="45.64466624495044" lon="8.574892025219599"><ele>306.0</ele><time>2026-05-03T14:45:03.999Z</time></trkpt><trkpt lat="45.64466005701105" lon="8.574713262438598"><ele>306.0</ele><time>2026-05-03T14:45:04.999Z</time></trkpt><trkpt lat="45.644645216388895" lon="8.5745302541935"><ele>306.0</ele><time>2026-05-03T14:45:05.999Z</time></trkpt><trkpt lat="45.644633011327024" lon="8.574346431050209"><ele>306.0</ele><time>2026-05-03T14:45:06.999Z</time></trkpt><trkpt lat="45.64462401985357" lon="8.57416574528367"><ele>306.0</ele><time>2026-05-03T14:45:07.999Z</time></trkpt><trkpt lat="45.64461425920125" lon="8.574008992209675"><ele>306.0</ele><time>2026-05-03T14:45:08.999Z</time></trkpt><trkpt lat="45.64459713129833" lon="8.573903203301837"><ele>306.0</ele><time>2026-05-03T14:45:10.999Z</time></trkpt><trkpt lat="45.644656990215154" lon="8.573857726718895"><ele>306.0</ele><time>2026-05-03T14:45:12.999Z</time></trkpt><trkpt lat="45.64475337168947" lon="8.57382499822818"><ele>306.0</ele><time>2026-05-03T14:45:13.999Z</time></trkpt><trkpt lat="45.644859311557376" lon="8.573810338880818"><ele>306.0</ele><time>2026-05-03T14:45:14.999Z</time></trkpt><trkpt lat="45.6449826162085" lon="8.573795668842283"><ele>306.0</ele><time>2026-05-03T14:45:15.999Z</time></trkpt><trkpt lat="45.645117127677466" lon="8.573763972686107"><ele>306.0</ele><time>2026-05-03T14:45:16.999Z</time></trkpt><trkpt lat="45.64526468964035" lon="8.57368411629386"><ele>306.0</ele><time>2026-05-03T14:45:17.999Z</time></trkpt><trkpt lat="45.64539002450302" lon="8.573618195590786"><ele>306.0</ele><time>2026-05-03T14:45:18.999Z</time></trkpt><trkpt lat="45.6454991726326" lon="8.57354860698187"><ele>305.6666666666667</ele><time>2026-05-03T14:45:19.999Z</time></trkpt><trkpt lat="45.64558437167549" lon="8.573495250368522"><ele>305.3333333333333</ele><time>2026-05-03T14:45:20.999Z</time></trkpt><trkpt lat="45.645661043457906" lon="8.573440987014596"><ele>305.0</ele><time>2026-05-03T14:45:21.999Z</time></trkpt><trkpt lat="45.64569980261995" lon="8.573365332126075"><ele>304.66666666666663</ele><time>2026-05-03T14:45:22.999Z</time></trkpt><trkpt lat="45.64572117058216" lon="8.573192025706348"><ele>304.3333333333333</ele><time>2026-05-03T14:45:24.998Z</time></trkpt><trkpt lat="45.64570250699966" lon="8.573092176936948"><ele>304.0</ele><time>2026-05-03T14:45:25.998Z</time></trkpt><trkpt lat="45.645667778950134" lon="8.572916232855421"><ele>305.0</ele><time>2026-05-03T14:45:26.998Z</time></trkpt><trkpt lat="45.645650380890075" lon="8.572626370274604"><ele>306.0</ele><time>2026-05-03T14:45:27.998Z</time></trkpt><trkpt lat="45.64562367245442" lon="8.572391213162756"><ele>307.0</ele><time>2026-05-03T14:45:28.998Z</time></trkpt><trkpt lat="45.64559489589477" lon="8.572094167685774"><ele>307.5</ele><time>2026-05-03T14:45:29.998Z</time></trkpt><trkpt lat="45.64556979445969" lon="8.571743166489005"><ele>308.0</ele><time>2026-05-03T14:45:30.998Z</time></trkpt><trkpt lat="45.64555007946063" lon="8.571408495163926"><ele>308.33333333333337</ele><time>2026-05-03T14:45:31.998Z</time></trkpt><trkpt lat="45.6455291532674" lon="8.571118732377208"><ele>308.6666666666667</ele><time>2026-05-03T14:45:32.998Z</time></trkpt><trkpt lat="45.64551562371106" lon="8.570831778162047"><ele>309.0</ele><time>2026-05-03T14:45:33.998Z</time></trkpt><trkpt lat="45.64549738023736" lon="8.570630038897239"><ele>309.0</ele><time>2026-05-03T14:45:34.998Z</time></trkpt><trkpt lat="45.64547711593632" lon="8.570421098575025"><ele>309.0</ele><time>2026-05-03T14:45:35.998Z</time></trkpt><trkpt lat="45.64545913695076" lon="8.570240892452297"><ele>309.0</ele><time>2026-05-03T14:45:36.998Z</time></trkpt><trkpt lat="45.64546135237992" lon="8.57006626792548"><ele>309.0</ele><time>2026-05-03T14:45:37.998Z</time></trkpt><trkpt lat="45.64545655318913" lon="8.569916203916629"><ele>308.8</ele><time>2026-05-03T14:45:38.998Z</time></trkpt><trkpt lat="45.6454638626112" lon="8.569770587072163"><ele>308.59999999999997</ele><time>2026-05-03T14:45:39.998Z</time></trkpt><trkpt lat="45.64546945152814" lon="8.569658809817158"><ele>308.4</ele><time>2026-05-03T14:45:40.998Z</time></trkpt><trkpt lat="45.6455301403641" lon="8.569613329770332"><ele>308.2</ele><time>2026-05-03T14:45:49.998Z</time></trkpt><trkpt lat="45.645445202707535" lon="8.569643978970724"><ele>308.0</ele><time>2026-05-03T14:45:58.998Z</time></trkpt><trkpt lat="45.64539767682679" lon="8.56947039657375"><ele>307.85714285714283</ele><time>2026-05-03T14:46:01.998Z</time></trkpt><trkpt lat="45.64534634880589" lon="8.569382051221867"><ele>307.7142857142857</ele><time>2026-05-03T14:46:03.997Z</time></trkpt><trkpt lat="45.64528300973843" lon="8.569394832837274"><ele>307.57142857142856</ele><time>2026-05-03T14:46:05.997Z</time></trkpt><trkpt lat="45.64520652656441" lon="8.569370859120859"><ele>307.42857142857144</ele><time>2026-05-03T14:46:07.997Z</time></trkpt><trkpt lat="45.645159696954664" lon="8.569308945132757"><ele>307.2857142857143</ele><time>2026-05-03T14:46:09.997Z</time></trkpt><trkpt lat="45.6450811552767" lon="8.569236127369203"><ele>307.1428571428571</ele><time>2026-05-03T14:46:12.997Z</time></trkpt><trkpt lat="45.645027061481144" lon="8.56929607340859"><ele>307.0</ele><time>2026-05-03T14:46:15.997Z</time></trkpt><trkpt lat="45.645112493607634" lon="8.5693776852425"><ele>307.0</ele><time>2026-05-03T14:46:18.997Z</time></trkpt><trkpt lat="45.645201791419915" lon="8.569423110948849"><ele>307.0</ele><time>2026-05-03T14:46:19.997Z</time></trkpt><trkpt lat="45.64530474904723" lon="8.56941235287903"><ele>307.0</ele><time>2026-05-03T14:46:21.997Z</time></trkpt><trkpt lat="45.645379673701726" lon="8.56952757296462"><ele>307.0</ele><time>2026-05-03T14:46:24.997Z</time></trkpt><trkpt lat="45.64542119285957" lon="8.569597594633915"><ele>307.0</ele><time>2026-05-03T14:46:25.997Z</time></trkpt><trkpt lat="45.6454810649368" lon="8.569628339571322"><ele>307.0</ele><time>2026-05-03T14:46:27.997Z</time></trkpt><trkpt lat="45.64564812432124" lon="8.569548174531764"><ele>306.75</ele><time>2026-05-03T14:46:29.997Z</time></trkpt><trkpt lat="45.645775825955894" lon="8.569473181908442"><ele>306.5</ele><time>2026-05-03T14:46:30.997Z</time></trkpt><trkpt lat="45.645894297466334" lon="8.56939518228392"><ele>306.25</ele><time>2026-05-03T14:46:32Z</time></trkpt><trkpt lat="45.6460307899788" lon="8.569292411725856"><ele>306.0</ele><time>2026-05-03T14:46:33Z</time></trkpt><trkpt lat="45.64619110212431" lon="8.569184565613847"><ele>306.0</ele><time>2026-05-03T14:46:34Z</time></trkpt><trkpt lat="45.646327834650386" lon="8.569083240630158"><ele>306.0</ele><time>2026-05-03T14:46:35Z</time></trkpt><trkpt lat="45.64647233976299" lon="8.56898551690448"><ele>306.0</ele><time>2026-05-03T14:46:36Z</time></trkpt><trkpt lat="45.64662953217316" lon="8.568882923640402"><ele>306.0</ele><time>2026-05-03T14:46:37Z</time></trkpt><trkpt lat="45.64680944663797" lon="8.568756578011362"><ele>306.0</ele><time>2026-05-03T14:46:38Z</time></trkpt><trkpt lat="45.647007216904505" lon="8.568598915847659"><ele>306.0</ele><time>2026-05-03T14:46:39Z</time></trkpt><trkpt lat="45.64719278462859" lon="8.56847925684502"><ele>306.6666666666667</ele><time>2026-05-03T14:46:40Z</time></trkpt><trkpt lat="45.64733921913096" lon="8.568373792764124"><ele>307.33333333333337</ele><time>2026-05-03T14:46:41Z</time></trkpt><trkpt lat="45.64747399182213" lon="8.568266350613541"><ele>308.0</ele><time>2026-05-03T14:46:42Z</time></trkpt><trkpt lat="45.647610943797424" lon="8.56817223705324"><ele>308.0</ele><time>2026-05-03T14:46:43Z</time></trkpt><trkpt lat="45.64773198316468" lon="8.568080698259282"><ele>308.0</ele><time>2026-05-03T14:46:44Z</time></trkpt><trkpt lat="45.647846612086155" lon="8.568008732716672"><ele>308.0</ele><time>2026-05-03T14:46:45Z</time></trkpt><trkpt lat="45.647969670671" lon="8.567939308299385"><ele>308.0</ele><time>2026-05-03T14:46:46Z</time></trkpt><trkpt lat="45.648093074165594" lon="8.56789258130527"><ele>308.0</ele><time>2026-05-03T14:46:47Z</time></trkpt><trkpt lat="45.648240910054575" lon="8.56787970537882"><ele>308.0</ele><time>2026-05-03T14:46:48Z</time></trkpt><trkpt lat="45.64843666814881" lon="8.567887390183753"><ele>308.0</ele><time>2026-05-03T14:46:48.999Z</time></trkpt><trkpt lat="45.648654256185964" lon="8.567868994230434"><ele>308.33333333333337</ele><time>2026-05-03T14:46:49.999Z</time></trkpt><trkpt lat="45.64884829322531" lon="8.56783831595334"><ele>308.6666666666667</ele><time>2026-05-03T14:46:50.999Z</time></trkpt><trkpt lat="45.6490110401491" lon="8.567812937862872"><ele>309.0</ele><time>2026-05-03T14:46:51.999Z</time></trkpt><trkpt lat="45.649189004284096" lon="8.56777286703802"><ele>309.0</ele><time>2026-05-03T14:46:52.999Z</time></trkpt><trkpt lat="45.64938123817255" lon="8.567727859871843"><ele>309.0</ele><time>2026-05-03T14:46:53.999Z</time></trkpt><trkpt lat="45.649582423159394" lon="8.567696171201897"><ele>309.0</ele><time>2026-05-03T14:46:54.999Z</time></trkpt><trkpt lat="45.64977435685824" lon="8.567665731928331"><ele>309.6666666666667</ele><time>2026-05-03T14:46:55.999Z</time></trkpt><trkpt lat="45.649945584840204" lon="8.567643713630707"><ele>310.33333333333337</ele><time>2026-05-03T14:46:56.999Z</time></trkpt><trkpt lat="45.65010485366619" lon="8.567588934510319"><ele>311.0</ele><time>2026-05-03T14:46:57.999Z</time></trkpt><trkpt lat="45.6502627723576" lon="8.567542815597772"><ele>311.33333333333337</ele><time>2026-05-03T14:46:58.999Z</time></trkpt><trkpt lat="45.65041737378033" lon="8.567507222224934"><ele>311.6666666666667</ele><time>2026-05-03T14:46:59.999Z</time></trkpt><trkpt lat="45.650592552039136" lon="8.567503237286838"><ele>312.0</ele><time>2026-05-03T14:47:00.999Z</time></trkpt><trkpt lat="45.65078461213545" lon="8.56751257517161"><ele>312.0</ele><time>2026-05-03T14:47:01.999Z</time></trkpt><trkpt lat="45.65096854130972" lon="8.567501069677254"><ele>312.0</ele><time>2026-05-03T14:47:02.999Z</time></trkpt><trkpt lat="45.651111066561164" lon="8.567480819119696"><ele>312.0</ele><time>2026-05-03T14:47:03.999Z</time></trkpt><trkpt lat="45.65122807572651" lon="8.567454561666436"><ele>312.0</ele><time>2026-05-03T14:47:04.999Z</time></trkpt><trkpt lat="45.651341864264836" lon="8.567426442854535"><ele>312.2</ele><time>2026-05-03T14:47:05.999Z</time></trkpt><trkpt lat="45.65143839762773" lon="8.567388771124904"><ele>312.4</ele><time>2026-05-03T14:47:06.999Z</time></trkpt><trkpt lat="45.65153629408409" lon="8.567386288645782"><ele>312.6</ele><time>2026-05-03T14:47:07.999Z</time></trkpt><trkpt lat="45.65161558065224" lon="8.567449306637211"><ele>312.8</ele><time>2026-05-03T14:47:08.999Z</time></trkpt><trkpt lat="45.651709524343055" lon="8.567564646674576"><ele>313.0</ele><time>2026-05-03T14:47:09.999Z</time></trkpt><trkpt lat="45.651814760445305" lon="8.567662458019047"><ele>313.0</ele><time>2026-05-03T14:47:10.999Z</time></trkpt><trkpt lat="45.65189654597331" lon="8.567678650248734"><ele>313.0</ele><time>2026-05-03T14:47:11.999Z</time></trkpt><trkpt lat="45.65199646269857" lon="8.567670686269006"><ele>313.0</ele><time>2026-05-03T14:47:12.999Z</time></trkpt><trkpt lat="45.652090157789985" lon="8.567651846763834"><ele>313.0</ele><time>2026-05-03T14:47:13.999Z</time></trkpt><trkpt lat="45.65216287616111" lon="8.567627238263839"><ele>313.0</ele><time>2026-05-03T14:47:14.999Z</time></trkpt><trkpt lat="45.652225832683726" lon="8.567570755247178"><ele>313.0</ele><time>2026-05-03T14:47:15.999Z</time></trkpt><trkpt lat="45.652279076321896" lon="8.567467005129686"><ele>312.25</ele><time>2026-05-03T14:47:16.999Z</time></trkpt><trkpt lat="45.652319121453694" lon="8.567283423745966"><ele>311.5</ele><time>2026-05-03T14:47:17.999Z</time></trkpt><trkpt lat="45.65235722337334" lon="8.567063749666094"><ele>310.75</ele><time>2026-05-03T14:47:18.999Z</time></trkpt><trkpt lat="45.65240407764686" lon="8.566878596107902"><ele>310.0</ele><time>2026-05-03T14:47:19.999Z</time></trkpt><trkpt lat="45.65245671104019" lon="8.566684792456469"><ele>310.0</ele><time>2026-05-03T14:47:20.999Z</time></trkpt><trkpt lat="45.652518160518" lon="8.566472854576991"><ele>310.0</ele><time>2026-05-03T14:47:21.999Z</time></trkpt><trkpt lat="45.65258353234415" lon="8.56628142102244"><ele>310.0</ele><time>2026-05-03T14:47:22.999Z</time></trkpt><trkpt lat="45.65263848288088" lon="8.566110344030983"><ele>310.0</ele><time>2026-05-03T14:47:23.999Z</time></trkpt><trkpt lat="45.652667360863255" lon="8.566000096529985"><ele>310.2857142857143</ele><time>2026-05-03T14:47:24.999Z</time></trkpt><trkpt lat="45.65270241320426" lon="8.565918878626153"><ele>310.57142857142856</ele><time>2026-05-03T14:47:25.999Z</time></trkpt><trkpt lat="45.65274124759103" lon="8.56581551002354"><ele>310.8571428571429</ele><time>2026-05-03T14:47:27.999Z</time></trkpt><trkpt lat="45.65273063126216" lon="8.565717386602271"><ele>311.1428571428571</ele><time>2026-05-03T14:47:32.998Z</time></trkpt><trkpt lat="45.65270723877886" lon="8.565619389442631"><ele>311.4285714285714</ele><time>2026-05-03T14:47:36.998Z</time></trkpt><trkpt lat="45.65267697609999" lon="8.565539382640146"><ele>311.7142857142857</ele><time>2026-05-03T14:47:39.998Z</time></trkpt><trkpt lat="45.65261529027668" lon="8.565509646441246"><ele>312.0</ele><time>2026-05-03T14:47:42.998Z</time></trkpt><trkpt lat="45.652520682725054" lon="8.565471167884215"><ele>312.0</ele><time>2026-05-03T14:47:57.998Z</time></trkpt><trkpt lat="45.65244959203956" lon="8.565391905325788"><ele>312.0</ele><time>2026-05-03T14:47:59.998Z</time></trkpt><trkpt lat="45.65234480942341" lon="8.56533667723375"><ele>312.0</ele><time>2026-05-03T14:48:01.998Z</time></trkpt><trkpt lat="45.65222881754191" lon="8.56526968911445"><ele>312.0</ele><time>2026-05-03T14:48:03.998Z</time></trkpt><trkpt lat="45.65216608881618" lon="8.565230878303833"><ele>312.0</ele><time>2026-05-03T14:48:04.998Z</time></trkpt><trkpt lat="45.65209837533019" lon="8.565189749199734"><ele>311.8333333333333</ele><time>2026-05-03T14:48:05.998Z</time></trkpt><trkpt lat="45.65202821255778" lon="8.56514874056318"><ele>311.6666666666667</ele><time>2026-05-03T14:48:06.998Z</time></trkpt><trkpt lat="45.65195433545707" lon="8.56510541038356"><ele>311.5</ele><time>2026-05-03T14:48:07.998Z</time></trkpt><trkpt lat="45.651878777852566" lon="8.565059503382724"><ele>311.33333333333337</ele><time>2026-05-03T14:48:08.997Z</time></trkpt><trkpt lat="45.65179994384873" lon="8.565012204926019"><ele>311.1666666666667</ele><time>2026-05-03T14:48:09.997Z</time></trkpt><trkpt lat="45.651721217835636" lon="8.56496566861246"><ele>311.0</ele><time>2026-05-03T14:48:10.997Z</time></trkpt><trkpt lat="45.65163907843256" lon="8.564918674198688"><ele>311.0</ele><time>2026-05-03T14:48:11.997Z</time></trkpt><trkpt lat="45.65155725300481" lon="8.564870668318894"><ele>311.0</ele><time>2026-05-03T14:48:12.997Z</time></trkpt><trkpt lat="45.65147199289772" lon="8.564820992576065"><ele>311.0</ele><time>2026-05-03T14:48:13.997Z</time></trkpt><trkpt lat="45.65138954406435" lon="8.564776375701868"><ele>311.0</ele><time>2026-05-03T14:48:14.997Z</time></trkpt><trkpt lat="45.6513015713785" lon="8.564730826362007"><ele>311.0</ele><time>2026-05-03T14:48:15.997Z</time></trkpt><trkpt lat="45.6512122628351" lon="8.564687752297075"><ele>311.0</ele><time>2026-05-03T14:48:16.997Z</time></trkpt><trkpt lat="45.65112837820067" lon="8.564638269155468"><ele>311.0</ele><time>2026-05-03T14:48:17.997Z</time></trkpt><trkpt lat="45.651045519788205" lon="8.564592109351596"><ele>311.0</ele><time>2026-05-03T14:48:18.997Z</time></trkpt><trkpt lat="45.65096629014762" lon="8.564534419695814"><ele>311.0</ele><time>2026-05-03T14:48:19.997Z</time></trkpt><trkpt lat="45.65087616814377" lon="8.56448150026034"><ele>311.0</ele><time>2026-05-03T14:48:20.997Z</time></trkpt><trkpt lat="45.650775607924835" lon="8.564431062709453"><ele>310.8</ele><time>2026-05-03T14:48:21.997Z</time></trkpt><trkpt lat="45.650674821019486" lon="8.56437143981124"><ele>310.6</ele><time>2026-05-03T14:48:22.997Z</time></trkpt><trkpt lat="45.65057874905387" lon="8.564307688310423"><ele>310.4</ele><time>2026-05-03T14:48:23.997Z</time></trkpt><trkpt lat="45.65049263480135" lon="8.564253934092354"><ele>310.2</ele><time>2026-05-03T14:48:24.997Z</time></trkpt><trkpt lat="45.65040804791839" lon="8.56420418675611"><ele>310.0</ele><time>2026-05-03T14:48:25.997Z</time></trkpt><trkpt lat="45.650319987100005" lon="8.564144313607656"><ele>310.6</ele><time>2026-05-03T14:48:26.997Z</time></trkpt><trkpt lat="45.65024123315772" lon="8.564064212242117"><ele>311.2</ele><time>2026-05-03T14:48:27.997Z</time></trkpt><trkpt lat="45.65019155221242" lon="8.563953843758155"><ele>311.8</ele><time>2026-05-03T14:48:28.997Z</time></trkpt><trkpt lat="45.650190243772116" lon="8.563795231426884"><ele>312.4</ele><time>2026-05-03T14:48:29.997Z</time></trkpt><trkpt lat="45.65015442206347" lon="8.563640786901736"><ele>313.0</ele><time>2026-05-03T14:48:30.997Z</time></trkpt><trkpt lat="45.65013257287507" lon="8.563477582313196"><ele>313.0</ele><time>2026-05-03T14:48:31.997Z</time></trkpt><trkpt lat="45.650099867007924" lon="8.563332196332286"><ele>313.0</ele><time>2026-05-03T14:48:32.997Z</time></trkpt><trkpt lat="45.65006155028127" lon="8.563205176608351"><ele>313.0</ele><time>2026-05-03T14:48:33.997Z</time></trkpt><trkpt lat="45.650016727321805" lon="8.563090308187704"><ele>313.0</ele><time>2026-05-03T14:48:34.997Z</time></trkpt><trkpt lat="45.64996345005796" lon="8.56298967326426"><ele>313.0</ele><time>2026-05-03T14:48:35.997Z</time></trkpt><trkpt lat="45.64989998313697" lon="8.562889259735332"><ele>311.8</ele><time>2026-05-03T14:48:36.997Z</time></trkpt><trkpt lat="45.64983055834349" lon="8.562772589268103"><ele>310.6</ele><time>2026-05-03T14:48:38Z</time></trkpt><trkpt lat="45.649760562026756" lon="8.562650235477257"><ele>309.4</ele><time>2026-05-03T14:48:39Z</time></trkpt><trkpt lat="45.64967545394764" lon="8.562540781238278"><ele>308.2</ele><time>2026-05-03T14:48:40Z</time></trkpt><trkpt lat="45.64957381869094" lon="8.562464005457315"><ele>307.0</ele><time>2026-05-03T14:48:41Z</time></trkpt><trkpt lat="45.64946920548614" lon="8.562391515160249"><ele>307.8</ele><time>2026-05-03T14:48:42Z</time></trkpt><trkpt lat="45.64936853775671" lon="8.562305608184285"><ele>308.6</ele><time>2026-05-03T14:48:43Z</time></trkpt><trkpt lat="45.64927115384573" lon="8.562223733252189"><ele>309.40000000000003</ele><time>2026-05-03T14:48:44Z</time></trkpt><trkpt lat="45.64918895509982" lon="8.562142186072109"><ele>310.2</ele><time>2026-05-03T14:48:45Z</time></trkpt><trkpt lat="45.64909813925171" lon="8.562072064893723"><ele>311.0</ele><time>2026-05-03T14:48:46Z</time></trkpt><trkpt lat="45.64901050954952" lon="8.561998332193749"><ele>309.40000000000003</ele><time>2026-05-03T14:48:47Z</time></trkpt><trkpt lat="45.64892481979907" lon="8.561936246357426"><ele>307.8</ele><time>2026-05-03T14:48:48Z</time></trkpt><trkpt lat="45.64883967610038" lon="8.561876674642377"><ele>306.20000000000005</ele><time>2026-05-03T14:48:49Z</time></trkpt><trkpt lat="45.6487611592101" lon="8.561813238277358"><ele>304.6</ele><time>2026-05-03T14:48:50Z</time></trkpt><trkpt lat="45.64868041424547" lon="8.56174935892841"><ele>303.0</ele><time>2026-05-03T14:48:51Z</time></trkpt><trkpt lat="45.64860255348721" lon="8.56167842347121"><ele>303.0</ele><time>2026-05-03T14:48:52Z</time></trkpt><trkpt lat="45.64852562459877" lon="8.561596333276833"><ele>303.0</ele><time>2026-05-03T14:48:52.999Z</time></trkpt><trkpt lat="45.64845947630642" lon="8.561482459134822"><ele>303.0</ele><time>2026-05-03T14:48:53.999Z</time></trkpt><trkpt lat="45.64839953003135" lon="8.561336850782313"><ele>303.0</ele><time>2026-05-03T14:48:54.999Z</time></trkpt><trkpt lat="45.64834702268441" lon="8.561199549716969"><ele>303.0</ele><time>2026-05-03T14:48:55.999Z</time></trkpt><trkpt lat="45.6482904542141" lon="8.561073672476914"><ele>301.4</ele><time>2026-05-03T14:48:56.999Z</time></trkpt><trkpt lat="45.648224480583664" lon="8.560957950584793"><ele>299.8</ele><time>2026-05-03T14:48:57.999Z</time></trkpt><trkpt lat="45.648162375645626" lon="8.560845425597714"><ele>298.2</ele><time>2026-05-03T14:48:58.999Z</time></trkpt><trkpt lat="45.64811202165282" lon="8.560725867364312"><ele>296.6</ele><time>2026-05-03T14:48:59.999Z</time></trkpt><trkpt lat="45.648089620366655" lon="8.560590931670385"><ele>295.0</ele><time>2026-05-03T14:49:00.999Z</time></trkpt><trkpt lat="45.64806808695991" lon="8.560462837269732"><ele>294.66666666666663</ele><time>2026-05-03T14:49:01.999Z</time></trkpt><trkpt lat="45.648064438880205" lon="8.560343234389157"><ele>294.3333333333333</ele><time>2026-05-03T14:49:02.999Z</time></trkpt><trkpt lat="45.64806972057717" lon="8.560221414001905"><ele>294.0</ele><time>2026-05-03T14:49:03.999Z</time></trkpt><trkpt lat="45.648076739003024" lon="8.560078797889975"><ele>293.6666666666667</ele><time>2026-05-03T14:49:04.999Z</time></trkpt><trkpt lat="45.64811252234342" lon="8.55998294642898"><ele>293.33333333333337</ele><time>2026-05-03T14:49:05.999Z</time></trkpt><trkpt lat="45.648140996388605" lon="8.559871033579961"><ele>293.0</ele><time>2026-05-03T14:49:06.999Z</time></trkpt><trkpt lat="45.648169233022834" lon="8.559758079988173"><ele>293.0</ele><time>2026-05-03T14:49:07.999Z</time></trkpt><trkpt lat="45.64818289091618" lon="8.559644548147817"><ele>293.0</ele><time>2026-05-03T14:49:08.999Z</time></trkpt><trkpt lat="45.648218652948806" lon="8.5595409713076"><ele>293.0</ele><time>2026-05-03T14:49:09.999Z</time></trkpt><trkpt lat="45.64822038437352" lon="8.55942868308172"><ele>293.0</ele><time>2026-05-03T14:49:10.999Z</time></trkpt><trkpt lat="45.64823364253566" lon="8.559332109585803"><ele>293.0</ele><time>2026-05-03T14:49:11.999Z</time></trkpt><trkpt lat="45.648240124724744" lon="8.559212801103614"><ele>293.0</ele><time>2026-05-03T14:49:12.999Z</time></trkpt><trkpt lat="45.64823359321463" lon="8.559083680688705"><ele>291.83333333333337</ele><time>2026-05-03T14:49:13.999Z</time></trkpt><trkpt lat="45.648228033265376" lon="8.558986856694018"><ele>290.6666666666667</ele><time>2026-05-03T14:49:14.999Z</time></trkpt><trkpt lat="45.64823197561649" lon="8.558879681714291"><ele>289.5</ele><time>2026-05-03T14:49:15.999Z</time></trkpt><trkpt lat="45.648218256016385" lon="8.558737978094394"><ele>288.3333333333333</ele><time>2026-05-03T14:49:17.999Z</time></trkpt><trkpt lat="45.64822080520728" lon="8.558646347935223"><ele>287.16666666666663</ele><time>2026-05-03T14:49:21.999Z</time></trkpt><trkpt lat="45.648226247771376" lon="8.558756093815171"><ele>286.0</ele><time>2026-05-03T14:49:30.999Z</time></trkpt><trkpt lat="45.648237265377794" lon="8.558921564676528"><ele>286.0</ele><time>2026-05-03T14:49:32.998Z</time></trkpt><trkpt lat="45.64830063987329" lon="8.558975234653117"><ele>286.0</ele><time>2026-05-03T14:49:33.998Z</time></trkpt><trkpt lat="45.6482139077946" lon="8.559149409051658"><ele>286.0</ele><time>2026-05-03T14:49:34.998Z</time></trkpt><trkpt lat="45.648217374369885" lon="8.55926012502343"><ele>286.0</ele><time>2026-05-03T14:49:35.998Z</time></trkpt><trkpt lat="45.64820987478043" lon="8.559350684230182"><ele>286.0</ele><time>2026-05-03T14:49:36.998Z</time></trkpt><trkpt lat="45.648195757518856" lon="8.55945821757785"><ele>286.0</ele><time>2026-05-03T14:49:38.998Z</time></trkpt><trkpt lat="45.6482453588702" lon="8.55931009462864"><ele>286.0</ele><time>2026-05-03T14:49:42.998Z</time></trkpt><trkpt lat="45.648250355346704" lon="8.559186525634862"><ele>286.0</ele><time>2026-05-03T14:49:44.998Z</time></trkpt><trkpt lat="45.64833960067186" lon="8.559112726389158"><ele>286.0</ele><time>2026-05-03T14:49:46.998Z</time></trkpt><trkpt lat="45.6484159854518" lon="8.559062549685091"><ele>286.0</ele><time>2026-05-03T14:49:47.998Z</time></trkpt><trkpt lat="45.648497476096054" lon="8.559014668680565"><ele>286.0</ele><time>2026-05-03T14:49:48.998Z</time></trkpt><trkpt lat="45.64855698376659" lon="8.558966290491437"><ele>286.0</ele><time>2026-05-03T14:49:49.998Z</time></trkpt><trkpt lat="45.64862970846777" lon="8.5589206893451"><ele>286.0</ele><time>2026-05-03T14:49:52.998Z</time></trkpt><trkpt lat="45.64869573473265" lon="8.558868548989052"><ele>286.0</ele><time>2026-05-03T14:49:54.998Z</time></trkpt><trkpt lat="45.648757967613754" lon="8.558845990083864"><ele>286.0</ele><time>2026-05-03T14:49:56.998Z</time></trkpt><trkpt lat="45.64883458788239" lon="8.558804778783113"><ele>286.0</ele><time>2026-05-03T14:49:59.998Z</time></trkpt><trkpt lat="45.648938174743364" lon="8.558714149691879"><ele>286.0</ele><time>2026-05-03T14:50:02.998Z</time></trkpt><trkpt lat="45.64905777478088" lon="8.558616152177464"><ele>286.0</ele><time>2026-05-03T14:50:04.998Z</time></trkpt><trkpt lat="45.64913601813292" lon="8.558548217956933"><ele>286.0</ele><time>2026-05-03T14:50:05.998Z</time></trkpt><trkpt lat="45.649201255348174" lon="8.558474193140755"><ele>286.0</ele><time>2026-05-03T14:50:06.998Z</time></trkpt><trkpt lat="45.6492788590182" lon="8.558433918255588"><ele>286.0</ele><time>2026-05-03T14:50:07.998Z</time></trkpt><trkpt lat="45.649358958584976" lon="8.558379958250105"><ele>286.0</ele><time>2026-05-03T14:50:08.998Z</time></trkpt><trkpt lat="45.64943403473755" lon="8.558313498553497"><ele>286.0</ele><time>2026-05-03T14:50:09.998Z</time></trkpt><trkpt lat="45.649511312013345" lon="8.558255987306842"><ele>287.40000000000003</ele><time>2026-05-03T14:50:10.998Z</time></trkpt><trkpt lat="45.64958292243925" lon="8.55821056404819"><ele>288.8</ele><time>2026-05-03T14:50:11.997Z</time></trkpt><trkpt lat="45.64963876470345" lon="8.55816024096694"><ele>290.20000000000005</ele><time>2026-05-03T14:50:12.997Z</time></trkpt><trkpt lat="45.64973098500478" lon="8.558060409243971"><ele>291.6</ele><time>2026-05-03T14:50:14.997Z</time></trkpt><trkpt lat="45.649796145071946" lon="8.558016619698623"><ele>293.0</ele><time>2026-05-03T14:50:15.997Z</time></trkpt><trkpt lat="45.649935322043945" lon="8.557960345750436"><ele>293.0</ele><time>2026-05-03T14:50:17.997Z</time></trkpt><trkpt lat="45.650004796717056" lon="8.557905943120211"><ele>293.0</ele><time>2026-05-03T14:50:18.997Z</time></trkpt><trkpt lat="45.65011465895458" lon="8.557802959834827"><ele>293.0</ele><time>2026-05-03T14:50:20.997Z</time></trkpt><trkpt lat="45.650188051004854" lon="8.557759739932758"><ele>293.0</ele><time>2026-05-03T14:50:21.997Z</time></trkpt><trkpt lat="45.650255813854024" lon="8.557703190289239"><ele>293.0</ele><time>2026-05-03T14:50:22.997Z</time></trkpt><trkpt lat="45.65031977659" lon="8.557635359221976"><ele>293.0</ele><time>2026-05-03T14:50:23.997Z</time></trkpt><trkpt lat="45.65044036625454" lon="8.55756250868923"><ele>295.6666666666667</ele><time>2026-05-03T14:50:25.998Z</time></trkpt><trkpt lat="45.65053147232399" lon="8.557519372570287"><ele>298.33333333333337</ele><time>2026-05-03T14:50:26.998Z</time></trkpt><trkpt lat="45.65062430692855" lon="8.557440152688596"><ele>301.0</ele><time>2026-05-03T14:50:27.998Z</time></trkpt><trkpt lat="45.65070219817512" lon="8.557371920938925"><ele>303.6666666666667</ele><time>2026-05-03T14:50:28.998Z</time></trkpt><trkpt lat="45.65077278253248" lon="8.557309384042243"><ele>306.3333333333333</ele><time>2026-05-03T14:50:29.998Z</time></trkpt><trkpt lat="45.6508296380436" lon="8.557261067875281"><ele>309.0</ele><time>2026-05-03T14:50:30.998Z</time></trkpt><trkpt lat="45.65089102386623" lon="8.557204926992851"><ele>309.0</ele><time>2026-05-03T14:50:31.998Z</time></trkpt><trkpt lat="45.65096128669963" lon="8.557164581308351"><ele>309.0</ele><time>2026-05-03T14:50:32.998Z</time></trkpt><trkpt lat="45.65103332051232" lon="8.557129954183758"><ele>309.0</ele><time>2026-05-03T14:50:33.998Z</time></trkpt><trkpt lat="45.65110492257095" lon="8.55708792572907"><ele>309.0</ele><time>2026-05-03T14:50:34.998Z</time></trkpt><trkpt lat="45.65117893527849" lon="8.557031322890518"><ele>309.0</ele><time>2026-05-03T14:50:35.998Z</time></trkpt><trkpt lat="45.651252679361285" lon="8.556971282257843"><ele>309.0</ele><time>2026-05-03T14:50:36.998Z</time></trkpt><trkpt lat="45.65131942812447" lon="8.556915798777897"><ele>309.3333333333333</ele><time>2026-05-03T14:50:37.998Z</time></trkpt><trkpt lat="45.65138868315681" lon="8.556867181617132"><ele>309.6666666666667</ele><time>2026-05-03T14:50:38.998Z</time></trkpt><trkpt lat="45.65146727630789" lon="8.556817499035079"><ele>310.0</ele><time>2026-05-03T14:50:39.998Z</time></trkpt><trkpt lat="45.65154135296313" lon="8.556763389376549"><ele>310.33333333333337</ele><time>2026-05-03T14:50:40.998Z</time></trkpt><trkpt lat="45.65160345669357" lon="8.55672337550437"><ele>310.6666666666667</ele><time>2026-05-03T14:50:41.998Z</time></trkpt><trkpt lat="45.651708763064086" lon="8.556671826639612"><ele>311.0</ele><time>2026-05-03T14:50:44Z</time></trkpt><trkpt lat="45.65178345059429" lon="8.556625885757976"><ele>311.0</ele><time>2026-05-03T14:50:45Z</time></trkpt><trkpt lat="45.65186591287579" lon="8.55658382861235"><ele>311.0</ele><time>2026-05-03T14:50:46Z</time></trkpt><trkpt lat="45.65196348435436" lon="8.556543611686672"><ele>311.0</ele><time>2026-05-03T14:50:48Z</time></trkpt><trkpt lat="45.65209093464186" lon="8.556450503721054"><ele>311.0</ele><time>2026-05-03T14:50:50Z</time></trkpt><trkpt lat="45.65218627472476" lon="8.55640214019891"><ele>311.0</ele><time>2026-05-03T14:50:51Z</time></trkpt><trkpt lat="45.65224919107103" lon="8.556368443896528"><ele>311.6</ele><time>2026-05-03T14:50:52Z</time></trkpt><trkpt lat="45.652344086464396" lon="8.55629688344326"><ele>312.20000000000005</ele><time>2026-05-03T14:50:54Z</time></trkpt><trkpt lat="45.65240567546738" lon="8.556254066560285"><ele>312.79999999999995</ele><time>2026-05-03T14:50:55Z</time></trkpt><trkpt lat="45.65250181448292" lon="8.556174914157207"><ele>313.4</ele><time>2026-05-03T14:50:57Z</time></trkpt><trkpt lat="45.65259731123088" lon="8.556108305398359"><ele>314.0</ele><time>2026-05-03T14:50:59Z</time></trkpt><trkpt lat="45.652707655937135" lon="8.55605844415899"><ele>314.0</ele><time>2026-05-03T14:51:01Z</time></trkpt><trkpt lat="45.65277358117174" lon="8.556024505281508"><ele>314.0</ele><time>2026-05-03T14:51:02Z</time></trkpt><trkpt lat="45.65284262407862" lon="8.555975399025058"><ele>314.0</ele><time>2026-05-03T14:51:03Z</time></trkpt><trkpt lat="45.65291705608445" lon="8.555936837579392"><ele>314.0</ele><time>2026-05-03T14:51:04Z</time></trkpt><trkpt lat="45.653006960319075" lon="8.555887602984917"><ele>314.0</ele><time>2026-05-03T14:51:05Z</time></trkpt><trkpt lat="45.65309076496009" lon="8.555845842599005"><ele>314.0</ele><time>2026-05-03T14:51:06Z</time></trkpt><trkpt lat="45.65316856788976" lon="8.555806541440173"><ele>314.33333333333337</ele><time>2026-05-03T14:51:07Z</time></trkpt><trkpt lat="45.65322589936515" lon="8.555768711890956"><ele>314.6666666666667</ele><time>2026-05-03T14:51:08Z</time></trkpt><trkpt lat="45.65328646085669" lon="8.555724355502464"><ele>315.0</ele><time>2026-05-03T14:51:09Z</time></trkpt><trkpt lat="45.653352776649484" lon="8.555675383855354"><ele>315.3333333333333</ele><time>2026-05-03T14:51:10Z</time></trkpt><trkpt lat="45.65342349461175" lon="8.555627621804732"><ele>315.66666666666663</ele><time>2026-05-03T14:51:11Z</time></trkpt><trkpt lat="45.65350665759128" lon="8.55555308459862"><ele>316.0</ele><time>2026-05-03T14:51:12Z</time></trkpt><trkpt lat="45.65357056947584" lon="8.55550423510751"><ele>315.8</ele><time>2026-05-03T14:51:13Z</time></trkpt><trkpt lat="45.653623614282125" lon="8.555448356313335"><ele>315.6</ele><time>2026-05-03T14:51:14Z</time></trkpt><trkpt lat="45.65373203076745" lon="8.55533404819789"><ele>315.4</ele><time>2026-05-03T14:51:16Z</time></trkpt><trkpt lat="45.653832374848655" lon="8.55522690713019"><ele>315.2</ele><time>2026-05-03T14:51:18Z</time></trkpt><trkpt lat="45.65389722517805" lon="8.555148545039026"><ele>315.0</ele><time>2026-05-03T14:51:19Z</time></trkpt><trkpt lat="45.653946245882295" lon="8.555079145552675"><ele>314.0</ele><time>2026-05-03T14:51:20Z</time></trkpt><trkpt lat="45.654021481984714" lon="8.555005010602134"><ele>313.0</ele><time>2026-05-03T14:51:21Z</time></trkpt><trkpt lat="45.654079188613295" lon="8.554936986918685"><ele>312.0</ele><time>2026-05-03T14:51:22Z</time></trkpt><trkpt lat="45.65413382427185" lon="8.55486421006464"><ele>311.0</ele><time>2026-05-03T14:51:23Z</time></trkpt><trkpt lat="45.654233722126996" lon="8.554760245443475"><ele>310.0</ele><time>2026-05-03T14:51:25Z</time></trkpt><trkpt lat="45.654315722007695" lon="8.554670600752388"><ele>310.0</ele><time>2026-05-03T14:51:27Z</time></trkpt><trkpt lat="45.654385328661164" lon="8.554572740853216"><ele>310.0</ele><time>2026-05-03T14:51:29Z</time></trkpt><trkpt lat="45.65444531158724" lon="8.554497260661506"><ele>310.0</ele><time>2026-05-03T14:51:32Z</time></trkpt><trkpt lat="45.65454592111412" lon="8.55448455794737"><ele>310.0</ele><time>2026-05-03T14:51:34Z</time></trkpt><trkpt lat="45.654608822712525" lon="8.554443661528039"><ele>310.0</ele><time>2026-05-03T14:51:35Z</time></trkpt><trkpt lat="45.654664296866535" lon="8.554334131088774"><ele>310.0</ele><time>2026-05-03T14:51:36Z</time></trkpt><trkpt lat="45.65472583877689" lon="8.554229215060321"><ele>308.6</ele><time>2026-05-03T14:51:36.999Z</time></trkpt><trkpt lat="45.654785225776365" lon="8.554141002612006"><ele>307.2</ele><time>2026-05-03T14:51:37.999Z</time></trkpt><trkpt lat="45.6548724817129" lon="8.554033991261983"><ele>305.8</ele><time>2026-05-03T14:51:39.999Z</time></trkpt><trkpt lat="45.65495694838476" lon="8.55392094751295"><ele>304.4</ele><time>2026-05-03T14:51:41.999Z</time></trkpt><trkpt lat="45.6550662882636" lon="8.553841368305852"><ele>303.0</ele><time>2026-05-03T14:51:44.999Z</time></trkpt><trkpt lat="45.655161147835614" lon="8.55370393041281"><ele>303.1666666666667</ele><time>2026-05-03T14:51:47.999Z</time></trkpt><trkpt lat="45.655197232084014" lon="8.553629971260978"><ele>303.3333333333333</ele><time>2026-05-03T14:51:50.999Z</time></trkpt><trkpt lat="45.65525814360529" lon="8.553561993508085"><ele>303.5</ele><time>2026-05-03T14:52:09.999Z</time></trkpt><trkpt lat="45.655335618765555" lon="8.553521875839705"><ele>303.66666666666663</ele><time>2026-05-03T14:52:12.999Z</time></trkpt><trkpt lat="45.655452271829255" lon="8.553463738186542"><ele>303.8333333333333</ele><time>2026-05-03T14:52:14.999Z</time></trkpt><trkpt lat="45.6555286845513" lon="8.553434791230906"><ele>304.0</ele><time>2026-05-03T14:52:15.999Z</time></trkpt><trkpt lat="45.655644232931635" lon="8.553363873277329"><ele>304.0</ele><time>2026-05-03T14:52:16.998Z</time></trkpt><trkpt lat="45.65572810137945" lon="8.553324044273714"><ele>304.0</ele><time>2026-05-03T14:52:17.998Z</time></trkpt><trkpt lat="45.6557957791667" lon="8.553296973758956"><ele>304.0</ele><time>2026-05-03T14:52:18.998Z</time></trkpt><trkpt lat="45.655871856737036" lon="8.553272297839396"><ele>304.0</ele><time>2026-05-03T14:52:19.998Z</time></trkpt><trkpt lat="45.655952103083074" lon="8.553230637506058"><ele>304.0</ele><time>2026-05-03T14:52:20.998Z</time></trkpt><trkpt lat="45.65602482867388" lon="8.553187212011961"><ele>304.0</ele><time>2026-05-03T14:52:21.998Z</time></trkpt><trkpt lat="45.65612198172975" lon="8.553121963955572"><ele>304.8</ele><time>2026-05-03T14:52:23.998Z</time></trkpt><trkpt lat="45.65622074481389" lon="8.553064962934853"><ele>305.59999999999997</ele><time>2026-05-03T14:52:25.998Z</time></trkpt><trkpt lat="45.656288407401405" lon="8.552992982296134"><ele>306.4</ele><time>2026-05-03T14:52:26.998Z</time></trkpt><trkpt lat="45.65635546047075" lon="8.552941965602738"><ele>307.2</ele><time>2026-05-03T14:52:27.998Z</time></trkpt><trkpt lat="45.65646148487853" lon="8.552862731494853"><ele>308.0</ele><time>2026-05-03T14:52:29.998Z</time></trkpt><trkpt lat="45.65652111615731" lon="8.552830464109748"><ele>309.4</ele><time>2026-05-03T14:52:30.998Z</time></trkpt><trkpt lat="45.656583724829744" lon="8.55280349780145"><ele>310.8</ele><time>2026-05-03T14:52:31.998Z</time></trkpt><trkpt lat="45.6567027320545" lon="8.552736822137208"><ele>312.2</ele><time>2026-05-03T14:52:33.998Z</time></trkpt><trkpt lat="45.65682353122068" lon="8.55269749402266"><ele>313.6</ele><time>2026-05-03T14:52:35.998Z</time></trkpt><trkpt lat="45.65688082958627" lon="8.552658759856616"><ele>315.0</ele><time>2026-05-03T14:52:36.998Z</time></trkpt><trkpt lat="45.65694571577868" lon="8.552618917794236"><ele>315.14285714285717</ele><time>2026-05-03T14:52:37.998Z</time></trkpt><trkpt lat="45.657014604595275" lon="8.552587289366636"><ele>315.2857142857143</ele><time>2026-05-03T14:52:38.998Z</time></trkpt><trkpt lat="45.657092301884234" lon="8.552540945085338"><ele>315.42857142857144</ele><time>2026-05-03T14:52:39.998Z</time></trkpt><trkpt lat="45.657158593545795" lon="8.552497765861784"><ele>315.57142857142856</ele><time>2026-05-03T14:52:40.998Z</time></trkpt><trkpt lat="45.657215209418474" lon="8.55245371239567"><ele>315.7142857142857</ele><time>2026-05-03T14:52:41.998Z</time></trkpt><trkpt lat="45.657272094228766" lon="8.552412351406172"><ele>315.8571428571429</ele><time>2026-05-03T14:52:42.998Z</time></trkpt><trkpt lat="45.657334484901305" lon="8.5523778054529"><ele>316.0</ele><time>2026-05-03T14:52:43.998Z</time></trkpt><trkpt lat="45.65741286686224" lon="8.552342870827047"><ele>316.0</ele><time>2026-05-03T14:52:44.998Z</time></trkpt><trkpt lat="45.65749882801317" lon="8.552309436353157"><ele>316.0</ele><time>2026-05-03T14:52:45.998Z</time></trkpt><trkpt lat="45.65758409044185" lon="8.552258961555388"><ele>316.0</ele><time>2026-05-03T14:52:46.998Z</time></trkpt><trkpt lat="45.65766184659002" lon="8.552199146230622"><ele>316.0</ele><time>2026-05-03T14:52:47.998Z</time></trkpt><trkpt lat="45.65773445016912" lon="8.552141393060758"><ele>316.0</ele><time>2026-05-03T14:52:49Z</time></trkpt><trkpt lat="45.65780006717024" lon="8.552095026311529"><ele>316.0</ele><time>2026-05-03T14:52:50Z</time></trkpt><trkpt lat="45.65786628861033" lon="8.552064999011572"><ele>316.2</ele><time>2026-05-03T14:52:51Z</time></trkpt><trkpt lat="45.65798347251339" lon="8.5520098789017"><ele>316.40000000000003</ele><time>2026-05-03T14:52:53Z</time></trkpt><trkpt lat="45.65804234784588" lon="8.551963965079862"><ele>316.6</ele><time>2026-05-03T14:52:54Z</time></trkpt><trkpt lat="45.658159413336186" lon="8.551906272639807"><ele>316.8</ele><time>2026-05-03T14:52:56Z</time></trkpt><trkpt lat="45.65826545268163" lon="8.551851085102003"><ele>317.0</ele><time>2026-05-03T14:52:58Z</time></trkpt><trkpt lat="45.65832869033936" lon="8.551805861266645"><ele>317.0</ele><time>2026-05-03T14:52:59Z</time></trkpt><trkpt lat="45.65839436102632" lon="8.55175926389995"><ele>317.0</ele><time>2026-05-03T14:53:00Z</time></trkpt><trkpt lat="45.658455009011654" lon="8.5517250707187"><ele>317.0</ele><time>2026-05-03T14:53:01Z</time></trkpt><trkpt lat="45.65852315254503" lon="8.55169754711723"><ele>317.0</ele><time>2026-05-03T14:53:02Z</time></trkpt><trkpt lat="45.65858350305853" lon="8.551662787204435"><ele>317.0</ele><time>2026-05-03T14:53:03Z</time></trkpt><trkpt lat="45.658689086815" lon="8.551592664801035"><ele>317.0</ele><time>2026-05-03T14:53:05Z</time></trkpt><trkpt lat="45.658751728480034" lon="8.551555218907193"><ele>317.33333333333337</ele><time>2026-05-03T14:53:06Z</time></trkpt><trkpt lat="45.65883482944427" lon="8.551508216248767"><ele>317.6666666666667</ele><time>2026-05-03T14:53:07Z</time></trkpt><trkpt lat="45.65890731939536" lon="8.551479444167965"><ele>318.0</ele><time>2026-05-03T14:53:08Z</time></trkpt><trkpt lat="45.658990192559926" lon="8.551426639263083"><ele>318.3333333333333</ele><time>2026-05-03T14:53:09Z</time></trkpt><trkpt lat="45.659074107621976" lon="8.551365962700963"><ele>318.66666666666663</ele><time>2026-05-03T14:53:10Z</time></trkpt><trkpt lat="45.65915313522789" lon="8.551324998327743"><ele>319.0</ele><time>2026-05-03T14:53:11Z</time></trkpt><trkpt lat="45.65922689279537" lon="8.551288589709866"><ele>319.0</ele><time>2026-05-03T14:53:12Z</time></trkpt><trkpt lat="45.659289667650704" lon="8.551257638758361"><ele>319.0</ele><time>2026-05-03T14:53:13Z</time></trkpt><trkpt lat="45.659363882502014" lon="8.55121367503308"><ele>319.0</ele><time>2026-05-03T14:53:14Z</time></trkpt><trkpt lat="45.65944008272201" lon="8.551167598442717"><ele>319.0</ele><time>2026-05-03T14:53:15Z</time></trkpt><trkpt lat="45.65951015574664" lon="8.551128999748395"><ele>319.0</ele><time>2026-05-03T14:53:16Z</time></trkpt><trkpt lat="45.659570210781744" lon="8.551090203954704"><ele>319.0</ele><time>2026-05-03T14:53:17Z</time></trkpt><trkpt lat="45.659628421586135" lon="8.551052471643263"><ele>319.0</ele><time>2026-05-03T14:53:18Z</time></trkpt><trkpt lat="45.659694598458096" lon="8.551014093469966"><ele>319.0</ele><time>2026-05-03T14:53:19Z</time></trkpt><trkpt lat="45.659779446819655" lon="8.550963361813372"><ele>319.0</ele><time>2026-05-03T14:53:20Z</time></trkpt><trkpt lat="45.65984553089974" lon="8.550937617857139"><ele>319.0</ele><time>2026-05-03T14:53:21Z</time></trkpt><trkpt lat="45.65991430216701" lon="8.550923297210982"><ele>319.0</ele><time>2026-05-03T14:53:22Z</time></trkpt><trkpt lat="45.659977714053994" lon="8.550867932990936"><ele>319.0</ele><time>2026-05-03T14:53:24Z</time></trkpt><trkpt lat="45.660069107281885" lon="8.550805940280418"><ele>319.0</ele><time>2026-05-03T14:53:26Z</time></trkpt><trkpt lat="45.66013306203723" lon="8.550774308566341"><ele>319.0</ele><time>2026-05-03T14:53:29Z</time></trkpt><trkpt lat="45.66021931242363" lon="8.55072076920331"><ele>319.0</ele><time>2026-05-03T14:53:32Z</time></trkpt><trkpt lat="45.66031622583753" lon="8.55067515457665"><ele>319.0</ele><time>2026-05-03T14:53:34Z</time></trkpt><trkpt lat="45.66037641385702" lon="8.550630974410513"><ele>319.0</ele><time>2026-05-03T14:53:35Z</time></trkpt><trkpt lat="45.66048692449802" lon="8.550586779259266"><ele>319.0</ele><time>2026-05-03T14:53:37Z</time></trkpt><trkpt lat="45.66054726779417" lon="8.55055709952186"><ele>319.0</ele><time>2026-05-03T14:53:38Z</time></trkpt><trkpt lat="45.660617554493804" lon="8.55052421175613"><ele>318.8333333333333</ele><time>2026-05-03T14:53:39Z</time></trkpt><trkpt lat="45.66068022487965" lon="8.550480614833418"><ele>318.66666666666663</ele><time>2026-05-03T14:53:40Z</time></trkpt><trkpt lat="45.66074305913044" lon="8.550433019059218"><ele>318.5</ele><time>2026-05-03T14:53:41Z</time></trkpt><trkpt lat="45.66084936219433" lon="8.550394454949165"><ele>318.3333333333333</ele><time>2026-05-03T14:53:42.999Z</time></trkpt><trkpt lat="45.66091503760031" lon="8.55034349709962"><ele>318.1666666666667</ele><time>2026-05-03T14:53:44.999Z</time></trkpt><trkpt lat="45.66099455223759" lon="8.550300184241264"><ele>318.0</ele><time>2026-05-03T14:53:47.999Z</time></trkpt><trkpt lat="45.66106745430003" lon="8.5502603432741"><ele>317.0</ele><time>2026-05-03T14:53:48.999Z</time></trkpt><trkpt lat="45.661189302516206" lon="8.550183450923136"><ele>316.0</ele><time>2026-05-03T14:53:50.999Z</time></trkpt><trkpt lat="45.66141961485941" lon="8.550082331836489"><ele>315.0</ele><time>2026-05-03T14:53:53.999Z</time></trkpt><trkpt lat="45.66150557355612" lon="8.55001103866636"><ele>315.0</ele><time>2026-05-03T14:53:55.999Z</time></trkpt><trkpt lat="45.66156886936049" lon="8.5499662755922"><ele>315.0</ele><time>2026-05-03T14:54:00.999Z</time></trkpt><trkpt lat="45.66163402805493" lon="8.54993026203141"><ele>315.0</ele><time>2026-05-03T14:54:03.999Z</time></trkpt><trkpt lat="45.66170674883135" lon="8.549953148310149"><ele>315.0</ele><time>2026-05-03T14:54:06.999Z</time></trkpt><trkpt lat="45.66177294869502" lon="8.549968982126494"><ele>315.0</ele><time>2026-05-03T14:54:08.999Z</time></trkpt><trkpt lat="45.6618512733218" lon="8.549919735005867"><ele>315.0</ele><time>2026-05-03T14:54:10.999Z</time></trkpt><trkpt lat="45.66199977167" lon="8.549752407417781"><ele>314.6</ele><time>2026-05-03T14:54:11.999Z</time></trkpt><trkpt lat="45.66209559051715" lon="8.54971174723088"><ele>314.2</ele><time>2026-05-03T14:54:13.999Z</time></trkpt><trkpt lat="45.662204054725954" lon="8.549653412105158"><ele>313.8</ele><time>2026-05-03T14:54:16.999Z</time></trkpt><trkpt lat="45.66230687296354" lon="8.54958772432418"><ele>313.4</ele><time>2026-05-03T14:54:18.999Z</time></trkpt><trkpt lat="45.66239261934444" lon="8.549541730047984"><ele>313.0</ele><time>2026-05-03T14:54:20.999Z</time></trkpt><trkpt lat="45.66249736876409" lon="8.549484272372899"><ele>313.2</ele><time>2026-05-03T14:54:22.998Z</time></trkpt><trkpt lat="45.66257007803109" lon="8.549427048704176"><ele>313.4</ele><time>2026-05-03T14:54:23.998Z</time></trkpt><trkpt lat="45.66262820993726" lon="8.54937517291947"><ele>313.59999999999997</ele><time>2026-05-03T14:54:24.998Z</time></trkpt><trkpt lat="45.662711235599" lon="8.549351164893388"><ele>313.8</ele><time>2026-05-03T14:54:26.998Z</time></trkpt><trkpt lat="45.662811684731594" lon="8.54930329189894"><ele>314.0</ele><time>2026-05-03T14:54:28.998Z</time></trkpt><trkpt lat="45.66292331545139" lon="8.54921372691925"><ele>314.0</ele><time>2026-05-03T14:54:30.998Z</time></trkpt><trkpt lat="45.663017312165785" lon="8.549161728780135"><ele>314.0</ele><time>2026-05-03T14:54:32.998Z</time></trkpt><trkpt lat="45.66312341424923" lon="8.549100550091481"><ele>314.0</ele><time>2026-05-03T14:54:34.998Z</time></trkpt><trkpt lat="45.66320181383631" lon="8.549065926159269"><ele>314.0</ele><time>2026-05-03T14:54:35.998Z</time></trkpt><trkpt lat="45.663289295974884" lon="8.549012722992247"><ele>314.0</ele><time>2026-05-03T14:54:36.998Z</time></trkpt><trkpt lat="45.6633736721736" lon="8.54895934283045"><ele>314.0</ele><time>2026-05-03T14:54:37.998Z</time></trkpt><trkpt lat="45.6634851415557" lon="8.548920719043817"><ele>314.0</ele><time>2026-05-03T14:54:39.998Z</time></trkpt><trkpt lat="45.66355231679241" lon="8.548891769778189"><ele>314.0</ele><time>2026-05-03T14:54:40.998Z</time></trkpt><trkpt lat="45.66364075073933" lon="8.548810604546881"><ele>314.0</ele><time>2026-05-03T14:54:42.998Z</time></trkpt><trkpt lat="45.66373259131815" lon="8.548734434820505"><ele>314.0</ele><time>2026-05-03T14:54:44.998Z</time></trkpt><trkpt lat="45.66379645325474" lon="8.548647221602327"><ele>313.4</ele><time>2026-05-03T14:54:46.998Z</time></trkpt><trkpt lat="45.6638403575853" lon="8.548566226604166"><ele>312.79999999999995</ele><time>2026-05-03T14:54:49.998Z</time></trkpt><trkpt lat="45.66392228091501" lon="8.548439285844799"><ele>312.20000000000005</ele><time>2026-05-03T14:54:52.998Z</time></trkpt><trkpt lat="45.66396586589934" lon="8.548357854238521"><ele>311.6</ele><time>2026-05-03T14:54:53.998Z</time></trkpt><trkpt lat="45.6640335979015" lon="8.548264645793964"><ele>311.0</ele><time>2026-05-03T14:54:56Z</time></trkpt><trkpt lat="45.66408653959368" lon="8.54813676788174"><ele>311.0</ele><time>2026-05-03T14:54:58Z</time></trkpt><trkpt lat="45.664130152296536" lon="8.548071489023645"><ele>311.0</ele><time>2026-05-03T14:54:59Z</time></trkpt><trkpt lat="45.66421270622895" lon="8.547940235923152"><ele>311.0</ele><time>2026-05-03T14:55:01Z</time></trkpt><trkpt lat="45.66428090242077" lon="8.54786605806665"><ele>311.0</ele><time>2026-05-03T14:55:03Z</time></trkpt><trkpt lat="45.66433241586733" lon="8.547802144212765"><ele>311.0</ele><time>2026-05-03T14:55:08Z</time></trkpt><trkpt lat="45.66440727533598" lon="8.547757022155848"><ele>311.0</ele><time>2026-05-03T14:55:10Z</time></trkpt><trkpt lat="45.664472751221126" lon="8.547699612750357"><ele>311.0</ele><time>2026-05-03T14:55:21Z</time></trkpt><trkpt lat="45.66447273771704" lon="8.547790323952187"><ele>311.0</ele><time>2026-05-03T14:55:42Z</time></trkpt><trkpt lat="45.66448854388643" lon="8.547887351882055"><ele>311.0</ele><time>2026-05-03T14:55:44.999Z</time></trkpt><trkpt lat="45.664468190983584" lon="8.547990467780789"><ele>311.0</ele><time>2026-05-03T14:55:47.999Z</time></trkpt><trkpt lat="45.66443997864874" lon="8.54811944713137"><ele>311.0</ele><time>2026-05-03T14:55:49.999Z</time></trkpt><trkpt lat="45.664396216731" lon="8.548228442157283"><ele>311.0</ele><time>2026-05-03T14:55:51.999Z</time></trkpt><trkpt lat="45.66438539861285" lon="8.548334242591206"><ele>311.0</ele><time>2026-05-03T14:55:53.999Z</time></trkpt><trkpt lat="45.66434401185753" lon="8.548457967862213"><ele>311.0</ele><time>2026-05-03T14:55:56.999Z</time></trkpt><trkpt lat="45.66427999759298" lon="8.548541426156223"><ele>311.0</ele><time>2026-05-03T14:55:58.999Z</time></trkpt><trkpt lat="45.66422112262033" lon="8.548664793042313"><ele>311.0</ele><time>2026-05-03T14:56:00.999Z</time></trkpt><trkpt lat="45.664156939905006" lon="8.548757326885017"><ele>311.0</ele><time>2026-05-03T14:56:01.999Z</time></trkpt><trkpt lat="45.66407877124903" lon="8.548864501437308"><ele>312.6</ele><time>2026-05-03T14:56:03.999Z</time></trkpt><trkpt lat="45.66399353051876" lon="8.549009216711873"><ele>314.20000000000005</ele><time>2026-05-03T14:56:05.999Z</time></trkpt><trkpt lat="45.663909808592756" lon="8.549126513795022"><ele>315.79999999999995</ele><time>2026-05-03T14:56:07.999Z</time></trkpt><trkpt lat="45.66384608245126" lon="8.549199948061318"><ele>317.4</ele><time>2026-05-03T14:56:09.999Z</time></trkpt><trkpt lat="45.66379836799315" lon="8.549272565537454"><ele>319.0</ele><time>2026-05-03T14:56:11.999Z</time></trkpt><trkpt lat="45.663725803798314" lon="8.549370960694253"><ele>319.0</ele><time>2026-05-03T14:56:13.999Z</time></trkpt><trkpt lat="45.663662728446035" lon="8.54945912581269"><ele>319.0</ele><time>2026-05-03T14:56:15.999Z</time></trkpt><trkpt lat="45.663651920561044" lon="8.5495505695629"><ele>319.0</ele><time>2026-05-03T14:56:23.999Z</time></trkpt><trkpt lat="45.6635587855868" lon="8.549620984596643"><ele>319.0</ele><time>2026-05-03T14:56:26.998Z</time></trkpt><trkpt lat="45.663499765739665" lon="8.549656687826868"><ele>319.0</ele><time>2026-05-03T14:56:27.998Z</time></trkpt><trkpt lat="45.66343815783089" lon="8.54972051596033"><ele>319.0</ele><time>2026-05-03T14:56:28.998Z</time></trkpt><trkpt lat="45.66338461394722" lon="8.549786294411708"><ele>318.59999999999997</ele><time>2026-05-03T14:56:29.998Z</time></trkpt><trkpt lat="45.663314950320256" lon="8.549868512675772"><ele>318.2</ele><time>2026-05-03T14:56:30.998Z</time></trkpt><trkpt lat="45.663253929092086" lon="8.549971231337135"><ele>317.79999999999995</ele><time>2026-05-03T14:56:31.998Z</time></trkpt><trkpt lat="45.66321484562471" lon="8.550068036388094"><ele>317.4</ele><time>2026-05-03T14:56:32.998Z</time></trkpt><trkpt lat="45.663161269597374" lon="8.550183129012062"><ele>317.0</ele><time>2026-05-03T14:56:34.998Z</time></trkpt><trkpt lat="45.663094310791756" lon="8.550308568456334"><ele>317.0</ele><time>2026-05-03T14:56:36.998Z</time></trkpt><trkpt lat="45.66306116855413" lon="8.550390873853445"><ele>317.0</ele><time>2026-05-03T14:56:37.998Z</time></trkpt><trkpt lat="45.66300348484402" lon="8.550484442066526"><ele>317.0</ele><time>2026-05-03T14:56:39.998Z</time></trkpt><trkpt lat="45.662961642699734" lon="8.550562109994143"><ele>317.0</ele><time>2026-05-03T14:56:42.998Z</time></trkpt><trkpt lat="45.66302502599542" lon="8.55047435823972"><ele>317.0</ele><time>2026-05-03T14:57:05Z</time></trkpt><trkpt lat="45.66308621382808" lon="8.550375217198196"><ele>317.0</ele><time>2026-05-03T14:57:07Z</time></trkpt><trkpt lat="45.66314903055065" lon="8.550249329363421"><ele>317.0</ele><time>2026-05-03T14:57:09Z</time></trkpt><trkpt lat="45.6631879496667" lon="8.550168235981594"><ele>317.0</ele><time>2026-05-03T14:57:10Z</time></trkpt><trkpt lat="45.66324681346215" lon="8.550077453698632"><ele>317.0</ele><time>2026-05-03T14:57:12Z</time></trkpt><trkpt lat="45.663286946430226" lon="8.550005062567255"><ele>317.0</ele><time>2026-05-03T14:57:14Z</time></trkpt><trkpt lat="45.66341340049456" lon="8.549795867616202"><ele>317.0</ele><time>2026-05-03T14:57:16Z</time></trkpt><trkpt lat="45.66350247389747" lon="8.54971027801036"><ele>317.0</ele><time>2026-05-03T14:57:18Z</time></trkpt><trkpt lat="45.663601548490035" lon="8.549630011613138"><ele>317.0</ele><time>2026-05-03T14:57:20Z</time></trkpt><trkpt lat="45.663678855514824" lon="8.549604644582091"><ele>317.0</ele><time>2026-05-03T14:57:22Z</time></trkpt><trkpt lat="45.66373542359859" lon="8.549666249582247"><ele>317.0</ele><time>2026-05-03T14:57:26Z</time></trkpt><trkpt lat="45.663794963052545" lon="8.549727539486751"><ele>317.0</ele><time>2026-05-03T14:57:28Z</time></trkpt><trkpt lat="45.66385414457786" lon="8.549759511043053"><ele>317.0</ele><time>2026-05-03T14:57:37Z</time></trkpt><trkpt lat="45.663973734440184" lon="8.549760860364758"><ele>317.4</ele><time>2026-05-03T14:57:40Z</time></trkpt><trkpt lat="45.66406067144227" lon="8.549790673885607"><ele>317.79999999999995</ele><time>2026-05-03T14:57:42Z</time></trkpt><trkpt lat="45.664151585419994" lon="8.54983833738362"><ele>318.2</ele><time>2026-05-03T14:57:44Z</time></trkpt><trkpt lat="45.66424301807301" lon="8.549911573848027"><ele>318.59999999999997</ele><time>2026-05-03T14:57:46Z</time></trkpt><trkpt lat="45.66433154889404" lon="8.549984020237572"><ele>319.0</ele><time>2026-05-03T14:57:48Z</time></trkpt><trkpt lat="45.66442540235709" lon="8.550050213294922"><ele>320.0</ele><time>2026-05-03T14:57:50Z</time></trkpt><trkpt lat="45.66452404683612" lon="8.550126207915612"><ele>321.0</ele><time>2026-05-03T14:57:51.999Z</time></trkpt><trkpt lat="45.664615064056235" lon="8.550155246840824"><ele>322.0</ele><time>2026-05-03T14:57:53.999Z</time></trkpt><trkpt lat="45.664747905627465" lon="8.55015501696486"><ele>323.0</ele><time>2026-05-03T14:57:55.999Z</time></trkpt><trkpt lat="45.66481954415668" lon="8.550169792454062"><ele>324.0</ele><time>2026-05-03T14:57:56.999Z</time></trkpt><trkpt lat="45.66489690544206" lon="8.550178289495364"><ele>324.0</ele><time>2026-05-03T14:57:57.999Z</time></trkpt><trkpt lat="45.6649743865633" lon="8.550187865682904"><ele>324.0</ele><time>2026-05-03T14:57:58.999Z</time></trkpt><trkpt lat="45.665049524414215" lon="8.550187277821562"><ele>324.0</ele><time>2026-05-03T14:57:59.999Z</time></trkpt><trkpt lat="45.66512794957714" lon="8.550183178798235"><ele>324.0</ele><time>2026-05-03T14:58:00.999Z</time></trkpt><trkpt lat="45.66520707348736" lon="8.55018664020574"><ele>324.0</ele><time>2026-05-03T14:58:01.999Z</time></trkpt><trkpt lat="45.66528310513839" lon="8.55019024552619"><ele>324.0</ele><time>2026-05-03T14:58:02.999Z</time></trkpt><trkpt lat="45.66536349400212" lon="8.550187096904782"><ele>324.0</ele><time>2026-05-03T14:58:03.999Z</time></trkpt><trkpt lat="45.665453023506586" lon="8.55018098180427"><ele>324.0</ele><time>2026-05-03T14:58:04.999Z</time></trkpt><trkpt lat="45.665544576746264" lon="8.550178714885694"><ele>324.0</ele><time>2026-05-03T14:58:05.999Z</time></trkpt><trkpt lat="45.665628172448834" lon="8.550175750925847"><ele>324.0</ele><time>2026-05-03T14:58:06.999Z</time></trkpt><trkpt lat="45.665710745342714" lon="8.550178537040564"><ele>324.0</ele><time>2026-05-03T14:58:07.999Z</time></trkpt><trkpt lat="45.66578987752853" lon="8.550182233275546"><ele>324.0</ele><time>2026-05-03T14:58:08.999Z</time></trkpt><trkpt lat="45.66586465997261" lon="8.550182636852366"><ele>324.0</ele><time>2026-05-03T14:58:09.999Z</time></trkpt><trkpt lat="45.66593686140529" lon="8.550185611918511"><ele>324.0</ele><time>2026-05-03T14:58:10.999Z</time></trkpt><trkpt lat="45.66600406412231" lon="8.550182668594017"><ele>324.0</ele><time>2026-05-03T14:58:11.999Z</time></trkpt><trkpt lat="45.66607845256631" lon="8.550179726607901"><ele>324.0</ele><time>2026-05-03T14:58:12.999Z</time></trkpt><trkpt lat="45.66615780731695" lon="8.550176299599276"><ele>324.0</ele><time>2026-05-03T14:58:13.999Z</time></trkpt><trkpt lat="45.66622910032196" lon="8.550189143009463"><ele>324.0</ele><time>2026-05-03T14:58:14.999Z</time></trkpt><trkpt lat="45.666299920731625" lon="8.550216749352856"><ele>324.0</ele><time>2026-05-03T14:58:15.999Z</time></trkpt><trkpt lat="45.666361814103865" lon="8.550252446804304"><ele>324.14285714285717</ele><time>2026-05-03T14:58:16.999Z</time></trkpt><trkpt lat="45.66642516995224" lon="8.550287639712089"><ele>324.2857142857143</ele><time>2026-05-03T14:58:17.999Z</time></trkpt><trkpt lat="45.66648485559898" lon="8.550322758154019"><ele>324.42857142857144</ele><time>2026-05-03T14:58:18.999Z</time></trkpt><trkpt lat="45.66654846287668" lon="8.550361936252905"><ele>324.57142857142856</ele><time>2026-05-03T14:58:19.999Z</time></trkpt><trkpt lat="45.66663865720287" lon="8.550417547366733"><ele>324.7142857142857</ele><time>2026-05-03T14:58:21.999Z</time></trkpt><trkpt lat="45.66670229944368" lon="8.550428218696343"><ele>324.85714285714283</ele><time>2026-05-03T14:58:23.999Z</time></trkpt><trkpt lat="45.66678156121714" lon="8.550433703349906"><ele>325.0</ele><time>2026-05-03T14:58:26.999Z</time></trkpt><trkpt lat="45.666857832747745" lon="8.55048069236522"><ele>325.0</ele><time>2026-05-03T14:58:28.999Z</time></trkpt><trkpt lat="45.66692042858413" lon="8.550514719599065"><ele>325.0</ele><time>2026-05-03T14:58:34.998Z</time></trkpt><trkpt lat="45.666959582691874" lon="8.550610496114011"><ele>325.0</ele><time>2026-05-03T14:58:39.998Z</time></trkpt><trkpt lat="45.66701924400577" lon="8.550646740881549"><ele>325.0</ele><time>2026-05-03T14:58:42.998Z</time></trkpt><trkpt lat="45.6670879378682" lon="8.550639479939543"><ele>325.0</ele><time>2026-05-03T14:58:44.998Z</time></trkpt><trkpt lat="45.66714436904204" lon="8.550595729231455"><ele>325.0</ele><time>2026-05-03T14:58:47.998Z</time></trkpt><trkpt lat="45.66719144743653" lon="8.550520203602257"><ele>325.0</ele><time>2026-05-03T14:58:51.998Z</time></trkpt><trkpt lat="45.667229505509255" lon="8.550439685766767"><ele>325.1428571428571</ele><time>2026-05-03T14:58:54.998Z</time></trkpt><trkpt lat="45.6672148322139" lon="8.550334341892407"><ele>325.28571428571433</ele><time>2026-05-03T14:58:58.998Z</time></trkpt><trkpt lat="45.667225984734365" lon="8.550231557900464"><ele>325.42857142857144</ele><time>2026-05-03T14:59:02.998Z</time></trkpt><trkpt lat="45.667211647289555" lon="8.550116205764484"><ele>325.57142857142856</ele><time>2026-05-03T14:59:08Z</time></trkpt><trkpt lat="45.66722382665177" lon="8.55002670690968"><ele>325.71428571428567</ele><time>2026-05-03T14:59:15Z</time></trkpt><trkpt lat="45.667291020128204" lon="8.550011986667311"><ele>325.8571428571429</ele><time>2026-05-03T14:59:18Z</time></trkpt><trkpt lat="45.667362881037185" lon="8.550007995812956"><ele>326.0</ele><time>2026-05-03T14:59:21Z</time></trkpt><trkpt lat="45.66742654420385" lon="8.550002719167573"><ele>326.0</ele><time>2026-05-03T14:59:23Z</time></trkpt><trkpt lat="45.667514994736024" lon="8.550005878712419"><ele>326.0</ele><time>2026-05-03T14:59:26Z</time></trkpt><trkpt lat="45.667598396051396" lon="8.549918251279621"><ele>326.0</ele><time>2026-05-03T14:59:29Z</time></trkpt><trkpt lat="45.66760720834509" lon="8.549756333679467"><ele>326.0</ele><time>2026-05-03T14:59:31Z</time></trkpt><trkpt lat="45.66759568329882" lon="8.549664345828873"><ele>326.0</ele><time>2026-05-03T14:59:34Z</time></trkpt><trkpt lat="45.667553717741356" lon="8.549581992714463"><ele>326.0</ele><time>2026-05-03T14:59:37Z</time></trkpt><trkpt lat="45.667521479846776" lon="8.549495923851511"><ele>325.2857142857143</ele><time>2026-05-03T14:59:40Z</time></trkpt><trkpt lat="45.66746283041315" lon="8.549432306847928"><ele>324.57142857142856</ele><time>2026-05-03T14:59:42Z</time></trkpt><trkpt lat="45.667439940312995" lon="8.549330419683796"><ele>323.85714285714283</ele><time>2026-05-03T14:59:46Z</time></trkpt><trkpt lat="45.6674344711721" lon="8.549204103017486"><ele>323.1428571428571</ele><time>2026-05-03T14:59:50Z</time></trkpt><trkpt lat="45.66744954740001" lon="8.549109039979978"><ele>322.42857142857144</ele><time>2026-05-03T14:59:56.999Z</time></trkpt><trkpt lat="45.66744383370278" lon="8.549017310689797"><ele>321.71428571428567</ele><time>2026-05-03T14:59:59.999Z</time></trkpt><trkpt lat="45.66744969852295" lon="8.548921300274575"><ele>321.0</ele><time>2026-05-03T15:00:02.999Z</time></trkpt><trkpt lat="45.6674271693532" lon="8.54879479744351"><ele>319.4285714285714</ele><time>2026-05-03T15:00:05.999Z</time></trkpt><trkpt lat="45.667416896520905" lon="8.548678323171453"><ele>317.85714285714283</ele><time>2026-05-03T15:00:09.999Z</time></trkpt><trkpt lat="45.66743695115693" lon="8.548579765133352"><ele>316.2857142857143</ele><time>2026-05-03T15:00:13.999Z</time></trkpt><trkpt lat="45.66743034933927" lon="8.548490168591925"><ele>314.71428571428567</ele><time>2026-05-03T15:00:20.999Z</time></trkpt><trkpt lat="45.66737867910709" lon="8.548418451489084"><ele>313.1428571428571</ele><time>2026-05-03T15:00:26.999Z</time></trkpt><trkpt lat="45.66735625425063" lon="8.548315386921136"><ele>311.57142857142856</ele><time>2026-05-03T15:00:31.999Z</time></trkpt><trkpt lat="45.6673392995673" lon="8.54822568411116"><ele>310.0</ele><time>2026-05-03T15:00:37.998Z</time></trkpt><trkpt lat="45.66732052163435" lon="8.548137604867389"><ele>310.0</ele><time>2026-05-03T15:00:46.998Z</time></trkpt><trkpt lat="45.66725926606379" lon="8.548108473708654"><ele>310.0</ele><time>2026-05-03T15:01:05.998Z</time></trkpt><trkpt lat="45.66734544941836" lon="8.548094230311785"><ele>310.0</ele><time>2026-05-03T15:01:09.998Z</time></trkpt><trkpt lat="45.66743128597781" lon="8.548010106984904"><ele>310.0</ele><time>2026-05-03T15:01:12Z</time></trkpt><trkpt lat="45.667530646132256" lon="8.547939299033864"><ele>310.0</ele><time>2026-05-03T15:01:14Z</time></trkpt><trkpt lat="45.66762827687141" lon="8.547815950425326"><ele>309.0</ele><time>2026-05-03T15:01:16Z</time></trkpt><trkpt lat="45.667693924980135" lon="8.547714798701968"><ele>308.0</ele><time>2026-05-03T15:01:18Z</time></trkpt><trkpt lat="45.667746418499384" lon="8.547643899062438"><ele>307.0</ele><time>2026-05-03T15:01:20Z</time></trkpt><trkpt lat="45.66780605686706" lon="8.547579279405275"><ele>306.0</ele><time>2026-05-03T15:01:22Z</time></trkpt><trkpt lat="45.667857881022606" lon="8.547505305048142"><ele>305.0</ele><time>2026-05-03T15:01:24Z</time></trkpt><trkpt lat="45.66789891178809" lon="8.547429180086443"><ele>304.0</ele><time>2026-05-03T15:01:26Z</time></trkpt><trkpt lat="45.66790569447857" lon="8.547303392588628"><ele>304.0</ele><time>2026-05-03T15:01:29Z</time></trkpt><trkpt lat="45.667879723548154" lon="8.54718157493646"><ele>304.0</ele><time>2026-05-03T15:01:31Z</time></trkpt><trkpt lat="45.667857219022515" lon="8.54706380456946"><ele>304.0</ele><time>2026-05-03T15:01:34Z</time></trkpt><trkpt lat="45.667813240164335" lon="8.546824933501634"><ele>304.0</ele><time>2026-05-03T15:01:37Z</time></trkpt><trkpt lat="45.667792346944545" lon="8.546708346361685"><ele>304.0</ele><time>2026-05-03T15:01:39Z</time></trkpt><trkpt lat="45.66777450228283" lon="8.546596351916511"><ele>303.59999999999997</ele><time>2026-05-03T15:01:41Z</time></trkpt><trkpt lat="45.66775667778602" lon="8.546493507999287"><ele>303.2</ele><time>2026-05-03T15:01:43Z</time></trkpt><trkpt lat="45.66773989507534" lon="8.546360127958037"><ele>302.79999999999995</ele><time>2026-05-03T15:01:46Z</time></trkpt><trkpt lat="45.66777417053902" lon="8.546264994509968"><ele>302.4</ele><time>2026-05-03T15:01:49Z</time></trkpt><trkpt lat="45.66784041203037" lon="8.54622021032938"><ele>302.0</ele><time>2026-05-03T15:01:51Z</time></trkpt><trkpt lat="45.66799477313321" lon="8.546183513286383"><ele>301.8</ele><time>2026-05-03T15:01:53Z</time></trkpt><trkpt lat="45.6680770709938" lon="8.546183414111585"><ele>301.6</ele><time>2026-05-03T15:01:54Z</time></trkpt><trkpt lat="45.66817328109683" lon="8.546162549553951"><ele>301.40000000000003</ele><time>2026-05-03T15:01:55Z</time></trkpt><trkpt lat="45.6682323840088" lon="8.54612319269709"><ele>301.2</ele><time>2026-05-03T15:01:56Z</time></trkpt><trkpt lat="45.66838993995288" lon="8.545940416182333"><ele>301.0</ele><time>2026-05-03T15:01:57Z</time></trkpt><trkpt lat="45.66843943162709" lon="8.545781926716952"><ele>301.0</ele><time>2026-05-03T15:01:57.999Z</time></trkpt><trkpt lat="45.66844450306675" lon="8.545676732279766"><ele>301.0</ele><time>2026-05-03T15:01:58.999Z</time></trkpt><trkpt lat="45.6684444308571" lon="8.545585649195289"><ele>301.0</ele><time>2026-05-03T15:01:59.999Z</time></trkpt><trkpt lat="45.66843444087674" lon="8.54548420730579"><ele>301.0</ele><time>2026-05-03T15:02:03.999Z</time></trkpt><trkpt lat="45.668405229698244" lon="8.54533415287575"><ele>301.0</ele><time>2026-05-03T15:02:08.999Z</time></trkpt><trkpt lat="45.668322508485616" lon="8.54527961706721"><ele>301.0</ele><time>2026-05-03T15:02:09.999Z</time></trkpt><trkpt lat="45.66820519370635" lon="8.545225615819705"><ele>301.2</ele><time>2026-05-03T15:02:10.999Z</time></trkpt><trkpt lat="45.66810382236848" lon="8.545153063656667"><ele>301.40000000000003</ele><time>2026-05-03T15:02:11.999Z</time></trkpt><trkpt lat="45.66801241187297" lon="8.545091339278375"><ele>301.6</ele><time>2026-05-03T15:02:12.999Z</time></trkpt><trkpt lat="45.66791280351617" lon="8.545021982229173"><ele>301.8</ele><time>2026-05-03T15:02:13.999Z</time></trkpt><trkpt lat="45.6678010573945" lon="8.544944780995646"><ele>302.0</ele><time>2026-05-03T15:02:14.999Z</time></trkpt><trkpt lat="45.66767707891924" lon="8.54485891472598"><ele>301.33333333333337</ele><time>2026-05-03T15:02:15.999Z</time></trkpt><trkpt lat="45.66754600860445" lon="8.544776010210102"><ele>300.6666666666667</ele><time>2026-05-03T15:02:16.999Z</time></trkpt><trkpt lat="45.66740169521506" lon="8.544686541759905"><ele>300.0</ele><time>2026-05-03T15:02:17.999Z</time></trkpt><trkpt lat="45.66724941360119" lon="8.544587648512218"><ele>300.3333333333333</ele><time>2026-05-03T15:02:18.999Z</time></trkpt><trkpt lat="45.66708827805675" lon="8.544476170845241"><ele>300.66666666666663</ele><time>2026-05-03T15:02:19.999Z</time></trkpt><trkpt lat="45.66691813451151" lon="8.544354105625636"><ele>301.0</ele><time>2026-05-03T15:02:20.999Z</time></trkpt><trkpt lat="45.66675757919122" lon="8.544251027947343"><ele>299.66666666666663</ele><time>2026-05-03T15:02:21.999Z</time></trkpt><trkpt lat="45.66661283763626" lon="8.544152096967828"><ele>298.3333333333333</ele><time>2026-05-03T15:02:22.999Z</time></trkpt><trkpt lat="45.66649822211631" lon="8.543990493763467"><ele>297.0</ele><time>2026-05-03T15:02:23.999Z</time></trkpt><trkpt lat="45.66638713335393" lon="8.543833018405541"><ele>297.3333333333333</ele><time>2026-05-03T15:02:24.999Z</time></trkpt><trkpt lat="45.66627116385186" lon="8.543655565216598"><ele>297.66666666666663</ele><time>2026-05-03T15:02:25.999Z</time></trkpt><trkpt lat="45.666195430759416" lon="8.543441820296989"><ele>298.0</ele><time>2026-05-03T15:02:26.999Z</time></trkpt><trkpt lat="45.66611760255457" lon="8.543250942963528"><ele>297.5</ele><time>2026-05-03T15:02:27.999Z</time></trkpt><trkpt lat="45.666032620664225" lon="8.543072780905689"><ele>297.0</ele><time>2026-05-03T15:02:28.999Z</time></trkpt><trkpt lat="45.6659645750792" lon="8.542898323752597"><ele>296.5</ele><time>2026-05-03T15:02:29.999Z</time></trkpt><trkpt lat="45.66589542256459" lon="8.542732106774999"><ele>296.0</ele><time>2026-05-03T15:02:30.999Z</time></trkpt><trkpt lat="45.66583308167691" lon="8.542570784988344"><ele>295.0</ele><time>2026-05-03T15:02:31.999Z</time></trkpt><trkpt lat="45.6657713305803" lon="8.542412767301517"><ele>294.0</ele><time>2026-05-03T15:02:32.999Z</time></trkpt><trkpt lat="45.665706829770166" lon="8.542259601895266"><ele>293.0</ele><time>2026-05-03T15:02:33.999Z</time></trkpt><trkpt lat="45.665637771868134" lon="8.542104036356182"><ele>292.0</ele><time>2026-05-03T15:02:34.999Z</time></trkpt><trkpt lat="45.66557153812468" lon="8.54193895492688"><ele>290.75</ele><time>2026-05-03T15:02:35.999Z</time></trkpt><trkpt lat="45.66550480073122" lon="8.54176919325731"><ele>289.5</ele><time>2026-05-03T15:02:36.999Z</time></trkpt><trkpt lat="45.66543520941789" lon="8.54160089134393"><ele>288.25</ele><time>2026-05-03T15:02:37.998Z</time></trkpt><trkpt lat="45.66536049559384" lon="8.541428635828057"><ele>287.0</ele><time>2026-05-03T15:02:38.998Z</time></trkpt><trkpt lat="45.66528632285017" lon="8.541255497354127"><ele>286.25</ele><time>2026-05-03T15:02:39.998Z</time></trkpt><trkpt lat="45.665219740886535" lon="8.541076956781131"><ele>285.5</ele><time>2026-05-03T15:02:40.998Z</time></trkpt><trkpt lat="45.665147334254556" lon="8.540900699082217"><ele>284.75</ele><time>2026-05-03T15:02:41.998Z</time></trkpt><trkpt lat="45.665088330911736" lon="8.540747526209366"><ele>284.0</ele><time>2026-05-03T15:02:42.998Z</time></trkpt><trkpt lat="45.6650365952404" lon="8.540607430656467"><ele>284.0</ele><time>2026-05-03T15:02:43.998Z</time></trkpt><trkpt lat="45.66497245895482" lon="8.540465622472725"><ele>284.0</ele><time>2026-05-03T15:02:44.998Z</time></trkpt><trkpt lat="45.664907944345124" lon="8.540307340003102"><ele>284.0</ele><time>2026-05-03T15:02:45.998Z</time></trkpt><trkpt lat="45.66484405778173" lon="8.540129129281683"><ele>284.0</ele><time>2026-05-03T15:02:46.998Z</time></trkpt><trkpt lat="45.664756201265625" lon="8.53993364906102"><ele>283.0</ele><time>2026-05-03T15:02:47.998Z</time></trkpt><trkpt lat="45.66466455867444" lon="8.539716837410596"><ele>282.0</ele><time>2026-05-03T15:02:48.998Z</time></trkpt><trkpt lat="45.66457822951847" lon="8.539495500235502"><ele>281.0</ele><time>2026-05-03T15:02:49.998Z</time></trkpt><trkpt lat="45.66449374042442" lon="8.539286859351552"><ele>280.6</ele><time>2026-05-03T15:02:50.998Z</time></trkpt><trkpt lat="45.66442683740347" lon="8.539121891128826"><ele>280.20000000000005</ele><time>2026-05-03T15:02:51.998Z</time></trkpt><trkpt lat="45.664363409072664" lon="8.5389780699848"><ele>279.79999999999995</ele><time>2026-05-03T15:02:52.998Z</time></trkpt><trkpt lat="45.66431132290633" lon="8.538858006952227"><ele>279.4</ele><time>2026-05-03T15:02:53.998Z</time></trkpt><trkpt lat="45.66426777246718" lon="8.53874026408582"><ele>279.0</ele><time>2026-05-03T15:02:54.998Z</time></trkpt><trkpt lat="45.66423591652804" lon="8.538634640929018"><ele>279.0</ele><time>2026-05-03T15:02:55.998Z</time></trkpt><trkpt lat="45.664223526849824" lon="8.538537984776028"><ele>279.0</ele><time>2026-05-03T15:02:56.998Z</time></trkpt><trkpt lat="45.66416448824757" lon="8.538396411801179"><ele>279.0</ele><time>2026-05-03T15:02:58.998Z</time></trkpt><trkpt lat="45.66409779304085" lon="8.538346116742218"><ele>279.0</ele><time>2026-05-03T15:02:59.998Z</time></trkpt><trkpt lat="45.66403671123165" lon="8.538240306146372"><ele>279.0</ele><time>2026-05-03T15:03:00.998Z</time></trkpt><trkpt lat="45.663987685159135" lon="8.538079525262589"><ele>279.0</ele><time>2026-05-03T15:03:01.998Z</time></trkpt><trkpt lat="45.663926970064196" lon="8.537887843299027"><ele>279.0</ele><time>2026-05-03T15:03:02.998Z</time></trkpt><trkpt lat="45.66386458777835" lon="8.537699299487082"><ele>279.0</ele><time>2026-05-03T15:03:03.998Z</time></trkpt><trkpt lat="45.66382216335617" lon="8.537554901603801"><ele>279.0</ele><time>2026-05-03T15:03:04.998Z</time></trkpt><trkpt lat="45.663795247131304" lon="8.537457074352643"><ele>279.0</ele><time>2026-05-03T15:03:05.998Z</time></trkpt><trkpt lat="45.66366528544406" lon="8.537466684693154"><ele>279.0</ele><time>2026-05-03T15:03:13.998Z</time></trkpt><trkpt lat="45.6635739109668" lon="8.537564688185627"><ele>279.0</ele><time>2026-05-03T15:03:14.998Z</time></trkpt><trkpt lat="45.66347651330656" lon="8.537679758458628"><ele>279.0</ele><time>2026-05-03T15:03:15.998Z</time></trkpt><trkpt lat="45.66336753939588" lon="8.537819142486097"><ele>278.6666666666667</ele><time>2026-05-03T15:03:17Z</time></trkpt><trkpt lat="45.66324051463347" lon="8.53797774940772"><ele>278.33333333333337</ele><time>2026-05-03T15:03:18Z</time></trkpt><trkpt lat="45.663104075527734" lon="8.53814452648046"><ele>278.0</ele><time>2026-05-03T15:03:19Z</time></trkpt><trkpt lat="45.66296264123761" lon="8.538325258617162"><ele>278.0</ele><time>2026-05-03T15:03:20Z</time></trkpt><trkpt lat="45.66282168146378" lon="8.538510008138582"><ele>278.0</ele><time>2026-05-03T15:03:21Z</time></trkpt><trkpt lat="45.66268481607352" lon="8.538681771924729"><ele>278.0</ele><time>2026-05-03T15:03:22Z</time></trkpt><trkpt lat="45.66255290760743" lon="8.538855392427218"><ele>277.0</ele><time>2026-05-03T15:03:23Z</time></trkpt><trkpt lat="45.662432793757674" lon="8.539043880341632"><ele>276.0</ele><time>2026-05-03T15:03:24Z</time></trkpt><trkpt lat="45.66233045678284" lon="8.539248786128644"><ele>275.0</ele><time>2026-05-03T15:03:25Z</time></trkpt><trkpt lat="45.66224199691555" lon="8.539462577121807"><ele>275.33333333333337</ele><time>2026-05-03T15:03:26Z</time></trkpt><trkpt lat="45.66215665899968" lon="8.539688555516495"><ele>275.6666666666667</ele><time>2026-05-03T15:03:27Z</time></trkpt><trkpt lat="45.66207245966452" lon="8.539917665112052"><ele>276.0</ele><time>2026-05-03T15:03:28Z</time></trkpt><trkpt lat="45.66196689139028" lon="8.540141626722118"><ele>276.3333333333333</ele><time>2026-05-03T15:03:29Z</time></trkpt><trkpt lat="45.66185790377756" lon="8.540371138896127"><ele>276.66666666666663</ele><time>2026-05-03T15:03:30Z</time></trkpt><trkpt lat="45.661753747014" lon="8.540606762647656"><ele>277.0</ele><time>2026-05-03T15:03:31Z</time></trkpt><trkpt lat="45.66164937113703" lon="8.540826431580388"><ele>277.0</ele><time>2026-05-03T15:03:32Z</time></trkpt><trkpt lat="45.66154623508703" lon="8.541017366163578"><ele>277.0</ele><time>2026-05-03T15:03:33Z</time></trkpt><trkpt lat="45.66143635404244" lon="8.54119624193906"><ele>277.0</ele><time>2026-05-03T15:03:34Z</time></trkpt><trkpt lat="45.661320092554824" lon="8.541365893275378"><ele>277.66666666666663</ele><time>2026-05-03T15:03:35Z</time></trkpt><trkpt lat="45.6611866732293" lon="8.541515444761488"><ele>278.3333333333333</ele><time>2026-05-03T15:03:36Z</time></trkpt><trkpt lat="45.66104396375448" lon="8.541650948704607"><ele>279.0</ele><time>2026-05-03T15:03:37Z</time></trkpt><trkpt lat="45.66089512053155" lon="8.54177617448068"><ele>279.6666666666667</ele><time>2026-05-03T15:03:38Z</time></trkpt><trkpt lat="45.660734687561856" lon="8.541908316172478"><ele>280.33333333333337</ele><time>2026-05-03T15:03:39Z</time></trkpt><trkpt lat="45.66057603017917" lon="8.542032800554374"><ele>281.0</ele><time>2026-05-03T15:03:40Z</time></trkpt><trkpt lat="45.66040829275006" lon="8.54212286409589"><ele>283.33333333333337</ele><time>2026-05-03T15:03:41Z</time></trkpt><trkpt lat="45.66021965663068" lon="8.54217074486749"><ele>285.6666666666667</ele><time>2026-05-03T15:03:42Z</time></trkpt><trkpt lat="45.660028012007466" lon="8.54219684332649"><ele>288.0</ele><time>2026-05-03T15:03:43Z</time></trkpt><trkpt lat="45.659846619159815" lon="8.542221487941685"><ele>288.0</ele><time>2026-05-03T15:03:44Z</time></trkpt><trkpt lat="45.65967572289525" lon="8.542240980996498"><ele>288.0</ele><time>2026-05-03T15:03:45Z</time></trkpt><trkpt lat="45.65950937138298" lon="8.542258221779118"><ele>288.0</ele><time>2026-05-03T15:03:46Z</time></trkpt><trkpt lat="45.65935394190846" lon="8.542281640385019"><ele>287.0</ele><time>2026-05-03T15:03:47Z</time></trkpt><trkpt lat="45.65919689970508" lon="8.542307885805778"><ele>286.0</ele><time>2026-05-03T15:03:48Z</time></trkpt><trkpt lat="45.659031043881825" lon="8.542334898412689"><ele>285.0</ele><time>2026-05-03T15:03:49Z</time></trkpt><trkpt lat="45.65887353636996" lon="8.542353274144439"><ele>285.0</ele><time>2026-05-03T15:03:50Z</time></trkpt><trkpt lat="45.65870931463115" lon="8.542374268842728"><ele>285.0</ele><time>2026-05-03T15:03:51Z</time></trkpt><trkpt lat="45.65855387751504" lon="8.542393222148874"><ele>285.0</ele><time>2026-05-03T15:03:52Z</time></trkpt><trkpt lat="45.65839366212128" lon="8.542416542340892"><ele>286.0</ele><time>2026-05-03T15:03:53Z</time></trkpt><trkpt lat="45.65824062612505" lon="8.542436664502114"><ele>287.0</ele><time>2026-05-03T15:03:54Z</time></trkpt><trkpt lat="45.658079991156285" lon="8.542455117010135"><ele>288.0</ele><time>2026-05-03T15:03:55Z</time></trkpt><trkpt lat="45.657925355309686" lon="8.54247328120561"><ele>287.6666666666667</ele><time>2026-05-03T15:03:56Z</time></trkpt><trkpt lat="45.657767960810276" lon="8.542494882121552"><ele>287.33333333333337</ele><time>2026-05-03T15:03:57Z</time></trkpt><trkpt lat="45.65761110941283" lon="8.5425168314409"><ele>287.0</ele><time>2026-05-03T15:03:58Z</time></trkpt><trkpt lat="45.65745996898781" lon="8.54253500798837"><ele>287.0</ele><time>2026-05-03T15:03:59Z</time></trkpt><trkpt lat="45.65731593145973" lon="8.542553149789184"><ele>287.0</ele><time>2026-05-03T15:04:00Z</time></trkpt><trkpt lat="45.657182764752996" lon="8.54256275362839"><ele>287.0</ele><time>2026-05-03T15:04:01Z</time></trkpt><trkpt lat="45.657051813736885" lon="8.542562785693399"><ele>287.0</ele><time>2026-05-03T15:04:01.999Z</time></trkpt><trkpt lat="45.65691745819308" lon="8.542558062291238"><ele>286.25</ele><time>2026-05-03T15:04:02.999Z</time></trkpt><trkpt lat="45.656779342189985" lon="8.542541212280659"><ele>285.5</ele><time>2026-05-03T15:04:03.999Z</time></trkpt><trkpt lat="45.656643458925195" lon="8.54250863017004"><ele>284.75</ele><time>2026-05-03T15:04:04.999Z</time></trkpt><trkpt lat="45.656513716660676" lon="8.542477044076499"><ele>284.0</ele><time>2026-05-03T15:04:05.999Z</time></trkpt><trkpt lat="45.65640101381904" lon="8.542449215247808"><ele>284.0</ele><time>2026-05-03T15:04:06.999Z</time></trkpt><trkpt lat="45.656292253355346" lon="8.54242267064525"><ele>284.0</ele><time>2026-05-03T15:04:07.999Z</time></trkpt><trkpt lat="45.65617426503062" lon="8.542404097753758"><ele>284.0</ele><time>2026-05-03T15:04:08.999Z</time></trkpt><trkpt lat="45.65605225666337" lon="8.542379076806206"><ele>284.0</ele><time>2026-05-03T15:04:09.999Z</time></trkpt><trkpt lat="45.65592659009907" lon="8.542346524465877"><ele>284.5</ele><time>2026-05-03T15:04:10.999Z</time></trkpt><trkpt lat="45.65579838678942" lon="8.542307759297737"><ele>285.0</ele><time>2026-05-03T15:04:11.999Z</time></trkpt><trkpt lat="45.655666731640295" lon="8.542281353218916"><ele>285.5</ele><time>2026-05-03T15:04:12.999Z</time></trkpt><trkpt lat="45.6555380306728" lon="8.542258251794605"><ele>286.0</ele><time>2026-05-03T15:04:13.999Z</time></trkpt><trkpt lat="45.65540455975421" lon="8.542224441966605"><ele>287.25</ele><time>2026-05-03T15:04:14.999Z</time></trkpt><trkpt lat="45.6552734510672" lon="8.542190268470927"><ele>288.5</ele><time>2026-05-03T15:04:15.999Z</time></trkpt><trkpt lat="45.65514336938218" lon="8.542158628024724"><ele>289.75</ele><time>2026-05-03T15:04:16.999Z</time></trkpt><trkpt lat="45.65500693811664" lon="8.542132886569869"><ele>291.0</ele><time>2026-05-03T15:04:17.999Z</time></trkpt><trkpt lat="45.654867910722395" lon="8.542106753912345"><ele>291.0</ele><time>2026-05-03T15:04:18.999Z</time></trkpt><trkpt lat="45.654726212502084" lon="8.542086232461683"><ele>291.0</ele><time>2026-05-03T15:04:19.999Z</time></trkpt><trkpt lat="45.654576673321415" lon="8.542089720499588"><ele>291.0</ele><time>2026-05-03T15:04:20.999Z</time></trkpt><trkpt lat="45.654420929547065" lon="8.542111233919508"><ele>291.0</ele><time>2026-05-03T15:04:21.999Z</time></trkpt><trkpt lat="45.654250106949156" lon="8.542138223521677"><ele>289.0</ele><time>2026-05-03T15:04:22.999Z</time></trkpt><trkpt lat="45.654081954550556" lon="8.542156461525783"><ele>287.0</ele><time>2026-05-03T15:04:23.999Z</time></trkpt><trkpt lat="45.65390801683983" lon="8.542187756577004"><ele>285.0</ele><time>2026-05-03T15:04:24.999Z</time></trkpt><trkpt lat="45.65372697592349" lon="8.542220120579863"><ele>283.3333333333333</ele><time>2026-05-03T15:04:25.999Z</time></trkpt><trkpt lat="45.65356268438205" lon="8.542216837723691"><ele>281.66666666666663</ele><time>2026-05-03T15:04:26.999Z</time></trkpt><trkpt lat="45.65338422497592" lon="8.542248544845016"><ele>280.0</ele><time>2026-05-03T15:04:27.999Z</time></trkpt><trkpt lat="45.653219873931775" lon="8.542272585255061"><ele>280.0</ele><time>2026-05-03T15:04:28.999Z</time></trkpt><trkpt lat="45.65306387379971" lon="8.542292769039914"><ele>280.0</ele><time>2026-05-03T15:04:29.999Z</time></trkpt><trkpt lat="45.65291308189561" lon="8.54230477118227"><ele>280.0</ele><time>2026-05-03T15:04:30.999Z</time></trkpt><trkpt lat="45.65275911202776" lon="8.542252918311789"><ele>279.3333333333333</ele><time>2026-05-03T15:04:31.999Z</time></trkpt><trkpt lat="45.65260705001546" lon="8.54218319856472"><ele>278.6666666666667</ele><time>2026-05-03T15:04:32.999Z</time></trkpt><trkpt lat="45.65245632951603" lon="8.542087392126843"><ele>278.0</ele><time>2026-05-03T15:04:33.999Z</time></trkpt><trkpt lat="45.652298200820354" lon="8.541984581695084"><ele>277.33333333333337</ele><time>2026-05-03T15:04:34.999Z</time></trkpt><trkpt lat="45.65214032653496" lon="8.541828347269242"><ele>276.6666666666667</ele><time>2026-05-03T15:04:35.999Z</time></trkpt><trkpt lat="45.6519717951085" lon="8.541665672559155"><ele>276.0</ele><time>2026-05-03T15:04:36.999Z</time></trkpt><trkpt lat="45.6517938307375" lon="8.541501605045479"><ele>276.0</ele><time>2026-05-03T15:04:37.999Z</time></trkpt><trkpt lat="45.651628876128186" lon="8.541375022963129"><ele>276.0</ele><time>2026-05-03T15:04:38.999Z</time></trkpt><trkpt lat="45.65146946614324" lon="8.541279102705962"><ele>276.0</ele><time>2026-05-03T15:04:39.999Z</time></trkpt><trkpt lat="45.65130647279369" lon="8.541226255231615"><ele>275.3333333333333</ele><time>2026-05-03T15:04:40.999Z</time></trkpt><trkpt lat="45.651137516160354" lon="8.541194321675304"><ele>274.66666666666663</ele><time>2026-05-03T15:04:41.998Z</time></trkpt><trkpt lat="45.650956043283884" lon="8.5411501505988"><ele>274.0</ele><time>2026-05-03T15:04:42.998Z</time></trkpt><trkpt lat="45.65075777901576" lon="8.541131737696936"><ele>274.0</ele><time>2026-05-03T15:04:43.998Z</time></trkpt><trkpt lat="45.650543657498744" lon="8.541089882795196"><ele>274.0</ele><time>2026-05-03T15:04:44.998Z</time></trkpt><trkpt lat="45.65035504200413" lon="8.541060044048606"><ele>274.0</ele><time>2026-05-03T15:04:45.998Z</time></trkpt><trkpt lat="45.650189575264314" lon="8.54107619232525"><ele>273.3333333333333</ele><time>2026-05-03T15:04:46.998Z</time></trkpt><trkpt lat="45.650026422034095" lon="8.54109481097054"><ele>272.6666666666667</ele><time>2026-05-03T15:04:47.998Z</time></trkpt><trkpt lat="45.64987244507691" lon="8.541102431529197"><ele>272.0</ele><time>2026-05-03T15:04:48.998Z</time></trkpt><trkpt lat="45.64971930807262" lon="8.541140620978187"><ele>272.0</ele><time>2026-05-03T15:04:49.998Z</time></trkpt><trkpt lat="45.649571104621074" lon="8.541167324455683"><ele>272.0</ele><time>2026-05-03T15:04:50.998Z</time></trkpt><trkpt lat="45.64942237722807" lon="8.541198763348406"><ele>272.0</ele><time>2026-05-03T15:04:51.998Z</time></trkpt><trkpt lat="45.64927342720672" lon="8.541223704399595"><ele>272.33333333333337</ele><time>2026-05-03T15:04:52.998Z</time></trkpt><trkpt lat="45.64912444734571" lon="8.541251266958865"><ele>272.6666666666667</ele><time>2026-05-03T15:04:53.998Z</time></trkpt><trkpt lat="45.648971129583686" lon="8.541280108981407"><ele>273.0</ele><time>2026-05-03T15:04:54.998Z</time></trkpt><trkpt lat="45.64882315715243" lon="8.54130745896362"><ele>273.0</ele><time>2026-05-03T15:04:55.998Z</time></trkpt><trkpt lat="45.64867237393665" lon="8.541335561251584"><ele>273.0</ele><time>2026-05-03T15:04:56.998Z</time></trkpt><trkpt lat="45.64852351536395" lon="8.541359403651773"><ele>273.0</ele><time>2026-05-03T15:04:57.998Z</time></trkpt><trkpt lat="45.648371355137705" lon="8.541379762122311"><ele>273.0</ele><time>2026-05-03T15:04:58.998Z</time></trkpt><trkpt lat="45.64822182504484" lon="8.541404012218374"><ele>273.0</ele><time>2026-05-03T15:04:59.998Z</time></trkpt><trkpt lat="45.64807066412163" lon="8.541428120050101"><ele>273.0</ele><time>2026-05-03T15:05:00.998Z</time></trkpt><trkpt lat="45.6479199960366" lon="8.54144189262896"><ele>272.5</ele><time>2026-05-03T15:05:01.998Z</time></trkpt><trkpt lat="45.64776922870449" lon="8.541431041658747"><ele>272.0</ele><time>2026-05-03T15:05:02.998Z</time></trkpt><trkpt lat="45.647620272890464" lon="8.541407082552478"><ele>271.5</ele><time>2026-05-03T15:05:03.998Z</time></trkpt><trkpt lat="45.64747661807136" lon="8.541377930598124"><ele>271.0</ele><time>2026-05-03T15:05:04.998Z</time></trkpt><trkpt lat="45.64733279922936" lon="8.541335460248655"><ele>271.0</ele><time>2026-05-03T15:05:05.998Z</time></trkpt><trkpt lat="45.647185639610406" lon="8.54129742979672"><ele>271.0</ele><time>2026-05-03T15:05:06.998Z</time></trkpt><trkpt lat="45.647037155740016" lon="8.541261518915617"><ele>271.0</ele><time>2026-05-03T15:05:07.998Z</time></trkpt><trkpt lat="45.64688014590484" lon="8.541240547804058"><ele>270.3333333333333</ele><time>2026-05-03T15:05:08.998Z</time></trkpt><trkpt lat="45.64673618370508" lon="8.541215758330772"><ele>269.6666666666667</ele><time>2026-05-03T15:05:09.998Z</time></trkpt><trkpt lat="45.64657974791894" lon="8.541177314202248"><ele>269.0</ele><time>2026-05-03T15:05:10.998Z</time></trkpt><trkpt lat="45.64642622706082" lon="8.541144766162454"><ele>268.6666666666667</ele><time>2026-05-03T15:05:11.998Z</time></trkpt><trkpt lat="45.64627226007952" lon="8.541118404265058"><ele>268.3333333333333</ele><time>2026-05-03T15:05:12.998Z</time></trkpt><trkpt lat="45.64611808071917" lon="8.541083962388345"><ele>268.0</ele><time>2026-05-03T15:05:13.998Z</time></trkpt><trkpt lat="45.64595859377175" lon="8.541041993820638"><ele>267.3333333333333</ele><time>2026-05-03T15:05:14.998Z</time></trkpt><trkpt lat="45.6457993059366" lon="8.541011601708783"><ele>266.6666666666667</ele><time>2026-05-03T15:05:15.998Z</time></trkpt><trkpt lat="45.64564066806259" lon="8.54098714473314"><ele>266.0</ele><time>2026-05-03T15:05:16.998Z</time></trkpt><trkpt lat="45.6454795670269" lon="8.540956783794762"><ele>266.0</ele><time>2026-05-03T15:05:17.998Z</time></trkpt><trkpt lat="45.645332446316466" lon="8.540920969388054"><ele>266.0</ele><time>2026-05-03T15:05:18.998Z</time></trkpt><trkpt lat="45.64516992483242" lon="8.540886640568486"><ele>266.0</ele><time>2026-05-03T15:05:19.998Z</time></trkpt><trkpt lat="45.645021225716235" lon="8.540867372611974"><ele>266.33333333333337</ele><time>2026-05-03T15:05:20.998Z</time></trkpt><trkpt lat="45.64487275778758" lon="8.540848772572604"><ele>266.6666666666667</ele><time>2026-05-03T15:05:21.997Z</time></trkpt><trkpt lat="45.64472274557686" lon="8.5408182722908"><ele>267.0</ele><time>2026-05-03T15:05:23Z</time></trkpt><trkpt lat="45.64457330574596" lon="8.540774142406447"><ele>267.0</ele><time>2026-05-03T15:05:24Z</time></trkpt><trkpt lat="45.644432393916055" lon="8.54074170312259"><ele>267.0</ele><time>2026-05-03T15:05:25Z</time></trkpt><trkpt lat="45.64428380529629" lon="8.54071452490821"><ele>267.0</ele><time>2026-05-03T15:05:26Z</time></trkpt><trkpt lat="45.64412594272319" lon="8.540701334459465"><ele>267.0</ele><time>2026-05-03T15:05:27Z</time></trkpt><trkpt lat="45.643980211956794" lon="8.54066927885377"><ele>267.0</ele><time>2026-05-03T15:05:28Z</time></trkpt><trkpt lat="45.64383018114224" lon="8.540626247558013"><ele>267.0</ele><time>2026-05-03T15:05:29Z</time></trkpt><trkpt lat="45.64367193811056" lon="8.540607559291137"><ele>266.6666666666667</ele><time>2026-05-03T15:05:30Z</time></trkpt><trkpt lat="45.64351556859134" lon="8.540597867771407"><ele>266.33333333333337</ele><time>2026-05-03T15:05:31Z</time></trkpt><trkpt lat="45.64335953466087" lon="8.540571180333922"><ele>266.0</ele><time>2026-05-03T15:05:32Z</time></trkpt><trkpt lat="45.64321538318355" lon="8.540561863903099"><ele>266.0</ele><time>2026-05-03T15:05:33Z</time></trkpt><trkpt lat="45.64306320755919" lon="8.540544795813094"><ele>266.0</ele><time>2026-05-03T15:05:34Z</time></trkpt><trkpt lat="45.64291535370712" lon="8.540527794756628"><ele>266.0</ele><time>2026-05-03T15:05:35Z</time></trkpt><trkpt lat="45.64277398795249" lon="8.540507926199847"><ele>266.0</ele><time>2026-05-03T15:05:36Z</time></trkpt><trkpt lat="45.64264298044986" lon="8.540500074428328"><ele>265.5</ele><time>2026-05-03T15:05:37Z</time></trkpt><trkpt lat="45.64252071960459" lon="8.540487821458813"><ele>265.0</ele><time>2026-05-03T15:05:38Z</time></trkpt><trkpt lat="45.64240176594764" lon="8.540475449100862"><ele>264.5</ele><time>2026-05-03T15:05:39Z</time></trkpt><trkpt lat="45.64228385724975" lon="8.54046254408494"><ele>264.0</ele><time>2026-05-03T15:05:40Z</time></trkpt><trkpt lat="45.64216693366607" lon="8.540453084415647"><ele>264.0</ele><time>2026-05-03T15:05:41Z</time></trkpt><trkpt lat="45.64204985700749" lon="8.540443230169208"><ele>264.0</ele><time>2026-05-03T15:05:42Z</time></trkpt><trkpt lat="45.64193424101272" lon="8.540430863395175"><ele>264.0</ele><time>2026-05-03T15:05:43Z</time></trkpt><trkpt lat="45.641822309429415" lon="8.540416876166786"><ele>264.0</ele><time>2026-05-03T15:05:44Z</time></trkpt><trkpt lat="45.64173271500186" lon="8.540414338029688"><ele>264.0</ele><time>2026-05-03T15:05:45Z</time></trkpt><trkpt lat="45.641662279269866" lon="8.540417747590395"><ele>263.75</ele><time>2026-05-03T15:05:47Z</time></trkpt><trkpt lat="45.641676944061366" lon="8.540640908694021"><ele>263.5</ele><time>2026-05-03T15:05:49Z</time></trkpt><trkpt lat="45.64169786520434" lon="8.540801568199125"><ele>263.25</ele><time>2026-05-03T15:05:50Z</time></trkpt><trkpt lat="45.64172083290762" lon="8.54099680405594"><ele>263.0</ele><time>2026-05-03T15:05:51Z</time></trkpt><trkpt lat="45.64175196565042" lon="8.541235342849859"><ele>264.0</ele><time>2026-05-03T15:05:52Z</time></trkpt><trkpt lat="45.64179220538812" lon="8.54149029362643"><ele>265.0</ele><time>2026-05-03T15:05:53Z</time></trkpt><trkpt lat="45.6418202015284" lon="8.541751615711059"><ele>266.0</ele><time>2026-05-03T15:05:54Z</time></trkpt><trkpt lat="45.6419123020962" lon="8.542000730398811"><ele>266.6666666666667</ele><time>2026-05-03T15:05:55Z</time></trkpt><trkpt lat="45.64195357423177" lon="8.542287040778126"><ele>267.3333333333333</ele><time>2026-05-03T15:05:56Z</time></trkpt><trkpt lat="45.64198446612022" lon="8.542558316356581"><ele>268.0</ele><time>2026-05-03T15:05:57Z</time></trkpt><trkpt lat="45.64202004603591" lon="8.54276061430036"><ele>268.0</ele><time>2026-05-03T15:05:58Z</time></trkpt><trkpt lat="45.64205851250028" lon="8.542889287170947"><ele>268.0</ele><time>2026-05-03T15:05:59Z</time></trkpt><trkpt lat="45.6421014666617" lon="8.542956896223266"><ele>268.0</ele><time>2026-05-03T15:06:00Z</time></trkpt><trkpt lat="45.64211188284443" lon="8.543075576007976"><ele>268.0</ele><time>2026-05-03T15:06:02Z</time></trkpt><trkpt lat="45.641933116271794" lon="8.54316557461715"><ele>268.0</ele><time>2026-05-03T15:06:03Z</time></trkpt><trkpt lat="45.641840564476965" lon="8.543140218363659"><ele>268.0</ele><time>2026-05-03T15:06:04Z</time></trkpt><trkpt lat="45.64169390144404" lon="8.543127052917544"><ele>268.0</ele><time>2026-05-03T15:06:05Z</time></trkpt><trkpt lat="45.64150688734298" lon="8.543148318964832"><ele>268.0</ele><time>2026-05-03T15:06:06Z</time></trkpt><trkpt lat="45.64131874920143" lon="8.543198799723811"><ele>267.66666666666663</ele><time>2026-05-03T15:06:06.999Z</time></trkpt><trkpt lat="45.6411210560802" lon="8.543254373910992"><ele>267.3333333333333</ele><time>2026-05-03T15:06:07.999Z</time></trkpt><trkpt lat="45.64092269592108" lon="8.543306340108915"><ele>267.0</ele><time>2026-05-03T15:06:08.999Z</time></trkpt><trkpt lat="45.64072839252998" lon="8.543350045125168"><ele>267.0</ele><time>2026-05-03T15:06:09.999Z</time></trkpt><trkpt lat="45.64054591728216" lon="8.543385056762235"><ele>267.0</ele><time>2026-05-03T15:06:10.999Z</time></trkpt><trkpt lat="45.64037169529324" lon="8.543412423767021"><ele>267.0</ele><time>2026-05-03T15:06:11.999Z</time></trkpt><trkpt lat="45.640199378643025" lon="8.543434881343172"><ele>266.3333333333333</ele><time>2026-05-03T15:06:12.999Z</time></trkpt><trkpt lat="45.6400274001832" lon="8.543445220603596"><ele>265.66666666666663</ele><time>2026-05-03T15:06:13.999Z</time></trkpt><trkpt lat="45.63987537932673" lon="8.543442283980168"><ele>265.0</ele><time>2026-05-03T15:06:14.999Z</time></trkpt><trkpt lat="45.63972930454254" lon="8.54344601939155"><ele>265.0</ele><time>2026-05-03T15:06:15.999Z</time></trkpt><trkpt lat="45.63957869516599" lon="8.543458784875567"><ele>265.0</ele><time>2026-05-03T15:06:16.999Z</time></trkpt><trkpt lat="45.639419427298556" lon="8.543464136926533"><ele>265.0</ele><time>2026-05-03T15:06:17.999Z</time></trkpt><trkpt lat="45.63925532565159" lon="8.543464985989981"><ele>264.25</ele><time>2026-05-03T15:06:18.999Z</time></trkpt><trkpt lat="45.6390945836082" lon="8.54346472711975"><ele>263.5</ele><time>2026-05-03T15:06:19.999Z</time></trkpt><trkpt lat="45.638955359405" lon="8.543434545193112"><ele>262.75</ele><time>2026-05-03T15:06:20.999Z</time></trkpt><trkpt lat="45.6388404149926" lon="8.543429627406919"><ele>262.0</ele><time>2026-05-03T15:06:21.999Z</time></trkpt><trkpt lat="45.6387419195888" lon="8.543421875445615"><ele>262.0</ele><time>2026-05-03T15:06:22.999Z</time></trkpt><trkpt lat="45.63866551241413" lon="8.543427665450064"><ele>262.0</ele><time>2026-05-03T15:06:23.999Z</time></trkpt><trkpt lat="45.638569245763534" lon="8.543414819852355"><ele>262.0</ele><time>2026-05-03T15:06:25.999Z</time></trkpt><trkpt lat="45.63844730563425" lon="8.543478049743417"><ele>262.0</ele><time>2026-05-03T15:06:27.999Z</time></trkpt><trkpt lat="45.63836534651433" lon="8.543501517484893"><ele>262.0</ele><time>2026-05-03T15:06:28.999Z</time></trkpt><trkpt lat="45.6382544521896" lon="8.543360948256538"><ele>262.0</ele><time>2026-05-03T15:06:29.999Z</time></trkpt><trkpt lat="45.63816647668319" lon="8.543322892640862"><ele>262.0</ele><time>2026-05-03T15:06:30.999Z</time></trkpt><trkpt lat="45.6380742044261" lon="8.543275318817685"><ele>262.0</ele><time>2026-05-03T15:06:31.999Z</time></trkpt><trkpt lat="45.63798021745915" lon="8.54321316071841"><ele>262.0</ele><time>2026-05-03T15:06:32.999Z</time></trkpt><trkpt lat="45.63789069595607" lon="8.54314089268825"><ele>262.0</ele><time>2026-05-03T15:06:33.999Z</time></trkpt><trkpt lat="45.63780897292668" lon="8.543025907063797"><ele>261.75</ele><time>2026-05-03T15:06:34.999Z</time></trkpt><trkpt lat="45.63774182265776" lon="8.542875523821904"><ele>261.5</ele><time>2026-05-03T15:06:35.999Z</time></trkpt><trkpt lat="45.6376316697132" lon="8.542745800610861"><ele>261.25</ele><time>2026-05-03T15:06:36.999Z</time></trkpt><trkpt lat="45.63751245394618" lon="8.542622685980255"><ele>261.0</ele><time>2026-05-03T15:06:37.999Z</time></trkpt><trkpt lat="45.63739606422063" lon="8.542498457261132"><ele>261.0</ele><time>2026-05-03T15:06:38.999Z</time></trkpt><trkpt lat="45.63727223737241" lon="8.542366913694591"><ele>261.0</ele><time>2026-05-03T15:06:39.999Z</time></trkpt><trkpt lat="45.63714014115296" lon="8.542239287704486"><ele>261.0</ele><time>2026-05-03T15:06:40.999Z</time></trkpt><trkpt lat="45.63699260984408" lon="8.54212328979846"><ele>261.0</ele><time>2026-05-03T15:06:41.999Z</time></trkpt><trkpt lat="45.63683766477172" lon="8.542002125944078"><ele>261.0</ele><time>2026-05-03T15:06:42.999Z</time></trkpt><trkpt lat="45.63670332196723" lon="8.541896055138679"><ele>261.0</ele><time>2026-05-03T15:06:43.999Z</time></trkpt><trkpt lat="45.63658638524593" lon="8.541787675009763"><ele>261.0</ele><time>2026-05-03T15:06:44.999Z</time></trkpt><trkpt lat="45.636489430335494" lon="8.541674457908183"><ele>261.0</ele><time>2026-05-03T15:06:45.999Z</time></trkpt><trkpt lat="45.63639607393409" lon="8.541568013760198"><ele>261.0</ele><time>2026-05-03T15:06:46.998Z</time></trkpt><trkpt lat="45.63630961467225" lon="8.541488180604722"><ele>261.0</ele><time>2026-05-03T15:06:47.998Z</time></trkpt><trkpt lat="45.636239059272135" lon="8.541454960471357"><ele>261.0</ele><time>2026-05-03T15:06:48.998Z</time></trkpt><trkpt lat="45.636166034638336" lon="8.541441394799246"><ele>260.5</ele><time>2026-05-03T15:06:59.998Z</time></trkpt><trkpt lat="45.63603831309582" lon="8.541499179726433"><ele>260.0</ele><time>2026-05-03T15:07:01.998Z</time></trkpt><trkpt lat="45.63594278495612" lon="8.54155109096859"><ele>259.5</ele><time>2026-05-03T15:07:02.998Z</time></trkpt><trkpt lat="45.6358286424068" lon="8.541616063498912"><ele>259.0</ele><time>2026-05-03T15:07:03.998Z</time></trkpt><trkpt lat="45.635689138550234" lon="8.541681751096617"><ele>259.0</ele><time>2026-05-03T15:07:04.998Z</time></trkpt><trkpt lat="45.6355520808182" lon="8.541748617620888"><ele>259.0</ele><time>2026-05-03T15:07:05.998Z</time></trkpt><trkpt lat="45.63542537173101" lon="8.541817144365949"><ele>259.0</ele><time>2026-05-03T15:07:06.998Z</time></trkpt><trkpt lat="45.635302249139784" lon="8.54187433673116"><ele>259.0</ele><time>2026-05-03T15:07:07.998Z</time></trkpt><trkpt lat="45.63518706903862" lon="8.541915296006922"><ele>259.0</ele><time>2026-05-03T15:07:08.998Z</time></trkpt><trkpt lat="45.63508375869305" lon="8.541949978598877"><ele>259.0</ele><time>2026-05-03T15:07:09.998Z</time></trkpt><trkpt lat="45.634979985862614" lon="8.541980015839181"><ele>259.0</ele><time>2026-05-03T15:07:10.998Z</time></trkpt><trkpt lat="45.6348836577497" lon="8.542005275910721"><ele>259.0</ele><time>2026-05-03T15:07:11.998Z</time></trkpt><trkpt lat="45.63479327853952" lon="8.542029214735148"><ele>259.0</ele><time>2026-05-03T15:07:12.998Z</time></trkpt><trkpt lat="45.634708073717626" lon="8.542049846563533"><ele>259.0</ele><time>2026-05-03T15:07:13.998Z</time></trkpt><trkpt lat="45.634628269895316" lon="8.542065352396214"><ele>259.0</ele><time>2026-05-03T15:07:14.998Z</time></trkpt><trkpt lat="45.63454546205268" lon="8.542069710660078"><ele>259.0</ele><time>2026-05-03T15:07:15.998Z</time></trkpt><trkpt lat="45.6344579111001" lon="8.542059294488368"><ele>259.0</ele><time>2026-05-03T15:07:16.998Z</time></trkpt><trkpt lat="45.634370269313756" lon="8.542046753220978"><ele>259.0</ele><time>2026-05-03T15:07:17.998Z</time></trkpt><trkpt lat="45.634288085124666" lon="8.542025171857272"><ele>259.0</ele><time>2026-05-03T15:07:18.998Z</time></trkpt><trkpt lat="45.63421914306344" lon="8.542007579604974"><ele>258.59999999999997</ele><time>2026-05-03T15:07:19.998Z</time></trkpt><trkpt lat="45.63412398385" lon="8.541987793592218"><ele>258.2</ele><time>2026-05-03T15:07:21.998Z</time></trkpt><trkpt lat="45.634045611708274" lon="8.541960293777977"><ele>257.79999999999995</ele><time>2026-05-03T15:07:27.997Z</time></trkpt><trkpt lat="45.63395444904769" lon="8.542001852837265"><ele>257.4</ele><time>2026-05-03T15:07:29Z</time></trkpt><trkpt lat="45.633839404248434" lon="8.541947642562409"><ele>257.0</ele><time>2026-05-03T15:07:30Z</time></trkpt><trkpt lat="45.63371796078495" lon="8.541908833548629"><ele>256.75</ele><time>2026-05-03T15:07:31Z</time></trkpt><trkpt lat="45.6335784416284" lon="8.5418675995513"><ele>256.5</ele><time>2026-05-03T15:07:32Z</time></trkpt><trkpt lat="45.6334368418027" lon="8.541836069492692"><ele>256.25</ele><time>2026-05-03T15:07:33Z</time></trkpt><trkpt lat="45.63329530787287" lon="8.541797237435034"><ele>256.0</ele><time>2026-05-03T15:07:34Z</time></trkpt><trkpt lat="45.63319196434883" lon="8.541800032633173"><ele>256.0</ele><time>2026-05-03T15:07:35Z</time></trkpt><trkpt lat="45.63307449403818" lon="8.541795359217147"><ele>256.0</ele><time>2026-05-03T15:07:36Z</time></trkpt><trkpt lat="45.63295015288456" lon="8.541789438210998"><ele>256.0</ele><time>2026-05-03T15:07:37Z</time></trkpt><trkpt lat="45.632814851320056" lon="8.541766911166661"><ele>256.0</ele><time>2026-05-03T15:07:38Z</time></trkpt><trkpt lat="45.63270178105542" lon="8.541717266536391"><ele>255.8</ele><time>2026-05-03T15:07:39Z</time></trkpt><trkpt lat="45.63260449923617" lon="8.541725389678723"><ele>255.60000000000002</ele><time>2026-05-03T15:07:40Z</time></trkpt><trkpt lat="45.63251404097036" lon="8.541720366062105"><ele>255.4</ele><time>2026-05-03T15:07:41Z</time></trkpt><trkpt lat="45.63241054748451" lon="8.541696207521504"><ele>255.2</ele><time>2026-05-03T15:07:42Z</time></trkpt><trkpt lat="45.632310772609564" lon="8.541705381044753"><ele>255.0</ele><time>2026-05-03T15:07:43Z</time></trkpt><trkpt lat="45.632214130505666" lon="8.54169852467855"><ele>255.0</ele><time>2026-05-03T15:07:44Z</time></trkpt><trkpt lat="45.63213387932274" lon="8.5416922056507"><ele>255.0</ele><time>2026-05-03T15:07:45Z</time></trkpt><trkpt lat="45.6320577430221" lon="8.541685465700594"><ele>255.0</ele><time>2026-05-03T15:07:46Z</time></trkpt><trkpt lat="45.6319817176893" lon="8.541675818758607"><ele>255.0</ele><time>2026-05-03T15:07:47Z</time></trkpt><trkpt lat="45.63191119606776" lon="8.541666455722318"><ele>255.0</ele><time>2026-05-03T15:07:48Z</time></trkpt><trkpt lat="45.63185082712378" lon="8.541607121831486"><ele>255.0</ele><time>2026-05-03T15:07:49Z</time></trkpt><trkpt lat="45.631783189177064" lon="8.541559534362165"><ele>255.0</ele><time>2026-05-03T15:07:50Z</time></trkpt><trkpt lat="45.63168072559125" lon="8.54150134135794"><ele>255.0</ele><time>2026-05-03T15:07:51Z</time></trkpt><trkpt lat="45.63158829119787" lon="8.54145147842677"><ele>255.0</ele><time>2026-05-03T15:07:52Z</time></trkpt><trkpt lat="45.631530053403985" lon="8.541410837815336"><ele>255.0</ele><time>2026-05-03T15:07:53Z</time></trkpt><trkpt lat="45.631449396807774" lon="8.541367567072722"><ele>255.0</ele><time>2026-05-03T15:07:54Z</time></trkpt><trkpt lat="45.63137173231869" lon="8.541312265988134"><ele>255.0</ele><time>2026-05-03T15:07:55Z</time></trkpt><trkpt lat="45.63129824244532" lon="8.541238999178553"><ele>255.0</ele><time>2026-05-03T15:07:56Z</time></trkpt><trkpt lat="45.631231262084555" lon="8.541171611541328"><ele>255.0</ele><time>2026-05-03T15:07:57Z</time></trkpt><trkpt lat="45.6311266335563" lon="8.541087902603557"><ele>255.0</ele><time>2026-05-03T15:07:59Z</time></trkpt><trkpt lat="45.63106446590581" lon="8.541021128465117"><ele>255.0</ele><time>2026-05-03T15:08:01Z</time></trkpt><trkpt lat="45.63103129835511" lon="8.540897784906111"><ele>255.0</ele><time>2026-05-03T15:08:06Z</time></trkpt><trkpt lat="45.631016937117444" lon="8.540796581701022"><ele>255.0</ele><time>2026-05-03T15:08:09Z</time></trkpt><trkpt lat="45.631067167577505" lon="8.540739589922962"><ele>255.0</ele><time>2026-05-03T15:08:11.999Z</time></trkpt><trkpt lat="45.631005532480174" lon="8.540768171492404"><ele>255.0</ele><time>2026-05-03T15:08:46.999Z</time></trkpt><trkpt lat="45.630938836366155" lon="8.54076794166631"><ele>255.0</ele><time>2026-05-03T15:08:53.998Z</time></trkpt><trkpt lat="45.630874197416375" lon="8.540785349878599"><ele>255.0</ele><time>2026-05-03T15:09:00.998Z</time></trkpt><trkpt lat="45.63076415245059" lon="8.540785552658184"><ele>255.0</ele><time>2026-05-03T15:12:59.998Z</time></trkpt><trkpt lat="45.63067728800663" lon="8.540734488118721"><ele>255.0</ele><time>2026-05-03T15:13:00.998Z</time></trkpt><trkpt lat="45.63058674733821" lon="8.540691615115554"><ele>255.0</ele><time>2026-05-03T15:13:01.998Z</time></trkpt><trkpt lat="45.63049040880784" lon="8.54065099313684"><ele>255.0</ele><time>2026-05-03T15:13:02.998Z</time></trkpt><trkpt lat="45.63038773127004" lon="8.54060824785788"><ele>255.0</ele><time>2026-05-03T15:13:03.998Z</time></trkpt><trkpt lat="45.63029378135127" lon="8.540575902327124"><ele>255.0</ele><time>2026-05-03T15:13:04.998Z</time></trkpt><trkpt lat="45.630210433103706" lon="8.540541378220276"><ele>255.0</ele><time>2026-05-03T15:13:05.998Z</time></trkpt><trkpt lat="45.630130476907624" lon="8.540510994628082"><ele>254.5</ele><time>2026-05-03T15:13:06.998Z</time></trkpt><trkpt lat="45.63007677224513" lon="8.540454514119462"><ele>254.0</ele><time>2026-05-03T15:13:07.998Z</time></trkpt><trkpt lat="45.62995849348467" lon="8.5404076620499"><ele>253.5</ele><time>2026-05-03T15:13:09.998Z</time></trkpt><trkpt lat="45.62988265364679" lon="8.540453335476439"><ele>253.0</ele><time>2026-05-03T15:13:10.998Z</time></trkpt><trkpt lat="45.62979606150055" lon="8.540509182467302"><ele>252.5</ele><time>2026-05-03T15:13:11.998Z</time></trkpt><trkpt lat="45.62972731942074" lon="8.540544057748619"><ele>252.0</ele><time>2026-05-03T15:13:12.998Z</time></trkpt><trkpt lat="45.629676697629854" lon="8.540745309073811"><ele>252.0</ele><time>2026-05-03T15:13:14.998Z</time></trkpt><trkpt lat="45.62968382479008" lon="8.540898959346467"><ele>252.0</ele><time>2026-05-03T15:13:15.998Z</time></trkpt><trkpt lat="45.62968849378633" lon="8.541083799704323"><ele>252.0</ele><time>2026-05-03T15:13:16.998Z</time></trkpt><trkpt lat="45.6296883676632" lon="8.541269347077417"><ele>252.0</ele><time>2026-05-03T15:13:17.998Z</time></trkpt><trkpt lat="45.62967161843696" lon="8.541465767772996"><ele>252.33333333333331</ele><time>2026-05-03T15:13:18.998Z</time></trkpt><trkpt lat="45.62968133960263" lon="8.541674851291624"><ele>252.66666666666666</ele><time>2026-05-03T15:13:19.998Z</time></trkpt><trkpt lat="45.6296962161554" lon="8.541891572413702"><ele>253.0</ele><time>2026-05-03T15:13:20.998Z</time></trkpt><trkpt lat="45.62971265349012" lon="8.542114961965053"><ele>253.0</ele><time>2026-05-03T15:13:21.998Z</time></trkpt><trkpt lat="45.62974557257118" lon="8.542346430815046"><ele>253.0</ele><time>2026-05-03T15:13:22.998Z</time></trkpt><trkpt lat="45.62973508401391" lon="8.542570451290898"><ele>253.0</ele><time>2026-05-03T15:13:23.998Z</time></trkpt><trkpt lat="45.62973088845689" lon="8.54276888912707"><ele>254.25</ele><time>2026-05-03T15:13:24.998Z</time></trkpt><trkpt lat="45.6297224054955" lon="8.542951701776984"><ele>255.5</ele><time>2026-05-03T15:13:25.998Z</time></trkpt><trkpt lat="45.62972996321444" lon="8.54312740370415"><ele>256.75</ele><time>2026-05-03T15:13:26.998Z</time></trkpt><trkpt lat="45.62968724575625" lon="8.54329871604615"><ele>258.0</ele><time>2026-05-03T15:13:27.998Z</time></trkpt><trkpt lat="45.62961628731687" lon="8.543463052099497"><ele>258.0</ele><time>2026-05-03T15:13:28.998Z</time></trkpt><trkpt lat="45.62953551217764" lon="8.543625184380115"><ele>258.0</ele><time>2026-05-03T15:13:29.998Z</time></trkpt><trkpt lat="45.62945561168129" lon="8.543782695175466"><ele>258.0</ele><time>2026-05-03T15:13:30.998Z</time></trkpt><trkpt lat="45.629354315997915" lon="8.543920064466208"><ele>258.0</ele><time>2026-05-03T15:13:31.998Z</time></trkpt><trkpt lat="45.62923738854682" lon="8.54406127054541"><ele>258.3333333333333</ele><time>2026-05-03T15:13:32.998Z</time></trkpt><trkpt lat="45.62912780408882" lon="8.544216795932552"><ele>258.66666666666663</ele><time>2026-05-03T15:13:33.998Z</time></trkpt><trkpt lat="45.629039456228206" lon="8.544397571718584"><ele>259.0</ele><time>2026-05-03T15:13:34.998Z</time></trkpt><trkpt lat="45.62898287133686" lon="8.544605264176901"><ele>260.5</ele><time>2026-05-03T15:13:35.998Z</time></trkpt><trkpt lat="45.628959052817784" lon="8.544794225082454"><ele>262.0</ele><time>2026-05-03T15:13:36.998Z</time></trkpt><trkpt lat="45.628963262420136" lon="8.544975904673912"><ele>263.5</ele><time>2026-05-03T15:13:37.997Z</time></trkpt><trkpt lat="45.62898962025544" lon="8.545138458714778"><ele>265.0</ele><time>2026-05-03T15:13:38.997Z</time></trkpt><trkpt lat="45.628992138647895" lon="8.545279747481318"><ele>265.0</ele><time>2026-05-03T15:13:39.997Z</time></trkpt><trkpt lat="45.628955617426286" lon="8.545375818235096"><ele>265.0</ele><time>2026-05-03T15:13:40.997Z</time></trkpt><trkpt lat="45.62889391610525" lon="8.545438557431435"><ele>265.0</ele><time>2026-05-03T15:13:41.997Z</time></trkpt><trkpt lat="45.628805315181246" lon="8.545494873819962"><ele>265.0</ele><time>2026-05-03T15:13:42.997Z</time></trkpt><trkpt lat="45.628700592121966" lon="8.545542391092749"><ele>265.0</ele><time>2026-05-03T15:13:43.997Z</time></trkpt><trkpt lat="45.628597991948595" lon="8.545593970194167"><ele>264.75</ele><time>2026-05-03T15:13:44.997Z</time></trkpt><trkpt lat="45.628488294692744" lon="8.545648273536433"><ele>264.5</ele><time>2026-05-03T15:13:46Z</time></trkpt><trkpt lat="45.62837455438139" lon="8.545709369837919"><ele>264.25</ele><time>2026-05-03T15:13:47Z</time></trkpt><trkpt lat="45.628251402458325" lon="8.545763147691101"><ele>264.0</ele><time>2026-05-03T15:13:48Z</time></trkpt><trkpt lat="45.6281290482947" lon="8.5458135404152"><ele>264.0</ele><time>2026-05-03T15:13:49Z</time></trkpt><trkpt lat="45.62800931451008" lon="8.54586349050398"><ele>264.0</ele><time>2026-05-03T15:13:50Z</time></trkpt><trkpt lat="45.62788800113147" lon="8.545917955346686"><ele>264.0</ele><time>2026-05-03T15:13:51Z</time></trkpt><trkpt lat="45.62776939516614" lon="8.545968834020691"><ele>264.0</ele><time>2026-05-03T15:13:52Z</time></trkpt><trkpt lat="45.62766348145158" lon="8.546010199563037"><ele>264.0</ele><time>2026-05-03T15:13:53Z</time></trkpt><trkpt lat="45.62757539614898" lon="8.546059883693376"><ele>264.0</ele><time>2026-05-03T15:13:54Z</time></trkpt><trkpt lat="45.62751681408103" lon="8.546152647323819"><ele>264.0</ele><time>2026-05-03T15:13:55Z</time></trkpt><trkpt lat="45.62749450493681" lon="8.54628116403642"><ele>264.0</ele><time>2026-05-03T15:13:56Z</time></trkpt><trkpt lat="45.62750545139133" lon="8.54643032460159"><ele>264.0</ele><time>2026-05-03T15:13:57Z</time></trkpt><trkpt lat="45.62749993317546" lon="8.546607156265907"><ele>264.0</ele><time>2026-05-03T15:13:58Z</time></trkpt><trkpt lat="45.62750955296134" lon="8.546765012822016"><ele>264.0</ele><time>2026-05-03T15:13:59Z</time></trkpt><trkpt lat="45.62751842542633" lon="8.546928903371425"><ele>264.0</ele><time>2026-05-03T15:14:00Z</time></trkpt><trkpt lat="45.627533119324205" lon="8.54709618932713"><ele>264.0</ele><time>2026-05-03T15:14:01Z</time></trkpt><trkpt lat="45.62750146491151" lon="8.547264506148611"><ele>263.75</ele><time>2026-05-03T15:14:02Z</time></trkpt><trkpt lat="45.62744427733486" lon="8.547429811727806"><ele>263.5</ele><time>2026-05-03T15:14:03Z</time></trkpt><trkpt lat="45.627371249875445" lon="8.547596005845527"><ele>263.25</ele><time>2026-05-03T15:14:04Z</time></trkpt><trkpt lat="45.62729984656514" lon="8.547761020142858"><ele>263.0</ele><time>2026-05-03T15:14:05Z</time></trkpt><trkpt lat="45.627225343926796" lon="8.547933099126217"><ele>262.75</ele><time>2026-05-03T15:14:06Z</time></trkpt><trkpt lat="45.62714453606175" lon="8.548104266642763"><ele>262.5</ele><time>2026-05-03T15:14:07Z</time></trkpt><trkpt lat="45.627044753904705" lon="8.54825324479677"><ele>262.25</ele><time>2026-05-03T15:14:08Z</time></trkpt><trkpt lat="45.626944135816956" lon="8.548406467193796"><ele>262.0</ele><time>2026-05-03T15:14:09Z</time></trkpt><trkpt lat="45.626847501082956" lon="8.548578062747703"><ele>262.25</ele><time>2026-05-03T15:14:10Z</time></trkpt><trkpt lat="45.626772468898906" lon="8.54874945166967"><ele>262.5</ele><time>2026-05-03T15:14:11Z</time></trkpt><trkpt lat="45.626699199489586" lon="8.548913711025047"><ele>262.75</ele><time>2026-05-03T15:14:12Z</time></trkpt><trkpt lat="45.62662963855508" lon="8.549064584543475"><ele>263.0</ele><time>2026-05-03T15:14:13Z</time></trkpt><trkpt lat="45.626562227141356" lon="8.549209554233151"><ele>263.0</ele><time>2026-05-03T15:14:14Z</time></trkpt><trkpt lat="45.62649819512925" lon="8.549354675524809"><ele>263.0</ele><time>2026-05-03T15:14:15Z</time></trkpt><trkpt lat="45.62644588561442" lon="8.549490430768586"><ele>263.0</ele><time>2026-05-03T15:14:16Z</time></trkpt><trkpt lat="45.626401522760624" lon="8.549621009936478"><ele>263.0</ele><time>2026-05-03T15:14:17Z</time></trkpt><trkpt lat="45.62636372060201" lon="8.549739260709273"><ele>263.0</ele><time>2026-05-03T15:14:18Z</time></trkpt><trkpt lat="45.62634026523063" lon="8.549858302063306"><ele>262.83333333333337</ele><time>2026-05-03T15:14:19Z</time></trkpt><trkpt lat="45.62630811551036" lon="8.549961176882375"><ele>262.6666666666667</ele><time>2026-05-03T15:14:20Z</time></trkpt><trkpt lat="45.62625790497628" lon="8.550040137001425"><ele>262.5</ele><time>2026-05-03T15:14:21Z</time></trkpt><trkpt lat="45.6261939111869" lon="8.550104175368004"><ele>262.3333333333333</ele><time>2026-05-03T15:14:22Z</time></trkpt><trkpt lat="45.626122159333775" lon="8.550167531276331"><ele>262.16666666666663</ele><time>2026-05-03T15:14:22.999Z</time></trkpt><trkpt lat="45.626052929929315" lon="8.550244608529082"><ele>262.0</ele><time>2026-05-03T15:14:23.999Z</time></trkpt><trkpt lat="45.62598256727137" lon="8.550326354023838"><ele>261.8</ele><time>2026-05-03T15:14:24.999Z</time></trkpt><trkpt lat="45.62591130148543" lon="8.550424306939231"><ele>261.6</ele><time>2026-05-03T15:14:25.999Z</time></trkpt><trkpt lat="45.62584656350877" lon="8.550540131069866"><ele>261.40000000000003</ele><time>2026-05-03T15:14:26.999Z</time></trkpt><trkpt lat="45.625780487874955" lon="8.5506541556662"><ele>261.2</ele><time>2026-05-03T15:14:27.999Z</time></trkpt><trkpt lat="45.62572206305702" lon="8.550784942504569"><ele>261.0</ele><time>2026-05-03T15:14:28.999Z</time></trkpt><trkpt lat="45.62566392301538" lon="8.550914747719377"><ele>261.0</ele><time>2026-05-03T15:14:29.999Z</time></trkpt><trkpt lat="45.62560992642944" lon="8.551056667041212"><ele>261.0</ele><time>2026-05-03T15:14:30.999Z</time></trkpt><trkpt lat="45.62555678683844" lon="8.551211142077019"><ele>261.0</ele><time>2026-05-03T15:14:31.999Z</time></trkpt><trkpt lat="45.625508743363795" lon="8.551381739508042"><ele>261.0</ele><time>2026-05-03T15:14:32.999Z</time></trkpt><trkpt lat="45.625455964278466" lon="8.551551276329596"><ele>261.0</ele><time>2026-05-03T15:14:33.999Z</time></trkpt><trkpt lat="45.62540249858072" lon="8.55171868280445"><ele>261.0</ele><time>2026-05-03T15:14:34.999Z</time></trkpt><trkpt lat="45.6253397019101" lon="8.551858871524088"><ele>261.0</ele><time>2026-05-03T15:14:35.999Z</time></trkpt><trkpt lat="45.625290739200956" lon="8.552009574965018"><ele>261.0</ele><time>2026-05-03T15:14:36.999Z</time></trkpt><trkpt lat="45.62526076216503" lon="8.552185172328636"><ele>261.3333333333333</ele><time>2026-05-03T15:14:37.999Z</time></trkpt><trkpt lat="45.62524587121633" lon="8.552386741655985"><ele>261.66666666666663</ele><time>2026-05-03T15:14:38.999Z</time></trkpt><trkpt lat="45.62521856418374" lon="8.552598908033765"><ele>262.0</ele><time>2026-05-03T15:14:39.999Z</time></trkpt><trkpt lat="45.62519671675081" lon="8.552825597139694"><ele>261.66666666666663</ele><time>2026-05-03T15:14:40.999Z</time></trkpt><trkpt lat="45.62516996565645" lon="8.553045901829227"><ele>261.3333333333333</ele><time>2026-05-03T15:14:41.999Z</time></trkpt><trkpt lat="45.625148538292855" lon="8.55327836390844"><ele>261.0</ele><time>2026-05-03T15:14:42.999Z</time></trkpt><trkpt lat="45.62513026522119" lon="8.553507302247294"><ele>260.3333333333333</ele><time>2026-05-03T15:14:43.999Z</time></trkpt><trkpt lat="45.6251092712896" lon="8.553733555776253"><ele>259.66666666666663</ele><time>2026-05-03T15:14:44.999Z</time></trkpt><trkpt lat="45.62509245934016" lon="8.55395556320727"><ele>259.0</ele><time>2026-05-03T15:14:45.999Z</time></trkpt><trkpt lat="45.625077208174446" lon="8.554168381538434"><ele>259.0</ele><time>2026-05-03T15:14:46.999Z</time></trkpt><trkpt lat="45.62505365978464" lon="8.554377772686115"><ele>259.0</ele><time>2026-05-03T15:14:47.999Z</time></trkpt><trkpt lat="45.625012401980946" lon="8.554584926853211"><ele>259.0</ele><time>2026-05-03T15:14:48.999Z</time></trkpt><trkpt lat="45.62496436272238" lon="8.554812685516248"><ele>258.66666666666663</ele><time>2026-05-03T15:14:49.999Z</time></trkpt><trkpt lat="45.624929962371844" lon="8.555048077389657"><ele>258.3333333333333</ele><time>2026-05-03T15:14:50.999Z</time></trkpt><trkpt lat="45.62490891363762" lon="8.555266869542498"><ele>258.0</ele><time>2026-05-03T15:14:51.999Z</time></trkpt><trkpt lat="45.624892393229246" lon="8.555479790215731"><ele>257.25</ele><time>2026-05-03T15:14:52.999Z</time></trkpt><trkpt lat="45.62486927860252" lon="8.55568020018501"><ele>256.5</ele><time>2026-05-03T15:14:53.999Z</time></trkpt><trkpt lat="45.62483085927276" lon="8.55586774693969"><ele>255.75</ele><time>2026-05-03T15:14:54.999Z</time></trkpt><trkpt lat="45.62476912060435" lon="8.556050451116517"><ele>255.0</ele><time>2026-05-03T15:14:55.999Z</time></trkpt><trkpt lat="45.62470312780165" lon="8.556235218386128"><ele>254.75</ele><time>2026-05-03T15:14:56.999Z</time></trkpt><trkpt lat="45.62464193795774" lon="8.556419642773449"><ele>254.5</ele><time>2026-05-03T15:14:57.999Z</time></trkpt><trkpt lat="45.62458454358168" lon="8.556590733021588"><ele>254.25</ele><time>2026-05-03T15:14:58.999Z</time></trkpt><trkpt lat="45.62452903627847" lon="8.556750250515462"><ele>254.0</ele><time>2026-05-03T15:14:59.999Z</time></trkpt><trkpt lat="45.62447396892781" lon="8.556908537093276"><ele>253.5</ele><time>2026-05-03T15:15:00.999Z</time></trkpt><trkpt lat="45.62442043744505" lon="8.557069735762992"><ele>253.0</ele><time>2026-05-03T15:15:01.999Z</time></trkpt><trkpt lat="45.62436739667819" lon="8.557236375372769"><ele>252.5</ele><time>2026-05-03T15:15:02.998Z</time></trkpt><trkpt lat="45.624310142021976" lon="8.557407977194888"><ele>252.0</ele><time>2026-05-03T15:15:03.998Z</time></trkpt><trkpt lat="45.62424989252888" lon="8.557583402897306"><ele>252.0</ele><time>2026-05-03T15:15:04.998Z</time></trkpt><trkpt lat="45.624190875664446" lon="8.55776331746107"><ele>252.0</ele><time>2026-05-03T15:15:05.998Z</time></trkpt><trkpt lat="45.62413070204601" lon="8.557943850201454"><ele>252.0</ele><time>2026-05-03T15:15:06.998Z</time></trkpt><trkpt lat="45.62406759943951" lon="8.558128411328802"><ele>252.0</ele><time>2026-05-03T15:15:07.998Z</time></trkpt><trkpt lat="45.62400272887703" lon="8.558320251982623"><ele>251.0</ele><time>2026-05-03T15:15:08.998Z</time></trkpt><trkpt lat="45.6239406058675" lon="8.558517326691518"><ele>250.0</ele><time>2026-05-03T15:15:09.998Z</time></trkpt><trkpt lat="45.623878724289575" lon="8.558710862188533"><ele>249.0</ele><time>2026-05-03T15:15:10.998Z</time></trkpt><trkpt lat="45.62381572870984" lon="8.558896475929753"><ele>248.0</ele><time>2026-05-03T15:15:11.998Z</time></trkpt><trkpt lat="45.62374838676206" lon="8.559094611269856"><ele>248.0</ele><time>2026-05-03T15:15:12.998Z</time></trkpt><trkpt lat="45.62368192630643" lon="8.559282448567696"><ele>248.0</ele><time>2026-05-03T15:15:13.998Z</time></trkpt><trkpt lat="45.62361702402415" lon="8.559469417022369"><ele>248.0</ele><time>2026-05-03T15:15:14.998Z</time></trkpt><trkpt lat="45.62355496975576" lon="8.559658681872282"><ele>248.0</ele><time>2026-05-03T15:15:15.998Z</time></trkpt><trkpt lat="45.6234930416453" lon="8.559838668063302"><ele>248.25</ele><time>2026-05-03T15:15:16.998Z</time></trkpt><trkpt lat="45.62343260512677" lon="8.560011728482673"><ele>248.5</ele><time>2026-05-03T15:15:17.998Z</time></trkpt><trkpt lat="45.62337647476082" lon="8.560180608644258"><ele>248.75</ele><time>2026-05-03T15:15:18.998Z</time></trkpt><trkpt lat="45.62331997828253" lon="8.560352528259255"><ele>249.0</ele><time>2026-05-03T15:15:19.998Z</time></trkpt><trkpt lat="45.6232616079405" lon="8.560517831238512"><ele>248.5</ele><time>2026-05-03T15:15:20.998Z</time></trkpt><trkpt lat="45.62320393935084" lon="8.560689683968796"><ele>248.0</ele><time>2026-05-03T15:15:21.998Z</time></trkpt><trkpt lat="45.62314374129659" lon="8.560868244755108"><ele>247.5</ele><time>2026-05-03T15:15:22.998Z</time></trkpt><trkpt lat="45.62307997652455" lon="8.561052183750803"><ele>247.0</ele><time>2026-05-03T15:15:23.998Z</time></trkpt><trkpt lat="45.62301461321837" lon="8.561240813637005"><ele>246.75</ele><time>2026-05-03T15:15:24.998Z</time></trkpt><trkpt lat="45.62294409859436" lon="8.561432132915254"><ele>246.5</ele><time>2026-05-03T15:15:25.998Z</time></trkpt><trkpt lat="45.62287123265636" lon="8.561603417400333"><ele>246.25</ele><time>2026-05-03T15:15:26.998Z</time></trkpt><trkpt lat="45.622798416788655" lon="8.561762389081954"><ele>246.0</ele><time>2026-05-03T15:15:27.998Z</time></trkpt><trkpt lat="45.622721659274276" lon="8.561910722168646"><ele>246.0</ele><time>2026-05-03T15:15:28.998Z</time></trkpt><trkpt lat="45.62263749339236" lon="8.562048216661383"><ele>246.0</ele><time>2026-05-03T15:15:29.998Z</time></trkpt><trkpt lat="45.6225418923259" lon="8.56217058656786"><ele>246.0</ele><time>2026-05-03T15:15:30.998Z</time></trkpt><trkpt lat="45.622450708115" lon="8.562291960927144"><ele>246.0</ele><time>2026-05-03T15:15:31.998Z</time></trkpt><trkpt lat="45.62237064608938" lon="8.562406330220425"><ele>246.0</ele><time>2026-05-03T15:15:32.998Z</time></trkpt><trkpt lat="45.622312090705975" lon="8.562531682782186"><ele>246.0</ele><time>2026-05-03T15:15:33.998Z</time></trkpt><trkpt lat="45.62227894090072" lon="8.56268577691245"><ele>246.0</ele><time>2026-05-03T15:15:34.998Z</time></trkpt><trkpt lat="45.62227248762905" lon="8.562865284045957"><ele>246.0</ele><time>2026-05-03T15:15:35.998Z</time></trkpt><trkpt lat="45.62227333367073" lon="8.56305189749759"><ele>246.25</ele><time>2026-05-03T15:15:36.998Z</time></trkpt><trkpt lat="45.62226472640337" lon="8.563248825888076"><ele>246.5</ele><time>2026-05-03T15:15:37.998Z</time></trkpt><trkpt lat="45.62225096030136" lon="8.563460711650334"><ele>246.75</ele><time>2026-05-03T15:15:38.998Z</time></trkpt><trkpt lat="45.62223654618734" lon="8.56368146965947"><ele>247.0</ele><time>2026-05-03T15:15:39.998Z</time></trkpt><trkpt lat="45.62222601761439" lon="8.56388907954988"><ele>247.5</ele><time>2026-05-03T15:15:40.998Z</time></trkpt><trkpt lat="45.62222032311985" lon="8.564101559323046"><ele>248.0</ele><time>2026-05-03T15:15:41.998Z</time></trkpt><trkpt lat="45.622213209116154" lon="8.564303659811044"><ele>248.5</ele><time>2026-05-03T15:15:42.998Z</time></trkpt><trkpt lat="45.62220328830659" lon="8.564500171813119"><ele>249.0</ele><time>2026-05-03T15:15:43.997Z</time></trkpt><trkpt lat="45.62219280296273" lon="8.564693697177848"><ele>249.5</ele><time>2026-05-03T15:15:44.997Z</time></trkpt><trkpt lat="45.62218448244311" lon="8.564886034220443"><ele>250.0</ele><time>2026-05-03T15:15:45.997Z</time></trkpt><trkpt lat="45.622179692782105" lon="8.565069027603435"><ele>250.5</ele><time>2026-05-03T15:15:46.997Z</time></trkpt><trkpt lat="45.622189745093266" lon="8.565233131597145"><ele>251.0</ele><time>2026-05-03T15:15:47.997Z</time></trkpt><trkpt lat="45.622204317153994" lon="8.56536152160179"><ele>250.85714285714283</ele><time>2026-05-03T15:15:48.997Z</time></trkpt><trkpt lat="45.62221242492439" lon="8.565460158090128"><ele>250.71428571428572</ele><time>2026-05-03T15:15:49.997Z</time></trkpt><trkpt lat="45.622221990064574" lon="8.56555451569131"><ele>250.57142857142856</ele><time>2026-05-03T15:15:51Z</time></trkpt><trkpt lat="45.62223311494426" lon="8.56565414726968"><ele>250.42857142857142</ele><time>2026-05-03T15:15:52Z</time></trkpt><trkpt lat="45.622258464250024" lon="8.565757465838738"><ele>250.28571428571428</ele><time>2026-05-03T15:15:53Z</time></trkpt><trkpt lat="45.62225634520585" lon="8.565863667343216"><ele>250.14285714285714</ele><time>2026-05-03T15:15:54Z</time></trkpt><trkpt lat="45.62226876434624" lon="8.565977176985427"><ele>250.0</ele><time>2026-05-03T15:15:55Z</time></trkpt><trkpt lat="45.622281365132864" lon="8.566092346739621"><ele>249.99999999999997</ele><time>2026-05-03T15:15:56Z</time></trkpt><trkpt lat="45.62229254979654" lon="8.566194573327046"><ele>250.0</ele><time>2026-05-03T15:15:57Z</time></trkpt><trkpt lat="45.622303325345015" lon="8.566293060623309"><ele>250.0</ele><time>2026-05-03T15:15:58Z</time></trkpt><trkpt lat="45.622313411061086" lon="8.566385242895812"><ele>250.0</ele><time>2026-05-03T15:15:59Z</time></trkpt><trkpt lat="45.6223314982566" lon="8.566550903941007"><ele>249.99999999999997</ele><time>2026-05-03T15:16:01Z</time></trkpt><trkpt lat="45.622348550475465" lon="8.566708117044664"><ele>250.0</ele><time>2026-05-03T15:16:03Z</time></trkpt><trkpt lat="45.62235826115854" lon="8.566797644826442"><ele>249.83333333333331</ele><time>2026-05-03T15:16:04Z</time></trkpt><trkpt lat="45.62236884107269" lon="8.56689518646163"><ele>249.66666666666666</ele><time>2026-05-03T15:16:05Z</time></trkpt><trkpt lat="45.62238074264072" lon="8.5670044962946"><ele>249.5</ele><time>2026-05-03T15:16:06Z</time></trkpt><trkpt lat="45.622394526362335" lon="8.567130899168903"><ele>249.33333333333331</ele><time>2026-05-03T15:16:07Z</time></trkpt><trkpt lat="45.622407790125024" lon="8.567252533469308"><ele>249.16666666666666</ele><time>2026-05-03T15:16:08Z</time></trkpt><trkpt lat="45.62242423195513" lon="8.567401201718253"><ele>249.0</ele><time>2026-05-03T15:16:09Z</time></trkpt><trkpt lat="45.62245712887558" lon="8.567541200673976"><ele>249.39999999999998</ele><time>2026-05-03T15:16:10Z</time></trkpt><trkpt lat="45.622458545609554" lon="8.567693688019919"><ele>249.79999999999998</ele><time>2026-05-03T15:16:11Z</time></trkpt><trkpt lat="45.62247512603377" lon="8.567835018024414"><ele>250.20000000000002</ele><time>2026-05-03T15:16:12Z</time></trkpt><trkpt lat="45.62249074304893" lon="8.56796813597867"><ele>250.60000000000002</ele><time>2026-05-03T15:16:13Z</time></trkpt><trkpt lat="45.62252169946454" lon="8.568099218464079"><ele>251.0</ele><time>2026-05-03T15:16:14Z</time></trkpt><trkpt lat="45.62253269409322" lon="8.568237315296546"><ele>251.60000000000002</ele><time>2026-05-03T15:16:15Z</time></trkpt><trkpt lat="45.622547487241185" lon="8.568377272412617"><ele>252.20000000000002</ele><time>2026-05-03T15:16:16Z</time></trkpt><trkpt lat="45.62255985949479" lon="8.56851780948518"><ele>252.79999999999998</ele><time>2026-05-03T15:16:17Z</time></trkpt><trkpt lat="45.62257204331607" lon="8.568660638566048"><ele>253.39999999999998</ele><time>2026-05-03T15:16:18Z</time></trkpt><trkpt lat="45.62258602324957" lon="8.568812977860082"><ele>254.0</ele><time>2026-05-03T15:16:19Z</time></trkpt><trkpt lat="45.62260654214852" lon="8.568984418232501"><ele>254.33333333333334</ele><time>2026-05-03T15:16:20Z</time></trkpt><trkpt lat="45.62262818173642" lon="8.569196653124633"><ele>254.66666666666669</ele><time>2026-05-03T15:16:21Z</time></trkpt><trkpt lat="45.622654573587205" lon="8.569440109378668"><ele>255.0</ele><time>2026-05-03T15:16:22Z</time></trkpt><trkpt lat="45.622685126954536" lon="8.569703909516084"><ele>255.66666666666669</ele><time>2026-05-03T15:16:23Z</time></trkpt><trkpt lat="45.62271386983035" lon="8.56998552159826"><ele>256.33333333333337</ele><time>2026-05-03T15:16:24Z</time></trkpt><trkpt lat="45.62274643865564" lon="8.570280809050995"><ele>257.0</ele><time>2026-05-03T15:16:25Z</time></trkpt><trkpt lat="45.62277772333732" lon="8.5705680448863"><ele>257.6666666666667</ele><time>2026-05-03T15:16:26Z</time></trkpt><trkpt lat="45.622805489358704" lon="8.570839758457593"><ele>258.3333333333333</ele><time>2026-05-03T15:16:27Z</time></trkpt><trkpt lat="45.622832263231466" lon="8.57110720746652"><ele>259.0</ele><time>2026-05-03T15:16:28Z</time></trkpt><trkpt lat="45.622861576125885" lon="8.571387385817438"><ele>257.66666666666663</ele><time>2026-05-03T15:16:28.999Z</time></trkpt><trkpt lat="45.622894559430414" lon="8.5716824872231"><ele>256.3333333333333</ele><time>2026-05-03T15:16:29.999Z</time></trkpt><trkpt lat="45.622927401506104" lon="8.571952305328733"><ele>255.0</ele><time>2026-05-03T15:16:30.999Z</time></trkpt><trkpt lat="45.62295624379939" lon="8.572196854019145"><ele>255.0</ele><time>2026-05-03T15:16:31.999Z</time></trkpt><trkpt lat="45.622975681668194" lon="8.572420240141657"><ele>255.0</ele><time>2026-05-03T15:16:32.999Z</time></trkpt><trkpt lat="45.62299155448739" lon="8.572604076531505"><ele>255.0</ele><time>2026-05-03T15:16:33.999Z</time></trkpt><trkpt lat="45.6229988548267" lon="8.572759202625736"><ele>255.0</ele><time>2026-05-03T15:16:34.999Z</time></trkpt><trkpt lat="45.622991368635944" lon="8.572927645863961"><ele>253.66666666666669</ele><time>2026-05-03T15:16:35.999Z</time></trkpt><trkpt lat="45.62294651265519" lon="8.573114391229034"><ele>252.33333333333334</ele><time>2026-05-03T15:16:36.999Z</time></trkpt><trkpt lat="45.622871769395125" lon="8.573331840945379"><ele>251.0</ele><time>2026-05-03T15:16:37.999Z</time></trkpt><trkpt lat="45.62278350014834" lon="8.573579606216839"><ele>251.33333333333334</ele><time>2026-05-03T15:16:38.999Z</time></trkpt><trkpt lat="45.622698962916715" lon="8.573835914596753"><ele>251.66666666666669</ele><time>2026-05-03T15:16:39.999Z</time></trkpt><trkpt lat="45.62262279639965" lon="8.57407755042232"><ele>252.0</ele><time>2026-05-03T15:16:40.999Z</time></trkpt><trkpt lat="45.62253477379464" lon="8.57434663700877"><ele>251.66666666666669</ele><time>2026-05-03T15:16:41.999Z</time></trkpt><trkpt lat="45.6224525995195" lon="8.574596814478987"><ele>251.33333333333334</ele><time>2026-05-03T15:16:42.999Z</time></trkpt><trkpt lat="45.622382198358366" lon="8.574812622549892"><ele>251.0</ele><time>2026-05-03T15:16:43.999Z</time></trkpt><trkpt lat="45.62232027401251" lon="8.57500495807046"><ele>251.0</ele><time>2026-05-03T15:16:44.999Z</time></trkpt><trkpt lat="45.622262070154186" lon="8.575178050783405"><ele>251.0</ele><time>2026-05-03T15:16:45.999Z</time></trkpt><trkpt lat="45.62220717476887" lon="8.575322580233824"><ele>251.0</ele><time>2026-05-03T15:16:46.999Z</time></trkpt><trkpt lat="45.62214258307759" lon="8.575450884751344"><ele>251.0</ele><time>2026-05-03T15:16:47.999Z</time></trkpt><trkpt lat="45.622066081826624" lon="8.575558283805632"><ele>251.25</ele><time>2026-05-03T15:16:48.999Z</time></trkpt><trkpt lat="45.62196806146317" lon="8.57562768967145"><ele>251.5</ele><time>2026-05-03T15:16:49.999Z</time></trkpt><trkpt lat="45.6218538674939" lon="8.575693804625631"><ele>251.75</ele><time>2026-05-03T15:16:50.999Z</time></trkpt><trkpt lat="45.6217218371841" lon="8.575767395449288"><ele>252.0</ele><time>2026-05-03T15:16:51.999Z</time></trkpt><trkpt lat="45.62155932366299" lon="8.575846075959905"><ele>252.0</ele><time>2026-05-03T15:16:52.999Z</time></trkpt><trkpt lat="45.6214057410414" lon="8.575933171897587"><ele>252.0</ele><time>2026-05-03T15:16:53.999Z</time></trkpt><trkpt lat="45.62130407210753" lon="8.576022800432378"><ele>252.0</ele><time>2026-05-03T15:16:54.999Z</time></trkpt><trkpt lat="45.62123872794345" lon="8.576058262038044"><ele>252.0</ele><time>2026-05-03T15:16:55.999Z</time></trkpt><trkpt lat="45.62120278072135" lon="8.576137184579972"><ele>252.0</ele><time>2026-05-03T15:16:57.999Z</time></trkpt><trkpt lat="45.62118848607015" lon="8.57622559797961"><ele>252.0</ele><time>2026-05-03T15:16:58.999Z</time></trkpt><trkpt lat="45.6212034744887" lon="8.576334978248067"><ele>252.0</ele><time>2026-05-03T15:16:59.999Z</time></trkpt><trkpt lat="45.62127238159003" lon="8.576478408314909"><ele>252.0</ele><time>2026-05-03T15:17:00.999Z</time></trkpt><trkpt lat="45.621318831604434" lon="8.57663851139783"><ele>252.0</ele><time>2026-05-03T15:17:01.999Z</time></trkpt><trkpt lat="45.62135169942486" lon="8.5768180079004"><ele>252.0</ele><time>2026-05-03T15:17:02.999Z</time></trkpt><trkpt lat="45.62140184972798" lon="8.576998033532252"><ele>252.0</ele><time>2026-05-03T15:17:03.999Z</time></trkpt><trkpt lat="45.621451623241086" lon="8.577181509553085"><ele>252.0</ele><time>2026-05-03T15:17:04.999Z</time></trkpt><trkpt lat="45.62152228874878" lon="8.577382039469839"><ele>252.0</ele><time>2026-05-03T15:17:05.999Z</time></trkpt><trkpt lat="45.62155743459997" lon="8.57757502980784"><ele>252.0</ele><time>2026-05-03T15:17:06.999Z</time></trkpt><trkpt lat="45.62160665045327" lon="8.577752512964594"><ele>252.0</ele><time>2026-05-03T15:17:07.999Z</time></trkpt><trkpt lat="45.62166492700658" lon="8.577903483863922"><ele>252.0</ele><time>2026-05-03T15:17:08.998Z</time></trkpt><trkpt lat="45.62169421505914" lon="8.57807613723167"><ele>252.0</ele><time>2026-05-03T15:17:09.998Z</time></trkpt><trkpt lat="45.62169095558225" lon="8.578265129809324"><ele>252.0</ele><time>2026-05-03T15:17:10.998Z</time></trkpt><trkpt lat="45.621687942660294" lon="8.57848689288799"><ele>252.0</ele><time>2026-05-03T15:17:11.998Z</time></trkpt><trkpt lat="45.62170026556274" lon="8.57873882915201"><ele>252.0</ele><time>2026-05-03T15:17:12.998Z</time></trkpt><trkpt lat="45.621690244852516" lon="8.578988089656665"><ele>252.0</ele><time>2026-05-03T15:17:13.998Z</time></trkpt><trkpt lat="45.62169613926483" lon="8.57919149595282"><ele>252.0</ele><time>2026-05-03T15:17:14.998Z</time></trkpt><trkpt lat="45.62167739057688" lon="8.579350863268097"><ele>252.0</ele><time>2026-05-03T15:17:15.998Z</time></trkpt><trkpt lat="45.621671555731034" lon="8.579497363620103"><ele>252.0</ele><time>2026-05-03T15:17:16.998Z</time></trkpt><trkpt lat="45.62165785210282" lon="8.579643149333926"><ele>252.6</ele><time>2026-05-03T15:17:17.998Z</time></trkpt><trkpt lat="45.62164386135773" lon="8.579807375480927"><ele>253.2</ele><time>2026-05-03T15:17:18.998Z</time></trkpt><trkpt lat="45.621608804686744" lon="8.579965599090432"><ele>253.8</ele><time>2026-05-03T15:17:19.998Z</time></trkpt><trkpt lat="45.62156970707128" lon="8.580093465428044"><ele>254.4</ele><time>2026-05-03T15:17:20.998Z</time></trkpt><trkpt lat="45.621538186942935" lon="8.580216691348841"><ele>255.0</ele><time>2026-05-03T15:17:21.998Z</time></trkpt><trkpt lat="45.62152322453598" lon="8.580325949300406"><ele>255.0</ele><time>2026-05-03T15:17:22.998Z</time></trkpt><trkpt lat="45.62148072738741" lon="8.580409266697123"><ele>255.0</ele><time>2026-05-03T15:17:23.998Z</time></trkpt><trkpt lat="45.62140789986495" lon="8.580540356387493"><ele>255.0</ele><time>2026-05-03T15:17:25.998Z</time></trkpt><trkpt lat="45.62134407041035" lon="8.580624454665587"><ele>255.0</ele><time>2026-05-03T15:17:26.998Z</time></trkpt><trkpt lat="45.62125119634276" lon="8.58072815697841"><ele>255.0</ele><time>2026-05-03T15:17:27.998Z</time></trkpt><trkpt lat="45.62115417021953" lon="8.580826122347512"><ele>254.5</ele><time>2026-05-03T15:17:28.998Z</time></trkpt><trkpt lat="45.62104423405374" lon="8.580943423138239"><ele>254.0</ele><time>2026-05-03T15:17:29.998Z</time></trkpt><trkpt lat="45.62094641659173" lon="8.581051095697985"><ele>253.5</ele><time>2026-05-03T15:17:30.998Z</time></trkpt><trkpt lat="45.620859324554935" lon="8.581145768187687"><ele>253.0</ele><time>2026-05-03T15:17:31.998Z</time></trkpt><trkpt lat="45.62077617797015" lon="8.581242232350577"><ele>252.60000000000002</ele><time>2026-05-03T15:17:32.998Z</time></trkpt><trkpt lat="45.6207107798901" lon="8.58132980395313"><ele>252.20000000000002</ele><time>2026-05-03T15:17:33.998Z</time></trkpt><trkpt lat="45.62066212190806" lon="8.581402813092176"><ele>251.8</ele><time>2026-05-03T15:17:34.998Z</time></trkpt><trkpt lat="45.620612555641486" lon="8.58158265019496"><ele>251.4</ele><time>2026-05-03T15:17:36.998Z</time></trkpt><trkpt lat="45.62061661230875" lon="8.581723369275919"><ele>251.0</ele><time>2026-05-03T15:17:37.998Z</time></trkpt><trkpt lat="45.62058743855247" lon="8.581875815240481"><ele>250.25</ele><time>2026-05-03T15:17:38.998Z</time></trkpt><trkpt lat="45.62057090564932" lon="8.582063052026811"><ele>249.5</ele><time>2026-05-03T15:17:39.998Z</time></trkpt><trkpt lat="45.620568728630744" lon="8.582281551839708"><ele>248.75</ele><time>2026-05-03T15:17:40.998Z</time></trkpt><trkpt lat="45.62054775596062" lon="8.58249474341414"><ele>248.0</ele><time>2026-05-03T15:17:41.998Z</time></trkpt><trkpt lat="45.62053008881627" lon="8.58271184397405"><ele>248.66666666666669</ele><time>2026-05-03T15:17:42.998Z</time></trkpt><trkpt lat="45.620474214318016" lon="8.582934213777817"><ele>249.33333333333331</ele><time>2026-05-03T15:17:43.998Z</time></trkpt><trkpt lat="45.62044551425952" lon="8.583160781232058"><ele>250.0</ele><time>2026-05-03T15:17:44.998Z</time></trkpt><trkpt lat="45.62042906112145" lon="8.583380010744554"><ele>250.0</ele><time>2026-05-03T15:17:45.998Z</time></trkpt><trkpt lat="45.62042029288212" lon="8.5835989505731"><ele>250.0</ele><time>2026-05-03T15:17:46.998Z</time></trkpt><trkpt lat="45.62041166950803" lon="8.583800267102866"><ele>250.0</ele><time>2026-05-03T15:17:47.998Z</time></trkpt><trkpt lat="45.62039496113843" lon="8.583980053177507"><ele>250.0</ele><time>2026-05-03T15:17:48.997Z</time></trkpt><trkpt lat="45.620379078210775" lon="8.584129385268476"><ele>250.49999999999997</ele><time>2026-05-03T15:17:49.997Z</time></trkpt><trkpt lat="45.62036711462356" lon="8.584262196743278"><ele>251.0</ele><time>2026-05-03T15:17:50.997Z</time></trkpt><trkpt lat="45.620370819770976" lon="8.584374077581103"><ele>251.5</ele><time>2026-05-03T15:17:51.997Z</time></trkpt><trkpt lat="45.62035562352217" lon="8.584539624220447"><ele>252.0</ele><time>2026-05-03T15:17:53.997Z</time></trkpt><trkpt lat="45.62037848157048" lon="8.584632376918337"><ele>252.49999999999997</ele><time>2026-05-03T15:17:54.997Z</time></trkpt><trkpt lat="45.62038461248477" lon="8.584742058223227"><ele>253.0</ele><time>2026-05-03T15:17:55.997Z</time></trkpt><trkpt lat="45.62032786036956" lon="8.584853321688156"><ele>254.49999999999997</ele><time>2026-05-03T15:17:57Z</time></trkpt><trkpt lat="45.6203192452448" lon="8.584964731806933"><ele>256.0</ele><time>2026-05-03T15:17:58Z</time></trkpt><trkpt lat="45.62031058479111" lon="8.585079337822274"><ele>257.5</ele><time>2026-05-03T15:17:59Z</time></trkpt><trkpt lat="45.62030191270585" lon="8.585190531048603"><ele>259.0</ele><time>2026-05-03T15:18:00Z</time></trkpt><trkpt lat="45.62029468886196" lon="8.585310215020824"><ele>260.5</ele><time>2026-05-03T15:18:01Z</time></trkpt><trkpt lat="45.62028207060444" lon="8.585431383808661"><ele>262.0</ele><time>2026-05-03T15:18:02Z</time></trkpt><trkpt lat="45.62026028464003" lon="8.58554590656663"><ele>263.3333333333333</ele><time>2026-05-03T15:18:03Z</time></trkpt><trkpt lat="45.62024485353918" lon="8.585656109084681"><ele>264.66666666666663</ele><time>2026-05-03T15:18:04Z</time></trkpt><trkpt lat="45.62023796045487" lon="8.585763507775471"><ele>266.0</ele><time>2026-05-03T15:18:05Z</time></trkpt><trkpt lat="45.6202326709037" lon="8.585912840436578"><ele>267.3333333333333</ele><time>2026-05-03T15:18:07Z</time></trkpt><trkpt lat="45.62021445481474" lon="8.586021549342503"><ele>268.6666666666667</ele><time>2026-05-03T15:18:10Z</time></trkpt><trkpt lat="45.620208809294326" lon="8.586113770362973"><ele>270.0</ele><time>2026-05-03T15:18:12Z</time></trkpt><trkpt lat="45.620200294058634" lon="8.586206745053389"><ele>271.6</ele><time>2026-05-03T15:18:15Z</time></trkpt><trkpt lat="45.62019886057874" lon="8.586309044272646"><ele>273.2</ele><time>2026-05-03T15:18:17Z</time></trkpt><trkpt lat="45.620286893242124" lon="8.586335622230916"><ele>274.8</ele><time>2026-05-03T15:18:26Z</time></trkpt><trkpt lat="45.62040996399497" lon="8.586269338338445"><ele>276.4</ele><time>2026-05-03T15:18:28Z</time></trkpt><trkpt lat="45.62050451739082" lon="8.586268200563197"><ele>278.0</ele><time>2026-05-03T15:18:29Z</time></trkpt><trkpt lat="45.62060097594596" lon="8.586258424758022"><ele>278.0</ele><time>2026-05-03T15:18:30Z</time></trkpt><trkpt lat="45.62069480540854" lon="8.586238613465435"><ele>278.0</ele><time>2026-05-03T15:18:31Z</time></trkpt><trkpt lat="45.62078620693486" lon="8.586218607818195"><ele>278.0</ele><time>2026-05-03T15:18:32Z</time></trkpt><trkpt lat="45.6208770603291" lon="8.586199059130003"><ele>278.0</ele><time>2026-05-03T15:18:32.999Z</time></trkpt><trkpt lat="45.62096164857025" lon="8.586172408198433"><ele>278.0</ele><time>2026-05-03T15:18:33.999Z</time></trkpt><trkpt lat="45.621048145118785" lon="8.586143913215368"><ele>278.0</ele><time>2026-05-03T15:18:34.999Z</time></trkpt><trkpt lat="45.62113736211742" lon="8.58613593956973"><ele>278.0</ele><time>2026-05-03T15:18:35.999Z</time></trkpt><trkpt lat="45.62122328454857" lon="8.58613281215693"><ele>278.0</ele><time>2026-05-03T15:18:36.999Z</time></trkpt><trkpt lat="45.621310219821574" lon="8.586122933763477"><ele>278.0</ele><time>2026-05-03T15:18:37.999Z</time></trkpt><trkpt lat="45.62139607542362" lon="8.586119924444331"><ele>278.0</ele><time>2026-05-03T15:18:38.999Z</time></trkpt><trkpt lat="45.62148297245117" lon="8.58611335035536"><ele>278.0</ele><time>2026-05-03T15:18:39.999Z</time></trkpt><trkpt lat="45.62158184902115" lon="8.586117760570904"><ele>278.0</ele><time>2026-05-03T15:18:40.999Z</time></trkpt><trkpt lat="45.62167853773826" lon="8.586124388657185"><ele>278.0</ele><time>2026-05-03T15:18:41.999Z</time></trkpt><trkpt lat="45.62176479327281" lon="8.586145059859982"><ele>278.0</ele><time>2026-05-03T15:18:42.999Z</time></trkpt><trkpt lat="45.62184956360849" lon="8.58615986138744"><ele>278.0</ele><time>2026-05-03T15:18:43.999Z</time></trkpt><trkpt lat="45.62194149441321" lon="8.586178246277026"><ele>278.0</ele><time>2026-05-03T15:18:44.999Z</time></trkpt><trkpt lat="45.62203769821006" lon="8.586189321479168"><ele>278.6666666666667</ele><time>2026-05-03T15:18:45.999Z</time></trkpt><trkpt lat="45.62212357640174" lon="8.586181575557239"><ele>279.33333333333337</ele><time>2026-05-03T15:18:46.999Z</time></trkpt><trkpt lat="45.622200840617644" lon="8.58617337010943"><ele>280.0</ele><time>2026-05-03T15:18:47.999Z</time></trkpt><trkpt lat="45.62227303868769" lon="8.586168269543487"><ele>280.6666666666667</ele><time>2026-05-03T15:18:48.999Z</time></trkpt><trkpt lat="45.62238803739406" lon="8.586157152771856"><ele>281.3333333333333</ele><time>2026-05-03T15:18:50.999Z</time></trkpt><trkpt lat="45.622474813463164" lon="8.586152722347926"><ele>282.0</ele><time>2026-05-03T15:18:52.999Z</time></trkpt><trkpt lat="45.62253733744552" lon="8.586173018453803"><ele>282.0</ele><time>2026-05-03T15:18:54.999Z</time></trkpt><trkpt lat="45.62258307689453" lon="8.586266495965445"><ele>282.0</ele><time>2026-05-03T15:18:56.999Z</time></trkpt><trkpt lat="45.622616131979925" lon="8.586444986498751"><ele>282.0</ele><time>2026-05-03T15:18:58.999Z</time></trkpt><trkpt lat="45.622628468620306" lon="8.586551315749464"><ele>282.0</ele><time>2026-05-03T15:18:59.999Z</time></trkpt><trkpt lat="45.62264131423241" lon="8.586655254339727"><ele>282.0</ele><time>2026-05-03T15:19:00.999Z</time></trkpt><trkpt lat="45.6226516828765" lon="8.586770433681966"><ele>282.0</ele><time>2026-05-03T15:19:01.999Z</time></trkpt><trkpt lat="45.622656992741845" lon="8.586868302625358"><ele>282.2</ele><time>2026-05-03T15:19:02.999Z</time></trkpt><trkpt lat="45.62268664024612" lon="8.587029023083362"><ele>282.4</ele><time>2026-05-03T15:19:04.999Z</time></trkpt><trkpt lat="45.62271202834032" lon="8.587170422857191"><ele>282.6</ele><time>2026-05-03T15:19:06.999Z</time></trkpt><trkpt lat="45.62278050906372" lon="8.587236185778714"><ele>282.8</ele><time>2026-05-03T15:19:08.999Z</time></trkpt><trkpt lat="45.6228448605794" lon="8.587223003969592"><ele>283.0</ele><time>2026-05-03T15:19:09.999Z</time></trkpt><trkpt lat="45.62293698817652" lon="8.587191260635345"><ele>283.75</ele><time>2026-05-03T15:19:10.999Z</time></trkpt><trkpt lat="45.62304279642415" lon="8.587247152744125"><ele>284.5</ele><time>2026-05-03T15:19:12.998Z</time></trkpt><trkpt lat="45.62310646903317" lon="8.587347791399116"><ele>285.25</ele><time>2026-05-03T15:19:13.998Z</time></trkpt><trkpt lat="45.623153351188606" lon="8.587506972038678"><ele>286.0</ele><time>2026-05-03T15:19:14.998Z</time></trkpt><trkpt lat="45.62319893482046" lon="8.587686076517592"><ele>285.75</ele><time>2026-05-03T15:19:15.998Z</time></trkpt><trkpt lat="45.62325575329935" lon="8.587850949146437"><ele>285.5</ele><time>2026-05-03T15:19:16.998Z</time></trkpt><trkpt lat="45.62329937634793" lon="8.587996908173055"><ele>285.25</ele><time>2026-05-03T15:19:17.998Z</time></trkpt><trkpt lat="45.62334551649188" lon="8.588158985004034"><ele>285.0</ele><time>2026-05-03T15:19:18.998Z</time></trkpt><trkpt lat="45.623393331206586" lon="8.58833914080518"><ele>285.0</ele><time>2026-05-03T15:19:19.998Z</time></trkpt><trkpt lat="45.6234407120114" lon="8.588513243992983"><ele>285.0</ele><time>2026-05-03T15:19:20.998Z</time></trkpt><trkpt lat="45.623490522325575" lon="8.588669365780389"><ele>285.0</ele><time>2026-05-03T15:19:21.998Z</time></trkpt><trkpt lat="45.62352605555103" lon="8.58879957453753"><ele>285.0</ele><time>2026-05-03T15:19:22.998Z</time></trkpt><trkpt lat="45.623552045752525" lon="8.58888223799347"><ele>285.0</ele><time>2026-05-03T15:19:23.998Z</time></trkpt><trkpt lat="45.6234418055013" lon="8.588870149219398"><ele>284.75</ele><time>2026-05-03T15:19:27.998Z</time></trkpt><trkpt lat="45.623338902076334" lon="8.588843915712278"><ele>284.5</ele><time>2026-05-03T15:19:28.998Z</time></trkpt><trkpt lat="45.62320903005276" lon="8.588837361940769"><ele>284.25</ele><time>2026-05-03T15:19:29.998Z</time></trkpt><trkpt lat="45.623068207058985" lon="8.588844384379218"><ele>284.0</ele><time>2026-05-03T15:19:30.998Z</time></trkpt><trkpt lat="45.62293683466869" lon="8.58884708195377"><ele>284.2</ele><time>2026-05-03T15:19:31.998Z</time></trkpt><trkpt lat="45.62280547876173" lon="8.588855073735996"><ele>284.4</ele><time>2026-05-03T15:19:32.998Z</time></trkpt><trkpt lat="45.622702916877195" lon="8.588892192916534"><ele>284.6</ele><time>2026-05-03T15:19:33.998Z</time></trkpt><trkpt lat="45.622598993536315" lon="8.588915778042365"><ele>284.8</ele><time>2026-05-03T15:19:34.998Z</time></trkpt><trkpt lat="45.62249844441274" lon="8.588952265187288"><ele>285.0</ele><time>2026-05-03T15:19:35.998Z</time></trkpt><trkpt lat="45.6223945214515" lon="8.589028195531757"><ele>285.0</ele><time>2026-05-03T15:19:36.998Z</time></trkpt><trkpt lat="45.62227233363669" lon="8.589166724613637"><ele>285.0</ele><time>2026-05-03T15:19:37.998Z</time></trkpt><trkpt lat="45.622106547589475" lon="8.589330933488574"><ele>285.0</ele><time>2026-05-03T15:19:38.998Z</time></trkpt><trkpt lat="45.62194617159242" lon="8.589455423202372"><ele>284.5</ele><time>2026-05-03T15:19:39.998Z</time></trkpt><trkpt lat="45.621825263365274" lon="8.589561917770714"><ele>284.0</ele><time>2026-05-03T15:19:40.998Z</time></trkpt><trkpt lat="45.62172426127765" lon="8.589656437287687"><ele>283.5</ele><time>2026-05-03T15:19:41.998Z</time></trkpt><trkpt lat="45.62163503234485" lon="8.589740930239534"><ele>283.0</ele><time>2026-05-03T15:19:42.998Z</time></trkpt><trkpt lat="45.62154449502487" lon="8.589811862021845"><ele>283.0</ele><time>2026-05-03T15:19:43.998Z</time></trkpt><trkpt lat="45.621440864091554" lon="8.589880649549386"><ele>283.0</ele><time>2026-05-03T15:19:44.998Z</time></trkpt><trkpt lat="45.62132520885584" lon="8.58993101011102"><ele>283.0</ele><time>2026-05-03T15:19:45.998Z</time></trkpt><trkpt lat="45.621189445945895" lon="8.589972488438738"><ele>283.0</ele><time>2026-05-03T15:19:46.998Z</time></trkpt><trkpt lat="45.621054681038814" lon="8.59000826177858"><ele>282.0</ele><time>2026-05-03T15:19:47.998Z</time></trkpt><trkpt lat="45.62093209461195" lon="8.590058940845172"><ele>281.0</ele><time>2026-05-03T15:19:48.998Z</time></trkpt><trkpt lat="45.620819867632584" lon="8.590107508556697"><ele>280.0</ele><time>2026-05-03T15:19:49.998Z</time></trkpt><trkpt lat="45.62069845465125" lon="8.590151984833843"><ele>279.0</ele><time>2026-05-03T15:19:50.998Z</time></trkpt><trkpt lat="45.620574069281915" lon="8.590196870885492"><ele>279.0</ele><time>2026-05-03T15:19:51.997Z</time></trkpt><trkpt lat="45.62044922673455" lon="8.590241919036595"><ele>279.0</ele><time>2026-05-03T15:19:52.997Z</time></trkpt><trkpt lat="45.620319903387184" lon="8.590290688735601"><ele>279.0</ele><time>2026-05-03T15:19:53.997Z</time></trkpt><trkpt lat="45.620190260815775" lon="8.590339190721563"><ele>279.0</ele><time>2026-05-03T15:19:54.997Z</time></trkpt><trkpt lat="45.62005212349532" lon="8.5904017053628"><ele>280.3333333333333</ele><time>2026-05-03T15:19:55.997Z</time></trkpt><trkpt lat="45.619910409127804" lon="8.590484841373137"><ele>281.66666666666663</ele><time>2026-05-03T15:19:56.997Z</time></trkpt><trkpt lat="45.61975396130589" lon="8.590575550076759"><ele>283.0</ele><time>2026-05-03T15:19:57.997Z</time></trkpt><trkpt lat="45.619584277829624" lon="8.5906520495801"><ele>282.0</ele><time>2026-05-03T15:19:58.997Z</time></trkpt><trkpt lat="45.619426003181424" lon="8.590690206744577"><ele>281.0</ele><time>2026-05-03T15:19:59.997Z</time></trkpt><trkpt lat="45.61932567623025" lon="8.590719309231673"><ele>280.0</ele><time>2026-05-03T15:20:00.997Z</time></trkpt><trkpt lat="45.6192196886221" lon="8.59077366881165"><ele>279.0</ele><time>2026-05-03T15:20:03Z</time></trkpt><trkpt lat="45.619128681186986" lon="8.590660772139366"><ele>279.0</ele><time>2026-05-03T15:20:05Z</time></trkpt><trkpt lat="45.618980103917316" lon="8.59064835429185"><ele>279.0</ele><time>2026-05-03T15:20:07Z</time></trkpt><trkpt lat="45.61885731779453" lon="8.590693487826659"><ele>279.0</ele><time>2026-05-03T15:20:08Z</time></trkpt><trkpt lat="45.6187021998827" lon="8.590765605025753"><ele>279.0</ele><time>2026-05-03T15:20:09Z</time></trkpt><trkpt lat="45.61853899236412" lon="8.590830081342332"><ele>279.0</ele><time>2026-05-03T15:20:10Z</time></trkpt><trkpt lat="45.61836886411624" lon="8.590902840693909"><ele>279.0</ele><time>2026-05-03T15:20:11Z</time></trkpt><trkpt lat="45.61823347375677" lon="8.59097583353805"><ele>279.0</ele><time>2026-05-03T15:20:12Z</time></trkpt><trkpt lat="45.618115356578" lon="8.591038169866579"><ele>279.0</ele><time>2026-05-03T15:20:13Z</time></trkpt><trkpt lat="45.61801165471613" lon="8.591085458313517"><ele>279.0</ele><time>2026-05-03T15:20:14Z</time></trkpt><trkpt lat="45.617922887972966" lon="8.591119048871478"><ele>279.0</ele><time>2026-05-03T15:20:15Z</time></trkpt><trkpt lat="45.61783293792349" lon="8.59117932882764"><ele>279.0</ele><time>2026-05-03T15:20:17Z</time></trkpt><trkpt lat="45.617832124132335" lon="8.591356582775344"><ele>279.0</ele><time>2026-05-03T15:20:19Z</time></trkpt><trkpt lat="45.61788255030929" lon="8.591483192853957"><ele>279.0</ele><time>2026-05-03T15:20:20Z</time></trkpt><trkpt lat="45.617936339603396" lon="8.591632539815485"><ele>279.0</ele><time>2026-05-03T15:20:21Z</time></trkpt><trkpt lat="45.61797435407062" lon="8.591776469152958"><ele>279.0</ele><time>2026-05-03T15:20:22Z</time></trkpt><trkpt lat="45.618002601558985" lon="8.591873878982982"><ele>279.0</ele><time>2026-05-03T15:20:23Z</time></trkpt><trkpt lat="45.61801547273848" lon="8.592011733748723"><ele>279.0</ele><time>2026-05-03T15:20:25Z</time></trkpt><trkpt lat="45.617864022421436" lon="8.592177851485536"><ele>277.75</ele><time>2026-05-03T15:20:27Z</time></trkpt><trkpt lat="45.61772943847637" lon="8.59224730223746"><ele>276.5</ele><time>2026-05-03T15:20:28Z</time></trkpt><trkpt lat="45.61759988544102" lon="8.592336289364695"><ele>275.25</ele><time>2026-05-03T15:20:29Z</time></trkpt><trkpt lat="45.617504540782434" lon="8.592441649120547"><ele>274.0</ele><time>2026-05-03T15:20:30Z</time></trkpt><trkpt lat="45.61742735027038" lon="8.592522455000372"><ele>274.0</ele><time>2026-05-03T15:20:31Z</time></trkpt><trkpt lat="45.617335681818844" lon="8.59259507531655"><ele>274.0</ele><time>2026-05-03T15:20:32Z</time></trkpt><trkpt lat="45.61726848023875" lon="8.592652186288026"><ele>274.0</ele><time>2026-05-03T15:20:33Z</time></trkpt><trkpt lat="45.61721542582807" lon="8.592710057344174"><ele>274.0</ele><time>2026-05-03T15:20:35Z</time></trkpt><trkpt lat="45.617145054833" lon="8.592758560660734"><ele>274.0</ele><time>2026-05-03T15:20:37.999Z</time></trkpt><trkpt lat="45.61707021111276" lon="8.592834431030917"><ele>274.0</ele><time>2026-05-03T15:20:39.999Z</time></trkpt><trkpt lat="45.61696056588845" lon="8.592819246154601"><ele>274.16666666666663</ele><time>2026-05-03T15:20:41.999Z</time></trkpt><trkpt lat="45.616896250893085" lon="8.59280485103491"><ele>274.3333333333333</ele><time>2026-05-03T15:20:43.999Z</time></trkpt><trkpt lat="45.61683483736322" lon="8.592835334822137"><ele>274.5</ele><time>2026-05-03T15:20:45.999Z</time></trkpt><trkpt lat="45.61675941293473" lon="8.592782798377055"><ele>274.6666666666667</ele><time>2026-05-03T15:20:48.999Z</time></trkpt><trkpt lat="45.61669732573974" lon="8.592810244759653"><ele>274.83333333333337</ele><time>2026-05-03T15:20:50.999Z</time></trkpt><trkpt lat="45.616599007844876" lon="8.592894041939486"><ele>275.0</ele><time>2026-05-03T15:20:52.999Z</time></trkpt><trkpt lat="45.61654056649972" lon="8.592940993167476"><ele>275.2857142857143</ele><time>2026-05-03T15:20:53.999Z</time></trkpt><trkpt lat="45.61647800476356" lon="8.592972633303512"><ele>275.57142857142856</ele><time>2026-05-03T15:20:54.999Z</time></trkpt><trkpt lat="45.616411778427086" lon="8.593006654917337"><ele>275.85714285714283</ele><time>2026-05-03T15:20:55.999Z</time></trkpt><trkpt lat="45.61635003294242" lon="8.593044157091045"><ele>276.1428571428571</ele><time>2026-05-03T15:20:56.999Z</time></trkpt><trkpt lat="45.61627382891052" lon="8.5931105004484"><ele>276.4285714285714</ele><time>2026-05-03T15:20:58.999Z</time></trkpt><trkpt lat="45.61621018955377" lon="8.593139370246613"><ele>276.7142857142857</ele><time>2026-05-03T15:21:01.999Z</time></trkpt><trkpt lat="45.616146089350316" lon="8.593145701712531"><ele>277.0</ele><time>2026-05-03T15:21:09.999Z</time></trkpt><trkpt lat="45.61607469903567" lon="8.593214394639434"><ele>277.0</ele><time>2026-05-03T15:21:15.999Z</time></trkpt><trkpt lat="45.61598266980403" lon="8.59326063346335"><ele>277.0</ele><time>2026-05-03T15:21:19.998Z</time></trkpt><trkpt lat="45.61592782501177" lon="8.593313384181696"><ele>277.0</ele><time>2026-05-03T15:21:20.998Z</time></trkpt><trkpt lat="45.6158521793711" lon="8.593389811194234"><ele>277.0</ele><time>2026-05-03T15:21:21.998Z</time></trkpt><trkpt lat="45.615759356453395" lon="8.593465374005804"><ele>277.0</ele><time>2026-05-03T15:21:22.998Z</time></trkpt><trkpt lat="45.61566100303834" lon="8.59353967898857"><ele>277.0</ele><time>2026-05-03T15:21:23.998Z</time></trkpt><trkpt lat="45.61555223771395" lon="8.593625921169258"><ele>277.0</ele><time>2026-05-03T15:21:24.998Z</time></trkpt><trkpt lat="45.61545695266613" lon="8.59370222848035"><ele>277.0</ele><time>2026-05-03T15:21:25.998Z</time></trkpt><trkpt lat="45.61537293959079" lon="8.593759509078163"><ele>277.0</ele><time>2026-05-03T15:21:26.998Z</time></trkpt><trkpt lat="45.61529283913714" lon="8.593821139007652"><ele>277.0</ele><time>2026-05-03T15:21:27.998Z</time></trkpt><trkpt lat="45.61523804171168" lon="8.593872463346791"><ele>275.66666666666663</ele><time>2026-05-03T15:21:28.998Z</time></trkpt><trkpt lat="45.61526970151438" lon="8.594022958660393"><ele>274.3333333333333</ele><time>2026-05-03T15:21:30.998Z</time></trkpt><trkpt lat="45.61522982085206" lon="8.594157392793676"><ele>273.0</ele><time>2026-05-03T15:21:32.998Z</time></trkpt><trkpt lat="45.615125174734914" lon="8.59375645068362"><ele>273.0</ele><time>2026-05-03T15:21:34.998Z</time></trkpt><trkpt lat="45.61509353926801" lon="8.59364890604535"><ele>273.0</ele><time>2026-05-03T15:21:35.998Z</time></trkpt><trkpt lat="45.61499705484731" lon="8.5935430997669"><ele>273.0</ele><time>2026-05-03T15:21:37.998Z</time></trkpt><trkpt lat="45.61489593581993" lon="8.59352861903179"><ele>273.0</ele><time>2026-05-03T15:21:38.998Z</time></trkpt><trkpt lat="45.61476263742664" lon="8.593513475445302"><ele>273.0</ele><time>2026-05-03T15:21:39.998Z</time></trkpt><trkpt lat="45.61460242179938" lon="8.593475418029342"><ele>273.0</ele><time>2026-05-03T15:21:40.998Z</time></trkpt><trkpt lat="45.61441116020713" lon="8.59342631712815"><ele>273.0</ele><time>2026-05-03T15:21:41.998Z</time></trkpt><trkpt lat="45.614216894633344" lon="8.593364170753038"><ele>273.0</ele><time>2026-05-03T15:21:42.998Z</time></trkpt><trkpt lat="45.61403715559812" lon="8.593321133804912"><ele>273.0</ele><time>2026-05-03T15:21:43.998Z</time></trkpt><trkpt lat="45.6138789483032" lon="8.593293588648018"><ele>273.0</ele><time>2026-05-03T15:21:44.998Z</time></trkpt><trkpt lat="45.613740572768926" lon="8.593257967600124"><ele>273.0</ele><time>2026-05-03T15:21:45.998Z</time></trkpt><trkpt lat="45.61360988055651" lon="8.593222040383415"><ele>273.0</ele><time>2026-05-03T15:21:46.998Z</time></trkpt><trkpt lat="45.61348631819149" lon="8.593187340614639"><ele>272.4</ele><time>2026-05-03T15:21:47.998Z</time></trkpt><trkpt lat="45.613375258766084" lon="8.593159298452335"><ele>271.8</ele><time>2026-05-03T15:21:48.998Z</time></trkpt><trkpt lat="45.61327062425626" lon="8.593132468923955"><ele>271.2</ele><time>2026-05-03T15:21:49.998Z</time></trkpt><trkpt lat="45.613177983057625" lon="8.593120195114441"><ele>270.6</ele><time>2026-05-03T15:21:50.998Z</time></trkpt><trkpt lat="45.61306935155979" lon="8.593139803455731"><ele>270.0</ele><time>2026-05-03T15:21:51.998Z</time></trkpt><trkpt lat="45.612927914568566" lon="8.593228016721755"><ele>270.3333333333333</ele><time>2026-05-03T15:21:52.998Z</time></trkpt><trkpt lat="45.612761203636104" lon="8.593320988980949"><ele>270.66666666666663</ele><time>2026-05-03T15:21:53.998Z</time></trkpt><trkpt lat="45.61257010577759" lon="8.59341789336191"><ele>271.0</ele><time>2026-05-03T15:21:54.998Z</time></trkpt><trkpt lat="45.61236288136301" lon="8.593500182493829"><ele>271.0</ele><time>2026-05-03T15:21:55.998Z</time></trkpt><trkpt lat="45.612164650114046" lon="8.593598959285911"><ele>271.0</ele><time>2026-05-03T15:21:56.998Z</time></trkpt><trkpt lat="45.611994677983425" lon="8.593688965253946"><ele>271.0</ele><time>2026-05-03T15:21:57.997Z</time></trkpt><trkpt lat="45.61183821540007" lon="8.59377136512008"><ele>270.75</ele><time>2026-05-03T15:21:58.997Z</time></trkpt><trkpt lat="45.61168729221754" lon="8.593848119323177"><ele>270.5</ele><time>2026-05-03T15:21:59.997Z</time></trkpt><trkpt lat="45.61154688880532" lon="8.593917255956324"><ele>270.25</ele><time>2026-05-03T15:22:00.997Z</time></trkpt><trkpt lat="45.6114158190861" lon="8.593977416438376"><ele>270.0</ele><time>2026-05-03T15:22:01.997Z</time></trkpt><trkpt lat="45.61129916679274" lon="8.594038348943908"><ele>270.0</ele><time>2026-05-03T15:22:02.997Z</time></trkpt><trkpt lat="45.61118612615461" lon="8.594089269984893"><ele>270.0</ele><time>2026-05-03T15:22:03.997Z</time></trkpt><trkpt lat="45.61108117100678" lon="8.594131887030679"><ele>270.0</ele><time>2026-05-03T15:22:04.997Z</time></trkpt><trkpt lat="45.61098746260353" lon="8.594166717860858"><ele>270.0</ele><time>2026-05-03T15:22:05.997Z</time></trkpt><trkpt lat="45.610922271815575" lon="8.594200295269859"><ele>270.0</ele><time>2026-05-03T15:22:06.997Z</time></trkpt><trkpt lat="45.61083824814154" lon="8.594308064095834"><ele>270.0</ele><time>2026-05-03T15:22:09Z</time></trkpt><trkpt lat="45.610825135862974" lon="8.59442977982916"><ele>270.0</ele><time>2026-05-03T15:22:10Z</time></trkpt><trkpt lat="45.610881048319754" lon="8.594579769224564"><ele>270.0</ele><time>2026-05-03T15:22:11Z</time></trkpt><trkpt lat="45.61092969397337" lon="8.594746710000766"><ele>270.0</ele><time>2026-05-03T15:22:12Z</time></trkpt><trkpt lat="45.61094359092044" lon="8.594931794608852"><ele>270.0</ele><time>2026-05-03T15:22:13Z</time></trkpt><trkpt lat="45.61096900361422" lon="8.595084451501311"><ele>270.0</ele><time>2026-05-03T15:22:14Z</time></trkpt><trkpt lat="45.610987971898595" lon="8.595209583306536"><ele>270.0</ele><time>2026-05-03T15:22:15Z</time></trkpt><trkpt lat="45.61100030753897" lon="8.595307591436603"><ele>270.0</ele><time>2026-05-03T15:22:16Z</time></trkpt><trkpt lat="45.61097575712916" lon="8.595440206157447"><ele>270.0</ele><time>2026-05-03T15:22:18Z</time></trkpt><trkpt lat="45.610876640470366" lon="8.595453356765352"><ele>269.0</ele><time>2026-05-03T15:22:19Z</time></trkpt><trkpt lat="45.6107645031352" lon="8.59548665361126"><ele>268.0</ele><time>2026-05-03T15:22:20Z</time></trkpt><trkpt lat="45.610619909329984" lon="8.595545499702036"><ele>267.0</ele><time>2026-05-03T15:22:21Z</time></trkpt><trkpt lat="45.61046814873964" lon="8.595588927810976"><ele>266.0</ele><time>2026-05-03T15:22:22Z</time></trkpt><trkpt lat="45.610318057713094" lon="8.59564312475098"><ele>265.5</ele><time>2026-05-03T15:22:23Z</time></trkpt><trkpt lat="45.610178796084995" lon="8.595691263034306"><ele>265.0</ele><time>2026-05-03T15:22:24Z</time></trkpt><trkpt lat="45.61004416227312" lon="8.595739079790269"><ele>264.5</ele><time>2026-05-03T15:22:25Z</time></trkpt><trkpt lat="45.60989607592074" lon="8.595787621563908"><ele>264.0</ele><time>2026-05-03T15:22:26Z</time></trkpt><trkpt lat="45.609740222875196" lon="8.595837370267654"><ele>264.0</ele><time>2026-05-03T15:22:27Z</time></trkpt><trkpt lat="45.60959129557412" lon="8.59588517509959"><ele>264.0</ele><time>2026-05-03T15:22:28Z</time></trkpt><trkpt lat="45.609457532226784" lon="8.595931026722127"><ele>264.0</ele><time>2026-05-03T15:22:29Z</time></trkpt><trkpt lat="45.60932064847895" lon="8.5959761016831"><ele>264.0</ele><time>2026-05-03T15:22:30Z</time></trkpt><trkpt lat="45.60917201499304" lon="8.596023219824993"><ele>262.0</ele><time>2026-05-03T15:22:31Z</time></trkpt><trkpt lat="45.609008994848054" lon="8.596078358557422"><ele>260.0</ele><time>2026-05-03T15:22:32Z</time></trkpt><trkpt lat="45.60883934486692" lon="8.596139154098358"><ele>258.0</ele><time>2026-05-03T15:22:33Z</time></trkpt><trkpt lat="45.60868225474545" lon="8.596190123035496"><ele>254.75</ele><time>2026-05-03T15:22:34Z</time></trkpt><trkpt lat="45.60853594952783" lon="8.596238820232754"><ele>251.5</ele><time>2026-05-03T15:22:35Z</time></trkpt><trkpt lat="45.608393528268216" lon="8.596284493490604"><ele>248.25</ele><time>2026-05-03T15:22:36Z</time></trkpt><trkpt lat="45.60825545631479" lon="8.59632942569906"><ele>245.0</ele><time>2026-05-03T15:22:37Z</time></trkpt><trkpt lat="45.608118508025036" lon="8.596376525855502"><ele>245.0</ele><time>2026-05-03T15:22:38Z</time></trkpt><trkpt lat="45.60799038659644" lon="8.596420823576722"><ele>245.0</ele><time>2026-05-03T15:22:39Z</time></trkpt><trkpt lat="45.607867506911994" lon="8.59646602261205"><ele>245.0</ele><time>2026-05-03T15:22:40Z</time></trkpt><trkpt lat="45.60775608837105" lon="8.596510999563105"><ele>245.0</ele><time>2026-05-03T15:22:41Z</time></trkpt><trkpt lat="45.60765601684134" lon="8.596551623141197"><ele>243.66666666666669</ele><time>2026-05-03T15:22:42Z</time></trkpt><trkpt lat="45.60757321310701" lon="8.596585555899793"><ele>242.33333333333334</ele><time>2026-05-03T15:22:42.999Z</time></trkpt><trkpt lat="45.60750279156969" lon="8.596615860555866"><ele>241.0</ele><time>2026-05-03T15:22:43.999Z</time></trkpt><trkpt lat="45.60744036372666" lon="8.596639901313388"><ele>239.66666666666669</ele><time>2026-05-03T15:22:44.999Z</time></trkpt><trkpt lat="45.6073604172164" lon="8.596638042787676"><ele>238.33333333333334</ele><time>2026-05-03T15:22:46.999Z</time></trkpt><trkpt lat="45.60725408310945" lon="8.596675209090057"><ele>237.0</ele><time>2026-05-03T15:22:48.999Z</time></trkpt><trkpt lat="45.60718791708748" lon="8.596729019914381"><ele>237.0</ele><time>2026-05-03T15:22:49.999Z</time></trkpt><trkpt lat="45.607157371587185" lon="8.596867134343384"><ele>237.0</ele><time>2026-05-03T15:22:50.999Z</time></trkpt><trkpt lat="45.60716489199712" lon="8.5970259747888"><ele>237.0</ele><time>2026-05-03T15:22:51.999Z</time></trkpt><trkpt lat="45.60719851424843" lon="8.597207323657164"><ele>237.0</ele><time>2026-05-03T15:22:52.999Z</time></trkpt><trkpt lat="45.60720713267579" lon="8.597392175415301"><ele>237.25</ele><time>2026-05-03T15:22:53.999Z</time></trkpt><trkpt lat="45.607194355957" lon="8.597584921421477"><ele>237.5</ele><time>2026-05-03T15:22:54.999Z</time></trkpt><trkpt lat="45.607166612986326" lon="8.59779121661896"><ele>237.75</ele><time>2026-05-03T15:22:55.999Z</time></trkpt><trkpt lat="45.607120875539685" lon="8.598003985555176"><ele>238.0</ele><time>2026-05-03T15:22:56.999Z</time></trkpt><trkpt lat="45.607057457552436" lon="8.598203064953596"><ele>237.66666666666666</ele><time>2026-05-03T15:22:57.999Z</time></trkpt><trkpt lat="45.60697882421822" lon="8.598408986672709"><ele>237.33333333333331</ele><time>2026-05-03T15:22:58.999Z</time></trkpt><trkpt lat="45.606904815085414" lon="8.59864242087496"><ele>237.0</ele><time>2026-05-03T15:22:59.999Z</time></trkpt><trkpt lat="45.60684803044676" lon="8.59889340998554"><ele>236.66666666666669</ele><time>2026-05-03T15:23:00.999Z</time></trkpt><trkpt lat="45.60679051578414" lon="8.599155413705786"><ele>236.33333333333334</ele><time>2026-05-03T15:23:01.999Z</time></trkpt><trkpt lat="45.60673824674293" lon="8.59939406966159"><ele>236.0</ele><time>2026-05-03T15:23:02.999Z</time></trkpt><trkpt lat="45.60668380861137" lon="8.599620875271931"><ele>235.66666666666669</ele><time>2026-05-03T15:23:03.999Z</time></trkpt><trkpt lat="45.60663741354425" lon="8.599828963178481"><ele>235.33333333333331</ele><time>2026-05-03T15:23:04.999Z</time></trkpt><trkpt lat="45.60658187400453" lon="8.600063882156059"><ele>235.0</ele><time>2026-05-03T15:23:05.999Z</time></trkpt><trkpt lat="45.606531950438054" lon="8.600289926745752"><ele>234.66666666666666</ele><time>2026-05-03T15:23:06.999Z</time></trkpt><trkpt lat="45.60648030286998" lon="8.600507893227885"><ele>234.33333333333331</ele><time>2026-05-03T15:23:07.999Z</time></trkpt><trkpt lat="45.60643443223421" lon="8.600714557863565"><ele>234.0</ele><time>2026-05-03T15:23:08.999Z</time></trkpt><trkpt lat="45.606385981692874" lon="8.600907028541142"><ele>234.0</ele><time>2026-05-03T15:23:09.999Z</time></trkpt><trkpt lat="45.60633002344443" lon="8.601115583257151"><ele>234.0</ele><time>2026-05-03T15:23:10.999Z</time></trkpt><trkpt lat="45.60627892504681" lon="8.601337298419514"><ele>234.0</ele><time>2026-05-03T15:23:11.999Z</time></trkpt><trkpt lat="45.60622856631718" lon="8.601563115910706"><ele>234.0</ele><time>2026-05-03T15:23:12.999Z</time></trkpt><trkpt lat="45.606172915870516" lon="8.60179846435581"><ele>234.0</ele><time>2026-05-03T15:23:13.999Z</time></trkpt><trkpt lat="45.60611668088233" lon="8.60202138363885"><ele>234.0</ele><time>2026-05-03T15:23:14.999Z</time></trkpt><trkpt lat="45.60606319382072" lon="8.60224405794353"><ele>233.66666666666669</ele><time>2026-05-03T15:23:15.999Z</time></trkpt><trkpt lat="45.60601946970159" lon="8.602469893840018"><ele>233.33333333333334</ele><time>2026-05-03T15:23:16.999Z</time></trkpt><trkpt lat="45.605951873475455" lon="8.602701477461366"><ele>233.0</ele><time>2026-05-03T15:23:17.999Z</time></trkpt><trkpt lat="45.60590936955015" lon="8.602943626917957"><ele>233.0</ele><time>2026-05-03T15:23:18.999Z</time></trkpt><trkpt lat="45.60584663647533" lon="8.60318301042444"><ele>233.0</ele><time>2026-05-03T15:23:19.999Z</time></trkpt><trkpt lat="45.6057861848987" lon="8.60343942731681"><ele>233.0</ele><time>2026-05-03T15:23:20.999Z</time></trkpt><trkpt lat="45.60572681476299" lon="8.603698913759308"><ele>232.0</ele><time>2026-05-03T15:23:21.999Z</time></trkpt><trkpt lat="45.60565770447039" lon="8.603975966732566"><ele>231.0</ele><time>2026-05-03T15:23:22.998Z</time></trkpt><trkpt lat="45.605590021804595" lon="8.604274731275206"><ele>230.0</ele><time>2026-05-03T15:23:23.998Z</time></trkpt><trkpt lat="45.60551718945822" lon="8.604585818054169"><ele>229.5</ele><time>2026-05-03T15:23:24.998Z</time></trkpt><trkpt lat="45.60543313965584" lon="8.604910915465975"><ele>229.0</ele><time>2026-05-03T15:23:25.998Z</time></trkpt><trkpt lat="45.60535294635712" lon="8.60524131823333"><ele>230.0</ele><time>2026-05-03T15:23:26.998Z</time></trkpt><trkpt lat="45.6052746236917" lon="8.605550746539794"><ele>231.0</ele><time>2026-05-03T15:23:27.998Z</time></trkpt><trkpt lat="45.60519781152622" lon="8.605849164615671"><ele>231.5</ele><time>2026-05-03T15:23:28.998Z</time></trkpt><trkpt lat="45.605121094978365" lon="8.606176342946394"><ele>232.0</ele><time>2026-05-03T15:23:29.998Z</time></trkpt><trkpt lat="45.605048502553785" lon="8.60651877327782"><ele>232.0</ele><time>2026-05-03T15:23:30.998Z</time></trkpt><trkpt lat="45.60497790762881" lon="8.60683142316303"><ele>232.0</ele><time>2026-05-03T15:23:31.998Z</time></trkpt><trkpt lat="45.60491723375607" lon="8.60710367992408"><ele>232.0</ele><time>2026-05-03T15:23:32.998Z</time></trkpt><trkpt lat="45.60485596286239" lon="8.607356132851132"><ele>232.0</ele><time>2026-05-03T15:23:33.998Z</time></trkpt><trkpt lat="45.60479580579647" lon="8.607596309389134"><ele>232.0</ele><time>2026-05-03T15:23:34.998Z</time></trkpt><trkpt lat="45.60474247627168" lon="8.607819476534086"><ele>232.0</ele><time>2026-05-03T15:23:35.998Z</time></trkpt><trkpt lat="45.60469536088678" lon="8.608014335642238"><ele>232.75</ele><time>2026-05-03T15:23:36.998Z</time></trkpt><trkpt lat="45.6046490100433" lon="8.608200981596317"><ele>233.5</ele><time>2026-05-03T15:23:37.998Z</time></trkpt><trkpt lat="45.604605669431514" lon="8.60838187787766"><ele>234.25</ele><time>2026-05-03T15:23:38.998Z</time></trkpt><trkpt lat="45.60456228658017" lon="8.608562304920596"><ele>235.0</ele><time>2026-05-03T15:23:39.998Z</time></trkpt><trkpt lat="45.60451965083532" lon="8.608745688289428"><ele>235.25</ele><time>2026-05-03T15:23:40.998Z</time></trkpt><trkpt lat="45.604479689716555" lon="8.608929426394313"><ele>235.5</ele><time>2026-05-03T15:23:41.998Z</time></trkpt><trkpt lat="45.604438606399086" lon="8.609115700644368"><ele>235.75</ele><time>2026-05-03T15:23:42.998Z</time></trkpt><trkpt lat="45.604390994967815" lon="8.609304203577722"><ele>236.0</ele><time>2026-05-03T15:23:43.998Z</time></trkpt><trkpt lat="45.6043406879138" lon="8.609496339433656"><ele>236.0</ele><time>2026-05-03T15:23:44.998Z</time></trkpt><trkpt lat="45.60429521434098" lon="8.609698419136098"><ele>236.0</ele><time>2026-05-03T15:23:45.998Z</time></trkpt><trkpt lat="45.604246444156445" lon="8.609891847254339"><ele>236.0</ele><time>2026-05-03T15:23:46.998Z</time></trkpt><trkpt lat="45.60419930300004" lon="8.610094857855056"><ele>236.0</ele><time>2026-05-03T15:23:47.998Z</time></trkpt><trkpt lat="45.60415288382673" lon="8.610309255779084"><ele>236.33333333333334</ele><time>2026-05-03T15:23:48.998Z</time></trkpt><trkpt lat="45.60410361320037" lon="8.610504034092523"><ele>236.66666666666669</ele><time>2026-05-03T15:23:49.998Z</time></trkpt><trkpt lat="45.604053001444825" lon="8.610718685881693"><ele>237.0</ele><time>2026-05-03T15:23:50.998Z</time></trkpt><trkpt lat="45.604005300762864" lon="8.61092770480808"><ele>237.0</ele><time>2026-05-03T15:23:51.998Z</time></trkpt><trkpt lat="45.60395524993408" lon="8.61113982097442"><ele>237.0</ele><time>2026-05-03T15:23:52.998Z</time></trkpt><trkpt lat="45.603904974299326" lon="8.61134337921229"><ele>237.0</ele><time>2026-05-03T15:23:53.998Z</time></trkpt><trkpt lat="45.60385404788294" lon="8.611547138922871"><ele>237.0</ele><time>2026-05-03T15:23:54.998Z</time></trkpt><trkpt lat="45.603800933555846" lon="8.611763393929428"><ele>237.0</ele><time>2026-05-03T15:23:55.998Z</time></trkpt><trkpt lat="45.603750829801605" lon="8.611980222653022"><ele>237.0</ele><time>2026-05-03T15:23:56.998Z</time></trkpt><trkpt lat="45.60370260444806" lon="8.612169821777405"><ele>236.75</ele><time>2026-05-03T15:23:57.998Z</time></trkpt><trkpt lat="45.60366322266605" lon="8.612359187250574"><ele>236.5</ele><time>2026-05-03T15:23:58.998Z</time></trkpt><trkpt lat="45.60361906291841" lon="8.612534900931177"><ele>236.25</ele><time>2026-05-03T15:23:59.998Z</time></trkpt><trkpt lat="45.60358489368745" lon="8.612708666948734"><ele>236.0</ele><time>2026-05-03T15:24:00.998Z</time></trkpt><trkpt lat="45.60355697011843" lon="8.612887053417136"><ele>236.0</ele><time>2026-05-03T15:24:01.998Z</time></trkpt><trkpt lat="45.60353855943519" lon="8.613069615112195"><ele>236.0</ele><time>2026-05-03T15:24:02.997Z</time></trkpt><trkpt lat="45.603525072512326" lon="8.613255624526742"><ele>236.0</ele><time>2026-05-03T15:24:03.997Z</time></trkpt><trkpt lat="45.603520042738246" lon="8.61345043609749"><ele>236.0</ele><time>2026-05-03T15:24:04.997Z</time></trkpt><trkpt lat="45.6035239037239" lon="8.613644277060047"><ele>235.75</ele><time>2026-05-03T15:24:05.997Z</time></trkpt><trkpt lat="45.603529030655764" lon="8.613826520710141"><ele>235.5</ele><time>2026-05-03T15:24:06.997Z</time></trkpt><trkpt lat="45.60353184056511" lon="8.614007933731564"><ele>235.25</ele><time>2026-05-03T15:24:07.997Z</time></trkpt><trkpt lat="45.603537996426226" lon="8.61418658451923"><ele>235.0</ele><time>2026-05-03T15:24:08.997Z</time></trkpt><trkpt lat="45.60353535474253" lon="8.614366634213772"><ele>235.0</ele><time>2026-05-03T15:24:09.997Z</time></trkpt><trkpt lat="45.60351821903872" lon="8.614534413269128"><ele>235.0</ele><time>2026-05-03T15:24:10.997Z</time></trkpt><trkpt lat="45.603489932642645" lon="8.614685765672832"><ele>235.0</ele><time>2026-05-03T15:24:11.997Z</time></trkpt><trkpt lat="45.60343826836222" lon="8.614832420760797"><ele>235.0</ele><time>2026-05-03T15:24:12.997Z</time></trkpt><trkpt lat="45.60337825789557" lon="8.614964652533882"><ele>235.0</ele><time>2026-05-03T15:24:13.997Z</time></trkpt><trkpt lat="45.60332970069657" lon="8.615099352988091"><ele>235.0</ele><time>2026-05-03T15:24:15Z</time></trkpt><trkpt lat="45.603301950205555" lon="8.615259045989355"><ele>235.0</ele><time>2026-05-03T15:24:16Z</time></trkpt><trkpt lat="45.60329615585677" lon="8.61542765425701"><ele>235.0</ele><time>2026-05-03T15:24:17Z</time></trkpt><trkpt lat="45.60330011262624" lon="8.61560753443561"><ele>234.75</ele><time>2026-05-03T15:24:18Z</time></trkpt><trkpt lat="45.60330335326792" lon="8.615791694754716"><ele>234.5</ele><time>2026-05-03T15:24:19Z</time></trkpt><trkpt lat="45.603303647815224" lon="8.615959228438413"><ele>234.25</ele><time>2026-05-03T15:24:20Z</time></trkpt><trkpt lat="45.603284657935355" lon="8.616115610966105"><ele>234.0</ele><time>2026-05-03T15:24:21Z</time></trkpt><trkpt lat="45.60323772991883" lon="8.616255020342278"><ele>233.25</ele><time>2026-05-03T15:24:22Z</time></trkpt><trkpt lat="45.60315272958873" lon="8.616371330464501"><ele>232.5</ele><time>2026-05-03T15:24:23Z</time></trkpt><trkpt lat="45.603049968131025" lon="8.61646780800746"><ele>231.75</ele><time>2026-05-03T15:24:24Z</time></trkpt><trkpt lat="45.60293788412151" lon="8.616555233422208"><ele>231.0</ele><time>2026-05-03T15:24:25Z</time></trkpt><trkpt lat="45.60283231926545" lon="8.616656285044623"><ele>231.25</ele><time>2026-05-03T15:24:26Z</time></trkpt><trkpt lat="45.60273714002371" lon="8.616779545815803"><ele>231.5</ele><time>2026-05-03T15:24:27Z</time></trkpt><trkpt lat="45.602642527038405" lon="8.616929507864246"><ele>231.75</ele><time>2026-05-03T15:24:28Z</time></trkpt><trkpt lat="45.60256096390068" lon="8.61710168506595"><ele>232.0</ele><time>2026-05-03T15:24:29Z</time></trkpt><trkpt lat="45.60248465330519" lon="8.617286168116243"><ele>231.5</ele><time>2026-05-03T15:24:30Z</time></trkpt><trkpt lat="45.60240245995053" lon="8.617466880147632"><ele>231.0</ele><time>2026-05-03T15:24:31Z</time></trkpt><trkpt lat="45.602319551647554" lon="8.61762798884091"><ele>230.5</ele><time>2026-05-03T15:24:32Z</time></trkpt><trkpt lat="45.60222921496861" lon="8.61778533360182"><ele>230.0</ele><time>2026-05-03T15:24:33Z</time></trkpt><trkpt lat="45.60213167425863" lon="8.617940098298842"><ele>229.75</ele><time>2026-05-03T15:24:34Z</time></trkpt><trkpt lat="45.602035475234246" lon="8.618094659150225"><ele>229.5</ele><time>2026-05-03T15:24:35Z</time></trkpt><trkpt lat="45.601944216778186" lon="8.618257080268087"><ele>229.25</ele><time>2026-05-03T15:24:36Z</time></trkpt><trkpt lat="45.60186409289964" lon="8.618428876146039"><ele>229.0</ele><time>2026-05-03T15:24:37Z</time></trkpt><trkpt lat="45.60180608708189" lon="8.618610834728369"><ele>229.25</ele><time>2026-05-03T15:24:38Z</time></trkpt><trkpt lat="45.601773197931365" lon="8.618808557305613"><ele>229.5</ele><time>2026-05-03T15:24:39Z</time></trkpt><trkpt lat="45.601762599195304" lon="8.619011267389725"><ele>229.75</ele><time>2026-05-03T15:24:40Z</time></trkpt><trkpt lat="45.60178478106244" lon="8.619214754777358"><ele>230.0</ele><time>2026-05-03T15:24:41Z</time></trkpt><trkpt lat="45.601824964300704" lon="8.619411392352955"><ele>230.0</ele><time>2026-05-03T15:24:42Z</time></trkpt><trkpt lat="45.601875490637035" lon="8.619605963686732"><ele>230.0</ele><time>2026-05-03T15:24:43Z</time></trkpt><trkpt lat="45.60191112146637" lon="8.619820340651701"><ele>230.0</ele><time>2026-05-03T15:24:44Z</time></trkpt><trkpt lat="45.601958501378284" lon="8.620023312666492"><ele>230.0</ele><time>2026-05-03T15:24:45Z</time></trkpt><trkpt lat="45.602009092657404" lon="8.620240212090327"><ele>230.0</ele><time>2026-05-03T15:24:46Z</time></trkpt><trkpt lat="45.602059573173676" lon="8.620457678407654"><ele>230.0</ele><time>2026-05-03T15:24:46.999Z</time></trkpt><trkpt lat="45.60211140407593" lon="8.620680962053132"><ele>230.0</ele><time>2026-05-03T15:24:47.999Z</time></trkpt><trkpt lat="45.60216445617395" lon="8.620909506549946"><ele>230.0</ele><time>2026-05-03T15:24:48.999Z</time></trkpt><trkpt lat="45.602218555782976" lon="8.62114256367218"><ele>230.0</ele><time>2026-05-03T15:24:49.999Z</time></trkpt><trkpt lat="45.602289386110876" lon="8.62137626217819"><ele>230.0</ele><time>2026-05-03T15:24:50.999Z</time></trkpt><trkpt lat="45.602341507052536" lon="8.621596971134549"><ele>230.0</ele><time>2026-05-03T15:24:51.999Z</time></trkpt><trkpt lat="45.60238951920466" lon="8.621801619033468"><ele>230.0</ele><time>2026-05-03T15:24:52.999Z</time></trkpt><trkpt lat="45.602429576037444" lon="8.62198368258915"><ele>230.0</ele><time>2026-05-03T15:24:53.999Z</time></trkpt><trkpt lat="45.60247734153781" lon="8.6221772355933"><ele>230.0</ele><time>2026-05-03T15:24:54.999Z</time></trkpt><trkpt lat="45.60251843551756" lon="8.62234470658123"><ele>230.2</ele><time>2026-05-03T15:24:55.999Z</time></trkpt><trkpt lat="45.60253896670362" lon="8.622505594614822"><ele>230.4</ele><time>2026-05-03T15:24:56.999Z</time></trkpt><trkpt lat="45.602586730924166" lon="8.622643241613135"><ele>230.60000000000002</ele><time>2026-05-03T15:24:57.999Z</time></trkpt><trkpt lat="45.6026147852071" lon="8.622779407563932"><ele>230.8</ele><time>2026-05-03T15:24:58.999Z</time></trkpt><trkpt lat="45.60264365036147" lon="8.62290494192578"><ele>231.0</ele><time>2026-05-03T15:24:59.999Z</time></trkpt><trkpt lat="45.6026732352971" lon="8.623022768117282"><ele>231.16666666666666</ele><time>2026-05-03T15:25:00.999Z</time></trkpt><trkpt lat="45.60269817717933" lon="8.623130857668112"><ele>231.33333333333331</ele><time>2026-05-03T15:25:01.999Z</time></trkpt><trkpt lat="45.60271292684881" lon="8.623222305990453"><ele>231.5</ele><time>2026-05-03T15:25:02.999Z</time></trkpt><trkpt lat="45.6027130668687" lon="8.623333829844126"><ele>231.66666666666666</ele><time>2026-05-03T15:25:04.999Z</time></trkpt><trkpt lat="45.60259821693486" lon="8.623434811951833"><ele>231.83333333333331</ele><time>2026-05-03T15:25:07.999Z</time></trkpt><trkpt lat="45.60253100353788" lon="8.623460541072737"><ele>232.0</ele><time>2026-05-03T15:25:08.999Z</time></trkpt><trkpt lat="45.602469396776335" lon="8.623493034323255"><ele>232.0</ele><time>2026-05-03T15:25:09.999Z</time></trkpt><trkpt lat="45.60238780576862" lon="8.623523971617049"><ele>232.0</ele><time>2026-05-03T15:25:10.999Z</time></trkpt><trkpt lat="45.60229650433527" lon="8.62356560302061"><ele>232.0</ele><time>2026-05-03T15:25:11.999Z</time></trkpt><trkpt lat="45.60220905055177" lon="8.623609396080392"><ele>232.0</ele><time>2026-05-03T15:25:12.999Z</time></trkpt><trkpt lat="45.60212448557482" lon="8.623650758871067"><ele>232.0</ele><time>2026-05-03T15:25:13.999Z</time></trkpt><trkpt lat="45.60202888921641" lon="8.623698054906237"><ele>232.0</ele><time>2026-05-03T15:25:14.999Z</time></trkpt><trkpt lat="45.601926105598466" lon="8.62374181903815"><ele>232.0</ele><time>2026-05-03T15:25:15.999Z</time></trkpt><trkpt lat="45.60183241990055" lon="8.623776248278373"><ele>232.0</ele><time>2026-05-03T15:25:16.999Z</time></trkpt><trkpt lat="45.60174826411165" lon="8.623810549622622"><ele>232.0</ele><time>2026-05-03T15:25:17.999Z</time></trkpt><trkpt lat="45.60167355724407" lon="8.623849814119398"><ele>232.0</ele><time>2026-05-03T15:25:18.999Z</time></trkpt><trkpt lat="45.6015811072901" lon="8.623914421520318"><ele>232.0</ele><time>2026-05-03T15:25:20.999Z</time></trkpt><trkpt lat="45.6016472131756" lon="8.624228931951551"><ele>232.0</ele><time>2026-05-03T15:25:23.999Z</time></trkpt><trkpt lat="45.601684635173285" lon="8.624420000921802"><ele>232.0</ele><time>2026-05-03T15:25:24.999Z</time></trkpt><trkpt lat="45.60172066249404" lon="8.624603786028143"><ele>232.0</ele><time>2026-05-03T15:25:25.998Z</time></trkpt><trkpt lat="45.60174428261724" lon="8.62477212718156"><ele>232.0</ele><time>2026-05-03T15:25:26.998Z</time></trkpt><trkpt lat="45.60178079675809" lon="8.624956600565561"><ele>232.0</ele><time>2026-05-03T15:25:27.998Z</time></trkpt><trkpt lat="45.601817683303956" lon="8.62512686993946"><ele>232.0</ele><time>2026-05-03T15:25:28.998Z</time></trkpt><trkpt lat="45.601847478699774" lon="8.625265930206622"><ele>232.0</ele><time>2026-05-03T15:25:29.998Z</time></trkpt><trkpt lat="45.60187032568219" lon="8.62536785190741"><ele>232.0</ele><time>2026-05-03T15:25:30.998Z</time></trkpt><trkpt lat="45.60186640127236" lon="8.625495116170006"><ele>232.0</ele><time>2026-05-03T15:25:32.998Z</time></trkpt><trkpt lat="45.60179828016394" lon="8.625527092695595"><ele>232.0</ele><time>2026-05-03T15:25:33.998Z</time></trkpt><trkpt lat="45.60169732908411" lon="8.625558218642453"><ele>232.0</ele><time>2026-05-03T15:25:34.998Z</time></trkpt><trkpt lat="45.60154010063915" lon="8.625602333710496"><ele>232.0</ele><time>2026-05-03T15:25:35.998Z</time></trkpt><trkpt lat="45.60139646362222" lon="8.625658195197055"><ele>232.0</ele><time>2026-05-03T15:25:36.998Z</time></trkpt><trkpt lat="45.60127065900656" lon="8.625718608658607"><ele>232.0</ele><time>2026-05-03T15:25:37.998Z</time></trkpt><trkpt lat="45.60112470626367" lon="8.625776947354206"><ele>232.0</ele><time>2026-05-03T15:25:38.998Z</time></trkpt><trkpt lat="45.60096492723237" lon="8.625850044969425"><ele>232.33333333333331</ele><time>2026-05-03T15:25:39.998Z</time></trkpt><trkpt lat="45.60080340780037" lon="8.625921056931727"><ele>232.66666666666669</ele><time>2026-05-03T15:25:40.998Z</time></trkpt><trkpt lat="45.60064641464673" lon="8.6259785471385"><ele>233.0</ele><time>2026-05-03T15:25:41.998Z</time></trkpt><trkpt lat="45.600499408957624" lon="8.626034932297816"><ele>233.0</ele><time>2026-05-03T15:25:42.998Z</time></trkpt><trkpt lat="45.60035644546712" lon="8.626087399002035"><ele>233.0</ele><time>2026-05-03T15:25:43.998Z</time></trkpt><trkpt lat="45.600221437674094" lon="8.626144299916511"><ele>233.0</ele><time>2026-05-03T15:25:44.998Z</time></trkpt><trkpt lat="45.60010192867879" lon="8.626203678111748"><ele>233.0</ele><time>2026-05-03T15:25:45.998Z</time></trkpt><trkpt lat="45.59998124973648" lon="8.626235314860313"><ele>233.00000000000003</ele><time>2026-05-03T15:25:46.998Z</time></trkpt><trkpt lat="45.599867780155556" lon="8.62624610648629"><ele>233.0</ele><time>2026-05-03T15:25:47.998Z</time></trkpt><trkpt lat="45.599764895680465" lon="8.626272319497605"><ele>233.0</ele><time>2026-05-03T15:25:48.998Z</time></trkpt><trkpt lat="45.59968004557575" lon="8.62631254787773"><ele>233.0</ele><time>2026-05-03T15:25:49.998Z</time></trkpt><trkpt lat="45.59961734491581" lon="8.626345032896532"><ele>233.00000000000003</ele><time>2026-05-03T15:25:50.998Z</time></trkpt><trkpt lat="45.59955962516262" lon="8.626411076229072"><ele>233.0</ele><time>2026-05-03T15:25:52.998Z</time></trkpt><trkpt lat="45.59958837108447" lon="8.626623839063432"><ele>233.0</ele><time>2026-05-03T15:25:54.998Z</time></trkpt><trkpt lat="45.59966006444246" lon="8.626812048216463"><ele>233.0</ele><time>2026-05-03T15:25:55.998Z</time></trkpt><trkpt lat="45.599703669517154" lon="8.626973295639763"><ele>233.0</ele><time>2026-05-03T15:25:56.998Z</time></trkpt><trkpt lat="45.59973376386892" lon="8.627150752348198"><ele>233.0</ele><time>2026-05-03T15:25:57.998Z</time></trkpt><trkpt lat="45.599760335926796" lon="8.62734011128289"><ele>233.25</ele><time>2026-05-03T15:25:58.998Z</time></trkpt><trkpt lat="45.59979591869435" lon="8.627532196945289"><ele>233.5</ele><time>2026-05-03T15:25:59.998Z</time></trkpt><trkpt lat="45.59983934166228" lon="8.627729324495244"><ele>233.75</ele><time>2026-05-03T15:26:00.998Z</time></trkpt><trkpt lat="45.599871648008495" lon="8.627919756033261"><ele>234.0</ele><time>2026-05-03T15:26:01.998Z</time></trkpt><trkpt lat="45.59988672271933" lon="8.628125375659222"><ele>234.66666666666669</ele><time>2026-05-03T15:26:02.998Z</time></trkpt><trkpt lat="45.5998710592283" lon="8.628347652172135"><ele>235.33333333333334</ele><time>2026-05-03T15:26:03.998Z</time></trkpt><trkpt lat="45.59984775703895" lon="8.62857917189945"><ele>236.0</ele><time>2026-05-03T15:26:04.998Z</time></trkpt><trkpt lat="45.59982257902443" lon="8.628836094091488"><ele>236.33333333333334</ele><time>2026-05-03T15:26:05.997Z</time></trkpt><trkpt lat="45.599795483682854" lon="8.629090007096561"><ele>236.66666666666669</ele><time>2026-05-03T15:26:06.997Z</time></trkpt><trkpt lat="45.59977097383232" lon="8.629322112900427"><ele>237.0</ele><time>2026-05-03T15:26:07.997Z</time></trkpt><trkpt lat="45.59974383300754" lon="8.62951732543858"><ele>237.0</ele><time>2026-05-03T15:26:08.997Z</time></trkpt><trkpt lat="45.59972146528522" lon="8.629714880516408"><ele>237.0</ele><time>2026-05-03T15:26:09.997Z</time></trkpt><trkpt lat="45.599702820367774" lon="8.6298936322454"><ele>237.0</ele><time>2026-05-03T15:26:10.997Z</time></trkpt><trkpt lat="45.59968581671759" lon="8.630070641720934"><ele>237.0</ele><time>2026-05-03T15:26:11.997Z</time></trkpt><trkpt lat="45.599670348304976" lon="8.630242318283946"><ele>236.75</ele><time>2026-05-03T15:26:12.997Z</time></trkpt><trkpt lat="45.599651368578684" lon="8.630411644553261"><ele>236.5</ele><time>2026-05-03T15:26:13.997Z</time></trkpt><trkpt lat="45.599629825793905" lon="8.630575141547851"><ele>236.25</ele><time>2026-05-03T15:26:14.997Z</time></trkpt><trkpt lat="45.599607949461046" lon="8.630740286526812"><ele>236.0</ele><time>2026-05-03T15:26:15.997Z</time></trkpt><trkpt lat="45.59958488847284" lon="8.630903047494991"><ele>236.0</ele><time>2026-05-03T15:26:16.997Z</time></trkpt><trkpt lat="45.59956530596399" lon="8.631069191301801"><ele>236.0</ele><time>2026-05-03T15:26:17.997Z</time></trkpt><trkpt lat="45.59954594538023" lon="8.631236622048275"><ele>236.0</ele><time>2026-05-03T15:26:18.997Z</time></trkpt><trkpt lat="45.599527117789215" lon="8.631409271884337"><ele>236.0</ele><time>2026-05-03T15:26:20Z</time></trkpt><trkpt lat="45.599499763636615" lon="8.63156639480207"><ele>236.00000000000003</ele><time>2026-05-03T15:26:21Z</time></trkpt><trkpt lat="45.59947517268853" lon="8.631715955721521"><ele>236.0</ele><time>2026-05-03T15:26:22Z</time></trkpt><trkpt lat="45.599465517685346" lon="8.631852823687435"><ele>236.0</ele><time>2026-05-03T15:26:23Z</time></trkpt><trkpt lat="45.59946387087767" lon="8.631942833179655"><ele>236.0</ele><time>2026-05-03T15:26:24Z</time></trkpt><trkpt lat="45.599480798046216" lon="8.632058600315393"><ele>236.00000000000003</ele><time>2026-05-03T15:26:26Z</time></trkpt><trkpt lat="45.59948699263498" lon="8.632161430481004"><ele>236.0</ele><time>2026-05-03T15:26:30Z</time></trkpt><trkpt lat="45.59950050024984" lon="8.632316011194613"><ele>236.16666666666669</ele><time>2026-05-03T15:26:33Z</time></trkpt><trkpt lat="45.59951346082518" lon="8.632419731990295"><ele>236.33333333333334</ele><time>2026-05-03T15:26:34Z</time></trkpt><trkpt lat="45.599518225764974" lon="8.632522486854276"><ele>236.5</ele><time>2026-05-03T15:26:35Z</time></trkpt><trkpt lat="45.59952487421905" lon="8.632619954189536"><ele>236.66666666666669</ele><time>2026-05-03T15:26:36Z</time></trkpt><trkpt lat="45.5995291033919" lon="8.632718222701822"><ele>236.83333333333334</ele><time>2026-05-03T15:26:37Z</time></trkpt><trkpt lat="45.599530817280076" lon="8.632810367439644"><ele>237.0</ele><time>2026-05-03T15:26:38Z</time></trkpt><trkpt lat="45.59950378412874" lon="8.633002787875904"><ele>237.0</ele><time>2026-05-03T15:26:40Z</time></trkpt><trkpt lat="45.59950581073924" lon="8.633102416142034"><ele>237.0</ele><time>2026-05-03T15:26:41Z</time></trkpt><trkpt lat="45.59947178020241" lon="8.633242423013586"><ele>237.0</ele><time>2026-05-03T15:26:43Z</time></trkpt><trkpt lat="45.59946868966033" lon="8.633384659456874"><ele>237.0</ele><time>2026-05-03T15:26:45Z</time></trkpt><trkpt lat="45.599485359922966" lon="8.633497967061448"><ele>237.0</ele><time>2026-05-03T15:26:46Z</time></trkpt><trkpt lat="45.599476864872805" lon="8.633634348797493"><ele>236.8</ele><time>2026-05-03T15:26:47Z</time></trkpt><trkpt lat="45.599477477289625" lon="8.633780160490218"><ele>236.6</ele><time>2026-05-03T15:26:48Z</time></trkpt><trkpt lat="45.59947837744989" lon="8.633922334087341"><ele>236.40000000000003</ele><time>2026-05-03T15:26:49Z</time></trkpt><trkpt lat="45.59947596925255" lon="8.634079456086443"><ele>236.20000000000002</ele><time>2026-05-03T15:26:49.999Z</time></trkpt><trkpt lat="45.59947761503046" lon="8.63422785776531"><ele>236.0</ele><time>2026-05-03T15:26:50.999Z</time></trkpt><trkpt lat="45.59947964259172" lon="8.634351532153532"><ele>236.16666666666669</ele><time>2026-05-03T15:26:51.999Z</time></trkpt><trkpt lat="45.5994785108101" lon="8.634471868036423"><ele>236.33333333333334</ele><time>2026-05-03T15:26:52.999Z</time></trkpt><trkpt lat="45.599477570867634" lon="8.634562830858062"><ele>236.5</ele><time>2026-05-03T15:26:53.999Z</time></trkpt><trkpt lat="45.59947869991709" lon="8.634686899874163"><ele>236.66666666666669</ele><time>2026-05-03T15:26:55.999Z</time></trkpt><trkpt lat="45.599426705281054" lon="8.634776021203892"><ele>236.83333333333334</ele><time>2026-05-03T15:26:57.999Z</time></trkpt><trkpt lat="45.599368411112636" lon="8.63481613866961"><ele>237.0</ele><time>2026-05-03T15:26:59.999Z</time></trkpt><trkpt lat="45.599380444377495" lon="8.634956342319132"><ele>237.0</ele><time>2026-05-03T15:27:01.999Z</time></trkpt><trkpt lat="45.599425811555726" lon="8.63505343145383"><ele>237.0</ele><time>2026-05-03T15:27:02.999Z</time></trkpt><trkpt lat="45.599459900808746" lon="8.635200681052112"><ele>237.0</ele><time>2026-05-03T15:27:04.999Z</time></trkpt><trkpt lat="45.599342916398896" lon="8.635322421552145"><ele>237.0</ele><time>2026-05-03T15:27:06.999Z</time></trkpt><trkpt lat="45.59926099479671" lon="8.635353545364902"><ele>237.0</ele><time>2026-05-03T15:27:07.999Z</time></trkpt><trkpt lat="45.599172449722836" lon="8.635404976189083"><ele>237.66666666666666</ele><time>2026-05-03T15:27:08.999Z</time></trkpt><trkpt lat="45.5990904563275" lon="8.635464576136197"><ele>238.33333333333331</ele><time>2026-05-03T15:27:09.999Z</time></trkpt><trkpt lat="45.59901340091171" lon="8.635514391310982"><ele>239.0</ele><time>2026-05-03T15:27:10.999Z</time></trkpt><trkpt lat="45.59894237028063" lon="8.635563499556284"><ele>239.66666666666666</ele><time>2026-05-03T15:27:11.999Z</time></trkpt><trkpt lat="45.59888303867542" lon="8.635612715291995"><ele>240.33333333333331</ele><time>2026-05-03T15:27:12.999Z</time></trkpt><trkpt lat="45.598816591164145" lon="8.63562458336842"><ele>241.0</ele><time>2026-05-03T15:27:13.999Z</time></trkpt><trkpt lat="45.59875070011234" lon="8.635653516890397"><ele>240.99999999999997</ele><time>2026-05-03T15:27:14.999Z</time></trkpt><trkpt lat="45.59867482726276" lon="8.635684054183262"><ele>241.0</ele><time>2026-05-03T15:27:15.999Z</time></trkpt><trkpt lat="45.598591052034784" lon="8.635714234954087"><ele>241.0</ele><time>2026-05-03T15:27:16.999Z</time></trkpt><trkpt lat="45.598518149360174" lon="8.635714650759587"><ele>241.0</ele><time>2026-05-03T15:27:17.999Z</time></trkpt><trkpt lat="45.59840436859919" lon="8.635711394097573"><ele>240.99999999999997</ele><time>2026-05-03T15:27:19.999Z</time></trkpt><trkpt lat="45.59833843575428" lon="8.635688613945288"><ele>241.0</ele><time>2026-05-03T15:27:21.999Z</time></trkpt><trkpt lat="45.598271965669504" lon="8.635669999457724"><ele>241.0</ele><time>2026-05-03T15:27:23.999Z</time></trkpt><trkpt lat="45.59830196388519" lon="8.635870511812016"><ele>241.0</ele><time>2026-05-03T15:29:12.999Z</time></trkpt><trkpt lat="45.59832722250742" lon="8.636016543486582"><ele>241.0</ele><time>2026-05-03T15:29:13.999Z</time></trkpt><trkpt lat="45.59835117843578" lon="8.63615751731797"><ele>241.0</ele><time>2026-05-03T15:29:14.999Z</time></trkpt><trkpt lat="45.59837078720914" lon="8.636328528676788"><ele>241.33333333333331</ele><time>2026-05-03T15:29:15.999Z</time></trkpt><trkpt lat="45.59837579408971" lon="8.636501912668114"><ele>241.66666666666666</ele><time>2026-05-03T15:29:16.999Z</time></trkpt><trkpt lat="45.598402384219014" lon="8.63662385361699"><ele>242.0</ele><time>2026-05-03T15:29:17.999Z</time></trkpt><trkpt lat="45.59839891577909" lon="8.636728138721821"><ele>242.33333333333331</ele><time>2026-05-03T15:29:18.999Z</time></trkpt><trkpt lat="45.598410356230715" lon="8.636840073797755"><ele>242.66666666666666</ele><time>2026-05-03T15:29:21.999Z</time></trkpt><trkpt lat="45.5984202355226" lon="8.636931656382599"><ele>243.0</ele><time>2026-05-03T15:29:22.999Z</time></trkpt><trkpt lat="45.598433118358244" lon="8.63705116624892"><ele>243.0</ele><time>2026-05-03T15:29:23.999Z</time></trkpt><trkpt lat="45.59844611526459" lon="8.637174734333708"><ele>243.0</ele><time>2026-05-03T15:29:24.999Z</time></trkpt><trkpt lat="45.59845774889843" lon="8.637287201060877"><ele>243.0</ele><time>2026-05-03T15:29:25.999Z</time></trkpt><trkpt lat="45.598467709053" lon="8.637383489605337"><ele>243.0</ele><time>2026-05-03T15:29:26.999Z</time></trkpt><trkpt lat="45.59848090095343" lon="8.637511020670114"><ele>243.0</ele><time>2026-05-03T15:29:28.999Z</time></trkpt><trkpt lat="45.598405812612626" lon="8.637626445606385"><ele>243.0</ele><time>2026-05-03T15:29:31.999Z</time></trkpt><trkpt lat="45.59830147982066" lon="8.637639261695398"><ele>243.0</ele><time>2026-05-03T15:29:32.999Z</time></trkpt><trkpt lat="45.598156403135675" lon="8.637674055271507"><ele>243.0</ele><time>2026-05-03T15:29:33.998Z</time></trkpt><trkpt lat="45.59803824458633" lon="8.637706553948858"><ele>243.0</ele><time>2026-05-03T15:29:34.998Z</time></trkpt><trkpt lat="45.59790215297057" lon="8.637747432854857"><ele>243.0</ele><time>2026-05-03T15:29:35.998Z</time></trkpt><trkpt lat="45.597779578436665" lon="8.63779516605183"><ele>242.8</ele><time>2026-05-03T15:29:36.998Z</time></trkpt><trkpt lat="45.597674357308236" lon="8.637821721569034"><ele>242.60000000000002</ele><time>2026-05-03T15:29:37.998Z</time></trkpt><trkpt lat="45.597566637727056" lon="8.637851409534514"><ele>242.39999999999998</ele><time>2026-05-03T15:29:38.998Z</time></trkpt><trkpt lat="45.59746920599855" lon="8.637887398792204"><ele>242.2</ele><time>2026-05-03T15:29:39.998Z</time></trkpt><trkpt lat="45.59737244945596" lon="8.637897470444129"><ele>242.0</ele><time>2026-05-03T15:29:40.998Z</time></trkpt><trkpt lat="45.597289492422746" lon="8.637932439682091"><ele>242.00000000000003</ele><time>2026-05-03T15:29:41.998Z</time></trkpt><trkpt lat="45.597198654096495" lon="8.637969133565221"><ele>242.0</ele><time>2026-05-03T15:29:42.998Z</time></trkpt><trkpt lat="45.59712213788831" lon="8.6379950995906"><ele>242.0</ele><time>2026-05-03T15:29:43.998Z</time></trkpt><trkpt lat="45.597049479143784" lon="8.638021799374993"><ele>242.0</ele><time>2026-05-03T15:29:44.998Z</time></trkpt><trkpt lat="45.596977931733264" lon="8.638029762512485"><ele>242.00000000000003</ele><time>2026-05-03T15:29:45.998Z</time></trkpt><trkpt lat="45.59687881712229" lon="8.63806820907491"><ele>242.0</ele><time>2026-05-03T15:29:47.998Z</time></trkpt><trkpt lat="45.59678375213385" lon="8.638073964809408"><ele>241.66666666666669</ele><time>2026-05-03T15:29:49.998Z</time></trkpt><trkpt lat="45.59672023580851" lon="8.638129408267902"><ele>241.33333333333334</ele><time>2026-05-03T15:29:52.998Z</time></trkpt><trkpt lat="45.59662545528619" lon="8.638143843852378"><ele>241.0</ele><time>2026-05-03T15:29:58.998Z</time></trkpt><trkpt lat="45.596702089163365" lon="8.638144357306755"><ele>240.66666666666669</ele><time>2026-05-03T15:30:04.998Z</time></trkpt><trkpt lat="45.596811586224035" lon="8.638141266405325"><ele>240.33333333333334</ele><time>2026-05-03T15:30:07.998Z</time></trkpt><trkpt lat="45.59689488900179" lon="8.63812665384653"><ele>240.0</ele><time>2026-05-03T15:30:09.998Z</time></trkpt><trkpt lat="45.59679985519537" lon="8.638258891958827"><ele>240.0</ele><time>2026-05-03T15:30:10.998Z</time></trkpt><trkpt lat="45.596808643470325" lon="8.63836086547987"><ele>240.0</ele><time>2026-05-03T15:30:12.998Z</time></trkpt><trkpt lat="45.59713251381595" lon="8.6385847295619"><ele>240.0</ele><time>2026-05-03T15:30:14.997Z</time></trkpt><trkpt lat="45.597167857211375" lon="8.638493875675008"><ele>242.0</ele><time>2026-05-03T15:30:15.997Z</time></trkpt><trkpt lat="45.59726991405568" lon="8.638495826433825"><ele>242.0</ele><time>2026-05-03T15:31:55.998Z</time></trkpt><trkpt lat="45.597268912032035" lon="8.638324237506964"><ele>242.0</ele><time>2026-05-03T15:33:38.998Z</time></trkpt><trkpt lat="45.597278946785366" lon="8.638228850174471"><ele>242.0</ele><time>2026-05-03T15:36:02.998Z</time></trkpt></trkseg></trk></gpx>